<?xml version='1.0' encoding='UTF-8'?><gpx version="1.1" creator="JPX - https://github.com/jenetics/jpx" xmlns="http://www.topografix.com/GPX/1/1"><trk><trkseg><trkpt lat="45.180716539569744" lon="8.474797958104999"><ele>109.0</ele><time>2026-04-04T12:01:19Z</time></trkpt><trkpt lat="45.180778410589554" lon="8.474816605089435"><ele>109.0</ele><time>2026-04-04T12:02:23.001Z</time></trkpt><trkpt lat="45.18077027307411" lon="8.474913548992866"><ele>109.0</ele><time>2026-04-04T12:03:56.999Z</time></trkpt><trkpt lat="45.18077206921619" lon="8.47502017161211"><ele>109.0</ele><time>2026-04-04T12:04:02.999Z</time></trkpt><trkpt lat="45.1806576758522" lon="8.475037384114708"><ele>109.0</ele><time>2026-04-04T12:04:04.999Z</time></trkpt><trkpt lat="45.180522214218776" lon="8.475025290909036"><ele>109.25</ele><time>2026-04-04T12:04:06.999Z</time></trkpt><trkpt lat="45.1804506123008" lon="8.475034582829169"><ele>109.5</ele><time>2026-04-04T12:04:07.999Z</time></trkpt><trkpt lat="45.18038156341787" lon="8.47500964489411"><ele>109.75</ele><time>2026-04-04T12:04:08.999Z</time></trkpt><trkpt lat="45.18027019914246" lon="8.475021867380047"><ele>110.0</ele><time>2026-04-04T12:04:10.999Z</time></trkpt><trkpt lat="45.179834136924725" lon="8.475004236691316"><ele>110.25</ele><time>2026-04-04T12:04:13.999Z</time></trkpt><trkpt lat="45.179704632133905" lon="8.47499979975566"><ele>110.5</ele><time>2026-04-04T12:04:14.999Z</time></trkpt><trkpt lat="45.17956735607524" lon="8.474998644259186"><ele>110.75</ele><time>2026-04-04T12:04:15.999Z</time></trkpt><trkpt lat="45.17942227972252" lon="8.474998729388632"><ele>111.0</ele><time>2026-04-04T12:04:16.999Z</time></trkpt><trkpt lat="45.17928802729737" lon="8.474994521411809"><ele>111.0</ele><time>2026-04-04T12:04:17.999Z</time></trkpt><trkpt lat="45.17915628971407" lon="8.474992017829479"><ele>111.0</ele><time>2026-04-04T12:04:19Z</time></trkpt><trkpt lat="45.17902510753795" lon="8.474987873504771"><ele>111.0</ele><time>2026-04-04T12:04:20.001Z</time></trkpt><trkpt lat="45.17888819522878" lon="8.474986935864294"><ele>111.0</ele><time>2026-04-04T12:04:21Z</time></trkpt><trkpt lat="45.178757052784185" lon="8.474966089817926"><ele>110.83333333333333</ele><time>2026-04-04T12:04:22Z</time></trkpt><trkpt lat="45.17864016336465" lon="8.474964132358442"><ele>110.66666666666666</ele><time>2026-04-04T12:04:23Z</time></trkpt><trkpt lat="45.178548570688804" lon="8.47496315955911"><ele>110.5</ele><time>2026-04-04T12:04:24Z</time></trkpt><trkpt lat="45.17847642861989" lon="8.474972459116568"><ele>110.33333333333333</ele><time>2026-04-04T12:04:25Z</time></trkpt><trkpt lat="45.178401112501476" lon="8.474973162234573"><ele>110.16666666666666</ele><time>2026-04-04T12:04:27Z</time></trkpt><trkpt lat="45.17832387330471" lon="8.474954523529753"><ele>110.0</ele><time>2026-04-04T12:04:29Z</time></trkpt><trkpt lat="45.178277144022836" lon="8.474880492648346"><ele>110.0</ele><time>2026-04-04T12:04:30Z</time></trkpt><trkpt lat="45.17823707391108" lon="8.47475390478298"><ele>110.0</ele><time>2026-04-04T12:04:31Z</time></trkpt><trkpt lat="45.17819624591049" lon="8.474625499290108"><ele>110.0</ele><time>2026-04-04T12:04:32Z</time></trkpt><trkpt lat="45.1781381177142" lon="8.474490517515955"><ele>110.0</ele><time>2026-04-04T12:04:33Z</time></trkpt><trkpt lat="45.17806908157506" lon="8.474346345534089"><ele>110.0</ele><time>2026-04-04T12:04:34Z</time></trkpt><trkpt lat="45.17799335769112" lon="8.474186778308416"><ele>109.75</ele><time>2026-04-04T12:04:35Z</time></trkpt><trkpt lat="45.17791607326878" lon="8.474021009265268"><ele>109.5</ele><time>2026-04-04T12:04:36Z</time></trkpt><trkpt lat="45.177843858171116" lon="8.473857553115279"><ele>109.25</ele><time>2026-04-04T12:04:37Z</time></trkpt><trkpt lat="45.17778898613443" lon="8.473702079447474"><ele>109.0</ele><time>2026-04-04T12:04:38Z</time></trkpt><trkpt lat="45.17777351173788" lon="8.473527644569723"><ele>109.0</ele><time>2026-04-04T12:04:39Z</time></trkpt><trkpt lat="45.177778246082454" lon="8.473334967678715"><ele>109.0</ele><time>2026-04-04T12:04:40Z</time></trkpt><trkpt lat="45.17775981893605" lon="8.473122447445757"><ele>109.0</ele><time>2026-04-04T12:04:41Z</time></trkpt><trkpt lat="45.17776176518741" lon="8.472902165829932"><ele>109.0</ele><time>2026-04-04T12:04:42Z</time></trkpt><trkpt lat="45.17773855257909" lon="8.472687032850368"><ele>109.5</ele><time>2026-04-04T12:04:43Z</time></trkpt><trkpt lat="45.17770941197265" lon="8.472480540058498"><ele>110.0</ele><time>2026-04-04T12:04:44Z</time></trkpt><trkpt lat="45.17765122676274" lon="8.472311758662682"><ele>110.5</ele><time>2026-04-04T12:04:45Z</time></trkpt><trkpt lat="45.17758709955003" lon="8.472201465380923"><ele>111.0</ele><time>2026-04-04T12:04:46Z</time></trkpt><trkpt lat="45.17755497436314" lon="8.472113300643176"><ele>110.5</ele><time>2026-04-04T12:04:59Z</time></trkpt><trkpt lat="45.177517213134564" lon="8.471965776095425"><ele>110.0</ele><time>2026-04-04T12:05:01Z</time></trkpt><trkpt lat="45.177366295531215" lon="8.471959815302297"><ele>109.5</ele><time>2026-04-04T12:05:02Z</time></trkpt><trkpt lat="45.177254039100184" lon="8.471941785629747"><ele>109.0</ele><time>2026-04-04T12:05:03Z</time></trkpt><trkpt lat="45.17713337192265" lon="8.471923736355432"><ele>108.75</ele><time>2026-04-04T12:05:04Z</time></trkpt><trkpt lat="45.17699798673123" lon="8.471898022346894"><ele>108.5</ele><time>2026-04-04T12:05:05Z</time></trkpt><trkpt lat="45.176854716129995" lon="8.471869266784148"><ele>108.25</ele><time>2026-04-04T12:05:06Z</time></trkpt><trkpt lat="45.17670048459511" lon="8.471835265571352"><ele>108.0</ele><time>2026-04-04T12:05:07Z</time></trkpt><trkpt lat="45.176539900816856" lon="8.471803633759823"><ele>107.66666666666666</ele><time>2026-04-04T12:05:08Z</time></trkpt><trkpt lat="45.17637392443092" lon="8.471774175800723"><ele>107.33333333333333</ele><time>2026-04-04T12:05:09Z</time></trkpt><trkpt lat="45.17620324021043" lon="8.471743320717323"><ele>107.0</ele><time>2026-04-04T12:05:10Z</time></trkpt><trkpt lat="45.17602609367813" lon="8.471708883061183"><ele>107.0</ele><time>2026-04-04T12:05:11Z</time></trkpt><trkpt lat="45.17584476639367" lon="8.471673869602032"><ele>107.0</ele><time>2026-04-04T12:05:12Z</time></trkpt><trkpt lat="45.175660721399915" lon="8.471635505150418"><ele>107.0</ele><time>2026-04-04T12:05:13Z</time></trkpt><trkpt lat="45.17548029367636" lon="8.471598656736253"><ele>107.33333333333333</ele><time>2026-04-04T12:05:14Z</time></trkpt><trkpt lat="45.17530855031939" lon="8.471564788218386"><ele>107.66666666666666</ele><time>2026-04-04T12:05:15Z</time></trkpt><trkpt lat="45.175128886182314" lon="8.471526906691043"><ele>108.0</ele><time>2026-04-04T12:05:16Z</time></trkpt><trkpt lat="45.17495582207267" lon="8.471493232505724"><ele>108.33333333333334</ele><time>2026-04-04T12:05:17Z</time></trkpt><trkpt lat="45.174776125131096" lon="8.471459415512571"><ele>108.66666666666667</ele><time>2026-04-04T12:05:18Z</time></trkpt><trkpt lat="45.17458954068203" lon="8.471427869771157"><ele>109.0</ele><time>2026-04-04T12:05:19Z</time></trkpt><trkpt lat="45.17441157660749" lon="8.471394644360203"><ele>109.0</ele><time>2026-04-04T12:05:20Z</time></trkpt><trkpt lat="45.17424581149537" lon="8.471361201458453"><ele>109.0</ele><time>2026-04-04T12:05:21Z</time></trkpt><trkpt lat="45.174070143239035" lon="8.471325997738756"><ele>109.0</ele><time>2026-04-04T12:05:22Z</time></trkpt><trkpt lat="45.17388671119254" lon="8.471291845925464"><ele>108.33333333333334</ele><time>2026-04-04T12:05:23Z</time></trkpt><trkpt lat="45.173712216035554" lon="8.47125987826558"><ele>107.66666666666666</ele><time>2026-04-04T12:05:24Z</time></trkpt><trkpt lat="45.17355689587433" lon="8.471230107693868"><ele>107.0</ele><time>2026-04-04T12:05:25Z</time></trkpt><trkpt lat="45.173407393002215" lon="8.471200653646822"><ele>107.0</ele><time>2026-04-04T12:05:26Z</time></trkpt><trkpt lat="45.1732521627758" lon="8.471173460839609"><ele>107.0</ele><time>2026-04-04T12:05:27Z</time></trkpt><trkpt lat="45.17309554522873" lon="8.47114480422757"><ele>107.0</ele><time>2026-04-04T12:05:28Z</time></trkpt><trkpt lat="45.172937080902756" lon="8.471109404266379"><ele>107.66666666666666</ele><time>2026-04-04T12:05:29Z</time></trkpt><trkpt lat="45.17278646594208" lon="8.47106380184389"><ele>108.33333333333334</ele><time>2026-04-04T12:05:30Z</time></trkpt><trkpt lat="45.17263581803773" lon="8.471007954439965"><ele>109.0</ele><time>2026-04-04T12:05:31Z</time></trkpt><trkpt lat="45.17248147408418" lon="8.470936041020929"><ele>109.0</ele><time>2026-04-04T12:05:32Z</time></trkpt><trkpt lat="45.17233632678594" lon="8.470853188352825"><ele>109.0</ele><time>2026-04-04T12:05:33Z</time></trkpt><trkpt lat="45.17218933076618" lon="8.4707587850622"><ele>109.0</ele><time>2026-04-04T12:05:34Z</time></trkpt><trkpt lat="45.17205357197838" lon="8.470658407482667"><ele>109.0</ele><time>2026-04-04T12:05:35Z</time></trkpt><trkpt lat="45.17192068539001" lon="8.470547113734177"><ele>109.0</ele><time>2026-04-04T12:05:36Z</time></trkpt><trkpt lat="45.171798929653015" lon="8.470428796333184"><ele>109.0</ele><time>2026-04-04T12:05:37Z</time></trkpt><trkpt lat="45.1716774596774" lon="8.470296522847216"><ele>109.0</ele><time>2026-04-04T12:05:38Z</time></trkpt><trkpt lat="45.17156276340977" lon="8.470153926186018"><ele>109.0</ele><time>2026-04-04T12:05:39Z</time></trkpt><trkpt lat="45.171457073956226" lon="8.470003759106557"><ele>109.0</ele><time>2026-04-04T12:05:40Z</time></trkpt><trkpt lat="45.17134808912668" lon="8.469841945929492"><ele>108.33333333333334</ele><time>2026-04-04T12:05:41Z</time></trkpt><trkpt lat="45.1712356607655" lon="8.469672882865627"><ele>107.66666666666666</ele><time>2026-04-04T12:05:41.999Z</time></trkpt><trkpt lat="45.17112848906075" lon="8.469511548650063"><ele>107.0</ele><time>2026-04-04T12:05:42.999Z</time></trkpt><trkpt lat="45.1710239607579" lon="8.469353042722055"><ele>107.0</ele><time>2026-04-04T12:05:43.999Z</time></trkpt><trkpt lat="45.17091491529862" lon="8.469186160251935"><ele>107.0</ele><time>2026-04-04T12:05:44.999Z</time></trkpt><trkpt lat="45.170800910085454" lon="8.469015821196292"><ele>107.0</ele><time>2026-04-04T12:05:45.999Z</time></trkpt><trkpt lat="45.1706855417478" lon="8.468844052802172"><ele>108.0</ele><time>2026-04-04T12:05:46.999Z</time></trkpt><trkpt lat="45.17057407544741" lon="8.468677592182773"><ele>109.0</ele><time>2026-04-04T12:05:47.999Z</time></trkpt><trkpt lat="45.17046825273884" lon="8.468517350032956"><ele>110.0</ele><time>2026-04-04T12:05:48.999Z</time></trkpt><trkpt lat="45.17036915237849" lon="8.468363253951498"><ele>110.0</ele><time>2026-04-04T12:05:49.999Z</time></trkpt><trkpt lat="45.17026375770278" lon="8.468203058336305"><ele>110.0</ele><time>2026-04-04T12:05:50.999Z</time></trkpt><trkpt lat="45.17014721191996" lon="8.468029446564394"><ele>110.0</ele><time>2026-04-04T12:05:51.999Z</time></trkpt><trkpt lat="45.17002870136142" lon="8.467847887270272"><ele>110.0</ele><time>2026-04-04T12:05:52.999Z</time></trkpt><trkpt lat="45.16991353422256" lon="8.467677093731693"><ele>110.0</ele><time>2026-04-04T12:05:53.999Z</time></trkpt><trkpt lat="45.16980724310509" lon="8.467514170757765"><ele>110.0</ele><time>2026-04-04T12:05:54.999Z</time></trkpt><trkpt lat="45.16969921470383" lon="8.46734641866688"><ele>110.0</ele><time>2026-04-04T12:05:55.999Z</time></trkpt><trkpt lat="45.169587637368586" lon="8.467178929576143"><ele>110.0</ele><time>2026-04-04T12:05:56.999Z</time></trkpt><trkpt lat="45.16948014521794" lon="8.467018255472707"><ele>110.0</ele><time>2026-04-04T12:05:57.999Z</time></trkpt><trkpt lat="45.16937524253064" lon="8.466859329142325"><ele>110.0</ele><time>2026-04-04T12:05:58.999Z</time></trkpt><trkpt lat="45.16926954657416" lon="8.466694985178622"><ele>110.0</ele><time>2026-04-04T12:05:59.999Z</time></trkpt><trkpt lat="45.169157939962524" lon="8.466522846107933"><ele>110.0</ele><time>2026-04-04T12:06:00.999Z</time></trkpt><trkpt lat="45.16904297204096" lon="8.466349618359287"><ele>110.33333333333333</ele><time>2026-04-04T12:06:01.999Z</time></trkpt><trkpt lat="45.16892989119535" lon="8.46617940108564"><ele>110.66666666666666</ele><time>2026-04-04T12:06:02.999Z</time></trkpt><trkpt lat="45.16881905721739" lon="8.466010761638264"><ele>111.0</ele><time>2026-04-04T12:06:03.999Z</time></trkpt><trkpt lat="45.16871176666334" lon="8.465844697617028"><ele>111.0</ele><time>2026-04-04T12:06:04.999Z</time></trkpt><trkpt lat="45.168597758697295" lon="8.465670936619604"><ele>111.0</ele><time>2026-04-04T12:06:05.999Z</time></trkpt><trkpt lat="45.16848362728172" lon="8.465500121343913"><ele>111.0</ele><time>2026-04-04T12:06:06.999Z</time></trkpt><trkpt lat="45.16837906306082" lon="8.465339505037852"><ele>111.0</ele><time>2026-04-04T12:06:07.999Z</time></trkpt><trkpt lat="45.16828139886136" lon="8.465191491402862"><ele>111.0</ele><time>2026-04-04T12:06:08.999Z</time></trkpt><trkpt lat="45.168195669380154" lon="8.465057505742504"><ele>111.0</ele><time>2026-04-04T12:06:09.999Z</time></trkpt><trkpt lat="45.16811558800181" lon="8.464929926847478"><ele>111.0</ele><time>2026-04-04T12:06:10.999Z</time></trkpt><trkpt lat="45.168043711412516" lon="8.464804938994618"><ele>110.8</ele><time>2026-04-04T12:06:11.999Z</time></trkpt><trkpt lat="45.16797814738539" lon="8.464682471820733"><ele>110.6</ele><time>2026-04-04T12:06:12.999Z</time></trkpt><trkpt lat="45.16792130529697" lon="8.46456113876466"><ele>110.4</ele><time>2026-04-04T12:06:13.999Z</time></trkpt><trkpt lat="45.16786890705676" lon="8.464427015265159"><ele>110.2</ele><time>2026-04-04T12:06:14.999Z</time></trkpt><trkpt lat="45.16781728808966" lon="8.464297092213478"><ele>110.0</ele><time>2026-04-04T12:06:15.999Z</time></trkpt><trkpt lat="45.167751469967016" lon="8.464182220911265"><ele>109.5</ele><time>2026-04-04T12:06:16.999Z</time></trkpt><trkpt lat="45.167653679044946" lon="8.464095833701"><ele>109.0</ele><time>2026-04-04T12:06:17.999Z</time></trkpt><trkpt lat="45.16753440865245" lon="8.464004620629927"><ele>108.5</ele><time>2026-04-04T12:06:18.999Z</time></trkpt><trkpt lat="45.16741329678622" lon="8.463892279477472"><ele>108.0</ele><time>2026-04-04T12:06:19.999Z</time></trkpt><trkpt lat="45.1673070063322" lon="8.463733933496073"><ele>109.0</ele><time>2026-04-04T12:06:20.999Z</time></trkpt><trkpt lat="45.167213588714326" lon="8.463577221531569"><ele>110.0</ele><time>2026-04-04T12:06:21.999Z</time></trkpt><trkpt lat="45.16712741211759" lon="8.463438031244872"><ele>111.0</ele><time>2026-04-04T12:06:22.999Z</time></trkpt><trkpt lat="45.16704016271185" lon="8.463312333757521"><ele>112.0</ele><time>2026-04-04T12:06:23.999Z</time></trkpt><trkpt lat="45.166945307119164" lon="8.463174784967809"><ele>112.0</ele><time>2026-04-04T12:06:25Z</time></trkpt><trkpt lat="45.16684951718394" lon="8.463037881283784"><ele>112.0</ele><time>2026-04-04T12:06:26Z</time></trkpt><trkpt lat="45.16674547877577" lon="8.462895418620223"><ele>112.0</ele><time>2026-04-04T12:06:27Z</time></trkpt><trkpt lat="45.16662597576583" lon="8.462754920546974"><ele>112.0</ele><time>2026-04-04T12:06:28Z</time></trkpt><trkpt lat="45.16649415876839" lon="8.462598152474419"><ele>111.33333333333334</ele><time>2026-04-04T12:06:29Z</time></trkpt><trkpt lat="45.16634102137182" lon="8.462453802793156"><ele>110.66666666666666</ele><time>2026-04-04T12:06:30Z</time></trkpt><trkpt lat="45.166170396170706" lon="8.462317312980359"><ele>110.0</ele><time>2026-04-04T12:06:31Z</time></trkpt><trkpt lat="45.16598833287153" lon="8.462214369642883"><ele>109.66666666666666</ele><time>2026-04-04T12:06:32Z</time></trkpt><trkpt lat="45.16580667127281" lon="8.462087407712856"><ele>109.33333333333334</ele><time>2026-04-04T12:06:33Z</time></trkpt><trkpt lat="45.16561728011557" lon="8.461962718561162"><ele>109.0</ele><time>2026-04-04T12:06:34Z</time></trkpt><trkpt lat="45.16542392498565" lon="8.461834796991816"><ele>109.0</ele><time>2026-04-04T12:06:35Z</time></trkpt><trkpt lat="45.165241486966444" lon="8.461706873745428"><ele>109.0</ele><time>2026-04-04T12:06:36Z</time></trkpt><trkpt lat="45.165059580771285" lon="8.461576003716702"><ele>109.0</ele><time>2026-04-04T12:06:37Z</time></trkpt><trkpt lat="45.164874644961856" lon="8.461445051612154"><ele>108.66666666666667</ele><time>2026-04-04T12:06:38Z</time></trkpt><trkpt lat="45.16468391865575" lon="8.46131250654927"><ele>108.33333333333334</ele><time>2026-04-04T12:06:39Z</time></trkpt><trkpt lat="45.164496751333516" lon="8.461185473283651"><ele>108.0</ele><time>2026-04-04T12:06:40Z</time></trkpt><trkpt lat="45.1643229583848" lon="8.461069093660113"><ele>108.0</ele><time>2026-04-04T12:06:41Z</time></trkpt><trkpt lat="45.16414493608132" lon="8.460950888108059"><ele>108.0</ele><time>2026-04-04T12:06:42Z</time></trkpt><trkpt lat="45.163964340188194" lon="8.460831214755506"><ele>108.0</ele><time>2026-04-04T12:06:43Z</time></trkpt><trkpt lat="45.16378159839882" lon="8.46070940258836"><ele>108.0</ele><time>2026-04-04T12:06:44Z</time></trkpt><trkpt lat="45.16359778544382" lon="8.460589222948528"><ele>108.0</ele><time>2026-04-04T12:06:45Z</time></trkpt><trkpt lat="45.163420881023555" lon="8.460474819258286"><ele>108.0</ele><time>2026-04-04T12:06:46Z</time></trkpt><trkpt lat="45.16324981066985" lon="8.460362437203852"><ele>107.66666666666666</ele><time>2026-04-04T12:06:47Z</time></trkpt><trkpt lat="45.163069034825114" lon="8.460245193439633"><ele>107.33333333333333</ele><time>2026-04-04T12:06:48Z</time></trkpt><trkpt lat="45.16288508893979" lon="8.460127601578828"><ele>107.0</ele><time>2026-04-04T12:06:49Z</time></trkpt><trkpt lat="45.16269991692578" lon="8.460010460331477"><ele>107.0</ele><time>2026-04-04T12:06:50Z</time></trkpt><trkpt lat="45.162514653729964" lon="8.459896713240603"><ele>107.0</ele><time>2026-04-04T12:06:51Z</time></trkpt><trkpt lat="45.16233306725902" lon="8.459780444586956"><ele>107.0</ele><time>2026-04-04T12:06:52Z</time></trkpt><trkpt lat="45.16215438245039" lon="8.459652368485179"><ele>108.0</ele><time>2026-04-04T12:06:53Z</time></trkpt><trkpt lat="45.16198019982493" lon="8.459526747486052"><ele>109.0</ele><time>2026-04-04T12:06:54Z</time></trkpt><trkpt lat="45.161814385676294" lon="8.459410633280829"><ele>110.0</ele><time>2026-04-04T12:06:55Z</time></trkpt><trkpt lat="45.16163828613549" lon="8.459289091728033"><ele>110.0</ele><time>2026-04-04T12:06:56Z</time></trkpt><trkpt lat="45.16145524665596" lon="8.459169284234488"><ele>110.0</ele><time>2026-04-04T12:06:57Z</time></trkpt><trkpt lat="45.1612683852612" lon="8.459049354372949"><ele>110.0</ele><time>2026-04-04T12:06:58Z</time></trkpt><trkpt lat="45.161080732425496" lon="8.458927235408659"><ele>110.0</ele><time>2026-04-04T12:06:59Z</time></trkpt><trkpt lat="45.160903360363854" lon="8.458810128159747"><ele>110.0</ele><time>2026-04-04T12:07:00Z</time></trkpt><trkpt lat="45.16073735428139" lon="8.458698572672164"><ele>110.0</ele><time>2026-04-04T12:07:01Z</time></trkpt><trkpt lat="45.16056168936822" lon="8.458579884038537"><ele>109.66666666666666</ele><time>2026-04-04T12:07:02Z</time></trkpt><trkpt lat="45.160380987061906" lon="8.458459832224131"><ele>109.33333333333334</ele><time>2026-04-04T12:07:03Z</time></trkpt><trkpt lat="45.1601968841738" lon="8.45834019186832"><ele>109.0</ele><time>2026-04-04T12:07:04Z</time></trkpt><trkpt lat="45.16001032982395" lon="8.458218825718458"><ele>109.0</ele><time>2026-04-04T12:07:05Z</time></trkpt><trkpt lat="45.15982701871756" lon="8.45810064250752"><ele>109.0</ele><time>2026-04-04T12:07:06Z</time></trkpt><trkpt lat="45.159651880233426" lon="8.457987720696098"><ele>109.0</ele><time>2026-04-04T12:07:07Z</time></trkpt><trkpt lat="45.15947742840982" lon="8.457873911780048"><ele>109.0</ele><time>2026-04-04T12:07:08Z</time></trkpt><trkpt lat="45.15931672264039" lon="8.457766588002231"><ele>109.0</ele><time>2026-04-04T12:07:09Z</time></trkpt><trkpt lat="45.159156132109764" lon="8.457648519211704"><ele>109.0</ele><time>2026-04-04T12:07:10Z</time></trkpt><trkpt lat="45.158994801970294" lon="8.45751713559804"><ele>109.66666666666667</ele><time>2026-04-04T12:07:11Z</time></trkpt><trkpt lat="45.158844172202684" lon="8.457384348930653"><ele>110.33333333333334</ele><time>2026-04-04T12:07:12Z</time></trkpt><trkpt lat="45.15871300512766" lon="8.457268105680821"><ele>111.0</ele><time>2026-04-04T12:07:13Z</time></trkpt><trkpt lat="45.15859767470897" lon="8.457174915169288"><ele>111.0</ele><time>2026-04-04T12:07:14Z</time></trkpt><trkpt lat="45.15850581303095" lon="8.457116095980224"><ele>111.0</ele><time>2026-04-04T12:07:15Z</time></trkpt><trkpt lat="45.15841537417415" lon="8.457072968262061"><ele>111.0</ele><time>2026-04-04T12:07:16Z</time></trkpt><trkpt lat="45.158303133796835" lon="8.457038147260201"><ele>111.0</ele><time>2026-04-04T12:07:17Z</time></trkpt><trkpt lat="45.15818290592198" lon="8.456994389144837"><ele>111.0</ele><time>2026-04-04T12:07:18Z</time></trkpt><trkpt lat="45.15805030881887" lon="8.456926329363641"><ele>111.0</ele><time>2026-04-04T12:07:19Z</time></trkpt><trkpt lat="45.15791601409875" lon="8.45684208422525"><ele>111.0</ele><time>2026-04-04T12:07:20Z</time></trkpt><trkpt lat="45.15777048934686" lon="8.456748285213852"><ele>111.0</ele><time>2026-04-04T12:07:21Z</time></trkpt><trkpt lat="45.15761479074745" lon="8.456648066648134"><ele>111.0</ele><time>2026-04-04T12:07:22Z</time></trkpt><trkpt lat="45.157452345202564" lon="8.45653949751933"><ele>111.0</ele><time>2026-04-04T12:07:23Z</time></trkpt><trkpt lat="45.15728642194016" lon="8.456428426905358"><ele>111.0</ele><time>2026-04-04T12:07:24Z</time></trkpt><trkpt lat="45.157117179867136" lon="8.456315485180394"><ele>110.0</ele><time>2026-04-04T12:07:25Z</time></trkpt><trkpt lat="45.156945804266215" lon="8.456205102563572"><ele>109.0</ele><time>2026-04-04T12:07:26Z</time></trkpt><trkpt lat="45.15677849162645" lon="8.456095582687118"><ele>108.0</ele><time>2026-04-04T12:07:27Z</time></trkpt><trkpt lat="45.15661210250866" lon="8.45598644275135"><ele>109.0</ele><time>2026-04-04T12:07:28Z</time></trkpt><trkpt lat="45.15644046191822" lon="8.455875994548162"><ele>110.0</ele><time>2026-04-04T12:07:29Z</time></trkpt><trkpt lat="45.15626988256306" lon="8.455757756333346"><ele>111.0</ele><time>2026-04-04T12:07:30Z</time></trkpt><trkpt lat="45.15610456333339" lon="8.455647225904348"><ele>111.0</ele><time>2026-04-04T12:07:31Z</time></trkpt><trkpt lat="45.15593911900632" lon="8.455539323679002"><ele>111.0</ele><time>2026-04-04T12:07:32Z</time></trkpt><trkpt lat="45.15576811169983" lon="8.455422151713067"><ele>111.0</ele><time>2026-04-04T12:07:33Z</time></trkpt><trkpt lat="45.15559504153954" lon="8.455310886516077"><ele>111.0</ele><time>2026-04-04T12:07:34Z</time></trkpt><trkpt lat="45.15542306778351" lon="8.455196601953343"><ele>111.0</ele><time>2026-04-04T12:07:35Z</time></trkpt><trkpt lat="45.15524514530692" lon="8.45507871296199"><ele>111.0</ele><time>2026-04-04T12:07:36Z</time></trkpt><trkpt lat="45.15506337579375" lon="8.454960483737654"><ele>111.0</ele><time>2026-04-04T12:07:37Z</time></trkpt><trkpt lat="45.15488137945902" lon="8.454838944407875"><ele>111.0</ele><time>2026-04-04T12:07:38Z</time></trkpt><trkpt lat="45.15470119677503" lon="8.454722679781892"><ele>111.0</ele><time>2026-04-04T12:07:39Z</time></trkpt><trkpt lat="45.15452714345973" lon="8.45460879637631"><ele>111.0</ele><time>2026-04-04T12:07:40Z</time></trkpt><trkpt lat="45.154351194071715" lon="8.45449230312688"><ele>111.0</ele><time>2026-04-04T12:07:41Z</time></trkpt><trkpt lat="45.15418987761997" lon="8.454386038089266"><ele>111.0</ele><time>2026-04-04T12:07:42Z</time></trkpt><trkpt lat="45.15402135269639" lon="8.45427475604587"><ele>111.0</ele><time>2026-04-04T12:07:43Z</time></trkpt><trkpt lat="45.153847453249305" lon="8.454161705569147"><ele>111.0</ele><time>2026-04-04T12:07:44Z</time></trkpt><trkpt lat="45.15367396527273" lon="8.454046534153223"><ele>111.0</ele><time>2026-04-04T12:07:45Z</time></trkpt><trkpt lat="45.153504248129245" lon="8.453930138049268"><ele>111.0</ele><time>2026-04-04T12:07:46Z</time></trkpt><trkpt lat="45.15333249372666" lon="8.453817592630024"><ele>111.0</ele><time>2026-04-04T12:07:46.999Z</time></trkpt><trkpt lat="45.153173628884204" lon="8.453714615522948"><ele>111.0</ele><time>2026-04-04T12:07:47.999Z</time></trkpt><trkpt lat="45.153010954062836" lon="8.453604962475419"><ele>110.66666666666666</ele><time>2026-04-04T12:07:48.999Z</time></trkpt><trkpt lat="45.15284596630557" lon="8.45348724184452"><ele>110.33333333333333</ele><time>2026-04-04T12:07:49.999Z</time></trkpt><trkpt lat="45.15267688635032" lon="8.453372059970357"><ele>110.0</ele><time>2026-04-04T12:07:50.999Z</time></trkpt><trkpt lat="45.152512138923136" lon="8.453266273760486"><ele>110.33333333333333</ele><time>2026-04-04T12:07:51.999Z</time></trkpt><trkpt lat="45.152352706232406" lon="8.453164589649024"><ele>110.66666666666666</ele><time>2026-04-04T12:07:52.999Z</time></trkpt><trkpt lat="45.15218344540835" lon="8.453055069340634"><ele>111.0</ele><time>2026-04-04T12:07:53.999Z</time></trkpt><trkpt lat="45.15201175545456" lon="8.452941863057816"><ele>110.33333333333334</ele><time>2026-04-04T12:07:54.999Z</time></trkpt><trkpt lat="45.15184327503786" lon="8.452833591141923"><ele>109.66666666666667</ele><time>2026-04-04T12:07:55.999Z</time></trkpt><trkpt lat="45.15169123183097" lon="8.452733683077641"><ele>109.0</ele><time>2026-04-04T12:07:56.999Z</time></trkpt><trkpt lat="45.15154476435404" lon="8.452631744161751"><ele>109.0</ele><time>2026-04-04T12:07:57.999Z</time></trkpt><trkpt lat="45.1514115192734" lon="8.452535959731335"><ele>109.0</ele><time>2026-04-04T12:07:58.999Z</time></trkpt><trkpt lat="45.151292587631985" lon="8.452453142181621"><ele>109.0</ele><time>2026-04-04T12:07:59.999Z</time></trkpt><trkpt lat="45.1511922680372" lon="8.452382096383845"><ele>109.0</ele><time>2026-04-04T12:08:00.999Z</time></trkpt><trkpt lat="45.15111149653489" lon="8.452323598437841"><ele>109.00000000000001</ele><time>2026-04-04T12:08:01.999Z</time></trkpt><trkpt lat="45.15105436002539" lon="8.45228153688548"><ele>109.0</ele><time>2026-04-04T12:08:02.999Z</time></trkpt><trkpt lat="45.1509967036541" lon="8.452236666674706"><ele>109.0</ele><time>2026-04-04T12:08:04.999Z</time></trkpt><trkpt lat="45.15095515555773" lon="8.452162625820781"><ele>109.0</ele><time>2026-04-04T12:08:22.999Z</time></trkpt><trkpt lat="45.150891841033435" lon="8.452041955604992"><ele>109.00000000000001</ele><time>2026-04-04T12:08:50Z</time></trkpt><trkpt lat="45.15082977713886" lon="8.451980244648722"><ele>109.0</ele><time>2026-04-04T12:08:52Z</time></trkpt><trkpt lat="45.15089770638379" lon="8.452050118706694"><ele>109.0</ele><time>2026-04-04T12:09:02Z</time></trkpt><trkpt lat="45.15092137982376" lon="8.452178105307116"><ele>109.0</ele><time>2026-04-04T12:09:04Z</time></trkpt><trkpt lat="45.15082450432645" lon="8.45222925986951"><ele>109.0</ele><time>2026-04-04T12:09:07Z</time></trkpt><trkpt lat="45.1507450667105" lon="8.452192361437422"><ele>109.0</ele><time>2026-04-04T12:09:08Z</time></trkpt><trkpt lat="45.15065213051849" lon="8.452137882785163"><ele>109.0</ele><time>2026-04-04T12:09:09Z</time></trkpt><trkpt lat="45.15054557377586" lon="8.452073239382962"><ele>109.5</ele><time>2026-04-04T12:09:10Z</time></trkpt><trkpt lat="45.15042309922676" lon="8.452034234564982"><ele>110.0</ele><time>2026-04-04T12:09:11Z</time></trkpt><trkpt lat="45.150295885518474" lon="8.451966403447361"><ele>110.5</ele><time>2026-04-04T12:09:12Z</time></trkpt><trkpt lat="45.15015000808375" lon="8.45193935331425"><ele>111.0</ele><time>2026-04-04T12:09:13Z</time></trkpt><trkpt lat="45.15000103007092" lon="8.451885258140242"><ele>111.0</ele><time>2026-04-04T12:09:14Z</time></trkpt><trkpt lat="45.1498409081606" lon="8.451827681287405"><ele>111.0</ele><time>2026-04-04T12:09:15Z</time></trkpt><trkpt lat="45.14967927869468" lon="8.451768989219094"><ele>111.0</ele><time>2026-04-04T12:09:16Z</time></trkpt><trkpt lat="45.14950972992975" lon="8.451709380952806"><ele>111.0</ele><time>2026-04-04T12:09:17Z</time></trkpt><trkpt lat="45.149332563801465" lon="8.451651945478103"><ele>111.0</ele><time>2026-04-04T12:09:18Z</time></trkpt><trkpt lat="45.14915083358791" lon="8.451595011966546"><ele>111.0</ele><time>2026-04-04T12:09:19Z</time></trkpt><trkpt lat="45.14896187442021" lon="8.451533491476576"><ele>111.0</ele><time>2026-04-04T12:09:20Z</time></trkpt><trkpt lat="45.14877658208428" lon="8.4514706810525"><ele>111.0</ele><time>2026-04-04T12:09:21Z</time></trkpt><trkpt lat="45.14860545471672" lon="8.45141076978406"><ele>111.0</ele><time>2026-04-04T12:09:22Z</time></trkpt><trkpt lat="45.14843519788746" lon="8.451354406338833"><ele>111.0</ele><time>2026-04-04T12:09:23Z</time></trkpt><trkpt lat="45.14826518683049" lon="8.451296253280521"><ele>111.0</ele><time>2026-04-04T12:09:24Z</time></trkpt><trkpt lat="45.14809446296746" lon="8.45123969154277"><ele>111.0</ele><time>2026-04-04T12:09:25Z</time></trkpt><trkpt lat="45.147922016213656" lon="8.451185422696991"><ele>111.0</ele><time>2026-04-04T12:09:26Z</time></trkpt><trkpt lat="45.147751973181464" lon="8.45113104109089"><ele>111.0</ele><time>2026-04-04T12:09:27Z</time></trkpt><trkpt lat="45.147587363558856" lon="8.451077814988436"><ele>111.0</ele><time>2026-04-04T12:09:28Z</time></trkpt><trkpt lat="45.14742700098467" lon="8.45102711847907"><ele>111.33333333333334</ele><time>2026-04-04T12:09:29Z</time></trkpt><trkpt lat="45.1472644017125" lon="8.45097193440275"><ele>111.66666666666667</ele><time>2026-04-04T12:09:30Z</time></trkpt><trkpt lat="45.14709883930413" lon="8.450914319339308"><ele>112.0</ele><time>2026-04-04T12:09:31Z</time></trkpt><trkpt lat="45.14692419405466" lon="8.450852024114493"><ele>112.0</ele><time>2026-04-04T12:09:32Z</time></trkpt><trkpt lat="45.14674938508017" lon="8.450787032146618"><ele>112.0</ele><time>2026-04-04T12:09:33Z</time></trkpt><trkpt lat="45.146570815313815" lon="8.450727822577464"><ele>112.0</ele><time>2026-04-04T12:09:34Z</time></trkpt><trkpt lat="45.1463913819432" lon="8.450669986588263"><ele>112.0</ele><time>2026-04-04T12:09:35Z</time></trkpt><trkpt lat="45.146212140616264" lon="8.450608850454337"><ele>112.0</ele><time>2026-04-04T12:09:36Z</time></trkpt><trkpt lat="45.14603980830172" lon="8.450550229710048"><ele>112.0</ele><time>2026-04-04T12:09:37Z</time></trkpt><trkpt lat="45.145869215970734" lon="8.45049271726727"><ele>112.0</ele><time>2026-04-04T12:09:38Z</time></trkpt><trkpt lat="45.145695650671506" lon="8.450434320463751"><ele>112.0</ele><time>2026-04-04T12:09:39Z</time></trkpt><trkpt lat="45.14551565593565" lon="8.450376801727542"><ele>112.0</ele><time>2026-04-04T12:09:40Z</time></trkpt><trkpt lat="45.14534280930815" lon="8.450319167767821"><ele>112.0</ele><time>2026-04-04T12:09:41Z</time></trkpt><trkpt lat="45.14519519944974" lon="8.45026436123696"><ele>112.0</ele><time>2026-04-04T12:09:42Z</time></trkpt><trkpt lat="45.14506267769271" lon="8.45019560432619"><ele>112.0</ele><time>2026-04-04T12:09:43Z</time></trkpt><trkpt lat="45.144944829906315" lon="8.45011825157803"><ele>112.0</ele><time>2026-04-04T12:09:44Z</time></trkpt><trkpt lat="45.144835315167995" lon="8.450026730180033"><ele>111.75</ele><time>2026-04-04T12:09:45Z</time></trkpt><trkpt lat="45.144737390071306" lon="8.449913148788616"><ele>111.5</ele><time>2026-04-04T12:09:46Z</time></trkpt><trkpt lat="45.14465010680437" lon="8.449794285934333"><ele>111.25</ele><time>2026-04-04T12:09:47Z</time></trkpt><trkpt lat="45.14457516973421" lon="8.449656953366201"><ele>111.0</ele><time>2026-04-04T12:09:48Z</time></trkpt><trkpt lat="45.14450569763501" lon="8.449507399694705"><ele>111.5</ele><time>2026-04-04T12:09:49Z</time></trkpt><trkpt lat="45.144440870509" lon="8.449356833616413"><ele>112.0</ele><time>2026-04-04T12:09:50Z</time></trkpt><trkpt lat="45.14437803831048" lon="8.449205715094601"><ele>112.5</ele><time>2026-04-04T12:09:50.999Z</time></trkpt><trkpt lat="45.14431510093842" lon="8.449049108992407"><ele>113.0</ele><time>2026-04-04T12:09:51.999Z</time></trkpt><trkpt lat="45.14424212211006" lon="8.448875812288847"><ele>112.75</ele><time>2026-04-04T12:09:52.999Z</time></trkpt><trkpt lat="45.144164013419626" lon="8.448700146793469"><ele>112.5</ele><time>2026-04-04T12:09:53.999Z</time></trkpt><trkpt lat="45.14408804782832" lon="8.448530239846141"><ele>112.25</ele><time>2026-04-04T12:09:54.999Z</time></trkpt><trkpt lat="45.144017384592644" lon="8.448372514799036"><ele>112.0</ele><time>2026-04-04T12:09:55.999Z</time></trkpt><trkpt lat="45.14394725760558" lon="8.448221021840176"><ele>112.0</ele><time>2026-04-04T12:09:56.999Z</time></trkpt><trkpt lat="45.14387925383947" lon="8.448081676876935"><ele>111.99999999999999</ele><time>2026-04-04T12:09:57.999Z</time></trkpt><trkpt lat="45.14380808561352" lon="8.447954921037098"><ele>111.99999999999999</ele><time>2026-04-04T12:09:58.999Z</time></trkpt><trkpt lat="45.143734230137284" lon="8.447842938167854"><ele>112.0</ele><time>2026-04-04T12:09:59.999Z</time></trkpt><trkpt lat="45.14365781578624" lon="8.44774390203925"><ele>112.0</ele><time>2026-04-04T12:10:00.999Z</time></trkpt><trkpt lat="45.143586397721" lon="8.447660371657685"><ele>112.33333333333334</ele><time>2026-04-04T12:10:01.999Z</time></trkpt><trkpt lat="45.143522269302856" lon="8.447591151740012"><ele>112.66666666666667</ele><time>2026-04-04T12:10:02.999Z</time></trkpt><trkpt lat="45.14346806782004" lon="8.447527039069174"><ele>113.0</ele><time>2026-04-04T12:10:03.999Z</time></trkpt><trkpt lat="45.143388933015416" lon="8.447429935407667"><ele>113.33333333333334</ele><time>2026-04-04T12:10:05.999Z</time></trkpt><trkpt lat="45.14332799538476" lon="8.447345354937502"><ele>113.66666666666667</ele><time>2026-04-04T12:10:08.999Z</time></trkpt><trkpt lat="45.14327420585176" lon="8.447259601437072"><ele>114.0</ele><time>2026-04-04T12:10:13.999Z</time></trkpt><trkpt lat="45.14324933240976" lon="8.447160302796284"><ele>114.0</ele><time>2026-04-04T12:10:16.999Z</time></trkpt><trkpt lat="45.143235876776174" lon="8.446979301405497"><ele>114.0</ele><time>2026-04-04T12:10:18.999Z</time></trkpt><trkpt lat="45.14323356636206" lon="8.44687948468494"><ele>114.0</ele><time>2026-04-04T12:10:19.999Z</time></trkpt><trkpt lat="45.14321743156486" lon="8.44679198364077"><ele>114.0</ele><time>2026-04-04T12:10:20.999Z</time></trkpt><trkpt lat="45.143171562086636" lon="8.446728060306146"><ele>114.0</ele><time>2026-04-04T12:10:21.999Z</time></trkpt><trkpt lat="45.14305697786447" lon="8.446675503408406"><ele>114.0</ele><time>2026-04-04T12:10:23.999Z</time></trkpt><trkpt lat="45.14298226944185" lon="8.44673137434256"><ele>114.0</ele><time>2026-04-04T12:10:24.999Z</time></trkpt><trkpt lat="45.14292100967807" lon="8.446837284314578"><ele>114.0</ele><time>2026-04-04T12:10:25.999Z</time></trkpt><trkpt lat="45.14284475820144" lon="8.446932301194693"><ele>114.0</ele><time>2026-04-04T12:10:26.999Z</time></trkpt><trkpt lat="45.142755434078964" lon="8.447025182613073"><ele>114.0</ele><time>2026-04-04T12:10:27.999Z</time></trkpt><trkpt lat="45.142645361514646" lon="8.447101606630396"><ele>114.0</ele><time>2026-04-04T12:10:28.999Z</time></trkpt><trkpt lat="45.14252069120776" lon="8.447164496780454"><ele>112.75</ele><time>2026-04-04T12:10:29.999Z</time></trkpt><trkpt lat="45.142392327590755" lon="8.447227137041182"><ele>111.5</ele><time>2026-04-04T12:10:30.999Z</time></trkpt><trkpt lat="45.14226633533118" lon="8.44729379045357"><ele>110.25</ele><time>2026-04-04T12:10:31.999Z</time></trkpt><trkpt lat="45.142148011314326" lon="8.447358285531829"><ele>109.0</ele><time>2026-04-04T12:10:32.999Z</time></trkpt><trkpt lat="45.142034456584625" lon="8.447422377757901"><ele>108.5</ele><time>2026-04-04T12:10:33.999Z</time></trkpt><trkpt lat="45.141924036442184" lon="8.447484558147108"><ele>108.0</ele><time>2026-04-04T12:10:34.999Z</time></trkpt><trkpt lat="45.14181609941413" lon="8.447545653725074"><ele>107.5</ele><time>2026-04-04T12:10:35.999Z</time></trkpt><trkpt lat="45.14171060963533" lon="8.447606592824139"><ele>107.0</ele><time>2026-04-04T12:10:37Z</time></trkpt><trkpt lat="45.14160754805033" lon="8.447668168105324"><ele>108.19999999999999</ele><time>2026-04-04T12:10:38Z</time></trkpt><trkpt lat="45.14150430921021" lon="8.447732330068396"><ele>109.39999999999999</ele><time>2026-04-04T12:10:39Z</time></trkpt><trkpt lat="45.14139634679047" lon="8.447795707061536"><ele>110.60000000000001</ele><time>2026-04-04T12:10:40Z</time></trkpt><trkpt lat="45.141295704699296" lon="8.447853117236894"><ele>111.80000000000001</ele><time>2026-04-04T12:10:41Z</time></trkpt><trkpt lat="45.14119634391962" lon="8.447908536932886"><ele>113.0</ele><time>2026-04-04T12:10:42Z</time></trkpt><trkpt lat="45.1410981180783" lon="8.447960080798097"><ele>113.80000000000001</ele><time>2026-04-04T12:10:43Z</time></trkpt><trkpt lat="45.14100552256584" lon="8.44800683664751"><ele>114.60000000000001</ele><time>2026-04-04T12:10:44Z</time></trkpt><trkpt lat="45.14092550323105" lon="8.448051626325386"><ele>115.39999999999999</ele><time>2026-04-04T12:10:45Z</time></trkpt><trkpt lat="45.1408128648053" lon="8.448090379854714"><ele>116.19999999999999</ele><time>2026-04-04T12:10:47Z</time></trkpt><trkpt lat="45.14070006694614" lon="8.44805208180451"><ele>117.0</ele><time>2026-04-04T12:10:49Z</time></trkpt><trkpt lat="45.140636931397765" lon="8.44795053404829"><ele>118.0</ele><time>2026-04-04T12:10:50Z</time></trkpt><trkpt lat="45.14056281242719" lon="8.447852695919947"><ele>119.0</ele><time>2026-04-04T12:10:51Z</time></trkpt><trkpt lat="45.14048481310669" lon="8.4477413644356"><ele>120.0</ele><time>2026-04-04T12:10:52Z</time></trkpt><trkpt lat="45.14040424529748" lon="8.447620349584463"><ele>121.0</ele><time>2026-04-04T12:10:53Z</time></trkpt><trkpt lat="45.14032588912539" lon="8.447476804241406"><ele>121.0</ele><time>2026-04-04T12:10:54Z</time></trkpt><trkpt lat="45.140251246130696" lon="8.447311136712898"><ele>121.0</ele><time>2026-04-04T12:10:55Z</time></trkpt><trkpt lat="45.14018131894424" lon="8.447141683093433"><ele>121.0</ele><time>2026-04-04T12:10:56Z</time></trkpt><trkpt lat="45.14009998312643" lon="8.446996247093866"><ele>121.0</ele><time>2026-04-04T12:10:57Z</time></trkpt><trkpt lat="45.140007415246934" lon="8.446872900642399"><ele>120.25</ele><time>2026-04-04T12:10:58Z</time></trkpt><trkpt lat="45.139902371625006" lon="8.446790685152683"><ele>119.5</ele><time>2026-04-04T12:10:59Z</time></trkpt><trkpt lat="45.13979228539021" lon="8.446723724853083"><ele>118.75</ele><time>2026-04-04T12:11:00Z</time></trkpt><trkpt lat="45.13968113607153" lon="8.446665144695713"><ele>118.0</ele><time>2026-04-04T12:11:01Z</time></trkpt><trkpt lat="45.139568730629705" lon="8.44661139929298"><ele>118.0</ele><time>2026-04-04T12:11:02Z</time></trkpt><trkpt lat="45.139459494961685" lon="8.44656017781882"><ele>118.00000000000001</ele><time>2026-04-04T12:11:03Z</time></trkpt><trkpt lat="45.139355994747696" lon="8.446513259413134"><ele>118.00000000000001</ele><time>2026-04-04T12:11:04Z</time></trkpt><trkpt lat="45.13925983123444" lon="8.446473601596722"><ele>118.0</ele><time>2026-04-04T12:11:05Z</time></trkpt><trkpt lat="45.13917508798061" lon="8.446444368305249"><ele>118.0</ele><time>2026-04-04T12:11:06Z</time></trkpt><trkpt lat="45.13909822937488" lon="8.446420503829973"><ele>118.2</ele><time>2026-04-04T12:11:07Z</time></trkpt><trkpt lat="45.13902275580904" lon="8.446393203860293"><ele>118.4</ele><time>2026-04-04T12:11:08Z</time></trkpt><trkpt lat="45.13894071227211" lon="8.446349597951693"><ele>118.60000000000001</ele><time>2026-04-04T12:11:09Z</time></trkpt><trkpt lat="45.138853968184236" lon="8.446285136495845"><ele>118.80000000000001</ele><time>2026-04-04T12:11:10Z</time></trkpt><trkpt lat="45.13877191890659" lon="8.44619794288937"><ele>119.0</ele><time>2026-04-04T12:11:11Z</time></trkpt><trkpt lat="45.1386960148127" lon="8.446097903234469"><ele>118.4</ele><time>2026-04-04T12:11:12Z</time></trkpt><trkpt lat="45.13862275921081" lon="8.445985419968931"><ele>117.80000000000001</ele><time>2026-04-04T12:11:13Z</time></trkpt><trkpt lat="45.13854431888913" lon="8.44586605154662"><ele>117.19999999999999</ele><time>2026-04-04T12:11:14Z</time></trkpt><trkpt lat="45.13846779377254" lon="8.445751925058254"><ele>116.6</ele><time>2026-04-04T12:11:15Z</time></trkpt><trkpt lat="45.13838631845048" lon="8.445636468425873"><ele>116.0</ele><time>2026-04-04T12:11:16Z</time></trkpt><trkpt lat="45.138304348303336" lon="8.445526953818868"><ele>116.4</ele><time>2026-04-04T12:11:17Z</time></trkpt><trkpt lat="45.13822330709604" lon="8.445424364680331"><ele>116.8</ele><time>2026-04-04T12:11:18Z</time></trkpt><trkpt lat="45.1381461972036" lon="8.445326938269355"><ele>117.20000000000002</ele><time>2026-04-04T12:11:19Z</time></trkpt><trkpt lat="45.13807278786205" lon="8.445230685942722"><ele>117.60000000000001</ele><time>2026-04-04T12:11:20Z</time></trkpt><trkpt lat="45.13800101136437" lon="8.445132808822363"><ele>118.0</ele><time>2026-04-04T12:11:21Z</time></trkpt><trkpt lat="45.13793468620587" lon="8.4450420654494"><ele>118.00000000000001</ele><time>2026-04-04T12:11:22Z</time></trkpt><trkpt lat="45.13787217053514" lon="8.444957844019324"><ele>118.0</ele><time>2026-04-04T12:11:23Z</time></trkpt><trkpt lat="45.137809651011175" lon="8.444874945557004"><ele>118.0</ele><time>2026-04-04T12:11:24Z</time></trkpt><trkpt lat="45.137744065462236" lon="8.444793223624435"><ele>118.0</ele><time>2026-04-04T12:11:25Z</time></trkpt><trkpt lat="45.13767829587632" lon="8.444720633775544"><ele>118.00000000000001</ele><time>2026-04-04T12:11:26Z</time></trkpt><trkpt lat="45.13759678042446" lon="8.444650656357663"><ele>118.0</ele><time>2026-04-04T12:11:27Z</time></trkpt><trkpt lat="45.137511243980235" lon="8.444601549665444"><ele>118.00000000000001</ele><time>2026-04-04T12:11:28Z</time></trkpt><trkpt lat="45.137424839515944" lon="8.444565273172211"><ele>118.0</ele><time>2026-04-04T12:11:29Z</time></trkpt><trkpt lat="45.13733783674525" lon="8.444544124276625"><ele>118.0</ele><time>2026-04-04T12:11:30Z</time></trkpt><trkpt lat="45.13725245338996" lon="8.444528195990062"><ele>118.0</ele><time>2026-04-04T12:11:31Z</time></trkpt><trkpt lat="45.1371645748994" lon="8.444511160704918"><ele>118.00000000000001</ele><time>2026-04-04T12:11:32Z</time></trkpt><trkpt lat="45.137076314140934" lon="8.444492923681358"><ele>118.0</ele><time>2026-04-04T12:11:33Z</time></trkpt><trkpt lat="45.136986227805146" lon="8.44447291982628"><ele>118.0</ele><time>2026-04-04T12:11:34Z</time></trkpt><trkpt lat="45.13688709010407" lon="8.444451717496419"><ele>118.00000000000001</ele><time>2026-04-04T12:11:35Z</time></trkpt><trkpt lat="45.13677509313583" lon="8.444427417385372"><ele>118.00000000000001</ele><time>2026-04-04T12:11:36Z</time></trkpt><trkpt lat="45.13666465831793" lon="8.444404132255341"><ele>118.0</ele><time>2026-04-04T12:11:37Z</time></trkpt><trkpt lat="45.13655893550337" lon="8.444379215258088"><ele>118.0</ele><time>2026-04-04T12:11:38Z</time></trkpt><trkpt lat="45.13646439977146" lon="8.444356966875686"><ele>118.0</ele><time>2026-04-04T12:11:39Z</time></trkpt><trkpt lat="45.13638376015231" lon="8.444339666493315"><ele>118.00000000000001</ele><time>2026-04-04T12:11:40Z</time></trkpt><trkpt lat="45.136315846874574" lon="8.444324649575893"><ele>118.00000000000001</ele><time>2026-04-04T12:11:41Z</time></trkpt><trkpt lat="45.136215914565575" lon="8.444302426971923"><ele>118.0</ele><time>2026-04-04T12:11:43Z</time></trkpt><trkpt lat="45.13613796964044" lon="8.444289617923658"><ele>118.0</ele><time>2026-04-04T12:11:47Z</time></trkpt><trkpt lat="45.136018246889265" lon="8.44427082608314"><ele>118.0</ele><time>2026-04-04T12:11:49Z</time></trkpt><trkpt lat="45.13595020938401" lon="8.444269421307823"><ele>118.00000000000001</ele><time>2026-04-04T12:11:50Z</time></trkpt><trkpt lat="45.13587649107535" lon="8.444275106491807"><ele>118.00000000000001</ele><time>2026-04-04T12:11:51Z</time></trkpt><trkpt lat="45.135776470248366" lon="8.44427483804116"><ele>118.0</ele><time>2026-04-04T12:11:52Z</time></trkpt><trkpt lat="45.135667920550475" lon="8.444263741102402"><ele>118.0</ele><time>2026-04-04T12:11:53Z</time></trkpt><trkpt lat="45.135557734646895" lon="8.444251522169312"><ele>117.66666666666667</ele><time>2026-04-04T12:11:54Z</time></trkpt><trkpt lat="45.1354491772569" lon="8.44424905376063"><ele>117.33333333333334</ele><time>2026-04-04T12:11:55Z</time></trkpt><trkpt lat="45.135351020761746" lon="8.444256769336757"><ele>117.0</ele><time>2026-04-04T12:11:56Z</time></trkpt><trkpt lat="45.135260516377066" lon="8.44426409591225"><ele>116.66666666666666</ele><time>2026-04-04T12:11:56.999Z</time></trkpt><trkpt lat="45.13518383261695" lon="8.444265950784615"><ele>116.33333333333333</ele><time>2026-04-04T12:11:57.999Z</time></trkpt><trkpt lat="45.13511686024697" lon="8.44426742438142"><ele>116.0</ele><time>2026-04-04T12:11:58.999Z</time></trkpt><trkpt lat="45.13505301841726" lon="8.444273731323214"><ele>115.99999999999999</ele><time>2026-04-04T12:11:59.999Z</time></trkpt><trkpt lat="45.134980205831106" lon="8.444285324970092"><ele>116.0</ele><time>2026-04-04T12:12:00.999Z</time></trkpt><trkpt lat="45.13491240204352" lon="8.444294323438584"><ele>116.0</ele><time>2026-04-04T12:12:01.999Z</time></trkpt><trkpt lat="45.13484233003308" lon="8.444296467098834"><ele>116.0</ele><time>2026-04-04T12:12:03.999Z</time></trkpt><trkpt lat="45.13474847488257" lon="8.444286337159506"><ele>115.99999999999999</ele><time>2026-04-04T12:12:05.999Z</time></trkpt><trkpt lat="45.134626509424585" lon="8.444276529319842"><ele>116.0</ele><time>2026-04-04T12:12:07.999Z</time></trkpt><trkpt lat="45.13456233396637" lon="8.444290986724"><ele>115.99999999999999</ele><time>2026-04-04T12:12:08.999Z</time></trkpt><trkpt lat="45.13449698605017" lon="8.444304718852061"><ele>116.0</ele><time>2026-04-04T12:12:09.999Z</time></trkpt><trkpt lat="45.13442565079672" lon="8.444313013874776"><ele>116.0</ele><time>2026-04-04T12:12:10.999Z</time></trkpt><trkpt lat="45.134348769902424" lon="8.444319212040575"><ele>116.0</ele><time>2026-04-04T12:12:11.999Z</time></trkpt><trkpt lat="45.13426576869863" lon="8.444323939243874"><ele>115.99999999999999</ele><time>2026-04-04T12:12:12.999Z</time></trkpt><trkpt lat="45.1341869935244" lon="8.444327759991975"><ele>116.0</ele><time>2026-04-04T12:12:13.999Z</time></trkpt><trkpt lat="45.134107710171364" lon="8.444335400465654"><ele>116.0</ele><time>2026-04-04T12:12:14.999Z</time></trkpt><trkpt lat="45.134022721831975" lon="8.44434588637245"><ele>116.0</ele><time>2026-04-04T12:12:15.999Z</time></trkpt><trkpt lat="45.133931718308745" lon="8.444365211993889"><ele>116.0</ele><time>2026-04-04T12:12:16.999Z</time></trkpt><trkpt lat="45.133844397881816" lon="8.444395095921804"><ele>116.0</ele><time>2026-04-04T12:12:17.999Z</time></trkpt><trkpt lat="45.13377329804946" lon="8.444431863832857"><ele>116.0</ele><time>2026-04-04T12:12:18.999Z</time></trkpt><trkpt lat="45.133678706070526" lon="8.444503108936244"><ele>115.99999999999999</ele><time>2026-04-04T12:12:20.999Z</time></trkpt><trkpt lat="45.13361748348679" lon="8.444566022280435"><ele>116.0</ele><time>2026-04-04T12:12:22.999Z</time></trkpt><trkpt lat="45.13353077410529" lon="8.44465205396767"><ele>116.0</ele><time>2026-04-04T12:12:24.999Z</time></trkpt><trkpt lat="45.133471551454384" lon="8.444688144423234"><ele>116.0</ele><time>2026-04-04T12:12:25.999Z</time></trkpt><trkpt lat="45.13340836536181" lon="8.444692573363628"><ele>115.99999999999999</ele><time>2026-04-04T12:12:26.999Z</time></trkpt><trkpt lat="45.13329777857904" lon="8.444626754071843"><ele>116.0</ele><time>2026-04-04T12:12:28.999Z</time></trkpt><trkpt lat="45.13320280184919" lon="8.444545093618773"><ele>117.4</ele><time>2026-04-04T12:12:30.999Z</time></trkpt><trkpt lat="45.13313750771866" lon="8.444495255395266"><ele>118.8</ele><time>2026-04-04T12:12:31.999Z</time></trkpt><trkpt lat="45.133045704797006" lon="8.444430491365813"><ele>120.20000000000002</ele><time>2026-04-04T12:12:32.999Z</time></trkpt><trkpt lat="45.13294045590008" lon="8.444370030641892"><ele>121.60000000000001</ele><time>2026-04-04T12:12:33.999Z</time></trkpt><trkpt lat="45.13282630775681" lon="8.444305709816875"><ele>123.0</ele><time>2026-04-04T12:12:34.999Z</time></trkpt><trkpt lat="45.13270925424237" lon="8.444233950964144"><ele>123.0</ele><time>2026-04-04T12:12:35.999Z</time></trkpt><trkpt lat="45.13258644251005" lon="8.444146753203045"><ele>123.0</ele><time>2026-04-04T12:12:36.999Z</time></trkpt><trkpt lat="45.13247260037859" lon="8.444067400257799"><ele>123.0</ele><time>2026-04-04T12:12:37.999Z</time></trkpt><trkpt lat="45.13237058917201" lon="8.444000611657522"><ele>123.0</ele><time>2026-04-04T12:12:38.999Z</time></trkpt><trkpt lat="45.13227078271876" lon="8.443938652078234"><ele>123.0</ele><time>2026-04-04T12:12:39.999Z</time></trkpt><trkpt lat="45.132162258819285" lon="8.443883012212037"><ele>123.0</ele><time>2026-04-04T12:12:40.999Z</time></trkpt><trkpt lat="45.13203131414387" lon="8.443801418865363"><ele>123.0</ele><time>2026-04-04T12:12:41.999Z</time></trkpt><trkpt lat="45.13188911339487" lon="8.443704204635777"><ele>123.0</ele><time>2026-04-04T12:12:43Z</time></trkpt><trkpt lat="45.13174037887276" lon="8.443606503277685"><ele>123.66666666666666</ele><time>2026-04-04T12:12:44Z</time></trkpt><trkpt lat="45.1315909908339" lon="8.443512869332679"><ele>124.33333333333333</ele><time>2026-04-04T12:12:45Z</time></trkpt><trkpt lat="45.13143836377684" lon="8.44340602607386"><ele>125.0</ele><time>2026-04-04T12:12:46Z</time></trkpt><trkpt lat="45.13127561290745" lon="8.443300655550594"><ele>126.0</ele><time>2026-04-04T12:12:47Z</time></trkpt><trkpt lat="45.131129654933446" lon="8.443205919889959"><ele>127.0</ele><time>2026-04-04T12:12:48Z</time></trkpt><trkpt lat="45.131008779194744" lon="8.443122689179186"><ele>128.0</ele><time>2026-04-04T12:12:49Z</time></trkpt><trkpt lat="45.13088624842089" lon="8.443048471000479"><ele>129.0</ele><time>2026-04-04T12:12:50Z</time></trkpt><trkpt lat="45.13077500473277" lon="8.442972454301891"><ele>131.0</ele><time>2026-04-04T12:12:51Z</time></trkpt><trkpt lat="45.13066240224333" lon="8.442896309822848"><ele>133.0</ele><time>2026-04-04T12:12:52Z</time></trkpt><trkpt lat="45.13056309299571" lon="8.442827414139565"><ele>135.0</ele><time>2026-04-04T12:12:53Z</time></trkpt><trkpt lat="45.130460191394825" lon="8.442761471152275"><ele>137.0</ele><time>2026-04-04T12:12:54Z</time></trkpt><trkpt lat="45.130356024768304" lon="8.442695325437942"><ele>137.0</ele><time>2026-04-04T12:12:55Z</time></trkpt><trkpt lat="45.13025384167492" lon="8.442627802160185"><ele>137.0</ele><time>2026-04-04T12:12:56Z</time></trkpt><trkpt lat="45.130149376966884" lon="8.442558851170396"><ele>137.0</ele><time>2026-04-04T12:12:57Z</time></trkpt><trkpt lat="45.13004782526461" lon="8.442486493838718"><ele>137.0</ele><time>2026-04-04T12:12:58Z</time></trkpt><trkpt lat="45.12995428836222" lon="8.442426095916751"><ele>137.0</ele><time>2026-04-04T12:12:59Z</time></trkpt><trkpt lat="45.1298545981655" lon="8.442362315234835"><ele>137.79999999999998</ele><time>2026-04-04T12:13:00Z</time></trkpt><trkpt lat="45.129769162465564" lon="8.442307152109613"><ele>138.6</ele><time>2026-04-04T12:13:01Z</time></trkpt><trkpt lat="45.129677719840224" lon="8.442251397834296"><ele>139.39999999999998</ele><time>2026-04-04T12:13:02Z</time></trkpt><trkpt lat="45.12958962119076" lon="8.442192360877405"><ele>140.2</ele><time>2026-04-04T12:13:03Z</time></trkpt><trkpt lat="45.12950991126507" lon="8.442140913130183"><ele>141.0</ele><time>2026-04-04T12:13:04Z</time></trkpt><trkpt lat="45.12943200031798" lon="8.44209169417249"><ele>142.6</ele><time>2026-04-04T12:13:05Z</time></trkpt><trkpt lat="45.129347599634954" lon="8.442036770393512"><ele>144.2</ele><time>2026-04-04T12:13:06Z</time></trkpt><trkpt lat="45.12926852115864" lon="8.441985741719302"><ele>145.8</ele><time>2026-04-04T12:13:07Z</time></trkpt><trkpt lat="45.12918291166336" lon="8.441930009377511"><ele>147.4</ele><time>2026-04-04T12:13:08Z</time></trkpt><trkpt lat="45.12909866632107" lon="8.441873330450743"><ele>149.0</ele><time>2026-04-04T12:13:09Z</time></trkpt><trkpt lat="45.12901488679783" lon="8.44181675205351"><ele>149.83333333333331</ele><time>2026-04-04T12:13:10Z</time></trkpt><trkpt lat="45.128935724686265" lon="8.441764920940237"><ele>150.66666666666666</ele><time>2026-04-04T12:13:11Z</time></trkpt><trkpt lat="45.1288557404513" lon="8.441714493707345"><ele>151.5</ele><time>2026-04-04T12:13:12Z</time></trkpt><trkpt lat="45.128776460498706" lon="8.441665550913081"><ele>152.33333333333334</ele><time>2026-04-04T12:13:13Z</time></trkpt><trkpt lat="45.12871222251494" lon="8.441624620903996"><ele>153.16666666666669</ele><time>2026-04-04T12:13:14Z</time></trkpt><trkpt lat="45.12864673253271" lon="8.441583766295347"><ele>154.0</ele><time>2026-04-04T12:13:15Z</time></trkpt><trkpt lat="45.128575989800375" lon="8.441536922100495"><ele>154.0</ele><time>2026-04-04T12:13:16Z</time></trkpt><trkpt lat="45.12849879372706" lon="8.441485171715573"><ele>154.0</ele><time>2026-04-04T12:13:17Z</time></trkpt><trkpt lat="45.12842432000942" lon="8.441433506326815"><ele>154.0</ele><time>2026-04-04T12:13:18Z</time></trkpt><trkpt lat="45.128350422080004" lon="8.441385458743666"><ele>154.0</ele><time>2026-04-04T12:13:19Z</time></trkpt><trkpt lat="45.128264539967184" lon="8.441333911568062"><ele>154.0</ele><time>2026-04-04T12:13:20Z</time></trkpt><trkpt lat="45.12816745790847" lon="8.441276825528977"><ele>154.0</ele><time>2026-04-04T12:13:21Z</time></trkpt><trkpt lat="45.128062180218336" lon="8.441205337135127"><ele>156.75</ele><time>2026-04-04T12:13:22Z</time></trkpt><trkpt lat="45.12795504339124" lon="8.441128267039163"><ele>159.5</ele><time>2026-04-04T12:13:23Z</time></trkpt><trkpt lat="45.127841705643114" lon="8.441050028369101"><ele>162.25</ele><time>2026-04-04T12:13:24Z</time></trkpt><trkpt lat="45.12772366868916" lon="8.44097156362342"><ele>165.0</ele><time>2026-04-04T12:13:25Z</time></trkpt><trkpt lat="45.12761125559632" lon="8.440901582648351"><ele>165.0</ele><time>2026-04-04T12:13:26Z</time></trkpt><trkpt lat="45.12749761739362" lon="8.44082786281575"><ele>165.0</ele><time>2026-04-04T12:13:27Z</time></trkpt><trkpt lat="45.12737458801086" lon="8.440749530186169"><ele>165.0</ele><time>2026-04-04T12:13:28Z</time></trkpt><trkpt lat="45.12724309444713" lon="8.440666621422205"><ele>165.0</ele><time>2026-04-04T12:13:29Z</time></trkpt><trkpt lat="45.12710911046041" lon="8.440577913292634"><ele>164.5</ele><time>2026-04-04T12:13:30Z</time></trkpt><trkpt lat="45.12697736260315" lon="8.440487492875343"><ele>164.0</ele><time>2026-04-04T12:13:31Z</time></trkpt><trkpt lat="45.126850633772" lon="8.440400231207395"><ele>163.5</ele><time>2026-04-04T12:13:32Z</time></trkpt><trkpt lat="45.126727295704654" lon="8.440325200579629"><ele>163.0</ele><time>2026-04-04T12:13:33Z</time></trkpt><trkpt lat="45.12660533507524" lon="8.44024113718103"><ele>166.25</ele><time>2026-04-04T12:13:34Z</time></trkpt><trkpt lat="45.12649043233077" lon="8.44015075654799"><ele>169.5</ele><time>2026-04-04T12:13:35Z</time></trkpt><trkpt lat="45.12638358238958" lon="8.440037372135201"><ele>172.75</ele><time>2026-04-04T12:13:36Z</time></trkpt><trkpt lat="45.126296111619766" lon="8.439880997711162"><ele>176.0</ele><time>2026-04-04T12:13:37Z</time></trkpt><trkpt lat="45.12623253239077" lon="8.439701442617846"><ele>178.25</ele><time>2026-04-04T12:13:38Z</time></trkpt><trkpt lat="45.12618179198044" lon="8.439503823882085"><ele>180.5</ele><time>2026-04-04T12:13:39Z</time></trkpt><trkpt lat="45.12614193204775" lon="8.439321277198811"><ele>182.75</ele><time>2026-04-04T12:13:40Z</time></trkpt><trkpt lat="45.126108600349184" lon="8.439163261924522"><ele>185.0</ele><time>2026-04-04T12:13:41Z</time></trkpt><trkpt lat="45.12607742631327" lon="8.439027218980318"><ele>185.0</ele><time>2026-04-04T12:13:42Z</time></trkpt><trkpt lat="45.12604791888333" lon="8.438903714067381"><ele>185.0</ele><time>2026-04-04T12:13:43Z</time></trkpt><trkpt lat="45.12601811227122" lon="8.438778709465641"><ele>185.0</ele><time>2026-04-04T12:13:44Z</time></trkpt><trkpt lat="45.12598385972167" lon="8.438638383541564"><ele>185.0</ele><time>2026-04-04T12:13:45Z</time></trkpt><trkpt lat="45.125949149811554" lon="8.438503970979552"><ele>185.0</ele><time>2026-04-04T12:13:46Z</time></trkpt><trkpt lat="45.12591945737056" lon="8.438384525948852"><ele>186.0</ele><time>2026-04-04T12:13:47Z</time></trkpt><trkpt lat="45.12589286784554" lon="8.438266894298042"><ele>187.0</ele><time>2026-04-04T12:13:48Z</time></trkpt><trkpt lat="45.125873476286216" lon="8.438136386416115"><ele>188.0</ele><time>2026-04-04T12:13:49Z</time></trkpt><trkpt lat="45.125844049771196" lon="8.43800282543414"><ele>189.0</ele><time>2026-04-04T12:13:50Z</time></trkpt><trkpt lat="45.12580990825826" lon="8.437877727791571"><ele>190.0</ele><time>2026-04-04T12:13:51Z</time></trkpt><trkpt lat="45.1257772499276" lon="8.437749870856484"><ele>189.6</ele><time>2026-04-04T12:13:52Z</time></trkpt><trkpt lat="45.125749420399075" lon="8.437628490943425"><ele>189.2</ele><time>2026-04-04T12:13:53Z</time></trkpt><trkpt lat="45.12572216769569" lon="8.437503077767706"><ele>188.8</ele><time>2026-04-04T12:13:54Z</time></trkpt><trkpt lat="45.12569399881822" lon="8.43736918665079"><ele>188.4</ele><time>2026-04-04T12:13:55Z</time></trkpt><trkpt lat="45.12566326777773" lon="8.437221516368151"><ele>188.0</ele><time>2026-04-04T12:13:56Z</time></trkpt><trkpt lat="45.12562879241535" lon="8.437058381708242"><ele>189.0</ele><time>2026-04-04T12:13:57Z</time></trkpt><trkpt lat="45.12559209047903" lon="8.436890897209528"><ele>190.0</ele><time>2026-04-04T12:13:58Z</time></trkpt><trkpt lat="45.1255555959663" lon="8.436728111470744"><ele>191.0</ele><time>2026-04-04T12:13:59Z</time></trkpt><trkpt lat="45.12551847017002" lon="8.436563934906815"><ele>192.0</ele><time>2026-04-04T12:14:00Z</time></trkpt><trkpt lat="45.12548150202028" lon="8.436392239623192"><ele>193.0</ele><time>2026-04-04T12:14:01Z</time></trkpt><trkpt lat="45.12543762059888" lon="8.436204254705885"><ele>194.0</ele><time>2026-04-04T12:14:02Z</time></trkpt><trkpt lat="45.12538596792737" lon="8.436013118060504"><ele>195.0</ele><time>2026-04-04T12:14:02.999Z</time></trkpt><trkpt lat="45.12533541824682" lon="8.435821724376458"><ele>196.0</ele><time>2026-04-04T12:14:03.999Z</time></trkpt><trkpt lat="45.125287019610155" lon="8.435620901664409"><ele>197.66666666666666</ele><time>2026-04-04T12:14:04.999Z</time></trkpt><trkpt lat="45.125238329055456" lon="8.435413440069667"><ele>199.33333333333331</ele><time>2026-04-04T12:14:05.999Z</time></trkpt><trkpt lat="45.12519302524496" lon="8.435208564239701"><ele>201.0</ele><time>2026-04-04T12:14:06.999Z</time></trkpt><trkpt lat="45.125146910492276" lon="8.435008035534189"><ele>201.0</ele><time>2026-04-04T12:14:07.999Z</time></trkpt><trkpt lat="45.12509834491879" lon="8.434807529513732"><ele>201.0</ele><time>2026-04-04T12:14:08.999Z</time></trkpt><trkpt lat="45.12505022900428" lon="8.434600880490228"><ele>201.0</ele><time>2026-04-04T12:14:09.999Z</time></trkpt><trkpt lat="45.125000742806684" lon="8.434385855648939"><ele>202.33333333333331</ele><time>2026-04-04T12:14:10.999Z</time></trkpt><trkpt lat="45.12494717130611" lon="8.434166821058541"><ele>203.66666666666666</ele><time>2026-04-04T12:14:11.999Z</time></trkpt><trkpt lat="45.124894851345275" lon="8.433945801323832"><ele>205.0</ele><time>2026-04-04T12:14:12.999Z</time></trkpt><trkpt lat="45.124841831049565" lon="8.433713736372908"><ele>202.33333333333331</ele><time>2026-04-04T12:14:13.999Z</time></trkpt><trkpt lat="45.124795512075565" lon="8.433478816192988"><ele>199.66666666666669</ele><time>2026-04-04T12:14:14.999Z</time></trkpt><trkpt lat="45.12475944422565" lon="8.433230279544059"><ele>197.0</ele><time>2026-04-04T12:14:15.999Z</time></trkpt><trkpt lat="45.12473057187968" lon="8.432989242647954"><ele>198.66666666666669</ele><time>2026-04-04T12:14:16.999Z</time></trkpt><trkpt lat="45.12469951734426" lon="8.432736286911428"><ele>200.33333333333331</ele><time>2026-04-04T12:14:17.999Z</time></trkpt><trkpt lat="45.124656916418175" lon="8.432483686000902"><ele>202.0</ele><time>2026-04-04T12:14:18.999Z</time></trkpt><trkpt lat="45.12461222894958" lon="8.432254455206152"><ele>203.66666666666666</ele><time>2026-04-04T12:14:19.999Z</time></trkpt><trkpt lat="45.12456696020387" lon="8.432041261503445"><ele>205.33333333333331</ele><time>2026-04-04T12:14:20.999Z</time></trkpt><trkpt lat="45.12452019896078" lon="8.431822517284534"><ele>207.0</ele><time>2026-04-04T12:14:21.999Z</time></trkpt><trkpt lat="45.12447300641944" lon="8.431598145370884"><ele>207.0</ele><time>2026-04-04T12:14:22.999Z</time></trkpt><trkpt lat="45.124424591160285" lon="8.431369158092256"><ele>207.0</ele><time>2026-04-04T12:14:23.999Z</time></trkpt><trkpt lat="45.12437774820941" lon="8.43114916374707"><ele>207.0</ele><time>2026-04-04T12:14:24.999Z</time></trkpt><trkpt lat="45.12433869767194" lon="8.430948345887495"><ele>208.25</ele><time>2026-04-04T12:14:25.999Z</time></trkpt><trkpt lat="45.1243000747084" lon="8.430757858219895"><ele>209.5</ele><time>2026-04-04T12:14:26.999Z</time></trkpt><trkpt lat="45.12426420330051" lon="8.430582225995689"><ele>210.75</ele><time>2026-04-04T12:14:27.999Z</time></trkpt><trkpt lat="45.12422970357194" lon="8.4304137004669"><ele>212.0</ele><time>2026-04-04T12:14:28.999Z</time></trkpt><trkpt lat="45.12419284354058" lon="8.43022764774322"><ele>212.5</ele><time>2026-04-04T12:14:29.999Z</time></trkpt><trkpt lat="45.12415540821723" lon="8.430039683781622"><ele>213.0</ele><time>2026-04-04T12:14:30.999Z</time></trkpt><trkpt lat="45.12411879577039" lon="8.429861595542278"><ele>213.5</ele><time>2026-04-04T12:14:31.999Z</time></trkpt><trkpt lat="45.12407724773115" lon="8.429663177346425"><ele>214.0</ele><time>2026-04-04T12:14:32.999Z</time></trkpt><trkpt lat="45.124034418532055" lon="8.429453996371544"><ele>216.66666666666666</ele><time>2026-04-04T12:14:33.999Z</time></trkpt><trkpt lat="45.12398796794007" lon="8.429236694329866"><ele>219.33333333333331</ele><time>2026-04-04T12:14:34.999Z</time></trkpt><trkpt lat="45.12394103198326" lon="8.429011163389529"><ele>222.0</ele><time>2026-04-04T12:14:35.999Z</time></trkpt><trkpt lat="45.12389119295108" lon="8.42877630425054"><ele>223.33333333333331</ele><time>2026-04-04T12:14:36.999Z</time></trkpt><trkpt lat="45.123835773998906" lon="8.428532474042942"><ele>224.66666666666666</ele><time>2026-04-04T12:14:37.999Z</time></trkpt><trkpt lat="45.12377713555697" lon="8.428279215241691"><ele>226.0</ele><time>2026-04-04T12:14:38.999Z</time></trkpt><trkpt lat="45.12371793859259" lon="8.428014432182904"><ele>227.0</ele><time>2026-04-04T12:14:39.999Z</time></trkpt><trkpt lat="45.123658359268205" lon="8.427725980888154"><ele>228.0</ele><time>2026-04-04T12:14:40.999Z</time></trkpt><trkpt lat="45.1235983521312" lon="8.42741748847868"><ele>229.0</ele><time>2026-04-04T12:14:41.999Z</time></trkpt><trkpt lat="45.123532292953094" lon="8.42709346358974"><ele>230.0</ele><time>2026-04-04T12:14:42.999Z</time></trkpt><trkpt lat="45.12346431498624" lon="8.426768692007819"><ele>231.0</ele><time>2026-04-04T12:14:43.999Z</time></trkpt><trkpt lat="45.1234132673958" lon="8.426476729989378"><ele>231.33333333333331</ele><time>2026-04-04T12:14:44.999Z</time></trkpt><trkpt lat="45.123343386971285" lon="8.426243100178391"><ele>231.66666666666666</ele><time>2026-04-04T12:14:45.999Z</time></trkpt><trkpt lat="45.12325959084934" lon="8.426037152304213"><ele>232.0</ele><time>2026-04-04T12:14:46.999Z</time></trkpt><trkpt lat="45.12316189312477" lon="8.425847160087542"><ele>232.0</ele><time>2026-04-04T12:14:47.999Z</time></trkpt><trkpt lat="45.123030066252554" lon="8.425695823473323"><ele>232.0</ele><time>2026-04-04T12:14:49Z</time></trkpt><trkpt lat="45.12289161545084" lon="8.425552688778104"><ele>232.0</ele><time>2026-04-04T12:14:50Z</time></trkpt><trkpt lat="45.12274241232315" lon="8.425425941124"><ele>232.33333333333331</ele><time>2026-04-04T12:14:51Z</time></trkpt><trkpt lat="45.12259032963189" lon="8.42530144006749"><ele>232.66666666666669</ele><time>2026-04-04T12:14:52Z</time></trkpt><trkpt lat="45.12244719798811" lon="8.425149452482058"><ele>233.0</ele><time>2026-04-04T12:14:53Z</time></trkpt><trkpt lat="45.12229320267857" lon="8.425014481783396"><ele>234.0</ele><time>2026-04-04T12:14:54Z</time></trkpt><trkpt lat="45.12213437882127" lon="8.424875279101588"><ele>235.0</ele><time>2026-04-04T12:14:55Z</time></trkpt><trkpt lat="45.12197404667093" lon="8.424734731724985"><ele>236.0</ele><time>2026-04-04T12:14:56Z</time></trkpt><trkpt lat="45.121812001390474" lon="8.424591000177916"><ele>237.33333333333334</ele><time>2026-04-04T12:14:57Z</time></trkpt><trkpt lat="45.12164721648101" lon="8.424444840662655"><ele>238.66666666666669</ele><time>2026-04-04T12:14:58Z</time></trkpt><trkpt lat="45.12148011746433" lon="8.424296756323518"><ele>240.0</ele><time>2026-04-04T12:14:59Z</time></trkpt><trkpt lat="45.121304543228035" lon="8.424164209929629"><ele>241.0</ele><time>2026-04-04T12:15:00Z</time></trkpt><trkpt lat="45.121134120279415" lon="8.424013572794346"><ele>242.0</ele><time>2026-04-04T12:15:01Z</time></trkpt><trkpt lat="45.12096266551162" lon="8.423863995047016"><ele>243.0</ele><time>2026-04-04T12:15:02Z</time></trkpt><trkpt lat="45.120798356431415" lon="8.423696790009695"><ele>245.0</ele><time>2026-04-04T12:15:03Z</time></trkpt><trkpt lat="45.12065361506938" lon="8.423522312046968"><ele>247.0</ele><time>2026-04-04T12:15:04Z</time></trkpt><trkpt lat="45.12051964716059" lon="8.42332321224272"><ele>249.0</ele><time>2026-04-04T12:15:05Z</time></trkpt><trkpt lat="45.1203508158928" lon="8.423178781305396"><ele>249.0</ele><time>2026-04-04T12:15:06Z</time></trkpt><trkpt lat="45.12017340470486" lon="8.423057941071223"><ele>249.0</ele><time>2026-04-04T12:15:07Z</time></trkpt><trkpt lat="45.12001131507945" lon="8.422975110257449"><ele>249.0</ele><time>2026-04-04T12:15:08Z</time></trkpt><trkpt lat="45.1198825660967" lon="8.42288343991998"><ele>248.33333333333331</ele><time>2026-04-04T12:15:09Z</time></trkpt><trkpt lat="45.11977318443849" lon="8.422737825908783"><ele>247.66666666666666</ele><time>2026-04-04T12:15:10Z</time></trkpt><trkpt lat="45.11968245589982" lon="8.422558553946821"><ele>247.0</ele><time>2026-04-04T12:15:11Z</time></trkpt><trkpt lat="45.11962143127378" lon="8.422368215034545"><ele>247.0</ele><time>2026-04-04T12:15:12Z</time></trkpt><trkpt lat="45.119586003225116" lon="8.422152360340071"><ele>247.0</ele><time>2026-04-04T12:15:13Z</time></trkpt><trkpt lat="45.1195685790299" lon="8.421916524602091"><ele>247.0</ele><time>2026-04-04T12:15:14Z</time></trkpt><trkpt lat="45.119572623337596" lon="8.421660956378831"><ele>247.33333333333331</ele><time>2026-04-04T12:15:15Z</time></trkpt><trkpt lat="45.119590652484185" lon="8.421393664420854"><ele>247.66666666666669</ele><time>2026-04-04T12:15:16Z</time></trkpt><trkpt lat="45.11961575288623" lon="8.42110898314502"><ele>248.0</ele><time>2026-04-04T12:15:17Z</time></trkpt><trkpt lat="45.11964272232006" lon="8.420797708864063"><ele>248.0</ele><time>2026-04-04T12:15:18Z</time></trkpt><trkpt lat="45.11967288763434" lon="8.42048729048581"><ele>248.0</ele><time>2026-04-04T12:15:19Z</time></trkpt><trkpt lat="45.11970588655155" lon="8.420167681135956"><ele>248.0</ele><time>2026-04-04T12:15:20Z</time></trkpt><trkpt lat="45.119737113587014" lon="8.419836985013811"><ele>245.5</ele><time>2026-04-04T12:15:21Z</time></trkpt><trkpt lat="45.11977012562937" lon="8.419499216917924"><ele>243.0</ele><time>2026-04-04T12:15:22Z</time></trkpt><trkpt lat="45.11980166218415" lon="8.41917125827148"><ele>243.0</ele><time>2026-04-04T12:15:23Z</time></trkpt><trkpt lat="45.11983060803193" lon="8.41886564972205"><ele>243.0</ele><time>2026-04-04T12:15:24Z</time></trkpt><trkpt lat="45.1198561604582" lon="8.418562210742348"><ele>243.0</ele><time>2026-04-04T12:15:25Z</time></trkpt><trkpt lat="45.119886542250164" lon="8.41824941015988"><ele>246.66666666666669</ele><time>2026-04-04T12:15:26Z</time></trkpt><trkpt lat="45.11991647525118" lon="8.417934548194422"><ele>250.33333333333334</ele><time>2026-04-04T12:15:27Z</time></trkpt><trkpt lat="45.11994157690781" lon="8.417647002524824"><ele>254.0</ele><time>2026-04-04T12:15:28Z</time></trkpt><trkpt lat="45.11996750466754" lon="8.417372300730477"><ele>253.33333333333334</ele><time>2026-04-04T12:15:29Z</time></trkpt><trkpt lat="45.11999463136998" lon="8.417091351713356"><ele>252.66666666666669</ele><time>2026-04-04T12:15:30Z</time></trkpt><trkpt lat="45.120019120583336" lon="8.416798837413149"><ele>252.0</ele><time>2026-04-04T12:15:31Z</time></trkpt><trkpt lat="45.12004188616521" lon="8.41649447111087"><ele>253.33333333333331</ele><time>2026-04-04T12:15:32Z</time></trkpt><trkpt lat="45.120063521130184" lon="8.416188249959042"><ele>254.66666666666666</ele><time>2026-04-04T12:15:33Z</time></trkpt><trkpt lat="45.12007770756251" lon="8.415905748818101"><ele>256.0</ele><time>2026-04-04T12:15:34Z</time></trkpt><trkpt lat="45.12008448627241" lon="8.415650161397489"><ele>258.0</ele><time>2026-04-04T12:15:35Z</time></trkpt><trkpt lat="45.120079153825785" lon="8.415402599402052"><ele>260.0</ele><time>2026-04-04T12:15:36Z</time></trkpt><trkpt lat="45.1200574722666" lon="8.41516106915842"><ele>262.0</ele><time>2026-04-04T12:15:37Z</time></trkpt><trkpt lat="45.120024180182355" lon="8.41495230474675"><ele>262.0</ele><time>2026-04-04T12:15:38Z</time></trkpt><trkpt lat="45.11999224244749" lon="8.414778013388448"><ele>262.0</ele><time>2026-04-04T12:15:39Z</time></trkpt><trkpt lat="45.1199804476902" lon="8.414613243404625"><ele>262.0</ele><time>2026-04-04T12:15:40Z</time></trkpt><trkpt lat="45.11995182894258" lon="8.414455730467132"><ele>262.0</ele><time>2026-04-04T12:15:41Z</time></trkpt><trkpt lat="45.119920966037824" lon="8.41429838198008"><ele>261.6</ele><time>2026-04-04T12:15:42Z</time></trkpt><trkpt lat="45.11989122673193" lon="8.414157775778815"><ele>261.2</ele><time>2026-04-04T12:15:43Z</time></trkpt><trkpt lat="45.119846856060896" lon="8.414017709199085"><ele>260.8</ele><time>2026-04-04T12:15:44Z</time></trkpt><trkpt lat="45.119816565584394" lon="8.413862731709855"><ele>260.4</ele><time>2026-04-04T12:15:45Z</time></trkpt><trkpt lat="45.119775455756816" lon="8.413711198616937"><ele>260.0</ele><time>2026-04-04T12:15:46Z</time></trkpt><trkpt lat="45.11973737085593" lon="8.413563158420533"><ele>260.0</ele><time>2026-04-04T12:15:47Z</time></trkpt><trkpt lat="45.11970375640464" lon="8.413417239227014"><ele>260.0</ele><time>2026-04-04T12:15:48Z</time></trkpt><trkpt lat="45.119681334026346" lon="8.413262868562084"><ele>260.0</ele><time>2026-04-04T12:15:49Z</time></trkpt><trkpt lat="45.119643499186175" lon="8.41311727848493"><ele>260.0</ele><time>2026-04-04T12:15:50Z</time></trkpt><trkpt lat="45.1195967833114" lon="8.412970611391117"><ele>260.0</ele><time>2026-04-04T12:15:51Z</time></trkpt><trkpt lat="45.11953025759306" lon="8.412824208214245"><ele>260.75</ele><time>2026-04-04T12:15:52Z</time></trkpt><trkpt lat="45.11948517919264" lon="8.41264387354103"><ele>261.5</ele><time>2026-04-04T12:15:53Z</time></trkpt><trkpt lat="45.11941978148346" lon="8.412469798997249"><ele>262.25</ele><time>2026-04-04T12:15:54Z</time></trkpt><trkpt lat="45.11934289054816" lon="8.41228290509722"><ele>263.0</ele><time>2026-04-04T12:15:55Z</time></trkpt><trkpt lat="45.11925005137192" lon="8.412079025067827"><ele>264.33333333333337</ele><time>2026-04-04T12:15:56Z</time></trkpt><trkpt lat="45.119145217053635" lon="8.411875880272747"><ele>265.6666666666667</ele><time>2026-04-04T12:15:57Z</time></trkpt><trkpt lat="45.11902449091233" lon="8.411657893475116"><ele>267.0</ele><time>2026-04-04T12:15:58Z</time></trkpt><trkpt lat="45.11889420745364" lon="8.411422887375549"><ele>264.0</ele><time>2026-04-04T12:15:59Z</time></trkpt><trkpt lat="45.118757339220416" lon="8.411176003623737"><ele>261.0</ele><time>2026-04-04T12:16:00Z</time></trkpt><trkpt lat="45.11861796803102" lon="8.41092460490269"><ele>258.0</ele><time>2026-04-04T12:16:01Z</time></trkpt><trkpt lat="45.11847519046647" lon="8.410667061892838"><ele>257.0</ele><time>2026-04-04T12:16:02Z</time></trkpt><trkpt lat="45.118332299868676" lon="8.41040931482876"><ele>256.0</ele><time>2026-04-04T12:16:03Z</time></trkpt><trkpt lat="45.11819663150716" lon="8.41017128526655"><ele>255.0</ele><time>2026-04-04T12:16:04Z</time></trkpt><trkpt lat="45.11805064841089" lon="8.409965600384634"><ele>255.0</ele><time>2026-04-04T12:16:05Z</time></trkpt><trkpt lat="45.117926637728324" lon="8.409720885461944"><ele>255.0</ele><time>2026-04-04T12:16:06Z</time></trkpt><trkpt lat="45.11778903827383" lon="8.409479584586121"><ele>255.0</ele><time>2026-04-04T12:16:07Z</time></trkpt><trkpt lat="45.117662240972706" lon="8.409227358999507"><ele>256.6666666666667</ele><time>2026-04-04T12:16:08Z</time></trkpt><trkpt lat="45.1175395038981" lon="8.408961008152428"><ele>258.33333333333337</ele><time>2026-04-04T12:16:09Z</time></trkpt><trkpt lat="45.11741657024153" lon="8.408723839667564"><ele>260.0</ele><time>2026-04-04T12:16:09.999Z</time></trkpt><trkpt lat="45.11728008266059" lon="8.408498474699002"><ele>260.0</ele><time>2026-04-04T12:16:10.999Z</time></trkpt><trkpt lat="45.117188214294835" lon="8.408251269454757"><ele>260.0</ele><time>2026-04-04T12:16:11.999Z</time></trkpt><trkpt lat="45.11712975083665" lon="8.408024615705976"><ele>260.0</ele><time>2026-04-04T12:16:12.999Z</time></trkpt><trkpt lat="45.11707452629403" lon="8.407811874319087"><ele>261.5</ele><time>2026-04-04T12:16:13.999Z</time></trkpt><trkpt lat="45.117006064196985" lon="8.407659640468218"><ele>263.0</ele><time>2026-04-04T12:16:14.999Z</time></trkpt><trkpt lat="45.11692435868532" lon="8.407533139811402"><ele>264.5</ele><time>2026-04-04T12:16:15.999Z</time></trkpt><trkpt lat="45.11680568396726" lon="8.40741825757873"><ele>266.0</ele><time>2026-04-04T12:16:16.999Z</time></trkpt><trkpt lat="45.11667343953221" lon="8.407295689649953"><ele>265.6666666666667</ele><time>2026-04-04T12:16:17.999Z</time></trkpt><trkpt lat="45.116543332603655" lon="8.407142219891496"><ele>265.3333333333333</ele><time>2026-04-04T12:16:18.999Z</time></trkpt><trkpt lat="45.11640886321712" lon="8.407046204940904"><ele>265.0</ele><time>2026-04-04T12:16:19.999Z</time></trkpt><trkpt lat="45.11630759403782" lon="8.40691914570701"><ele>265.0</ele><time>2026-04-04T12:16:20.999Z</time></trkpt><trkpt lat="45.11623274965442" lon="8.406717543673967"><ele>265.0</ele><time>2026-04-04T12:16:21.999Z</time></trkpt><trkpt lat="45.11613226126982" lon="8.406513539474155"><ele>265.0</ele><time>2026-04-04T12:16:22.999Z</time></trkpt><trkpt lat="45.11600421481424" lon="8.406309491732811"><ele>266.0</ele><time>2026-04-04T12:16:23.999Z</time></trkpt><trkpt lat="45.11587876409767" lon="8.406067609345241"><ele>267.0</ele><time>2026-04-04T12:16:24.999Z</time></trkpt><trkpt lat="45.11576060930966" lon="8.405823732995039"><ele>268.0</ele><time>2026-04-04T12:16:25.999Z</time></trkpt><trkpt lat="45.115653229929606" lon="8.405560649860924"><ele>267.3333333333333</ele><time>2026-04-04T12:16:26.999Z</time></trkpt><trkpt lat="45.115511610160624" lon="8.405326993126993"><ele>266.6666666666667</ele><time>2026-04-04T12:16:27.999Z</time></trkpt><trkpt lat="45.11539562177712" lon="8.405068401667215"><ele>266.0</ele><time>2026-04-04T12:16:28.999Z</time></trkpt><trkpt lat="45.11525335761001" lon="8.404837928639076"><ele>265.6666666666667</ele><time>2026-04-04T12:16:29.999Z</time></trkpt><trkpt lat="45.11512535084582" lon="8.404600651475434"><ele>265.3333333333333</ele><time>2026-04-04T12:16:30.999Z</time></trkpt><trkpt lat="45.11501358155031" lon="8.40435473548859"><ele>265.0</ele><time>2026-04-04T12:16:31.999Z</time></trkpt><trkpt lat="45.11488553475881" lon="8.404117579712267"><ele>265.0</ele><time>2026-04-04T12:16:32.999Z</time></trkpt><trkpt lat="45.114740101114734" lon="8.403889775603087"><ele>265.0</ele><time>2026-04-04T12:16:33.999Z</time></trkpt><trkpt lat="45.11462041458336" lon="8.40366966246919"><ele>265.0</ele><time>2026-04-04T12:16:34.999Z</time></trkpt><trkpt lat="45.11450879480011" lon="8.403425630071869"><ele>265.3333333333333</ele><time>2026-04-04T12:16:35.999Z</time></trkpt><trkpt lat="45.114384292514686" lon="8.403194260352027"><ele>265.6666666666667</ele><time>2026-04-04T12:16:36.999Z</time></trkpt><trkpt lat="45.11424690429515" lon="8.402972112936498"><ele>266.0</ele><time>2026-04-04T12:16:37.999Z</time></trkpt><trkpt lat="45.11413102233235" lon="8.40274831390027"><ele>266.0</ele><time>2026-04-04T12:16:38.999Z</time></trkpt><trkpt lat="45.11407254242832" lon="8.402569145615058"><ele>266.0</ele><time>2026-04-04T12:16:39.999Z</time></trkpt><trkpt lat="45.1140342828878" lon="8.402423963048646"><ele>266.0</ele><time>2026-04-04T12:16:40.999Z</time></trkpt><trkpt lat="45.11405615343009" lon="8.402255016996211"><ele>266.0</ele><time>2026-04-04T12:16:41.999Z</time></trkpt><trkpt lat="45.11407669619227" lon="8.402048785032095"><ele>269.6666666666667</ele><time>2026-04-04T12:16:42.999Z</time></trkpt><trkpt lat="45.114097222819524" lon="8.401829637134481"><ele>273.3333333333333</ele><time>2026-04-04T12:16:43.999Z</time></trkpt><trkpt lat="45.11414543557424" lon="8.401607815346013"><ele>277.0</ele><time>2026-04-04T12:16:44.999Z</time></trkpt><trkpt lat="45.11420760532279" lon="8.40139342001289"><ele>277.66666666666663</ele><time>2026-04-04T12:16:45.999Z</time></trkpt><trkpt lat="45.11429201235541" lon="8.4011821487871"><ele>278.3333333333333</ele><time>2026-04-04T12:16:46.999Z</time></trkpt><trkpt lat="45.11440222675872" lon="8.401010051396868"><ele>279.0</ele><time>2026-04-04T12:16:47.999Z</time></trkpt><trkpt lat="45.11451210192864" lon="8.40090826337551"><ele>279.0</ele><time>2026-04-04T12:16:48.999Z</time></trkpt><trkpt lat="45.11462277913399" lon="8.400843454050383"><ele>279.0</ele><time>2026-04-04T12:16:49.999Z</time></trkpt><trkpt lat="45.11471481426892" lon="8.400766455227874"><ele>279.0</ele><time>2026-04-04T12:16:50.999Z</time></trkpt><trkpt lat="45.11478666500447" lon="8.400646041346956"><ele>279.0</ele><time>2026-04-04T12:16:51.999Z</time></trkpt><trkpt lat="45.11483481833494" lon="8.400499554873585"><ele>279.0</ele><time>2026-04-04T12:16:52.999Z</time></trkpt><trkpt lat="45.11487779690686" lon="8.400318659045446"><ele>279.0</ele><time>2026-04-04T12:16:53.999Z</time></trkpt><trkpt lat="45.114918302513175" lon="8.400120317028515"><ele>279.0</ele><time>2026-04-04T12:16:55Z</time></trkpt><trkpt lat="45.11496813561749" lon="8.399891346581548"><ele>279.0</ele><time>2026-04-04T12:16:56Z</time></trkpt><trkpt lat="45.115029555161875" lon="8.399653695908444"><ele>279.6666666666667</ele><time>2026-04-04T12:16:57Z</time></trkpt><trkpt lat="45.11509958420872" lon="8.399406664821752"><ele>280.33333333333337</ele><time>2026-04-04T12:16:58Z</time></trkpt><trkpt lat="45.11517348109105" lon="8.399155635061497"><ele>281.0</ele><time>2026-04-04T12:16:59Z</time></trkpt><trkpt lat="45.11525092352904" lon="8.39889711904404"><ele>280.33333333333337</ele><time>2026-04-04T12:17:00Z</time></trkpt><trkpt lat="45.11533103314966" lon="8.398633542631028"><ele>279.6666666666667</ele><time>2026-04-04T12:17:01Z</time></trkpt><trkpt lat="45.11540756743194" lon="8.39836175106849"><ele>279.0</ele><time>2026-04-04T12:17:02Z</time></trkpt><trkpt lat="45.1154757595989" lon="8.39809267910122"><ele>277.6666666666667</ele><time>2026-04-04T12:17:03Z</time></trkpt><trkpt lat="45.11553087089039" lon="8.39784112783197"><ele>276.33333333333337</ele><time>2026-04-04T12:17:04Z</time></trkpt><trkpt lat="45.11558529983088" lon="8.397578869500208"><ele>275.0</ele><time>2026-04-04T12:17:05Z</time></trkpt><trkpt lat="45.115632898219964" lon="8.397293630139528"><ele>275.6666666666667</ele><time>2026-04-04T12:17:06Z</time></trkpt><trkpt lat="45.11567788602837" lon="8.397044344863561"><ele>276.3333333333333</ele><time>2026-04-04T12:17:07Z</time></trkpt><trkpt lat="45.115744052382844" lon="8.396843166585953"><ele>277.0</ele><time>2026-04-04T12:17:08Z</time></trkpt><trkpt lat="45.115794029121794" lon="8.396663270628085"><ele>277.0</ele><time>2026-04-04T12:17:09Z</time></trkpt><trkpt lat="45.11584101205788" lon="8.396503942442461"><ele>277.0</ele><time>2026-04-04T12:17:10Z</time></trkpt><trkpt lat="45.11588870217003" lon="8.396347445256804"><ele>277.0</ele><time>2026-04-04T12:17:11Z</time></trkpt><trkpt lat="45.115930308893084" lon="8.396165039768853"><ele>277.0</ele><time>2026-04-04T12:17:12Z</time></trkpt><trkpt lat="45.11592020875486" lon="8.395943345392872"><ele>275.66666666666663</ele><time>2026-04-04T12:17:13Z</time></trkpt><trkpt lat="45.11590299670495" lon="8.395700463255839"><ele>274.3333333333333</ele><time>2026-04-04T12:17:14Z</time></trkpt><trkpt lat="45.11587081960615" lon="8.395453325557913"><ele>273.0</ele><time>2026-04-04T12:17:15Z</time></trkpt><trkpt lat="45.115841243392545" lon="8.395227462752327"><ele>272.3333333333333</ele><time>2026-04-04T12:17:16Z</time></trkpt><trkpt lat="45.115860718045774" lon="8.394999748681656"><ele>271.66666666666663</ele><time>2026-04-04T12:17:17Z</time></trkpt><trkpt lat="45.11589993841974" lon="8.394749855254652"><ele>271.0</ele><time>2026-04-04T12:17:18Z</time></trkpt><trkpt lat="45.115955447471116" lon="8.394462857538542"><ele>270.66666666666663</ele><time>2026-04-04T12:17:19Z</time></trkpt><trkpt lat="45.11600610604394" lon="8.394160680172217"><ele>270.3333333333333</ele><time>2026-04-04T12:17:20Z</time></trkpt><trkpt lat="45.11607634277553" lon="8.39385802542223"><ele>270.0</ele><time>2026-04-04T12:17:21Z</time></trkpt><trkpt lat="45.116148927333484" lon="8.39356083636374"><ele>269.0</ele><time>2026-04-04T12:17:22Z</time></trkpt><trkpt lat="45.11624855053358" lon="8.393303378098803"><ele>268.0</ele><time>2026-04-04T12:17:23Z</time></trkpt><trkpt lat="45.11636803432384" lon="8.39305746879492"><ele>267.0</ele><time>2026-04-04T12:17:24Z</time></trkpt><trkpt lat="45.11650014084433" lon="8.39280276645091"><ele>265.0</ele><time>2026-04-04T12:17:25Z</time></trkpt><trkpt lat="45.11662097624113" lon="8.392522509974246"><ele>263.0</ele><time>2026-04-04T12:17:26Z</time></trkpt><trkpt lat="45.11676501787623" lon="8.392268651948404"><ele>263.0</ele><time>2026-04-04T12:17:27Z</time></trkpt><trkpt lat="45.116877338149166" lon="8.392008109628193"><ele>263.0</ele><time>2026-04-04T12:17:28Z</time></trkpt><trkpt lat="45.11697269709936" lon="8.391742174698683"><ele>263.0</ele><time>2026-04-04T12:17:29Z</time></trkpt><trkpt lat="45.11706345072103" lon="8.391484750278075"><ele>262.0</ele><time>2026-04-04T12:17:30Z</time></trkpt><trkpt lat="45.11713952232833" lon="8.391241857781154"><ele>261.0</ele><time>2026-04-04T12:17:31Z</time></trkpt><trkpt lat="45.11719976499269" lon="8.391007355933313"><ele>260.0</ele><time>2026-04-04T12:17:32Z</time></trkpt><trkpt lat="45.11724796220342" lon="8.390739930779185"><ele>259.33333333333337</ele><time>2026-04-04T12:17:33Z</time></trkpt><trkpt lat="45.1172807680835" lon="8.390454046029577"><ele>258.6666666666667</ele><time>2026-04-04T12:17:34Z</time></trkpt><trkpt lat="45.117337509822605" lon="8.390173733983191"><ele>258.0</ele><time>2026-04-04T12:17:35Z</time></trkpt><trkpt lat="45.11739244471051" lon="8.38989581254683"><ele>259.6666666666667</ele><time>2026-04-04T12:17:36Z</time></trkpt><trkpt lat="45.11744701007605" lon="8.38961929022141"><ele>261.33333333333337</ele><time>2026-04-04T12:17:37Z</time></trkpt><trkpt lat="45.117510586027315" lon="8.389345025449803"><ele>263.0</ele><time>2026-04-04T12:17:38Z</time></trkpt><trkpt lat="45.1175784015788" lon="8.389098787361068"><ele>263.0</ele><time>2026-04-04T12:17:39Z</time></trkpt><trkpt lat="45.11765757901588" lon="8.388854302270966"><ele>263.0</ele><time>2026-04-04T12:17:40Z</time></trkpt><trkpt lat="45.117733719193296" lon="8.38860055156938"><ele>263.0</ele><time>2026-04-04T12:17:41Z</time></trkpt><trkpt lat="45.11778855549009" lon="8.388331691389578"><ele>263.6666666666667</ele><time>2026-04-04T12:17:42Z</time></trkpt><trkpt lat="45.117816057325214" lon="8.388050663458941"><ele>264.3333333333333</ele><time>2026-04-04T12:17:43Z</time></trkpt><trkpt lat="45.11782736153119" lon="8.387768080651405"><ele>265.0</ele><time>2026-04-04T12:17:44Z</time></trkpt><trkpt lat="45.117840436302714" lon="8.38747759051828"><ele>266.66666666666663</ele><time>2026-04-04T12:17:45Z</time></trkpt><trkpt lat="45.11785507744624" lon="8.3871885746634"><ele>268.3333333333333</ele><time>2026-04-04T12:17:46Z</time></trkpt><trkpt lat="45.117878702716645" lon="8.386912198638292"><ele>270.0</ele><time>2026-04-04T12:17:47Z</time></trkpt><trkpt lat="45.11788423565343" lon="8.386641002645828"><ele>271.3333333333333</ele><time>2026-04-04T12:17:48Z</time></trkpt><trkpt lat="45.11788187053187" lon="8.386356366535349"><ele>272.66666666666663</ele><time>2026-04-04T12:17:49Z</time></trkpt><trkpt lat="45.11785725589853" lon="8.386091515379643"><ele>274.0</ele><time>2026-04-04T12:17:50Z</time></trkpt><trkpt lat="45.11784742529651" lon="8.385844354572843"><ele>274.66666666666663</ele><time>2026-04-04T12:17:51Z</time></trkpt><trkpt lat="45.11782922667856" lon="8.385590200915333"><ele>275.3333333333333</ele><time>2026-04-04T12:17:52Z</time></trkpt><trkpt lat="45.11781060197375" lon="8.3853475214519"><ele>276.0</ele><time>2026-04-04T12:17:53Z</time></trkpt><trkpt lat="45.11779418965845" lon="8.385119144329037"><ele>276.0</ele><time>2026-04-04T12:17:54Z</time></trkpt><trkpt lat="45.11777852911985" lon="8.384908492205502"><ele>276.0</ele><time>2026-04-04T12:17:55Z</time></trkpt><trkpt lat="45.11776514838638" lon="8.384733453114949"><ele>276.0</ele><time>2026-04-04T12:17:56Z</time></trkpt><trkpt lat="45.117755681023375" lon="8.384600505606228"><ele>276.0</ele><time>2026-04-04T12:17:57Z</time></trkpt><trkpt lat="45.11774430698658" lon="8.384481990972567"><ele>275.3333333333333</ele><time>2026-04-04T12:17:59Z</time></trkpt><trkpt lat="45.11772923747365" lon="8.384357203500254"><ele>274.66666666666663</ele><time>2026-04-04T12:18:04Z</time></trkpt><trkpt lat="45.11744968163889" lon="8.384392778393046"><ele>274.0</ele><time>2026-04-04T12:18:05Z</time></trkpt><trkpt lat="45.11734710022425" lon="8.384392237060439"><ele>273.25</ele><time>2026-04-04T12:18:06Z</time></trkpt><trkpt lat="45.117195281170666" lon="8.384374425456217"><ele>272.5</ele><time>2026-04-04T12:18:07Z</time></trkpt><trkpt lat="45.11706273529949" lon="8.384320871715003"><ele>271.75</ele><time>2026-04-04T12:18:08Z</time></trkpt><trkpt lat="45.11692702453925" lon="8.384225148002303"><ele>271.0</ele><time>2026-04-04T12:18:09Z</time></trkpt><trkpt lat="45.11678696001775" lon="8.384098291695175"><ele>271.0</ele><time>2026-04-04T12:18:10Z</time></trkpt><trkpt lat="45.11665606804334" lon="8.383957129356503"><ele>271.0</ele><time>2026-04-04T12:18:11Z</time></trkpt><trkpt lat="45.11650247194475" lon="8.383780316912844"><ele>271.0</ele><time>2026-04-04T12:18:12Z</time></trkpt><trkpt lat="45.11635968306579" lon="8.383594483286293"><ele>270.25</ele><time>2026-04-04T12:18:13Z</time></trkpt><trkpt lat="45.11626006653073" lon="8.383424000720227"><ele>269.5</ele><time>2026-04-04T12:18:14Z</time></trkpt><trkpt lat="45.11619029298881" lon="8.383235414353909"><ele>268.75</ele><time>2026-04-04T12:18:14.999Z</time></trkpt><trkpt lat="45.116138772995235" lon="8.383104565424661"><ele>268.0</ele><time>2026-04-04T12:18:15.999Z</time></trkpt><trkpt lat="45.11607998304158" lon="8.383033913199787"><ele>268.5</ele><time>2026-04-04T12:18:16.999Z</time></trkpt><trkpt lat="45.115980800812046" lon="8.382977725814943"><ele>269.0</ele><time>2026-04-04T12:18:17.999Z</time></trkpt><trkpt lat="45.11584222693691" lon="8.38293193491218"><ele>269.5</ele><time>2026-04-04T12:18:18.999Z</time></trkpt><trkpt lat="45.115685082064076" lon="8.382873869922811"><ele>270.0</ele><time>2026-04-04T12:18:19.999Z</time></trkpt><trkpt lat="45.11552494769224" lon="8.382814118406664"><ele>270.0</ele><time>2026-04-04T12:18:20.999Z</time></trkpt><trkpt lat="45.11532501543619" lon="8.382737410149653"><ele>270.0</ele><time>2026-04-04T12:18:21.999Z</time></trkpt><trkpt lat="45.11513549989322" lon="8.382665803118494"><ele>270.0</ele><time>2026-04-04T12:18:22.999Z</time></trkpt><trkpt lat="45.11495814801593" lon="8.382601427255159"><ele>267.75</ele><time>2026-04-04T12:18:23.999Z</time></trkpt><trkpt lat="45.11480879051928" lon="8.382555198471492"><ele>265.5</ele><time>2026-04-04T12:18:24.999Z</time></trkpt><trkpt lat="45.11469683072635" lon="8.382520050770973"><ele>263.25</ele><time>2026-04-04T12:18:25.999Z</time></trkpt><trkpt lat="45.11459088686839" lon="8.382495651231372"><ele>261.0</ele><time>2026-04-04T12:18:26.999Z</time></trkpt><trkpt lat="45.11449385471476" lon="8.382505992923438"><ele>261.0</ele><time>2026-04-04T12:18:27.999Z</time></trkpt><trkpt lat="45.114381887573984" lon="8.382557954962486"><ele>261.0</ele><time>2026-04-04T12:18:28.999Z</time></trkpt><trkpt lat="45.11424668243768" lon="8.382640243615983"><ele>261.0</ele><time>2026-04-04T12:18:29.999Z</time></trkpt><trkpt lat="45.114099389087464" lon="8.38274350953029"><ele>261.0</ele><time>2026-04-04T12:18:30.999Z</time></trkpt><trkpt lat="45.1139532209161" lon="8.382872325482671"><ele>258.3333333333333</ele><time>2026-04-04T12:18:31.999Z</time></trkpt><trkpt lat="45.11381688580884" lon="8.383020509418092"><ele>255.66666666666666</ele><time>2026-04-04T12:18:32.999Z</time></trkpt><trkpt lat="45.11369641516975" lon="8.383166703283749"><ele>253.0</ele><time>2026-04-04T12:18:33.999Z</time></trkpt><trkpt lat="45.11358491672532" lon="8.38329563133547"><ele>253.0</ele><time>2026-04-04T12:18:34.999Z</time></trkpt><trkpt lat="45.113474116091055" lon="8.38339883324587"><ele>253.0</ele><time>2026-04-04T12:18:35.999Z</time></trkpt><trkpt lat="45.11336050485755" lon="8.383463540461221"><ele>253.0</ele><time>2026-04-04T12:18:36.999Z</time></trkpt><trkpt lat="45.11323550559563" lon="8.38347978477372"><ele>253.0</ele><time>2026-04-04T12:18:37.999Z</time></trkpt><trkpt lat="45.11310647807102" lon="8.383453034580262"><ele>251.5</ele><time>2026-04-04T12:18:38.999Z</time></trkpt><trkpt lat="45.112977294274295" lon="8.383376815378305"><ele>250.0</ele><time>2026-04-04T12:18:39.999Z</time></trkpt><trkpt lat="45.11287417350245" lon="8.383271600838636"><ele>248.5</ele><time>2026-04-04T12:18:40.999Z</time></trkpt><trkpt lat="45.112799957397755" lon="8.383116947504218"><ele>247.0</ele><time>2026-04-04T12:18:41.999Z</time></trkpt><trkpt lat="45.112727715722606" lon="8.382945197808782"><ele>247.0</ele><time>2026-04-04T12:18:42.999Z</time></trkpt><trkpt lat="45.11263499861789" lon="8.382768326603827"><ele>247.0</ele><time>2026-04-04T12:18:43.999Z</time></trkpt><trkpt lat="45.11249376352608" lon="8.382612994625493"><ele>247.0</ele><time>2026-04-04T12:18:44.999Z</time></trkpt><trkpt lat="45.11234722548292" lon="8.382446177220482"><ele>246.66666666666666</ele><time>2026-04-04T12:18:45.999Z</time></trkpt><trkpt lat="45.11220015138596" lon="8.382265062869607"><ele>246.33333333333331</ele><time>2026-04-04T12:18:46.999Z</time></trkpt><trkpt lat="45.11205379367104" lon="8.382065391976166"><ele>246.0</ele><time>2026-04-04T12:18:47.999Z</time></trkpt><trkpt lat="45.11191357265894" lon="8.381833149264688"><ele>242.0</ele><time>2026-04-04T12:18:48.999Z</time></trkpt><trkpt lat="45.11177191690305" lon="8.381576402901645"><ele>238.0</ele><time>2026-04-04T12:18:49.999Z</time></trkpt><trkpt lat="45.111631004441506" lon="8.381337353592158"><ele>233.33333333333331</ele><time>2026-04-04T12:18:50.999Z</time></trkpt><trkpt lat="45.11150674918653" lon="8.381135879686537"><ele>228.66666666666669</ele><time>2026-04-04T12:18:51.999Z</time></trkpt><trkpt lat="45.111405208546586" lon="8.380978974405785"><ele>224.0</ele><time>2026-04-04T12:18:52.999Z</time></trkpt><trkpt lat="45.11131812184748" lon="8.380846857595367"><ele>224.0</ele><time>2026-04-04T12:18:53.999Z</time></trkpt><trkpt lat="45.11122895907662" lon="8.380750249999313"><ele>224.0</ele><time>2026-04-04T12:18:54.999Z</time></trkpt><trkpt lat="45.11111891562742" lon="8.38069212344945"><ele>224.0</ele><time>2026-04-04T12:18:55.999Z</time></trkpt><trkpt lat="45.11099481053002" lon="8.380683432502655"><ele>224.0</ele><time>2026-04-04T12:18:56.999Z</time></trkpt><trkpt lat="45.1108798271055" lon="8.380713650592869"><ele>224.0</ele><time>2026-04-04T12:18:57.999Z</time></trkpt><trkpt lat="45.11078203518021" lon="8.38078114035109"><ele>224.0</ele><time>2026-04-04T12:18:58.999Z</time></trkpt><trkpt lat="45.110690774711365" lon="8.380897765952888"><ele>224.0</ele><time>2026-04-04T12:18:59.999Z</time></trkpt><trkpt lat="45.110598114967104" lon="8.381064917531482"><ele>224.0</ele><time>2026-04-04T12:19:01Z</time></trkpt><trkpt lat="45.110504730239384" lon="8.381256009977793"><ele>221.75</ele><time>2026-04-04T12:19:02Z</time></trkpt><trkpt lat="45.11041378483937" lon="8.381449208810546"><ele>219.5</ele><time>2026-04-04T12:19:03Z</time></trkpt><trkpt lat="45.11030724931276" lon="8.381576781040831"><ele>217.25</ele><time>2026-04-04T12:19:04Z</time></trkpt><trkpt lat="45.11018777891213" lon="8.381664055676293"><ele>215.0</ele><time>2026-04-04T12:19:05Z</time></trkpt><trkpt lat="45.1100340627828" lon="8.381741500655385"><ele>214.0</ele><time>2026-04-04T12:19:06Z</time></trkpt><trkpt lat="45.10987233744759" lon="8.381833088197709"><ele>213.0</ele><time>2026-04-04T12:19:07Z</time></trkpt><trkpt lat="45.10973050907882" lon="8.381834690384707"><ele>212.0</ele><time>2026-04-04T12:19:08Z</time></trkpt><trkpt lat="45.10960917095047" lon="8.381801924745155"><ele>211.0</ele><time>2026-04-04T12:19:09Z</time></trkpt><trkpt lat="45.10948935383671" lon="8.3817299494461"><ele>211.0</ele><time>2026-04-04T12:19:10Z</time></trkpt><trkpt lat="45.10938209925254" lon="8.381600293028661"><ele>211.0</ele><time>2026-04-04T12:19:11Z</time></trkpt><trkpt lat="45.10926705574109" lon="8.381433200107674"><ele>211.0</ele><time>2026-04-04T12:19:12Z</time></trkpt><trkpt lat="45.10913138751708" lon="8.381270163840094"><ele>209.0</ele><time>2026-04-04T12:19:13Z</time></trkpt><trkpt lat="45.10901779595481" lon="8.381142260155157"><ele>207.0</ele><time>2026-04-04T12:19:14Z</time></trkpt><trkpt lat="45.108914633396246" lon="8.38105569650154"><ele>205.0</ele><time>2026-04-04T12:19:15Z</time></trkpt><trkpt lat="45.108811306646224" lon="8.380971469802708"><ele>203.0</ele><time>2026-04-04T12:19:16Z</time></trkpt><trkpt lat="45.10870720845511" lon="8.380883248619908"><ele>203.0</ele><time>2026-04-04T12:19:17Z</time></trkpt><trkpt lat="45.10860537710409" lon="8.38079882312601"><ele>203.0</ele><time>2026-04-04T12:19:18Z</time></trkpt><trkpt lat="45.10850810970013" lon="8.380716775187041"><ele>203.0</ele><time>2026-04-04T12:19:19Z</time></trkpt><trkpt lat="45.10840720575563" lon="8.380644827451107"><ele>203.0</ele><time>2026-04-04T12:19:20Z</time></trkpt><trkpt lat="45.10830620943854" lon="8.380596409149483"><ele>202.4</ele><time>2026-04-04T12:19:21Z</time></trkpt><trkpt lat="45.10821730940964" lon="8.380575357969654"><ele>201.8</ele><time>2026-04-04T12:19:22Z</time></trkpt><trkpt lat="45.10813062059984" lon="8.380559770965476"><ele>201.2</ele><time>2026-04-04T12:19:23Z</time></trkpt><trkpt lat="45.108039856025044" lon="8.380546350929293"><ele>200.6</ele><time>2026-04-04T12:19:25Z</time></trkpt><trkpt lat="45.107961874463754" lon="8.380396707580958"><ele>200.0</ele><time>2026-04-04T12:19:30Z</time></trkpt><trkpt lat="45.10792492350861" lon="8.380264743525528"><ele>200.0</ele><time>2026-04-04T12:19:31Z</time></trkpt><trkpt lat="45.107878392120284" lon="8.380118716474716"><ele>200.0</ele><time>2026-04-04T12:19:32Z</time></trkpt><trkpt lat="45.10782278344179" lon="8.37995602850201"><ele>200.0</ele><time>2026-04-04T12:19:33Z</time></trkpt><trkpt lat="45.10776286183683" lon="8.379773613079152"><ele>200.0</ele><time>2026-04-04T12:19:34Z</time></trkpt><trkpt lat="45.10770066507055" lon="8.379580259266268"><ele>198.25</ele><time>2026-04-04T12:19:35Z</time></trkpt><trkpt lat="45.10763901087523" lon="8.379393754414053"><ele>196.5</ele><time>2026-04-04T12:19:36Z</time></trkpt><trkpt lat="45.10758000898354" lon="8.379214757891658"><ele>194.75</ele><time>2026-04-04T12:19:37Z</time></trkpt><trkpt lat="45.10752178744656" lon="8.37904118030639"><ele>193.0</ele><time>2026-04-04T12:19:38Z</time></trkpt><trkpt lat="45.10746635217234" lon="8.378882284118601"><ele>192.33333333333331</ele><time>2026-04-04T12:19:39Z</time></trkpt><trkpt lat="45.107421214777204" lon="8.37874685404746"><ele>191.66666666666666</ele><time>2026-04-04T12:19:40Z</time></trkpt><trkpt lat="45.10738436935656" lon="8.37863467888328"><ele>191.0</ele><time>2026-04-04T12:19:41Z</time></trkpt><trkpt lat="45.107348787483595" lon="8.378548715273622"><ele>190.33333333333331</ele><time>2026-04-04T12:19:42Z</time></trkpt><trkpt lat="45.10729315167112" lon="8.378491349712395"><ele>189.66666666666666</ele><time>2026-04-04T12:19:43Z</time></trkpt><trkpt lat="45.10720685995959" lon="8.37845953089318"><ele>189.0</ele><time>2026-04-04T12:19:44Z</time></trkpt><trkpt lat="45.10710110897717" lon="8.378423252050931"><ele>189.0</ele><time>2026-04-04T12:19:45Z</time></trkpt><trkpt lat="45.10697593612539" lon="8.378368684443982"><ele>189.0</ele><time>2026-04-04T12:19:46Z</time></trkpt><trkpt lat="45.10684289880792" lon="8.37830197407079"><ele>189.0</ele><time>2026-04-04T12:19:47Z</time></trkpt><trkpt lat="45.10669879410445" lon="8.378229903736623"><ele>189.0</ele><time>2026-04-04T12:19:48Z</time></trkpt><trkpt lat="45.106570875753015" lon="8.378181405029638"><ele>187.5</ele><time>2026-04-04T12:19:49Z</time></trkpt><trkpt lat="45.106457947334775" lon="8.378165582183176"><ele>186.0</ele><time>2026-04-04T12:19:50Z</time></trkpt><trkpt lat="45.10635097875324" lon="8.378193993616726"><ele>184.5</ele><time>2026-04-04T12:19:51Z</time></trkpt><trkpt lat="45.1062409966121" lon="8.378280228385812"><ele>183.0</ele><time>2026-04-04T12:19:52Z</time></trkpt><trkpt lat="45.10612393038491" lon="8.37841780954079"><ele>183.0</ele><time>2026-04-04T12:19:53Z</time></trkpt><trkpt lat="45.1060006881918" lon="8.378576793079716"><ele>183.0</ele><time>2026-04-04T12:19:54Z</time></trkpt><trkpt lat="45.10587527048132" lon="8.378733566187474"><ele>183.0</ele><time>2026-04-04T12:19:55Z</time></trkpt><trkpt lat="45.1057346161047" lon="8.378891617917251"><ele>182.33333333333334</ele><time>2026-04-04T12:19:56Z</time></trkpt><trkpt lat="45.1055815451792" lon="8.379049622023985"><ele>181.66666666666669</ele><time>2026-04-04T12:19:57Z</time></trkpt><trkpt lat="45.10541711425223" lon="8.379196135812522"><ele>181.0</ele><time>2026-04-04T12:19:58Z</time></trkpt><trkpt lat="45.10524524610315" lon="8.379330394625795"><ele>181.0</ele><time>2026-04-04T12:19:59Z</time></trkpt><trkpt lat="45.10506415728308" lon="8.379453973110325"><ele>181.0</ele><time>2026-04-04T12:20:00Z</time></trkpt><trkpt lat="45.104875003476025" lon="8.379571131067639"><ele>181.0</ele><time>2026-04-04T12:20:01Z</time></trkpt><trkpt lat="45.10468456778367" lon="8.379697179850707"><ele>182.66666666666669</ele><time>2026-04-04T12:20:02Z</time></trkpt><trkpt lat="45.10450126649429" lon="8.379832703087308"><ele>184.33333333333334</ele><time>2026-04-04T12:20:03Z</time></trkpt><trkpt lat="45.10433019847248" lon="8.379995970825888"><ele>186.0</ele><time>2026-04-04T12:20:04Z</time></trkpt><trkpt lat="45.10416950132153" lon="8.380185873251161"><ele>186.66666666666666</ele><time>2026-04-04T12:20:05Z</time></trkpt><trkpt lat="45.10400908569606" lon="8.38038582405704"><ele>187.33333333333331</ele><time>2026-04-04T12:20:06Z</time></trkpt><trkpt lat="45.10384794762888" lon="8.38057893944329"><ele>188.0</ele><time>2026-04-04T12:20:07Z</time></trkpt><trkpt lat="45.103687196575926" lon="8.38076787382343"><ele>188.0</ele><time>2026-04-04T12:20:08Z</time></trkpt><trkpt lat="45.103523871050854" lon="8.38095770756191"><ele>188.0</ele><time>2026-04-04T12:20:09Z</time></trkpt><trkpt lat="45.10335777472773" lon="8.381142426307857"><ele>188.0</ele><time>2026-04-04T12:20:10Z</time></trkpt><trkpt lat="45.10318452849703" lon="8.381319433077659"><ele>190.0</ele><time>2026-04-04T12:20:11Z</time></trkpt><trkpt lat="45.10298685409847" lon="8.381445598158244"><ele>192.0</ele><time>2026-04-04T12:20:12Z</time></trkpt><trkpt lat="45.102784304801624" lon="8.38156270793864"><ele>194.0</ele><time>2026-04-04T12:20:13Z</time></trkpt><trkpt lat="45.10258458983525" lon="8.381689255253626"><ele>192.66666666666669</ele><time>2026-04-04T12:20:14Z</time></trkpt><trkpt lat="45.10239606291697" lon="8.381787083533611"><ele>191.33333333333334</ele><time>2026-04-04T12:20:15Z</time></trkpt><trkpt lat="45.10223234503793" lon="8.381891081242593"><ele>190.0</ele><time>2026-04-04T12:20:16Z</time></trkpt><trkpt lat="45.10209198705835" lon="8.382011034577152"><ele>190.0</ele><time>2026-04-04T12:20:17Z</time></trkpt><trkpt lat="45.101963495962714" lon="8.382171527757333"><ele>190.0</ele><time>2026-04-04T12:20:18Z</time></trkpt><trkpt lat="45.101840435239126" lon="8.382355126270182"><ele>190.0</ele><time>2026-04-04T12:20:19Z</time></trkpt><trkpt lat="45.101714478312886" lon="8.382544466764074"><ele>191.33333333333334</ele><time>2026-04-04T12:20:20Z</time></trkpt><trkpt lat="45.10158832644022" lon="8.382732841324861"><ele>192.66666666666669</ele><time>2026-04-04T12:20:21Z</time></trkpt><trkpt lat="45.101457367013545" lon="8.382916230483348"><ele>194.0</ele><time>2026-04-04T12:20:22Z</time></trkpt><trkpt lat="45.10132589969502" lon="8.38309876970866"><ele>195.66666666666669</ele><time>2026-04-04T12:20:23Z</time></trkpt><trkpt lat="45.101194889191376" lon="8.383285461941846"><ele>197.33333333333331</ele><time>2026-04-04T12:20:23.999Z</time></trkpt><trkpt lat="45.10106286336287" lon="8.383472922035546"><ele>199.0</ele><time>2026-04-04T12:20:24.999Z</time></trkpt><trkpt lat="45.10093103739955" lon="8.383657048525993"><ele>199.0</ele><time>2026-04-04T12:20:25.999Z</time></trkpt><trkpt lat="45.100799979289825" lon="8.383844690266796"><ele>199.0</ele><time>2026-04-04T12:20:26.999Z</time></trkpt><trkpt lat="45.10066750366495" lon="8.384028060480468"><ele>199.0</ele><time>2026-04-04T12:20:27.999Z</time></trkpt><trkpt lat="45.1005314211287" lon="8.384211956489354"><ele>200.0</ele><time>2026-04-04T12:20:28.999Z</time></trkpt><trkpt lat="45.10040248020418" lon="8.38439743061288"><ele>201.0</ele><time>2026-04-04T12:20:29.999Z</time></trkpt><trkpt lat="45.1002715962885" lon="8.384587516323244"><ele>202.0</ele><time>2026-04-04T12:20:30.999Z</time></trkpt><trkpt lat="45.100138860333004" lon="8.384777303525018"><ele>204.33333333333331</ele><time>2026-04-04T12:20:31.999Z</time></trkpt><trkpt lat="45.10000198164048" lon="8.384965114318897"><ele>206.66666666666669</ele><time>2026-04-04T12:20:32.999Z</time></trkpt><trkpt lat="45.099870359608246" lon="8.38513729390352"><ele>209.0</ele><time>2026-04-04T12:20:33.999Z</time></trkpt><trkpt lat="45.09976503008" lon="8.385272287452548"><ele>209.25</ele><time>2026-04-04T12:20:34.999Z</time></trkpt><trkpt lat="45.099653851356535" lon="8.385380919048211"><ele>209.5</ele><time>2026-04-04T12:20:35.999Z</time></trkpt><trkpt lat="45.09950711847448" lon="8.38543913570757"><ele>209.75</ele><time>2026-04-04T12:20:36.999Z</time></trkpt><trkpt lat="45.09934975338416" lon="8.38546643429192"><ele>210.0</ele><time>2026-04-04T12:20:37.999Z</time></trkpt><trkpt lat="45.099176281248724" lon="8.385459414433534"><ele>211.33333333333331</ele><time>2026-04-04T12:20:38.999Z</time></trkpt><trkpt lat="45.098994720711936" lon="8.385443505159843"><ele>212.66666666666666</ele><time>2026-04-04T12:20:39.999Z</time></trkpt><trkpt lat="45.098806269419114" lon="8.385444854638012"><ele>214.0</ele><time>2026-04-04T12:20:40.999Z</time></trkpt><trkpt lat="45.09861571427012" lon="8.38543941142982"><ele>214.0</ele><time>2026-04-04T12:20:41.999Z</time></trkpt><trkpt lat="45.098419710584736" lon="8.38542999587454"><ele>214.0</ele><time>2026-04-04T12:20:42.999Z</time></trkpt><trkpt lat="45.09822185091121" lon="8.385423854731423"><ele>214.0</ele><time>2026-04-04T12:20:43.999Z</time></trkpt><trkpt lat="45.09801844987263" lon="8.385414265417158"><ele>216.0</ele><time>2026-04-04T12:20:44.999Z</time></trkpt><trkpt lat="45.097829343339555" lon="8.385388445364963"><ele>218.0</ele><time>2026-04-04T12:20:45.999Z</time></trkpt><trkpt lat="45.097677979877346" lon="8.385333966723062"><ele>220.0</ele><time>2026-04-04T12:20:46.999Z</time></trkpt><trkpt lat="45.09753259647264" lon="8.385221627933026"><ele>224.66666666666666</ele><time>2026-04-04T12:20:47.999Z</time></trkpt><trkpt lat="45.097413149522325" lon="8.385055981781685"><ele>229.33333333333331</ele><time>2026-04-04T12:20:48.999Z</time></trkpt><trkpt lat="45.097311926695255" lon="8.384852625001393"><ele>234.0</ele><time>2026-04-04T12:20:49.999Z</time></trkpt><trkpt lat="45.09722119520508" lon="8.384625741206495"><ele>234.0</ele><time>2026-04-04T12:20:50.999Z</time></trkpt><trkpt lat="45.09714816191624" lon="8.384373848300019"><ele>234.0</ele><time>2026-04-04T12:20:51.999Z</time></trkpt><trkpt lat="45.097105831847266" lon="8.384116913892052"><ele>234.0</ele><time>2026-04-04T12:20:52.999Z</time></trkpt><trkpt lat="45.097096302704664" lon="8.383871829481897"><ele>234.0</ele><time>2026-04-04T12:20:53.999Z</time></trkpt><trkpt lat="45.09713603683686" lon="8.383624493039882"><ele>234.0</ele><time>2026-04-04T12:20:54.999Z</time></trkpt><trkpt lat="45.097205519963936" lon="8.383388918228489"><ele>234.0</ele><time>2026-04-04T12:20:55.999Z</time></trkpt><trkpt lat="45.09729753139802" lon="8.383165006796661"><ele>232.33333333333331</ele><time>2026-04-04T12:20:56.999Z</time></trkpt><trkpt lat="45.097398699718205" lon="8.382938561322195"><ele>230.66666666666666</ele><time>2026-04-04T12:20:57.999Z</time></trkpt><trkpt lat="45.09749881287997" lon="8.382707245647957"><ele>229.0</ele><time>2026-04-04T12:20:58.999Z</time></trkpt><trkpt lat="45.09759699288935" lon="8.382466979439931"><ele>229.0</ele><time>2026-04-04T12:20:59.999Z</time></trkpt><trkpt lat="45.097687766453156" lon="8.38222159478156"><ele>229.0</ele><time>2026-04-04T12:21:00.999Z</time></trkpt><trkpt lat="45.0977772209406" lon="8.381967685105232"><ele>229.0</ele><time>2026-04-04T12:21:01.999Z</time></trkpt><trkpt lat="45.09785428400656" lon="8.381730233922866"><ele>230.25</ele><time>2026-04-04T12:21:02.999Z</time></trkpt><trkpt lat="45.097903678664856" lon="8.381532204875322"><ele>231.5</ele><time>2026-04-04T12:21:03.999Z</time></trkpt><trkpt lat="45.09792185772205" lon="8.381342079914427"><ele>232.75</ele><time>2026-04-04T12:21:04.999Z</time></trkpt><trkpt lat="45.09790845830752" lon="8.381153744547905"><ele>234.0</ele><time>2026-04-04T12:21:05.999Z</time></trkpt><trkpt lat="45.09786641937782" lon="8.380949363550389"><ele>234.66666666666669</ele><time>2026-04-04T12:21:07Z</time></trkpt><trkpt lat="45.097805653513795" lon="8.38073707569983"><ele>235.33333333333334</ele><time>2026-04-04T12:21:08Z</time></trkpt><trkpt lat="45.097738749794814" lon="8.380511323020432"><ele>236.0</ele><time>2026-04-04T12:21:09Z</time></trkpt><trkpt lat="45.09768505086884" lon="8.380260643075166"><ele>236.0</ele><time>2026-04-04T12:21:10Z</time></trkpt><trkpt lat="45.097657534110446" lon="8.379992435091465"><ele>236.0</ele><time>2026-04-04T12:21:11Z</time></trkpt><trkpt lat="45.09765652670088" lon="8.379752637189736"><ele>236.0</ele><time>2026-04-04T12:21:12Z</time></trkpt><trkpt lat="45.09768679040539" lon="8.379523152989659"><ele>237.0</ele><time>2026-04-04T12:21:13Z</time></trkpt><trkpt lat="45.097748431965314" lon="8.379291670672512"><ele>238.0</ele><time>2026-04-04T12:21:14.001Z</time></trkpt><trkpt lat="45.09783190576267" lon="8.379068299310504"><ele>239.0</ele><time>2026-04-04T12:21:15Z</time></trkpt><trkpt lat="45.09793765673409" lon="8.37887595417648"><ele>238.0</ele><time>2026-04-04T12:21:16Z</time></trkpt><trkpt lat="45.09805839654718" lon="8.378708188672826"><ele>237.0</ele><time>2026-04-04T12:21:17Z</time></trkpt><trkpt lat="45.09819599928182" lon="8.37856915633236"><ele>236.0</ele><time>2026-04-04T12:21:18Z</time></trkpt><trkpt lat="45.09835275663972" lon="8.378449432821494"><ele>236.0</ele><time>2026-04-04T12:21:19Z</time></trkpt><trkpt lat="45.098519037384136" lon="8.378327934380934"><ele>236.0</ele><time>2026-04-04T12:21:20Z</time></trkpt><trkpt lat="45.098691831828084" lon="8.378198856811608"><ele>236.0</ele><time>2026-04-04T12:21:21Z</time></trkpt><trkpt lat="45.09886509943156" lon="8.378066912798003"><ele>239.33333333333334</ele><time>2026-04-04T12:21:22Z</time></trkpt><trkpt lat="45.099041931165274" lon="8.377938302577768"><ele>242.66666666666669</ele><time>2026-04-04T12:21:23Z</time></trkpt><trkpt lat="45.09921984227431" lon="8.37784226888628"><ele>246.0</ele><time>2026-04-04T12:21:24Z</time></trkpt><trkpt lat="45.09941466071954" lon="8.37777958299521"><ele>246.0</ele><time>2026-04-04T12:21:25Z</time></trkpt><trkpt lat="45.099623352136234" lon="8.377750517793597"><ele>246.0</ele><time>2026-04-04T12:21:26Z</time></trkpt><trkpt lat="45.09981496725429" lon="8.377719381320224"><ele>246.0</ele><time>2026-04-04T12:21:27Z</time></trkpt><trkpt lat="45.09996475681972" lon="8.377676016073222"><ele>246.0</ele><time>2026-04-04T12:21:28Z</time></trkpt><trkpt lat="45.10007619131963" lon="8.377605205953868"><ele>246.00000000000003</ele><time>2026-04-04T12:21:29Z</time></trkpt><trkpt lat="45.10016194479326" lon="8.377508941333248"><ele>246.00000000000003</ele><time>2026-04-04T12:21:30Z</time></trkpt><trkpt lat="45.10021350871568" lon="8.377390641020932"><ele>246.0</ele><time>2026-04-04T12:21:31Z</time></trkpt><trkpt lat="45.10023691329813" lon="8.377264730178318"><ele>246.0</ele><time>2026-04-04T12:21:32Z</time></trkpt><trkpt lat="45.10021462994478" lon="8.377118084285955"><ele>246.0</ele><time>2026-04-04T12:21:34Z</time></trkpt><trkpt lat="45.10010367002977" lon="8.377043246916703"><ele>246.0</ele><time>2026-04-04T12:21:36Z</time></trkpt><trkpt lat="45.100005009614286" lon="8.377092238815038"><ele>246.0</ele><time>2026-04-04T12:21:37Z</time></trkpt><trkpt lat="45.099899823775125" lon="8.377133281465252"><ele>246.0</ele><time>2026-04-04T12:21:38Z</time></trkpt><trkpt lat="45.099785524581655" lon="8.37718044234665"><ele>246.0</ele><time>2026-04-04T12:21:39Z</time></trkpt><trkpt lat="45.09965482548529" lon="8.377230841711443"><ele>246.0</ele><time>2026-04-04T12:21:40Z</time></trkpt><trkpt lat="45.09952182813658" lon="8.377267916693732"><ele>246.0</ele><time>2026-04-04T12:21:41Z</time></trkpt><trkpt lat="45.099374684825484" lon="8.377310490029226"><ele>246.0</ele><time>2026-04-04T12:21:42Z</time></trkpt><trkpt lat="45.099230299277586" lon="8.377298896627583"><ele>246.0</ele><time>2026-04-04T12:21:43Z</time></trkpt><trkpt lat="45.09909478698485" lon="8.377254936950585"><ele>246.0</ele><time>2026-04-04T12:21:44Z</time></trkpt><trkpt lat="45.09896891185016" lon="8.377171394926657"><ele>246.0</ele><time>2026-04-04T12:21:45Z</time></trkpt><trkpt lat="45.09886093751691" lon="8.377052263287673"><ele>246.0</ele><time>2026-04-04T12:21:46Z</time></trkpt><trkpt lat="45.09876303108085" lon="8.376887391793542"><ele>248.0</ele><time>2026-04-04T12:21:47Z</time></trkpt><trkpt lat="45.09867297293997" lon="8.376695200999349"><ele>250.0</ele><time>2026-04-04T12:21:48Z</time></trkpt><trkpt lat="45.09858339259966" lon="8.376497134148993"><ele>252.0</ele><time>2026-04-04T12:21:49Z</time></trkpt><trkpt lat="45.0984887058371" lon="8.376327756338725"><ele>252.0</ele><time>2026-04-04T12:21:50Z</time></trkpt><trkpt lat="45.09838700504877" lon="8.376185526280125"><ele>252.0</ele><time>2026-04-04T12:21:51Z</time></trkpt><trkpt lat="45.09825586210626" lon="8.376057605236735"><ele>252.0</ele><time>2026-04-04T12:21:52Z</time></trkpt><trkpt lat="45.098123044812525" lon="8.375935639036939"><ele>258.0</ele><time>2026-04-04T12:21:53Z</time></trkpt><trkpt lat="45.09797122723723" lon="8.375890395806904"><ele>264.0</ele><time>2026-04-04T12:21:54Z</time></trkpt><trkpt lat="45.0978083726437" lon="8.375838450071365"><ele>270.0</ele><time>2026-04-04T12:21:55Z</time></trkpt><trkpt lat="45.09763269213312" lon="8.375775962212924"><ele>270.0</ele><time>2026-04-04T12:21:56Z</time></trkpt><trkpt lat="45.09749762091147" lon="8.375632786468168"><ele>270.0</ele><time>2026-04-04T12:21:57Z</time></trkpt><trkpt lat="45.097380007598424" lon="8.375452845443872"><ele>270.0</ele><time>2026-04-04T12:21:58Z</time></trkpt><trkpt lat="45.09725409336948" lon="8.375252462146046"><ele>273.3333333333333</ele><time>2026-04-04T12:21:59Z</time></trkpt><trkpt lat="45.09715775107043" lon="8.375027606813905"><ele>276.66666666666663</ele><time>2026-04-04T12:22:00Z</time></trkpt><trkpt lat="45.097087103387324" lon="8.374820023590226"><ele>280.0</ele><time>2026-04-04T12:22:01Z</time></trkpt><trkpt lat="45.09706705890909" lon="8.374603063547466"><ele>280.0</ele><time>2026-04-04T12:22:02Z</time></trkpt><trkpt lat="45.097078935804646" lon="8.374371287342134"><ele>280.0</ele><time>2026-04-04T12:22:03Z</time></trkpt><trkpt lat="45.097081758699495" lon="8.374157815650882"><ele>280.0</ele><time>2026-04-04T12:22:04Z</time></trkpt><trkpt lat="45.097045223266974" lon="8.373998900732945"><ele>280.0</ele><time>2026-04-04T12:22:05Z</time></trkpt><trkpt lat="45.096966622886875" lon="8.373877618535271"><ele>279.0</ele><time>2026-04-04T12:22:06Z</time></trkpt><trkpt lat="45.09685494665352" lon="8.37379553415264"><ele>278.0</ele><time>2026-04-04T12:22:07Z</time></trkpt><trkpt lat="45.09671269683448" lon="8.373763624153517"><ele>277.0</ele><time>2026-04-04T12:22:08Z</time></trkpt><trkpt lat="45.0965562864681" lon="8.373753728895625"><ele>276.0</ele><time>2026-04-04T12:22:09Z</time></trkpt><trkpt lat="45.0963907811504" lon="8.373743556214928"><ele>276.0</ele><time>2026-04-04T12:22:10Z</time></trkpt><trkpt lat="45.09622735990949" lon="8.3737114188919"><ele>276.0</ele><time>2026-04-04T12:22:11Z</time></trkpt><trkpt lat="45.09609226276868" lon="8.373629867052289"><ele>276.0</ele><time>2026-04-04T12:22:12Z</time></trkpt><trkpt lat="45.09599899671944" lon="8.373491894527683"><ele>276.0</ele><time>2026-04-04T12:22:13Z</time></trkpt><trkpt lat="45.095955821339075" lon="8.373307975485764"><ele>276.0</ele><time>2026-04-04T12:22:14Z</time></trkpt><trkpt lat="45.095931115231046" lon="8.373130228538217"><ele>276.0</ele><time>2026-04-04T12:22:15Z</time></trkpt><trkpt lat="45.09589457498947" lon="8.373001418263346"><ele>276.0</ele><time>2026-04-04T12:22:16Z</time></trkpt><trkpt lat="45.09584072821203" lon="8.372918938413004"><ele>276.0</ele><time>2026-04-04T12:22:17Z</time></trkpt><trkpt lat="45.09577521942693" lon="8.37288987526702"><ele>276.0</ele><time>2026-04-04T12:22:18Z</time></trkpt><trkpt lat="45.09570156585904" lon="8.372913350113597"><ele>276.0</ele><time>2026-04-04T12:22:19Z</time></trkpt><trkpt lat="45.09562409455772" lon="8.37299293170435"><ele>274.75</ele><time>2026-04-04T12:22:20Z</time></trkpt><trkpt lat="45.09553490825577" lon="8.373093090119745"><ele>273.5</ele><time>2026-04-04T12:22:21Z</time></trkpt><trkpt lat="45.09542804964142" lon="8.373203802921026"><ele>272.25</ele><time>2026-04-04T12:22:22Z</time></trkpt><trkpt lat="45.09530672938561" lon="8.373320974733488"><ele>271.0</ele><time>2026-04-04T12:22:23Z</time></trkpt><trkpt lat="45.09517655786656" lon="8.373446170588313"><ele>271.0</ele><time>2026-04-04T12:22:24Z</time></trkpt><trkpt lat="45.09503465495328" lon="8.373575291159767"><ele>271.0</ele><time>2026-04-04T12:22:25Z</time></trkpt><trkpt lat="45.09487871902089" lon="8.373698159086757"><ele>271.0</ele><time>2026-04-04T12:22:26Z</time></trkpt><trkpt lat="45.09471452780483" lon="8.373829944285843"><ele>270.66666666666663</ele><time>2026-04-04T12:22:27Z</time></trkpt><trkpt lat="45.094566848818616" lon="8.373955680072768"><ele>270.3333333333333</ele><time>2026-04-04T12:22:28Z</time></trkpt><trkpt lat="45.09444022114397" lon="8.374067302450298"><ele>270.0</ele><time>2026-04-04T12:22:29Z</time></trkpt><trkpt lat="45.09432396721167" lon="8.374164914067348"><ele>270.0</ele><time>2026-04-04T12:22:30Z</time></trkpt><trkpt lat="45.094208449098396" lon="8.374236490221195"><ele>270.0</ele><time>2026-04-04T12:22:31Z</time></trkpt><trkpt lat="45.09411796448171" lon="8.374381760017245"><ele>270.0</ele><time>2026-04-04T12:22:31.999Z</time></trkpt><trkpt lat="45.09401757559445" lon="8.374529146154915"><ele>270.0</ele><time>2026-04-04T12:22:32.999Z</time></trkpt><trkpt lat="45.09391422899437" lon="8.37467693545931"><ele>272.25</ele><time>2026-04-04T12:22:33.999Z</time></trkpt><trkpt lat="45.09381065701444" lon="8.374815133279471"><ele>274.5</ele><time>2026-04-04T12:22:34.999Z</time></trkpt><trkpt lat="45.09372242848708" lon="8.374910515271345"><ele>276.75</ele><time>2026-04-04T12:22:35.999Z</time></trkpt><trkpt lat="45.093627339593326" lon="8.374977903204936"><ele>279.0</ele><time>2026-04-04T12:22:36.999Z</time></trkpt><trkpt lat="45.093516048309695" lon="8.375013350825826"><ele>279.0</ele><time>2026-04-04T12:22:37.999Z</time></trkpt><trkpt lat="45.093385641436065" lon="8.375016220264095"><ele>279.0</ele><time>2026-04-04T12:22:38.999Z</time></trkpt><trkpt lat="45.09324294628287" lon="8.375011564197138"><ele>279.0</ele><time>2026-04-04T12:22:39.999Z</time></trkpt><trkpt lat="45.093089883623016" lon="8.375013435924556"><ele>279.0</ele><time>2026-04-04T12:22:40.999Z</time></trkpt><trkpt lat="45.0929263882166" lon="8.375010608717453"><ele>280.0</ele><time>2026-04-04T12:22:41.999Z</time></trkpt><trkpt lat="45.09276263570553" lon="8.37498682262519"><ele>281.0</ele><time>2026-04-04T12:22:42.999Z</time></trkpt><trkpt lat="45.09259069999629" lon="8.374937914570532"><ele>282.0</ele><time>2026-04-04T12:22:43.999Z</time></trkpt><trkpt lat="45.09241357296863" lon="8.374875331733984"><ele>282.0</ele><time>2026-04-04T12:22:44.999Z</time></trkpt><trkpt lat="45.09222518150326" lon="8.37481079714228"><ele>282.0</ele><time>2026-04-04T12:22:45.999Z</time></trkpt><trkpt lat="45.09203494798612" lon="8.374748553801759"><ele>282.0</ele><time>2026-04-04T12:22:46.999Z</time></trkpt><trkpt lat="45.091844788323606" lon="8.374685751008776"><ele>282.0</ele><time>2026-04-04T12:22:47.999Z</time></trkpt><trkpt lat="45.091651336493825" lon="8.374623800435895"><ele>282.0</ele><time>2026-04-04T12:22:48.999Z</time></trkpt><trkpt lat="45.09145521236801" lon="8.374558883176023"><ele>282.0</ele><time>2026-04-04T12:22:49.999Z</time></trkpt><trkpt lat="45.091262252177664" lon="8.374492864232861"><ele>285.0</ele><time>2026-04-04T12:22:50.999Z</time></trkpt><trkpt lat="45.091068234817804" lon="8.37442952604306"><ele>288.0</ele><time>2026-04-04T12:22:51.999Z</time></trkpt><trkpt lat="45.09087361344779" lon="8.374368736985641"><ele>291.0</ele><time>2026-04-04T12:22:52.999Z</time></trkpt><trkpt lat="45.09068207504451" lon="8.374333610567431"><ele>292.6666666666667</ele><time>2026-04-04T12:22:53.999Z</time></trkpt><trkpt lat="45.09048584353132" lon="8.374335422247377"><ele>294.33333333333337</ele><time>2026-04-04T12:22:54.999Z</time></trkpt><trkpt lat="45.09029120259329" lon="8.374356712784087"><ele>296.0</ele><time>2026-04-04T12:22:55.999Z</time></trkpt><trkpt lat="45.09009619979299" lon="8.374355264371896"><ele>296.6666666666667</ele><time>2026-04-04T12:22:56.999Z</time></trkpt><trkpt lat="45.08990515153031" lon="8.374388037377004"><ele>297.3333333333333</ele><time>2026-04-04T12:22:57.999Z</time></trkpt><trkpt lat="45.089710327504" lon="8.374400524689735"><ele>298.0</ele><time>2026-04-04T12:22:58.999Z</time></trkpt><trkpt lat="45.08951157170443" lon="8.37441857906431"><ele>298.0</ele><time>2026-04-04T12:22:59.999Z</time></trkpt><trkpt lat="45.08930857923266" lon="8.374435635250121"><ele>298.0</ele><time>2026-04-04T12:23:00.999Z</time></trkpt><trkpt lat="45.08910382317067" lon="8.374445765911615"><ele>298.0</ele><time>2026-04-04T12:23:01.999Z</time></trkpt><trkpt lat="45.08891351540815" lon="8.374440624378964"><ele>299.0</ele><time>2026-04-04T12:23:02.999Z</time></trkpt><trkpt lat="45.088761675220205" lon="8.374422237914148"><ele>300.0</ele><time>2026-04-04T12:23:03.999Z</time></trkpt><trkpt lat="45.088607804706314" lon="8.374387806140604"><ele>301.0</ele><time>2026-04-04T12:23:04.999Z</time></trkpt><trkpt lat="45.08844196167231" lon="8.374314204612633"><ele>301.0</ele><time>2026-04-04T12:23:05.999Z</time></trkpt><trkpt lat="45.08826691641929" lon="8.374226703524489"><ele>301.0</ele><time>2026-04-04T12:23:06.999Z</time></trkpt><trkpt lat="45.088073873473" lon="8.37413931675045"><ele>301.0</ele><time>2026-04-04T12:23:07.999Z</time></trkpt><trkpt lat="45.08787375437762" lon="8.374044455637756"><ele>301.0</ele><time>2026-04-04T12:23:08.999Z</time></trkpt><trkpt lat="45.087672986143495" lon="8.373950193882786"><ele>301.0</ele><time>2026-04-04T12:23:09.999Z</time></trkpt><trkpt lat="45.087512438108035" lon="8.373875717967467"><ele>301.0</ele><time>2026-04-04T12:23:10.999Z</time></trkpt><trkpt lat="45.08736102348828" lon="8.373821658564824"><ele>297.0</ele><time>2026-04-04T12:23:11.999Z</time></trkpt><trkpt lat="45.08720862676605" lon="8.373794162386217"><ele>293.0</ele><time>2026-04-04T12:23:13.001Z</time></trkpt><trkpt lat="45.087047412278935" lon="8.373792672808053"><ele>289.0</ele><time>2026-04-04T12:23:14.001Z</time></trkpt><trkpt lat="45.08688943956127" lon="8.373783957628328"><ele>289.0</ele><time>2026-04-04T12:23:15.001Z</time></trkpt><trkpt lat="45.08674465344195" lon="8.373852196158731"><ele>289.0</ele><time>2026-04-04T12:23:16.001Z</time></trkpt><trkpt lat="45.08661678212683" lon="8.373913874811825"><ele>289.0</ele><time>2026-04-04T12:23:17.001Z</time></trkpt><trkpt lat="45.086495776043606" lon="8.373948711744392"><ele>289.0</ele><time>2026-04-04T12:23:18.001Z</time></trkpt><trkpt lat="45.08638287676536" lon="8.373959708709986"><ele>293.5</ele><time>2026-04-04T12:23:19.001Z</time></trkpt><trkpt lat="45.08627064546831" lon="8.373973716286425"><ele>298.0</ele><time>2026-04-04T12:23:20.001Z</time></trkpt><trkpt lat="45.0861473529342" lon="8.373955169098242"><ele>302.5</ele><time>2026-04-04T12:23:21.001Z</time></trkpt><trkpt lat="45.086010839212975" lon="8.37393968919487"><ele>307.0</ele><time>2026-04-04T12:23:22.001Z</time></trkpt><trkpt lat="45.085869233476195" lon="8.373897395139712"><ele>307.0</ele><time>2026-04-04T12:23:23.001Z</time></trkpt><trkpt lat="45.08573341495009" lon="8.37390845018088"><ele>307.0</ele><time>2026-04-04T12:23:24.001Z</time></trkpt><trkpt lat="45.08561941906947" lon="8.373902237372986"><ele>307.0</ele><time>2026-04-04T12:23:25.001Z</time></trkpt><trkpt lat="45.085520936989" lon="8.373904491928897"><ele>307.0</ele><time>2026-04-04T12:23:26.001Z</time></trkpt><trkpt lat="45.08542482603641" lon="8.373927722722357"><ele>307.0</ele><time>2026-04-04T12:23:27.001Z</time></trkpt><trkpt lat="45.08531536897684" lon="8.37395246346361"><ele>307.0</ele><time>2026-04-04T12:23:28Z</time></trkpt><trkpt lat="45.085199885521284" lon="8.374028143741512"><ele>307.0</ele><time>2026-04-04T12:23:29Z</time></trkpt><trkpt lat="45.08508976191231" lon="8.374098425537838"><ele>307.0</ele><time>2026-04-04T12:23:30Z</time></trkpt><trkpt lat="45.08498274597373" lon="8.374149867690827"><ele>307.0</ele><time>2026-04-04T12:23:31Z</time></trkpt><trkpt lat="45.08487075271748" lon="8.374200806680088"><ele>305.6</ele><time>2026-04-04T12:23:32Z</time></trkpt><trkpt lat="45.084775230028825" lon="8.374247541945106"><ele>304.2</ele><time>2026-04-04T12:23:33Z</time></trkpt><trkpt lat="45.084692334970384" lon="8.374247803261289"><ele>302.8</ele><time>2026-04-04T12:23:34Z</time></trkpt><trkpt lat="45.08462455608441" lon="8.374207909717313"><ele>301.4</ele><time>2026-04-04T12:23:35Z</time></trkpt><trkpt lat="45.084528260159104" lon="8.374161157221302"><ele>300.0</ele><time>2026-04-04T12:23:36Z</time></trkpt><trkpt lat="45.084418780133305" lon="8.374108578621303"><ele>300.0</ele><time>2026-04-04T12:23:37Z</time></trkpt><trkpt lat="45.0843003398537" lon="8.374051696846298"><ele>300.0</ele><time>2026-04-04T12:23:38Z</time></trkpt><trkpt lat="45.084176697250726" lon="8.373996446129226"><ele>300.0</ele><time>2026-04-04T12:23:39Z</time></trkpt><trkpt lat="45.08405538081667" lon="8.37395325201465"><ele>300.0</ele><time>2026-04-04T12:23:40Z</time></trkpt><trkpt lat="45.083941258622346" lon="8.373926818319266"><ele>300.6</ele><time>2026-04-04T12:23:41Z</time></trkpt><trkpt lat="45.083829774491655" lon="8.373918324196802"><ele>301.2</ele><time>2026-04-04T12:23:42Z</time></trkpt><trkpt lat="45.08372147485631" lon="8.373959002966625"><ele>301.8</ele><time>2026-04-04T12:23:43Z</time></trkpt><trkpt lat="45.08362900371155" lon="8.374024239035972"><ele>302.4</ele><time>2026-04-04T12:23:44Z</time></trkpt><trkpt lat="45.083533465483534" lon="8.37406508706757"><ele>303.0</ele><time>2026-04-04T12:23:45Z</time></trkpt><trkpt lat="45.08344452706972" lon="8.374049466013622"><ele>303.0</ele><time>2026-04-04T12:23:46Z</time></trkpt><trkpt lat="45.08336906870286" lon="8.37404942890326"><ele>303.0</ele><time>2026-04-04T12:23:47Z</time></trkpt><trkpt lat="45.083297094896764" lon="8.374046324662727"><ele>303.0</ele><time>2026-04-04T12:23:48Z</time></trkpt><trkpt lat="45.083227285245364" lon="8.374041299370688"><ele>303.0</ele><time>2026-04-04T12:23:49Z</time></trkpt><trkpt lat="45.0831288747646" lon="8.374032355169872"><ele>303.0</ele><time>2026-04-04T12:23:51Z</time></trkpt><trkpt lat="45.08307532303215" lon="8.37409783575608"><ele>303.0</ele><time>2026-04-04T12:23:58Z</time></trkpt><trkpt lat="45.08299881855541" lon="8.374086425752944"><ele>301.6666666666667</ele><time>2026-04-04T12:24:03Z</time></trkpt><trkpt lat="45.0829190701684" lon="8.374051626348678"><ele>300.3333333333333</ele><time>2026-04-04T12:24:05Z</time></trkpt><trkpt lat="45.08286154467107" lon="8.374012289913946"><ele>299.0</ele><time>2026-04-04T12:25:59Z</time></trkpt><trkpt lat="45.08292368196767" lon="8.374031259474071"><ele>297.66666666666663</ele><time>2026-04-04T12:27:55Z</time></trkpt><trkpt lat="45.08301229754428" lon="8.374118498788306"><ele>296.3333333333333</ele><time>2026-04-04T12:27:57Z</time></trkpt><trkpt lat="45.083115329597376" lon="8.374121408187936"><ele>295.0</ele><time>2026-04-04T12:27:59Z</time></trkpt><trkpt lat="45.08322520611608" lon="8.374119043030838"><ele>295.0</ele><time>2026-04-04T12:28:01Z</time></trkpt><trkpt lat="45.08334574364051" lon="8.374121315858122"><ele>295.0</ele><time>2026-04-04T12:28:03Z</time></trkpt><trkpt lat="45.08340658918271" lon="8.374075640360607"><ele>295.0</ele><time>2026-04-04T12:28:06Z</time></trkpt><trkpt lat="45.08328912813664" lon="8.37409386498358"><ele>295.0</ele><time>2026-04-04T12:28:13Z</time></trkpt><trkpt lat="45.0832200723668" lon="8.37409416153186"><ele>295.0</ele><time>2026-04-04T12:28:14Z</time></trkpt><trkpt lat="45.083111657854644" lon="8.374087878694311"><ele>295.00000000000006</ele><time>2026-04-04T12:28:16Z</time></trkpt><trkpt lat="45.08305068722173" lon="8.374151931698973"><ele>295.0</ele><time>2026-04-04T12:28:19Z</time></trkpt><trkpt lat="45.082984087099376" lon="8.374214608929991"><ele>295.0</ele><time>2026-04-04T12:28:22Z</time></trkpt><trkpt lat="45.082922657094116" lon="8.374238791257206"><ele>295.0</ele><time>2026-04-04T12:28:25Z</time></trkpt><trkpt lat="45.08285358081559" lon="8.374242393575997"><ele>295.0</ele><time>2026-04-04T12:28:31Z</time></trkpt><trkpt lat="45.08279129970296" lon="8.374193792921183"><ele>295.00000000000006</ele><time>2026-04-04T12:28:44Z</time></trkpt><trkpt lat="45.082850908500426" lon="8.374236482152458"><ele>295.0</ele><time>2026-04-04T12:30:55.999Z</time></trkpt><trkpt lat="45.082918456710765" lon="8.374245751996678"><ele>295.00000000000006</ele><time>2026-04-04T12:31:08.998Z</time></trkpt><trkpt lat="45.082981484940156" lon="8.374196303079867"><ele>295.0</ele><time>2026-04-04T12:45:58.998Z</time></trkpt><trkpt lat="45.0829281422028" lon="8.374279793931146"><ele>295.0</ele><time>2026-04-04T12:56:31.998Z</time></trkpt><trkpt lat="45.08286332594834" lon="8.374262388366779"><ele>295.0</ele><time>2026-04-04T12:56:38.998Z</time></trkpt><trkpt lat="45.082820897791294" lon="8.374187984268879"><ele>295.0</ele><time>2026-04-04T12:56:56Z</time></trkpt><trkpt lat="45.08286508960125" lon="8.374255806834663"><ele>295.00000000000006</ele><time>2026-04-04T13:02:37.998Z</time></trkpt><trkpt lat="45.08295371082751" lon="8.37423058459276"><ele>295.0</ele><time>2026-04-04T13:02:49.998Z</time></trkpt><trkpt lat="45.08302136837588" lon="8.374214233446502"><ele>295.0</ele><time>2026-04-04T13:02:51.998Z</time></trkpt><trkpt lat="45.08305410073897" lon="8.374137041440406"><ele>295.0</ele><time>2026-04-04T13:02:56.998Z</time></trkpt><trkpt lat="45.08298348128507" lon="8.374084929909836"><ele>295.0</ele><time>2026-04-04T13:03:00.998Z</time></trkpt><trkpt lat="45.082889361234194" lon="8.374052685874146"><ele>295.0</ele><time>2026-04-04T13:03:04Z</time></trkpt><trkpt lat="45.08279211364046" lon="8.374004784847696"><ele>295.0</ele><time>2026-04-04T13:03:06Z</time></trkpt><trkpt lat="45.08266935733873" lon="8.373955885854095"><ele>295.0</ele><time>2026-04-04T13:03:08Z</time></trkpt><trkpt lat="45.08260587030358" lon="8.37392041417259"><ele>295.0</ele><time>2026-04-04T13:03:09Z</time></trkpt><trkpt lat="45.08254244473059" lon="8.373889857014609"><ele>295.0</ele><time>2026-04-04T13:03:10Z</time></trkpt><trkpt lat="45.08244626808696" lon="8.373851290200088"><ele>295.0</ele><time>2026-04-04T13:03:12Z</time></trkpt><trkpt lat="45.08236592052712" lon="8.373820269627203"><ele>295.0</ele><time>2026-04-04T13:03:14Z</time></trkpt><trkpt lat="45.0823044200917" lon="8.373856286498002"><ele>295.0</ele><time>2026-04-04T13:03:17Z</time></trkpt><trkpt lat="45.08239414949695" lon="8.373819392157232"><ele>295.0</ele><time>2026-04-04T13:03:21Z</time></trkpt><trkpt lat="45.08246033813145" lon="8.37385866555711"><ele>295.0</ele><time>2026-04-04T13:03:22Z</time></trkpt><trkpt lat="45.08252756332949" lon="8.373892881926265"><ele>295.0</ele><time>2026-04-04T13:03:23Z</time></trkpt><trkpt lat="45.08260669920422" lon="8.37393054273675"><ele>295.0</ele><time>2026-04-04T13:03:24Z</time></trkpt><trkpt lat="45.08268957916286" lon="8.373967821405074"><ele>295.0</ele><time>2026-04-04T13:03:25Z</time></trkpt><trkpt lat="45.08278064753934" lon="8.374003845341893"><ele>295.0</ele><time>2026-04-04T13:03:26Z</time></trkpt><trkpt lat="45.0828660193081" lon="8.37403948510458"><ele>295.0</ele><time>2026-04-04T13:03:27Z</time></trkpt><trkpt lat="45.08294173462098" lon="8.374073224327065"><ele>295.0</ele><time>2026-04-04T13:03:28Z</time></trkpt><trkpt lat="45.08300247031458" lon="8.374100998694711"><ele>295.0</ele><time>2026-04-04T13:03:29Z</time></trkpt><trkpt lat="45.083084955337625" lon="8.37412626861982"><ele>295.0</ele><time>2026-04-04T13:03:31Z</time></trkpt><trkpt lat="45.083203622391544" lon="8.374111261981577"><ele>295.0</ele><time>2026-04-04T13:03:37.999Z</time></trkpt><trkpt lat="45.08327415153154" lon="8.374117584035938"><ele>295.0</ele><time>2026-04-04T13:03:38.999Z</time></trkpt><trkpt lat="45.08335360419027" lon="8.374121431569076"><ele>296.3333333333333</ele><time>2026-04-04T13:03:39.999Z</time></trkpt><trkpt lat="45.083425948861645" lon="8.37411630252396"><ele>297.66666666666663</ele><time>2026-04-04T13:03:40.999Z</time></trkpt><trkpt lat="45.0834935062967" lon="8.37410223856135"><ele>299.0</ele><time>2026-04-04T13:03:41.999Z</time></trkpt><trkpt lat="45.08355409379879" lon="8.374076953642229"><ele>300.3333333333333</ele><time>2026-04-04T13:03:42.999Z</time></trkpt><trkpt lat="45.08366405544292" lon="8.374028463351353"><ele>301.6666666666667</ele><time>2026-04-04T13:03:44.999Z</time></trkpt><trkpt lat="45.08374765627536" lon="8.374010985113202"><ele>303.0</ele><time>2026-04-04T13:03:46.999Z</time></trkpt><trkpt lat="45.083848599795715" lon="8.374002684366742"><ele>303.0</ele><time>2026-04-04T13:03:48.999Z</time></trkpt><trkpt lat="45.083913254669284" lon="8.374012529474808"><ele>303.0</ele><time>2026-04-04T13:03:49.999Z</time></trkpt><trkpt lat="45.083998181142874" lon="8.374027131098225"><ele>303.0</ele><time>2026-04-04T13:03:50.999Z</time></trkpt><trkpt lat="45.08409223358813" lon="8.374049542900766"><ele>303.0</ele><time>2026-04-04T13:03:51.999Z</time></trkpt><trkpt lat="45.084199299490116" lon="8.374083890396719"><ele>303.0</ele><time>2026-04-04T13:03:52.999Z</time></trkpt><trkpt lat="45.08431190372266" lon="8.37412635928778"><ele>302.4</ele><time>2026-04-04T13:03:53.999Z</time></trkpt><trkpt lat="45.08442214507427" lon="8.374187908763892"><ele>301.8</ele><time>2026-04-04T13:03:54.999Z</time></trkpt><trkpt lat="45.08449723754728" lon="8.374243892459685"><ele>301.2</ele><time>2026-04-04T13:03:55.999Z</time></trkpt><trkpt lat="45.08458055530736" lon="8.374266515311922"><ele>300.6</ele><time>2026-04-04T13:03:57.999Z</time></trkpt><trkpt lat="45.08463741654585" lon="8.374195572192393"><ele>300.0</ele><time>2026-04-04T13:03:59.999Z</time></trkpt><trkpt lat="45.084690816510495" lon="8.374065991924232"><ele>300.0</ele><time>2026-04-04T13:04:01.999Z</time></trkpt><trkpt lat="45.08474035210105" lon="8.3739710167736"><ele>300.0</ele><time>2026-04-04T13:04:03.999Z</time></trkpt><trkpt lat="45.084782075486096" lon="8.373866961970434"><ele>300.0</ele><time>2026-04-04T13:04:05.999Z</time></trkpt><trkpt lat="45.084818750674096" lon="8.373748341060255"><ele>300.0</ele><time>2026-04-04T13:04:07.999Z</time></trkpt><trkpt lat="45.08485870607298" lon="8.373611756152751"><ele>300.0</ele><time>2026-04-04T13:04:09.999Z</time></trkpt><trkpt lat="45.08489866750629" lon="8.373488621805581"><ele>300.6666666666667</ele><time>2026-04-04T13:04:11.999Z</time></trkpt><trkpt lat="45.08494808147991" lon="8.37337831888516"><ele>301.3333333333333</ele><time>2026-04-04T13:04:13.999Z</time></trkpt><trkpt lat="45.0850125455281" lon="8.37326718212534"><ele>302.0</ele><time>2026-04-04T13:04:15.999Z</time></trkpt><trkpt lat="45.08508417496243" lon="8.373144786670982"><ele>302.66666666666663</ele><time>2026-04-04T13:04:17.999Z</time></trkpt><trkpt lat="45.08512684728356" lon="8.373063114581349"><ele>303.3333333333333</ele><time>2026-04-04T13:04:20.999Z</time></trkpt><trkpt lat="45.08516404350029" lon="8.372989812305118"><ele>304.0</ele><time>2026-04-04T13:06:37.999Z</time></trkpt><trkpt lat="45.08518698417798" lon="8.372892961383437"><ele>304.0</ele><time>2026-04-04T13:06:39.999Z</time></trkpt><trkpt lat="45.08513023918254" lon="8.372961322806601"><ele>304.0</ele><time>2026-04-04T13:06:49.999Z</time></trkpt><trkpt lat="45.08509181583404" lon="8.373096352641854"><ele>304.0</ele><time>2026-04-04T13:07:01.998Z</time></trkpt><trkpt lat="45.08501728315992" lon="8.373234389853037"><ele>304.0</ele><time>2026-04-04T13:07:03.998Z</time></trkpt><trkpt lat="45.084958795154066" lon="8.37333448285631"><ele>304.0</ele><time>2026-04-04T13:07:04.998Z</time></trkpt><trkpt lat="45.08492072482748" lon="8.373408681388733"><ele>303.2</ele><time>2026-04-04T13:07:05.998Z</time></trkpt><trkpt lat="45.08486751083535" lon="8.373573750336165"><ele>302.4</ele><time>2026-04-04T13:07:07.998Z</time></trkpt><trkpt lat="45.08483442459093" lon="8.373690042182485"><ele>301.6</ele><time>2026-04-04T13:07:08.998Z</time></trkpt><trkpt lat="45.08480416726252" lon="8.373800111912985"><ele>300.8</ele><time>2026-04-04T13:07:09.998Z</time></trkpt><trkpt lat="45.08473837115531" lon="8.373934584610424"><ele>300.0</ele><time>2026-04-04T13:07:11.998Z</time></trkpt><trkpt lat="45.084699630403605" lon="8.374015753609754"><ele>300.0</ele><time>2026-04-04T13:07:12.998Z</time></trkpt><trkpt lat="45.08466145447168" lon="8.374093799405479"><ele>300.0</ele><time>2026-04-04T13:07:13.998Z</time></trkpt><trkpt lat="45.08461410413194" lon="8.374211989346719"><ele>300.0</ele><time>2026-04-04T13:07:16Z</time></trkpt><trkpt lat="45.084554883471185" lon="8.374262525483774"><ele>300.0</ele><time>2026-04-04T13:07:19Z</time></trkpt><trkpt lat="45.08445169006582" lon="8.374196190493597"><ele>300.0</ele><time>2026-04-04T13:07:21Z</time></trkpt><trkpt lat="45.08438993947663" lon="8.37415243932051"><ele>300.0</ele><time>2026-04-04T13:07:22Z</time></trkpt><trkpt lat="45.08432559711776" lon="8.374110388372564"><ele>300.0</ele><time>2026-04-04T13:07:23Z</time></trkpt><trkpt lat="45.08425551940365" lon="8.374075766937146"><ele>300.0</ele><time>2026-04-04T13:07:24Z</time></trkpt><trkpt lat="45.08418050274895" lon="8.374051411954925"><ele>300.0</ele><time>2026-04-04T13:07:25Z</time></trkpt><trkpt lat="45.084093320571846" lon="8.374028299641461"><ele>300.0</ele><time>2026-04-04T13:07:26Z</time></trkpt><trkpt lat="45.08399734209899" lon="8.374003796174657"><ele>300.0</ele><time>2026-04-04T13:07:27Z</time></trkpt><trkpt lat="45.08388516079247" lon="8.373986674560106"><ele>300.6</ele><time>2026-04-04T13:07:28Z</time></trkpt><trkpt lat="45.0837700130203" lon="8.373982707031177"><ele>301.2</ele><time>2026-04-04T13:07:29Z</time></trkpt><trkpt lat="45.08365934641308" lon="8.374000407013344"><ele>301.8</ele><time>2026-04-04T13:07:30Z</time></trkpt><trkpt lat="45.08355975367492" lon="8.374039336602214"><ele>302.4</ele><time>2026-04-04T13:07:31Z</time></trkpt><trkpt lat="45.08346531678041" lon="8.37408302517136"><ele>303.0</ele><time>2026-04-04T13:07:32Z</time></trkpt><trkpt lat="45.08338245971801" lon="8.374109624291663"><ele>303.0</ele><time>2026-04-04T13:07:33Z</time></trkpt><trkpt lat="45.08330523015167" lon="8.374112970396428"><ele>303.0</ele><time>2026-04-04T13:07:34Z</time></trkpt><trkpt lat="45.083222998973376" lon="8.374104537659472"><ele>303.0</ele><time>2026-04-04T13:07:35Z</time></trkpt><trkpt lat="45.08313757604933" lon="8.374096781216762"><ele>303.0</ele><time>2026-04-04T13:07:36Z</time></trkpt><trkpt lat="45.083058449427526" lon="8.374091284577023"><ele>303.0</ele><time>2026-04-04T13:07:37Z</time></trkpt><trkpt lat="45.0829794997033" lon="8.374077850583712"><ele>303.0</ele><time>2026-04-04T13:07:38Z</time></trkpt><trkpt lat="45.08290589247884" lon="8.374049763617117"><ele>301.6666666666667</ele><time>2026-04-04T13:07:39Z</time></trkpt><trkpt lat="45.08282608639023" lon="8.374002027630496"><ele>300.3333333333333</ele><time>2026-04-04T13:07:40Z</time></trkpt><trkpt lat="45.08273892724218" lon="8.373964468565443"><ele>299.0</ele><time>2026-04-04T13:07:41Z</time></trkpt><trkpt lat="45.08265642122308" lon="8.373932011141413"><ele>297.66666666666663</ele><time>2026-04-04T13:07:42Z</time></trkpt><trkpt lat="45.082582668220965" lon="8.373863135305266"><ele>296.3333333333333</ele><time>2026-04-04T13:07:43Z</time></trkpt><trkpt lat="45.08251318099993" lon="8.373838286232916"><ele>295.0</ele><time>2026-04-04T13:07:44Z</time></trkpt><trkpt lat="45.08240113024989" lon="8.373794043345356"><ele>291.4</ele><time>2026-04-04T13:07:46Z</time></trkpt><trkpt lat="45.0822985817077" lon="8.373763406943878"><ele>287.8</ele><time>2026-04-04T13:07:48Z</time></trkpt><trkpt lat="45.082243672216315" lon="8.373704842883562"><ele>284.2</ele><time>2026-04-04T13:07:49.999Z</time></trkpt><trkpt lat="45.08227547519803" lon="8.373560375173344"><ele>280.6</ele><time>2026-04-04T13:07:50.999Z</time></trkpt><trkpt lat="45.08233108812322" lon="8.373409801126172"><ele>277.0</ele><time>2026-04-04T13:07:52.999Z</time></trkpt><trkpt lat="45.082380049052944" lon="8.373272594614717"><ele>277.8</ele><time>2026-04-04T13:07:54.999Z</time></trkpt><trkpt lat="45.082434274583036" lon="8.373159380999278"><ele>278.6</ele><time>2026-04-04T13:07:56.999Z</time></trkpt><trkpt lat="45.082487468947086" lon="8.373050958616965"><ele>279.40000000000003</ele><time>2026-04-04T13:07:58.999Z</time></trkpt><trkpt lat="45.082531902962884" lon="8.372948738033855"><ele>280.2</ele><time>2026-04-04T13:08:00.999Z</time></trkpt><trkpt lat="45.082531570971675" lon="8.372824878538319"><ele>281.0</ele><time>2026-04-04T13:08:02.999Z</time></trkpt><trkpt lat="45.08246345171039" lon="8.37271430786155"><ele>279.6</ele><time>2026-04-04T13:08:04.999Z</time></trkpt><trkpt lat="45.08236642424703" lon="8.372668795496216"><ele>278.20000000000005</ele><time>2026-04-04T13:08:06.999Z</time></trkpt><trkpt lat="45.082279490629396" lon="8.372640515565859"><ele>276.79999999999995</ele><time>2026-04-04T13:08:08.999Z</time></trkpt><trkpt lat="45.082212420363405" lon="8.372547881245783"><ele>275.4</ele><time>2026-04-04T13:08:10.999Z</time></trkpt><trkpt lat="45.0821589016721" lon="8.372418088504716"><ele>274.0</ele><time>2026-04-04T13:08:12.999Z</time></trkpt><trkpt lat="45.082085655200444" lon="8.372343231009847"><ele>274.0</ele><time>2026-04-04T13:08:14.999Z</time></trkpt><trkpt lat="45.0819890748541" lon="8.372299587194153"><ele>274.0</ele><time>2026-04-04T13:08:16.999Z</time></trkpt><trkpt lat="45.081902983939365" lon="8.372216489029356"><ele>274.0</ele><time>2026-04-04T13:08:18.999Z</time></trkpt><trkpt lat="45.08180788241666" lon="8.372136126998296"><ele>274.0</ele><time>2026-04-04T13:08:20.999Z</time></trkpt><trkpt lat="45.08170440702991" lon="8.372043473468842"><ele>274.0</ele><time>2026-04-04T13:08:22.999Z</time></trkpt><trkpt lat="45.08165691494317" lon="8.371983283768879"><ele>268.75</ele><time>2026-04-04T13:08:23.999Z</time></trkpt><trkpt lat="45.081564631321186" lon="8.371881103412143"><ele>263.5</ele><time>2026-04-04T13:08:25.999Z</time></trkpt><trkpt lat="45.081468476073915" lon="8.371788988309552"><ele>258.25</ele><time>2026-04-04T13:08:27.999Z</time></trkpt><trkpt lat="45.081364842389206" lon="8.37172382885031"><ele>253.0</ele><time>2026-04-04T13:08:29.999Z</time></trkpt><trkpt lat="45.08125487521151" lon="8.371680886589585"><ele>253.0</ele><time>2026-04-04T13:08:31.999Z</time></trkpt><trkpt lat="45.08113491583287" lon="8.371656224533353"><ele>253.0</ele><time>2026-04-04T13:08:33.999Z</time></trkpt><trkpt lat="45.08101234130492" lon="8.37164802948697"><ele>253.0</ele><time>2026-04-04T13:08:35.999Z</time></trkpt><trkpt lat="45.0808950009385" lon="8.37163263812141"><ele>253.0</ele><time>2026-04-04T13:08:37.999Z</time></trkpt><trkpt lat="45.080832286811585" lon="8.371612607509464"><ele>253.0</ele><time>2026-04-04T13:08:38.999Z</time></trkpt><trkpt lat="45.08076954140485" lon="8.371591950377393"><ele>249.5</ele><time>2026-04-04T13:08:39.999Z</time></trkpt><trkpt lat="45.080658628293804" lon="8.371513582134286"><ele>246.0</ele><time>2026-04-04T13:08:41.999Z</time></trkpt><trkpt lat="45.080550892983126" lon="8.37143342435847"><ele>242.5</ele><time>2026-04-04T13:08:43.999Z</time></trkpt><trkpt lat="45.08042665649373" lon="8.371393909073875"><ele>239.0</ele><time>2026-04-04T13:08:45.999Z</time></trkpt><trkpt lat="45.08030679271835" lon="8.371394978819595"><ele>239.0</ele><time>2026-04-04T13:08:47.999Z</time></trkpt><trkpt lat="45.080194022553584" lon="8.371365942655961"><ele>238.99999999999997</ele><time>2026-04-04T13:08:49.999Z</time></trkpt><trkpt lat="45.080088482258084" lon="8.371341827621713"><ele>238.99999999999997</ele><time>2026-04-04T13:08:51.999Z</time></trkpt><trkpt lat="45.08001867201292" lon="8.371344289858985"><ele>239.0</ele><time>2026-04-04T13:08:53.999Z</time></trkpt><trkpt lat="45.07996334131484" lon="8.371299873312449"><ele>239.0</ele><time>2026-04-04T13:09:59.999Z</time></trkpt><trkpt lat="45.07990686078363" lon="8.371178970454672"><ele>237.0</ele><time>2026-04-04T13:10:01.999Z</time></trkpt><trkpt lat="45.079855937738174" lon="8.371060177622867"><ele>235.0</ele><time>2026-04-04T13:10:03.999Z</time></trkpt><trkpt lat="45.07979506349089" lon="8.370920218832621"><ele>233.0</ele><time>2026-04-04T13:10:05.999Z</time></trkpt><trkpt lat="45.07973490004582" lon="8.37077472436078"><ele>231.0</ele><time>2026-04-04T13:10:07.999Z</time></trkpt><trkpt lat="45.07966814281431" lon="8.370623828326424"><ele>231.0</ele><time>2026-04-04T13:10:09.999Z</time></trkpt><trkpt lat="45.07963159905096" lon="8.370539426919963"><ele>231.0</ele><time>2026-04-04T13:10:10.999Z</time></trkpt><trkpt lat="45.07958909085462" lon="8.370450768064876"><ele>231.0</ele><time>2026-04-04T13:10:11.999Z</time></trkpt><trkpt lat="45.079543843060755" lon="8.370353151269818"><ele>231.0</ele><time>2026-04-04T13:10:12.999Z</time></trkpt><trkpt lat="45.079493640628385" lon="8.370242110206696"><ele>231.0</ele><time>2026-04-04T13:10:13.999Z</time></trkpt><trkpt lat="45.079426546642054" lon="8.370117448438855"><ele>231.0</ele><time>2026-04-04T13:10:14.999Z</time></trkpt><trkpt lat="45.0793558073923" lon="8.370007246890125"><ele>231.33333333333334</ele><time>2026-04-04T13:10:15.999Z</time></trkpt><trkpt lat="45.07928083915579" lon="8.369913028556828"><ele>231.66666666666669</ele><time>2026-04-04T13:10:16.999Z</time></trkpt><trkpt lat="45.07920707473521" lon="8.36983199201534"><ele>232.0</ele><time>2026-04-04T13:10:17.999Z</time></trkpt><trkpt lat="45.079140922477855" lon="8.369762564701364"><ele>232.33333333333334</ele><time>2026-04-04T13:10:18.999Z</time></trkpt><trkpt lat="45.07908397569302" lon="8.369701305120103"><ele>232.66666666666669</ele><time>2026-04-04T13:10:19.999Z</time></trkpt><trkpt lat="45.07900298443526" lon="8.369635195849014"><ele>233.0</ele><time>2026-04-04T13:10:21.999Z</time></trkpt><trkpt lat="45.07899786878516" lon="8.369750237269988"><ele>233.16666666666669</ele><time>2026-04-04T13:10:25.999Z</time></trkpt><trkpt lat="45.07911599325014" lon="8.369828684711534"><ele>233.33333333333334</ele><time>2026-04-04T13:10:27.999Z</time></trkpt><trkpt lat="45.07918153877538" lon="8.369898924532496"><ele>233.5</ele><time>2026-04-04T13:10:28.999Z</time></trkpt><trkpt lat="45.079242303400946" lon="8.369977687870035"><ele>233.66666666666669</ele><time>2026-04-04T13:10:29.999Z</time></trkpt><trkpt lat="45.079296505376185" lon="8.370045995680915"><ele>233.83333333333334</ele><time>2026-04-04T13:10:30.999Z</time></trkpt><trkpt lat="45.07934351034347" lon="8.370116294136784"><ele>234.0</ele><time>2026-04-04T13:10:31.999Z</time></trkpt><trkpt lat="45.07938740283827" lon="8.37019092903461"><ele>234.0</ele><time>2026-04-04T13:10:32.999Z</time></trkpt><trkpt lat="45.07942811886422" lon="8.37026492668882"><ele>234.0</ele><time>2026-04-04T13:10:33.999Z</time></trkpt><trkpt lat="45.07947369776181" lon="8.370353294654537"><ele>234.0</ele><time>2026-04-04T13:10:34.999Z</time></trkpt><trkpt lat="45.07952023646899" lon="8.370453111190505"><ele>234.0</ele><time>2026-04-04T13:10:35.999Z</time></trkpt><trkpt lat="45.07956821365513" lon="8.370564788469508"><ele>234.0</ele><time>2026-04-04T13:10:36.999Z</time></trkpt><trkpt lat="45.07961551730976" lon="8.370677891338138"><ele>234.0</ele><time>2026-04-04T13:10:37.999Z</time></trkpt><trkpt lat="45.07965758968374" lon="8.370780995585896"><ele>233.5</ele><time>2026-04-04T13:10:38.999Z</time></trkpt><trkpt lat="45.079698779647664" lon="8.370880636672783"><ele>233.0</ele><time>2026-04-04T13:10:39.999Z</time></trkpt><trkpt lat="45.079741379773616" lon="8.37098075058902"><ele>232.5</ele><time>2026-04-04T13:10:40.999Z</time></trkpt><trkpt lat="45.07978426789742" lon="8.371085528428605"><ele>232.0</ele><time>2026-04-04T13:10:41.999Z</time></trkpt><trkpt lat="45.079824668244605" lon="8.37118344290089"><ele>231.5</ele><time>2026-04-04T13:10:42.999Z</time></trkpt><trkpt lat="45.07986304834473" lon="8.371274241572808"><ele>231.0</ele><time>2026-04-04T13:10:43.999Z</time></trkpt><trkpt lat="45.079900920476526" lon="8.371366989079785"><ele>232.33333333333334</ele><time>2026-04-04T13:10:44.999Z</time></trkpt><trkpt lat="45.07993630578049" lon="8.371464770267925"><ele>233.66666666666669</ele><time>2026-04-04T13:10:45.999Z</time></trkpt><trkpt lat="45.07996516272135" lon="8.37157516629966"><ele>235.0</ele><time>2026-04-04T13:10:46.999Z</time></trkpt><trkpt lat="45.0799794970006" lon="8.37169724773009"><ele>236.33333333333334</ele><time>2026-04-04T13:10:47.999Z</time></trkpt><trkpt lat="45.07999020159758" lon="8.37183465727215"><ele>237.66666666666669</ele><time>2026-04-04T13:10:48.999Z</time></trkpt><trkpt lat="45.07999530121062" lon="8.371967682702156"><ele>239.0</ele><time>2026-04-04T13:10:49.999Z</time></trkpt><trkpt lat="45.08001033705966" lon="8.37209705091491"><ele>239.0</ele><time>2026-04-04T13:10:50.999Z</time></trkpt><trkpt lat="45.0800256701292" lon="8.372231322827865"><ele>238.99999999999997</ele><time>2026-04-04T13:10:51.999Z</time></trkpt><trkpt lat="45.080038775222974" lon="8.372367147146676"><ele>238.99999999999997</ele><time>2026-04-04T13:10:52.999Z</time></trkpt><trkpt lat="45.08003882925156" lon="8.372499703913542"><ele>239.0</ele><time>2026-04-04T13:10:53.999Z</time></trkpt><trkpt lat="45.08003693181106" lon="8.372621125937277"><ele>239.0</ele><time>2026-04-04T13:10:54.999Z</time></trkpt><trkpt lat="45.08003746116959" lon="8.372735113871126"><ele>239.0</ele><time>2026-04-04T13:10:55.999Z</time></trkpt><trkpt lat="45.080045377265506" lon="8.37285801310141"><ele>238.99999999999997</ele><time>2026-04-04T13:10:56.999Z</time></trkpt><trkpt lat="45.080052276513" lon="8.372986265638826"><ele>238.99999999999997</ele><time>2026-04-04T13:10:57.999Z</time></trkpt><trkpt lat="45.080063060501615" lon="8.37311412105625"><ele>239.0</ele><time>2026-04-04T13:10:58.999Z</time></trkpt><trkpt lat="45.080080998854484" lon="8.373249249642097"><ele>239.0</ele><time>2026-04-04T13:10:59.999Z</time></trkpt><trkpt lat="45.08009296954431" lon="8.373371576113662"><ele>239.50000000000003</ele><time>2026-04-04T13:11:00.999Z</time></trkpt><trkpt lat="45.0801080205127" lon="8.373491221049925"><ele>240.0</ele><time>2026-04-04T13:11:01.999Z</time></trkpt><trkpt lat="45.08013538640406" lon="8.373615339634153"><ele>240.5</ele><time>2026-04-04T13:11:02.999Z</time></trkpt><trkpt lat="45.08017041350837" lon="8.373734175488396"><ele>241.0</ele><time>2026-04-04T13:11:03.999Z</time></trkpt><trkpt lat="45.08020506806712" lon="8.373848529888052"><ele>241.50000000000003</ele><time>2026-04-04T13:11:04.999Z</time></trkpt><trkpt lat="45.08023758078257" lon="8.373960894955522"><ele>242.0</ele><time>2026-04-04T13:11:05.998Z</time></trkpt><trkpt lat="45.080266624744425" lon="8.374074790679378"><ele>242.16666666666669</ele><time>2026-04-04T13:11:06.998Z</time></trkpt><trkpt lat="45.08028704735555" lon="8.374183526076047"><ele>242.33333333333334</ele><time>2026-04-04T13:11:07.998Z</time></trkpt><trkpt lat="45.08030341186537" lon="8.374309039747942"><ele>242.5</ele><time>2026-04-04T13:11:08.998Z</time></trkpt><trkpt lat="45.08030923646607" lon="8.374423974173963"><ele>242.66666666666669</ele><time>2026-04-04T13:11:09.998Z</time></trkpt><trkpt lat="45.080303391006304" lon="8.374541419400199"><ele>242.83333333333334</ele><time>2026-04-04T13:11:10.998Z</time></trkpt><trkpt lat="45.08028782038331" lon="8.374672063423885"><ele>243.0</ele><time>2026-04-04T13:11:11.998Z</time></trkpt><trkpt lat="45.08026276141435" lon="8.374795893419487"><ele>243.5</ele><time>2026-04-04T13:11:12.998Z</time></trkpt><trkpt lat="45.08023585502726" lon="8.374913792345243"><ele>244.0</ele><time>2026-04-04T13:11:13.998Z</time></trkpt><trkpt lat="45.08020288277301" lon="8.375023653839259"><ele>244.5</ele><time>2026-04-04T13:11:14.998Z</time></trkpt><trkpt lat="45.08017476728743" lon="8.37513335523456"><ele>245.0</ele><time>2026-04-04T13:11:15.998Z</time></trkpt><trkpt lat="45.080160175691624" lon="8.375234605654306"><ele>245.5</ele><time>2026-04-04T13:11:16.998Z</time></trkpt><trkpt lat="45.08014275749992" lon="8.37539816556239"><ele>246.0</ele><time>2026-04-04T13:11:18.998Z</time></trkpt><trkpt lat="45.080110918087996" lon="8.375528857551698"><ele>246.4</ele><time>2026-04-04T13:11:20.998Z</time></trkpt><trkpt lat="45.08005327344723" lon="8.375675732666403"><ele>246.8</ele><time>2026-04-04T13:11:22.998Z</time></trkpt><trkpt lat="45.0800148175592" lon="8.375746357909529"><ele>247.20000000000002</ele><time>2026-04-04T13:11:23.998Z</time></trkpt><trkpt lat="45.079916149232005" lon="8.375856260312668"><ele>247.60000000000002</ele><time>2026-04-04T13:11:25.998Z</time></trkpt><trkpt lat="45.07985610415864" lon="8.375907530208785"><ele>248.0</ele><time>2026-04-04T13:11:27Z</time></trkpt><trkpt lat="45.07979155387645" lon="8.37596280093736"><ele>246.66666666666669</ele><time>2026-04-04T13:11:28Z</time></trkpt><trkpt lat="45.07972477409249" lon="8.376022049760772"><ele>245.33333333333334</ele><time>2026-04-04T13:11:29Z</time></trkpt><trkpt lat="45.079656139484236" lon="8.376084976197042"><ele>244.0</ele><time>2026-04-04T13:11:30Z</time></trkpt><trkpt lat="45.079586436909224" lon="8.376148511553655"><ele>242.66666666666669</ele><time>2026-04-04T13:11:31Z</time></trkpt><trkpt lat="45.07951510109767" lon="8.376208695301074"><ele>241.33333333333334</ele><time>2026-04-04T13:11:32Z</time></trkpt><trkpt lat="45.07944666544651" lon="8.376277310922362"><ele>240.0</ele><time>2026-04-04T13:11:33Z</time></trkpt><trkpt lat="45.07938024427495" lon="8.37634433996731"><ele>240.66666666666666</ele><time>2026-04-04T13:11:34Z</time></trkpt><trkpt lat="45.07931012325626" lon="8.376409833489248"><ele>241.33333333333331</ele><time>2026-04-04T13:11:35Z</time></trkpt><trkpt lat="45.07924839008771" lon="8.376473840855368"><ele>242.0</ele><time>2026-04-04T13:11:36Z</time></trkpt><trkpt lat="45.07919382986691" lon="8.376534512171883"><ele>242.66666666666666</ele><time>2026-04-04T13:11:37Z</time></trkpt><trkpt lat="45.07911824279076" lon="8.37661530039846"><ele>243.33333333333331</ele><time>2026-04-04T13:11:39Z</time></trkpt><trkpt lat="45.07906933120661" lon="8.376683949576188"><ele>244.0</ele><time>2026-04-04T13:14:46.999Z</time></trkpt><trkpt lat="45.079139146321616" lon="8.376612660599598"><ele>243.99999999999997</ele><time>2026-04-04T13:14:59.999Z</time></trkpt><trkpt lat="45.07919163389519" lon="8.376560829900972"><ele>244.0</ele><time>2026-04-04T13:15:00.999Z</time></trkpt><trkpt lat="45.079256442982256" lon="8.376495413933622"><ele>244.0</ele><time>2026-04-04T13:15:01.999Z</time></trkpt><trkpt lat="45.0793202861641" lon="8.376431572860298"><ele>244.0</ele><time>2026-04-04T13:15:02.999Z</time></trkpt><trkpt lat="45.07938300704515" lon="8.376364621245155"><ele>243.99999999999997</ele><time>2026-04-04T13:15:03.999Z</time></trkpt><trkpt lat="45.07945418282889" lon="8.376293821819008"><ele>244.0</ele><time>2026-04-04T13:15:04.999Z</time></trkpt><trkpt lat="45.079530391472" lon="8.37622622318771"><ele>243.33333333333331</ele><time>2026-04-04T13:15:05.999Z</time></trkpt><trkpt lat="45.07959764697636" lon="8.376162027131306"><ele>242.66666666666666</ele><time>2026-04-04T13:15:06.999Z</time></trkpt><trkpt lat="45.07966659300753" lon="8.37610373260121"><ele>242.0</ele><time>2026-04-04T13:15:07.999Z</time></trkpt><trkpt lat="45.079737650387635" lon="8.376038304003393"><ele>241.33333333333331</ele><time>2026-04-04T13:15:08.999Z</time></trkpt><trkpt lat="45.07979741405436" lon="8.3759832511019"><ele>240.66666666666666</ele><time>2026-04-04T13:15:09.999Z</time></trkpt><trkpt lat="45.079855104907935" lon="8.375925335232791"><ele>240.0</ele><time>2026-04-04T13:15:10.999Z</time></trkpt><trkpt lat="45.07991843807687" lon="8.37586199495154"><ele>241.0</ele><time>2026-04-04T13:15:11.999Z</time></trkpt><trkpt lat="45.07998097807427" lon="8.375798841776858"><ele>242.0</ele><time>2026-04-04T13:15:12.999Z</time></trkpt><trkpt lat="45.08003757423763" lon="8.375742629833535"><ele>243.0</ele><time>2026-04-04T13:15:13.999Z</time></trkpt><trkpt lat="45.08009457245924" lon="8.375636691876913"><ele>244.0</ele><time>2026-04-04T13:15:15.999Z</time></trkpt><trkpt lat="45.08012367792047" lon="8.375535228043582"><ele>245.0</ele><time>2026-04-04T13:15:18.998Z</time></trkpt><trkpt lat="45.08014747133775" lon="8.375422216545404"><ele>246.0</ele><time>2026-04-04T13:15:43Z</time></trkpt><trkpt lat="45.080184543052184" lon="8.375303010393404"><ele>246.0</ele><time>2026-04-04T13:15:45Z</time></trkpt><trkpt lat="45.08019377543821" lon="8.375200753246453"><ele>246.0</ele><time>2026-04-04T13:15:51Z</time></trkpt><trkpt lat="45.08015949173079" lon="8.375284145868175"><ele>246.0</ele><time>2026-04-04T13:15:54Z</time></trkpt><trkpt lat="45.080151019148786" lon="8.375449637962742"><ele>246.0</ele><time>2026-04-04T13:15:56Z</time></trkpt><trkpt lat="45.08010525921108" lon="8.375576135217004"><ele>246.0</ele><time>2026-04-04T13:15:58Z</time></trkpt><trkpt lat="45.08008061300648" lon="8.375663534802378"><ele>246.0</ele><time>2026-04-04T13:16:00Z</time></trkpt><trkpt lat="45.08002170745268" lon="8.375737505530443"><ele>246.0</ele><time>2026-04-04T13:16:10Z</time></trkpt><trkpt lat="45.079966281734265" lon="8.375797143368803"><ele>246.00000000000003</ele><time>2026-04-04T13:16:26.999Z</time></trkpt><trkpt lat="45.08006655108215" lon="8.375689844194474"><ele>246.00000000000003</ele><time>2026-04-04T13:28:39Z</time></trkpt><trkpt lat="45.08013964600454" lon="8.375477353629522"><ele>246.0</ele><time>2026-04-04T13:28:41Z</time></trkpt><trkpt lat="45.08016139139488" lon="8.37537898089486"><ele>246.0</ele><time>2026-04-04T13:28:42Z</time></trkpt><trkpt lat="45.080175705366386" lon="8.37528605645907"><ele>246.0</ele><time>2026-04-04T13:28:43Z</time></trkpt><trkpt lat="45.080205298831125" lon="8.375126386260208"><ele>246.00000000000003</ele><time>2026-04-04T13:28:45Z</time></trkpt><trkpt lat="45.080244035935586" lon="8.37496375483408"><ele>246.00000000000003</ele><time>2026-04-04T13:28:47Z</time></trkpt><trkpt lat="45.0802667210756" lon="8.374867181301546"><ele>246.0</ele><time>2026-04-04T13:28:48Z</time></trkpt><trkpt lat="45.08029106338942" lon="8.37477475765502"><ele>246.0</ele><time>2026-04-04T13:28:49Z</time></trkpt><trkpt lat="45.08030966007376" lon="8.374676730669066"><ele>245.5714285714286</ele><time>2026-04-04T13:28:50Z</time></trkpt><trkpt lat="45.08032211163118" lon="8.374577415554644"><ele>245.14285714285717</ele><time>2026-04-04T13:28:51Z</time></trkpt><trkpt lat="45.080332623433215" lon="8.374479859000102"><ele>244.71428571428572</ele><time>2026-04-04T13:28:52Z</time></trkpt><trkpt lat="45.08033732865557" lon="8.374380086870767"><ele>244.2857142857143</ele><time>2026-04-04T13:28:53Z</time></trkpt><trkpt lat="45.08033746837893" lon="8.374275958078574"><ele>243.8571428571429</ele><time>2026-04-04T13:28:54Z</time></trkpt><trkpt lat="45.08032432616015" lon="8.374173920954748"><ele>243.42857142857142</ele><time>2026-04-04T13:28:55Z</time></trkpt><trkpt lat="45.08030631709418" lon="8.37407670479462"><ele>243.0</ele><time>2026-04-04T13:28:56Z</time></trkpt><trkpt lat="45.080286540547846" lon="8.373983414543915"><ele>243.0</ele><time>2026-04-04T13:28:57Z</time></trkpt><trkpt lat="45.08026413819209" lon="8.373896000433623"><ele>243.0</ele><time>2026-04-04T13:28:58Z</time></trkpt><trkpt lat="45.08023557402535" lon="8.37381114310112"><ele>243.0</ele><time>2026-04-04T13:28:59Z</time></trkpt><trkpt lat="45.08020831975863" lon="8.373717233700127"><ele>243.0</ele><time>2026-04-04T13:29:00Z</time></trkpt><trkpt lat="45.0801833886196" lon="8.373552928588781"><ele>243.0</ele><time>2026-04-04T13:29:01.999Z</time></trkpt><trkpt lat="45.08014809420384" lon="8.373433906362775"><ele>243.0</ele><time>2026-04-04T13:29:02.999Z</time></trkpt><trkpt lat="45.0801286128794" lon="8.373313526821963"><ele>242.83333333333334</ele><time>2026-04-04T13:29:03.999Z</time></trkpt><trkpt lat="45.08011620702352" lon="8.373188749412973"><ele>242.66666666666669</ele><time>2026-04-04T13:29:04.999Z</time></trkpt><trkpt lat="45.08010747062095" lon="8.373068785207598"><ele>242.5</ele><time>2026-04-04T13:29:05.999Z</time></trkpt><trkpt lat="45.08009244400179" lon="8.372947094269103"><ele>242.33333333333334</ele><time>2026-04-04T13:29:06.999Z</time></trkpt><trkpt lat="45.08008286921273" lon="8.37282293643336"><ele>242.16666666666669</ele><time>2026-04-04T13:29:07.999Z</time></trkpt><trkpt lat="45.08007666506154" lon="8.372710596422761"><ele>242.0</ele><time>2026-04-04T13:29:08.999Z</time></trkpt><trkpt lat="45.080066947408724" lon="8.37260286586979"><ele>241.39999999999998</ele><time>2026-04-04T13:29:09.999Z</time></trkpt><trkpt lat="45.0800620073257" lon="8.372488283933594"><ele>240.79999999999998</ele><time>2026-04-04T13:29:10.999Z</time></trkpt><trkpt lat="45.080062837352045" lon="8.3723593837469"><ele>240.2</ele><time>2026-04-04T13:29:11.999Z</time></trkpt><trkpt lat="45.08005858847492" lon="8.37222721098679"><ele>239.6</ele><time>2026-04-04T13:29:12.999Z</time></trkpt><trkpt lat="45.08004793668811" lon="8.37210395671006"><ele>239.0</ele><time>2026-04-04T13:29:13.999Z</time></trkpt><trkpt lat="45.08002704011359" lon="8.371958914255451"><ele>239.0</ele><time>2026-04-04T13:29:14.999Z</time></trkpt><trkpt lat="45.08001008063549" lon="8.371804866767766"><ele>238.99999999999997</ele><time>2026-04-04T13:29:15.999Z</time></trkpt><trkpt lat="45.079993040897875" lon="8.371665412667445"><ele>238.99999999999997</ele><time>2026-04-04T13:29:16.999Z</time></trkpt><trkpt lat="45.0799728933485" lon="8.371542464597228"><ele>239.0</ele><time>2026-04-04T13:29:17.999Z</time></trkpt><trkpt lat="45.07994279029888" lon="8.371425342838789"><ele>239.0</ele><time>2026-04-04T13:29:18.999Z</time></trkpt><trkpt lat="45.079900456118295" lon="8.371311977654646"><ele>237.39999999999998</ele><time>2026-04-04T13:29:19.999Z</time></trkpt><trkpt lat="45.079841144579774" lon="8.371184648701167"><ele>235.79999999999998</ele><time>2026-04-04T13:29:20.999Z</time></trkpt><trkpt lat="45.07977570700989" lon="8.37103364614936"><ele>234.20000000000002</ele><time>2026-04-04T13:29:21.999Z</time></trkpt><trkpt lat="45.079717304476674" lon="8.370894622643762"><ele>232.60000000000002</ele><time>2026-04-04T13:29:22.999Z</time></trkpt><trkpt lat="45.07966965797249" lon="8.370776508653291"><ele>231.0</ele><time>2026-04-04T13:29:23.999Z</time></trkpt><trkpt lat="45.079620986490795" lon="8.370658116942417"><ele>231.0</ele><time>2026-04-04T13:29:24.999Z</time></trkpt><trkpt lat="45.07957149959796" lon="8.370542623938604"><ele>231.00000000000003</ele><time>2026-04-04T13:29:25.999Z</time></trkpt><trkpt lat="45.079522109515864" lon="8.370426780040196"><ele>231.00000000000003</ele><time>2026-04-04T13:29:26.999Z</time></trkpt><trkpt lat="45.07947249997569" lon="8.370315910560764"><ele>231.0</ele><time>2026-04-04T13:29:27.999Z</time></trkpt><trkpt lat="45.079415469016105" lon="8.370210355156988"><ele>231.0</ele><time>2026-04-04T13:29:28.999Z</time></trkpt><trkpt lat="45.07935728331773" lon="8.370109258576875"><ele>231.33333333333334</ele><time>2026-04-04T13:29:29.999Z</time></trkpt><trkpt lat="45.07929661831193" lon="8.370023315480053"><ele>231.66666666666669</ele><time>2026-04-04T13:29:30.999Z</time></trkpt><trkpt lat="45.07922799306736" lon="8.369941504138767"><ele>232.0</ele><time>2026-04-04T13:29:31.999Z</time></trkpt><trkpt lat="45.07915493545307" lon="8.369867232339693"><ele>232.33333333333334</ele><time>2026-04-04T13:29:32.999Z</time></trkpt><trkpt lat="45.07908998141821" lon="8.369805284687255"><ele>232.66666666666669</ele><time>2026-04-04T13:29:33.999Z</time></trkpt><trkpt lat="45.07903621000111" lon="8.369753434089667"><ele>233.0</ele><time>2026-04-04T13:29:34.999Z</time></trkpt><trkpt lat="45.07898614566955" lon="8.369685818444028"><ele>233.16666666666669</ele><time>2026-04-04T13:29:36.999Z</time></trkpt><trkpt lat="45.07907454011313" lon="8.369666550260854"><ele>233.33333333333334</ele><time>2026-04-04T13:29:39.999Z</time></trkpt><trkpt lat="45.07916159983265" lon="8.369769454119488"><ele>233.5</ele><time>2026-04-04T13:29:41.999Z</time></trkpt><trkpt lat="45.07921516191094" lon="8.369830191987013"><ele>233.66666666666669</ele><time>2026-04-04T13:29:42.999Z</time></trkpt><trkpt lat="45.07927736117038" lon="8.369898840243328"><ele>233.83333333333334</ele><time>2026-04-04T13:29:43.999Z</time></trkpt><trkpt lat="45.07933533185361" lon="8.36996892275317"><ele>234.0</ele><time>2026-04-04T13:29:44.999Z</time></trkpt><trkpt lat="45.07939065321099" lon="8.370046483136766"><ele>234.0</ele><time>2026-04-04T13:29:45.999Z</time></trkpt><trkpt lat="45.07944780584505" lon="8.37014086787843"><ele>234.0</ele><time>2026-04-04T13:29:46.999Z</time></trkpt><trkpt lat="45.079502615146275" lon="8.37023577064281"><ele>234.0</ele><time>2026-04-04T13:29:47.999Z</time></trkpt><trkpt lat="45.0795456191406" lon="8.370333534020636"><ele>234.0</ele><time>2026-04-04T13:29:48.999Z</time></trkpt><trkpt lat="45.07958443949366" lon="8.370414556413596"><ele>234.0</ele><time>2026-04-04T13:29:49.999Z</time></trkpt><trkpt lat="45.079645284523814" lon="8.370548850872911"><ele>234.0</ele><time>2026-04-04T13:29:51.999Z</time></trkpt><trkpt lat="45.0797125670437" lon="8.370707947980542"><ele>233.5</ele><time>2026-04-04T13:29:53.999Z</time></trkpt><trkpt lat="45.079754232825614" lon="8.370801581480785"><ele>233.0</ele><time>2026-04-04T13:29:54.999Z</time></trkpt><trkpt lat="45.079795714063835" lon="8.370906628077508"><ele>232.5</ele><time>2026-04-04T13:29:55.999Z</time></trkpt><trkpt lat="45.07984461992262" lon="8.371016734044582"><ele>232.0</ele><time>2026-04-04T13:29:56.999Z</time></trkpt><trkpt lat="45.079885958908115" lon="8.371109920590348"><ele>231.5</ele><time>2026-04-04T13:29:57.999Z</time></trkpt><trkpt lat="45.07992123817462" lon="8.371186647930159"><ele>231.0</ele><time>2026-04-04T13:29:58.999Z</time></trkpt><trkpt lat="45.07997818601601" lon="8.371306278156222"><ele>232.33333333333334</ele><time>2026-04-04T13:30:00.999Z</time></trkpt><trkpt lat="45.0800463676352" lon="8.371361258339647"><ele>233.66666666666669</ele><time>2026-04-04T13:30:20Z</time></trkpt><trkpt lat="45.080145945621695" lon="8.371346312204178"><ele>235.0</ele><time>2026-04-04T13:30:22Z</time></trkpt><trkpt lat="45.08021070975519" lon="8.371360180571761"><ele>236.33333333333334</ele><time>2026-04-04T13:30:23Z</time></trkpt><trkpt lat="45.08028244382677" lon="8.371375200627432"><ele>237.66666666666669</ele><time>2026-04-04T13:30:24Z</time></trkpt><trkpt lat="45.080347119498335" lon="8.37138496108356"><ele>239.0</ele><time>2026-04-04T13:30:25Z</time></trkpt><trkpt lat="45.0804681163346" lon="8.371405939845197"><ele>239.0</ele><time>2026-04-04T13:30:27Z</time></trkpt><trkpt lat="45.08057190317616" lon="8.371433154706692"><ele>238.99999999999997</ele><time>2026-04-04T13:30:29Z</time></trkpt><trkpt lat="45.08068187907189" lon="8.371511262712303"><ele>238.99999999999997</ele><time>2026-04-04T13:30:31Z</time></trkpt><trkpt lat="45.08074079473104" lon="8.37155625998311"><ele>239.0</ele><time>2026-04-04T13:30:32Z</time></trkpt><trkpt lat="45.08084953974483" lon="8.371626327969802"><ele>239.0</ele><time>2026-04-04T13:30:34Z</time></trkpt><trkpt lat="45.08096211668408" lon="8.371638374451896"><ele>241.33333333333334</ele><time>2026-04-04T13:30:36Z</time></trkpt><trkpt lat="45.08103009640936" lon="8.371646157735592"><ele>243.66666666666669</ele><time>2026-04-04T13:30:37Z</time></trkpt><trkpt lat="45.08109754403625" lon="8.371653204649162"><ele>246.0</ele><time>2026-04-04T13:30:38Z</time></trkpt><trkpt lat="45.081160774629836" lon="8.37165564227216"><ele>248.33333333333331</ele><time>2026-04-04T13:30:39Z</time></trkpt><trkpt lat="45.08122655766173" lon="8.371662991061019"><ele>250.66666666666666</ele><time>2026-04-04T13:30:40Z</time></trkpt><trkpt lat="45.08129234213882" lon="8.37167705255404"><ele>253.0</ele><time>2026-04-04T13:30:41Z</time></trkpt><trkpt lat="45.081405327040756" lon="8.371725104340783"><ele>253.0</ele><time>2026-04-04T13:30:43Z</time></trkpt><trkpt lat="45.081517881493994" lon="8.37180305214459"><ele>253.0</ele><time>2026-04-04T13:30:45Z</time></trkpt><trkpt lat="45.081613693614266" lon="8.37190304985961"><ele>253.0</ele><time>2026-04-04T13:30:47Z</time></trkpt><trkpt lat="45.08169809995696" lon="8.372004166700307"><ele>253.0</ele><time>2026-04-04T13:30:49Z</time></trkpt><trkpt lat="45.081798665329345" lon="8.372105232626714"><ele>255.25</ele><time>2026-04-04T13:30:51Z</time></trkpt><trkpt lat="45.081909070800535" lon="8.372178636220509"><ele>257.5</ele><time>2026-04-04T13:30:53Z</time></trkpt><trkpt lat="45.0820102764569" lon="8.3722613197169"><ele>259.75</ele><time>2026-04-04T13:30:55Z</time></trkpt><trkpt lat="45.08211776593332" lon="8.372318397746977"><ele>262.0</ele><time>2026-04-04T13:30:57Z</time></trkpt><trkpt lat="45.082189201427596" lon="8.372416313878983"><ele>264.0</ele><time>2026-04-04T13:30:59Z</time></trkpt><trkpt lat="45.082215523287104" lon="8.372499362721197"><ele>266.0</ele><time>2026-04-04T13:31:00Z</time></trkpt><trkpt lat="45.082290030413716" lon="8.372604924469492"><ele>268.0</ele><time>2026-04-04T13:31:02Z</time></trkpt><trkpt lat="45.082377968593185" lon="8.372635358755222"><ele>270.0</ele><time>2026-04-04T13:31:03.999Z</time></trkpt><trkpt lat="45.08244133981567" lon="8.372667006626802"><ele>272.0</ele><time>2026-04-04T13:31:04.999Z</time></trkpt><trkpt lat="45.0825111970231" lon="8.372765985921152"><ele>274.0</ele><time>2026-04-04T13:31:06.999Z</time></trkpt><trkpt lat="45.08250647619936" lon="8.372900907613026"><ele>274.59999999999997</ele><time>2026-04-04T13:31:08.999Z</time></trkpt><trkpt lat="45.08247543247052" lon="8.372979173952919"><ele>275.2</ele><time>2026-04-04T13:31:09.999Z</time></trkpt><trkpt lat="45.082402632760086" lon="8.373104996061235"><ele>275.79999999999995</ele><time>2026-04-04T13:31:11.999Z</time></trkpt><trkpt lat="45.082345794111326" lon="8.37324853056122"><ele>276.4</ele><time>2026-04-04T13:31:13.999Z</time></trkpt><trkpt lat="45.08229039377069" lon="8.373404960774842"><ele>277.0</ele><time>2026-04-04T13:31:15.999Z</time></trkpt><trkpt lat="45.08226119527195" lon="8.373496201282911"><ele>277.0</ele><time>2026-04-04T13:31:16.999Z</time></trkpt><trkpt lat="45.08224044659352" lon="8.373634941650177"><ele>277.0</ele><time>2026-04-04T13:31:18.999Z</time></trkpt><trkpt lat="45.082267984707315" lon="8.373721682795527"><ele>277.0</ele><time>2026-04-04T13:31:20.999Z</time></trkpt><trkpt lat="45.082317948580815" lon="8.373787892119179"><ele>277.0</ele><time>2026-04-04T13:31:44.999Z</time></trkpt><trkpt lat="45.082463056068086" lon="8.373845075172838"><ele>277.0</ele><time>2026-04-04T13:31:46.999Z</time></trkpt><trkpt lat="45.082538378440745" lon="8.373881933767471"><ele>280.0</ele><time>2026-04-04T13:31:47.999Z</time></trkpt><trkpt lat="45.08262010375853" lon="8.373916546898613"><ele>283.0</ele><time>2026-04-04T13:31:48.999Z</time></trkpt><trkpt lat="45.08271916112605" lon="8.373957381672229"><ele>286.0</ele><time>2026-04-04T13:31:49.999Z</time></trkpt><trkpt lat="45.08280505086191" lon="8.373982551218779"><ele>289.0</ele><time>2026-04-04T13:31:50.999Z</time></trkpt><trkpt lat="45.08287792462951" lon="8.374006744086573"><ele>292.0</ele><time>2026-04-04T13:31:51.999Z</time></trkpt><trkpt lat="45.08295370221904" lon="8.374044833523774"><ele>295.0</ele><time>2026-04-04T13:31:52.999Z</time></trkpt><trkpt lat="45.08304106348181" lon="8.374085913294866"><ele>295.0</ele><time>2026-04-04T13:31:54.999Z</time></trkpt><trkpt lat="45.08305837907985" lon="8.374180778356466"><ele>295.0</ele><time>2026-04-04T13:33:01Z</time></trkpt><trkpt lat="45.08297995211124" lon="8.374264433493396"><ele>295.0</ele><time>2026-04-04T13:37:11Z</time></trkpt><trkpt lat="45.082909010920005" lon="8.374285770586377"><ele>295.0</ele><time>2026-04-04T13:37:19Z</time></trkpt><trkpt lat="45.082788425437606" lon="8.374184674900892"><ele>295.0</ele><time>2026-04-04T13:45:28Z</time></trkpt><trkpt lat="45.08286027074764" lon="8.374246547752035"><ele>295.0</ele><time>2026-04-04T14:05:19.999Z</time></trkpt><trkpt lat="45.08292470192141" lon="8.37422626620296"><ele>295.0</ele><time>2026-04-04T14:05:26.999Z</time></trkpt><trkpt lat="45.08298275406209" lon="8.37418761833105"><ele>295.0</ele><time>2026-04-04T14:05:34.999Z</time></trkpt><trkpt lat="45.08304189603036" lon="8.37415571733733"><ele>295.0</ele><time>2026-04-04T14:08:26Z</time></trkpt><trkpt lat="45.083112653581175" lon="8.374094204429401"><ele>295.0</ele><time>2026-04-04T14:08:29Z</time></trkpt><trkpt lat="45.083219841989354" lon="8.374105853760597"><ele>295.0</ele><time>2026-04-04T14:08:31Z</time></trkpt><trkpt lat="45.083352221224686" lon="8.374105862515588"><ele>296.6</ele><time>2026-04-04T14:08:33Z</time></trkpt><trkpt lat="45.083438762907704" lon="8.37410144719453"><ele>298.2</ele><time>2026-04-04T14:08:34Z</time></trkpt><trkpt lat="45.08352335763535" lon="8.374082504343818"><ele>299.8</ele><time>2026-04-04T14:08:35Z</time></trkpt><trkpt lat="45.083611467667545" lon="8.374046151610367"><ele>301.4</ele><time>2026-04-04T14:08:36Z</time></trkpt><trkpt lat="45.083724554060126" lon="8.374001299537648"><ele>303.0</ele><time>2026-04-04T14:08:37Z</time></trkpt><trkpt lat="45.0838340820033" lon="8.373986195548298"><ele>303.0</ele><time>2026-04-04T14:08:38Z</time></trkpt><trkpt lat="45.083931289736526" lon="8.37399607890246"><ele>303.0</ele><time>2026-04-04T14:08:39Z</time></trkpt><trkpt lat="45.08401658791137" lon="8.374018860264325"><ele>303.0</ele><time>2026-04-04T14:08:40Z</time></trkpt><trkpt lat="45.08409780943975" lon="8.374041977495201"><ele>303.0</ele><time>2026-04-04T14:08:41Z</time></trkpt><trkpt lat="45.08418184743888" lon="8.374064724750484"><ele>303.0</ele><time>2026-04-04T14:08:42Z</time></trkpt><trkpt lat="45.08426903238805" lon="8.374093207561843"><ele>303.0</ele><time>2026-04-04T14:08:43Z</time></trkpt><trkpt lat="45.08435056048934" lon="8.374133363302233"><ele>302.5</ele><time>2026-04-04T14:08:44Z</time></trkpt><trkpt lat="45.084416478884926" lon="8.374177440155504"><ele>302.0</ele><time>2026-04-04T14:08:45Z</time></trkpt><trkpt lat="45.08447801447658" lon="8.374221491015463"><ele>301.5</ele><time>2026-04-04T14:08:46Z</time></trkpt><trkpt lat="45.084547438021715" lon="8.3742681395074"><ele>301.0</ele><time>2026-04-04T14:08:47Z</time></trkpt><trkpt lat="45.08464000513654" lon="8.374307388625976"><ele>300.5</ele><time>2026-04-04T14:08:48Z</time></trkpt><trkpt lat="45.08474760016942" lon="8.374314763053436"><ele>300.0</ele><time>2026-04-04T14:08:49Z</time></trkpt><trkpt lat="45.0848506434275" lon="8.374281578200964"><ele>301.75</ele><time>2026-04-04T14:08:50Z</time></trkpt><trkpt lat="45.084962268118616" lon="8.374216590389388"><ele>303.5</ele><time>2026-04-04T14:08:51Z</time></trkpt><trkpt lat="45.08507246447578" lon="8.37414898671304"><ele>305.25</ele><time>2026-04-04T14:08:52Z</time></trkpt><trkpt lat="45.08517758559615" lon="8.374079274779305"><ele>307.0</ele><time>2026-04-04T14:08:53Z</time></trkpt><trkpt lat="45.0852718807363" lon="8.374016198518088"><ele>307.0</ele><time>2026-04-04T14:08:54Z</time></trkpt><trkpt lat="45.08535731440651" lon="8.37396167892689"><ele>307.0</ele><time>2026-04-04T14:08:55Z</time></trkpt><trkpt lat="45.08544584009888" lon="8.373951237441323"><ele>307.0</ele><time>2026-04-04T14:08:56Z</time></trkpt><trkpt lat="45.08553430838956" lon="8.373934648987738"><ele>307.0</ele><time>2026-04-04T14:08:57Z</time></trkpt><trkpt lat="45.085634060355474" lon="8.373904723117587"><ele>307.0</ele><time>2026-04-04T14:08:58Z</time></trkpt><trkpt lat="45.08574732066043" lon="8.37391497033243"><ele>307.0</ele><time>2026-04-04T14:08:59Z</time></trkpt><trkpt lat="45.08588001441897" lon="8.373929901818777"><ele>307.0</ele><time>2026-04-04T14:09:00Z</time></trkpt><trkpt lat="45.08601172731267" lon="8.373948324150854"><ele>307.0</ele><time>2026-04-04T14:09:01Z</time></trkpt><trkpt lat="45.08613159558158" lon="8.373984641426746"><ele>307.0</ele><time>2026-04-04T14:09:02Z</time></trkpt><trkpt lat="45.08624366993332" lon="8.374002238040358"><ele>307.0</ele><time>2026-04-04T14:09:03Z</time></trkpt><trkpt lat="45.08634517452436" lon="8.374010392841354"><ele>307.0</ele><time>2026-04-04T14:09:04Z</time></trkpt><trkpt lat="45.08643195622082" lon="8.373987681549092"><ele>307.0</ele><time>2026-04-04T14:09:05Z</time></trkpt><trkpt lat="45.086514533597885" lon="8.373972702273813"><ele>307.0</ele><time>2026-04-04T14:09:06Z</time></trkpt><trkpt lat="45.08660252911345" lon="8.373961661239687"><ele>307.0</ele><time>2026-04-04T14:09:07Z</time></trkpt><trkpt lat="45.086680583320515" lon="8.37388544776309"><ele>305.0</ele><time>2026-04-04T14:09:08Z</time></trkpt><trkpt lat="45.086779252404305" lon="8.373861851610386"><ele>303.0</ele><time>2026-04-04T14:09:09Z</time></trkpt><trkpt lat="45.08687770241722" lon="8.37383264034739"><ele>301.0</ele><time>2026-04-04T14:09:10Z</time></trkpt><trkpt lat="45.08698953394077" lon="8.373823128444135"><ele>299.0</ele><time>2026-04-04T14:09:11Z</time></trkpt><trkpt lat="45.08710675579814" lon="8.373822596710884"><ele>297.0</ele><time>2026-04-04T14:09:12Z</time></trkpt><trkpt lat="45.08720936088971" lon="8.373829816654625"><ele>297.8</ele><time>2026-04-04T14:09:13Z</time></trkpt><trkpt lat="45.08729883302836" lon="8.373841720415546"><ele>298.6</ele><time>2026-04-04T14:09:14Z</time></trkpt><trkpt lat="45.08738581356386" lon="8.37383381120949"><ele>299.40000000000003</ele><time>2026-04-04T14:09:15Z</time></trkpt><trkpt lat="45.08746402115943" lon="8.373892706476644"><ele>300.2</ele><time>2026-04-04T14:09:16Z</time></trkpt><trkpt lat="45.087556588550626" lon="8.373932551583765"><ele>301.0</ele><time>2026-04-04T14:09:17Z</time></trkpt><trkpt lat="45.087652464440794" lon="8.373975687538302"><ele>301.0</ele><time>2026-04-04T14:09:17.999Z</time></trkpt><trkpt lat="45.08775556268878" lon="8.374022234664489"><ele>301.0</ele><time>2026-04-04T14:09:18.999Z</time></trkpt><trkpt lat="45.08786732362858" lon="8.374072089596925"><ele>301.0</ele><time>2026-04-04T14:09:19.999Z</time></trkpt><trkpt lat="45.08798055940957" lon="8.374122561629616"><ele>301.0</ele><time>2026-04-04T14:09:20.999Z</time></trkpt><trkpt lat="45.08810843992995" lon="8.374179561153852"><ele>301.0</ele><time>2026-04-04T14:09:21.999Z</time></trkpt><trkpt lat="45.08822784544592" lon="8.374235776134963"><ele>301.0</ele><time>2026-04-04T14:09:22.999Z</time></trkpt><trkpt lat="45.08832682328691" lon="8.374280419564956"><ele>301.0</ele><time>2026-04-04T14:09:23.999Z</time></trkpt><trkpt lat="45.08840136961931" lon="8.374311352427558"><ele>301.0</ele><time>2026-04-04T14:09:24.999Z</time></trkpt><trkpt lat="45.088482965769636" lon="8.37434806074722"><ele>301.0</ele><time>2026-04-04T14:09:26.999Z</time></trkpt><trkpt lat="45.08838045275066" lon="8.374381952630518"><ele>301.0</ele><time>2026-04-04T14:09:46.999Z</time></trkpt><trkpt lat="45.08828118162406" lon="8.374337491386438"><ele>301.0</ele><time>2026-04-04T14:09:47.999Z</time></trkpt><trkpt lat="45.088168374717746" lon="8.374301095672001"><ele>301.0</ele><time>2026-04-04T14:09:48.999Z</time></trkpt><trkpt lat="45.088050458950605" lon="8.374277593799318"><ele>301.0</ele><time>2026-04-04T14:09:49.999Z</time></trkpt><trkpt lat="45.08794919864039" lon="8.37427115488434"><ele>301.0</ele><time>2026-04-04T14:09:50.999Z</time></trkpt><trkpt lat="45.087863309548744" lon="8.374288036298292"><ele>301.0</ele><time>2026-04-04T14:09:51.999Z</time></trkpt><trkpt lat="45.08779024131918" lon="8.374344370828958"><ele>301.0</ele><time>2026-04-04T14:09:52.999Z</time></trkpt><trkpt lat="45.08773558894861" lon="8.374439168065887"><ele>301.0</ele><time>2026-04-04T14:09:53.999Z</time></trkpt><trkpt lat="45.08771638054621" lon="8.374568880927528"><ele>301.0</ele><time>2026-04-04T14:09:54.999Z</time></trkpt><trkpt lat="45.08773834756035" lon="8.37471836739"><ele>301.0</ele><time>2026-04-04T14:09:55.999Z</time></trkpt><trkpt lat="45.08777759932993" lon="8.374888511016533"><ele>301.3333333333333</ele><time>2026-04-04T14:09:56.999Z</time></trkpt><trkpt lat="45.087806473179164" lon="8.375096191786957"><ele>301.6666666666667</ele><time>2026-04-04T14:09:57.999Z</time></trkpt><trkpt lat="45.087851283020086" lon="8.375338896355329"><ele>302.0</ele><time>2026-04-04T14:09:58.999Z</time></trkpt><trkpt lat="45.087904949671916" lon="8.375627321188514"><ele>302.0</ele><time>2026-04-04T14:09:59.999Z</time></trkpt><trkpt lat="45.08795153927633" lon="8.37591963708474"><ele>302.0</ele><time>2026-04-04T14:10:00.999Z</time></trkpt><trkpt lat="45.08795354875554" lon="8.37618328105249"><ele>302.0</ele><time>2026-04-04T14:10:01.999Z</time></trkpt><trkpt lat="45.08790176894093" lon="8.37644233718881"><ele>301.5</ele><time>2026-04-04T14:10:02.999Z</time></trkpt><trkpt lat="45.0878365117204" lon="8.376754773630173"><ele>301.0</ele><time>2026-04-04T14:10:03.999Z</time></trkpt><trkpt lat="45.08781541021917" lon="8.377098618865707"><ele>303.66666666666663</ele><time>2026-04-04T14:10:04.999Z</time></trkpt><trkpt lat="45.08780994288714" lon="8.37744592360662"><ele>306.3333333333333</ele><time>2026-04-04T14:10:05.999Z</time></trkpt><trkpt lat="45.087795726561446" lon="8.377714700416346"><ele>309.0</ele><time>2026-04-04T14:10:06.999Z</time></trkpt><trkpt lat="45.08776676430576" lon="8.377899180627347"><ele>309.0</ele><time>2026-04-04T14:10:07.999Z</time></trkpt><trkpt lat="45.08770032387459" lon="8.378037048736886"><ele>309.0</ele><time>2026-04-04T14:10:08.999Z</time></trkpt><trkpt lat="45.087588963499364" lon="8.378201420573637"><ele>309.0</ele><time>2026-04-04T14:10:09.999Z</time></trkpt><trkpt lat="45.087403290207554" lon="8.378359128010302"><ele>309.0</ele><time>2026-04-04T14:10:10.999Z</time></trkpt><trkpt lat="45.08722357503798" lon="8.378467035274408"><ele>309.0</ele><time>2026-04-04T14:10:12Z</time></trkpt><trkpt lat="45.087071645839735" lon="8.378555997883565"><ele>309.0</ele><time>2026-04-04T14:10:13Z</time></trkpt><trkpt lat="45.08693723154966" lon="8.378649684463953"><ele>309.0</ele><time>2026-04-04T14:10:14Z</time></trkpt><trkpt lat="45.08679550804252" lon="8.378734970563865"><ele>309.0</ele><time>2026-04-04T14:10:15Z</time></trkpt><trkpt lat="45.08663258582177" lon="8.378830204429804"><ele>309.0</ele><time>2026-04-04T14:10:16Z</time></trkpt><trkpt lat="45.0864529761334" lon="8.378914790367046"><ele>312.3333333333333</ele><time>2026-04-04T14:10:17Z</time></trkpt><trkpt lat="45.08629286735211" lon="8.378975621256393"><ele>315.66666666666663</ele><time>2026-04-04T14:10:18Z</time></trkpt><trkpt lat="45.08614338411889" lon="8.3790519931886"><ele>319.0</ele><time>2026-04-04T14:10:19Z</time></trkpt><trkpt lat="45.085991390426145" lon="8.379164508621251"><ele>319.0</ele><time>2026-04-04T14:10:20Z</time></trkpt><trkpt lat="45.085845741392156" lon="8.379284356839253"><ele>319.0</ele><time>2026-04-04T14:10:21Z</time></trkpt><trkpt lat="45.085699243015284" lon="8.379395591752262"><ele>319.0</ele><time>2026-04-04T14:10:22Z</time></trkpt><trkpt lat="45.085560628418584" lon="8.379497849032196"><ele>317.3333333333333</ele><time>2026-04-04T14:10:23Z</time></trkpt><trkpt lat="45.08542498724212" lon="8.379587623151918"><ele>315.6666666666667</ele><time>2026-04-04T14:10:24Z</time></trkpt><trkpt lat="45.085278558645115" lon="8.379661181865137"><ele>314.0</ele><time>2026-04-04T14:10:25Z</time></trkpt><trkpt lat="45.08511694584961" lon="8.379715004103018"><ele>314.0</ele><time>2026-04-04T14:10:26Z</time></trkpt><trkpt lat="45.08495002202944" lon="8.379724412198371"><ele>314.0</ele><time>2026-04-04T14:10:27Z</time></trkpt><trkpt lat="45.084783699179454" lon="8.37978208999413"><ele>314.0</ele><time>2026-04-04T14:10:28Z</time></trkpt><trkpt lat="45.08461840745961" lon="8.379815548833049"><ele>313.33333333333337</ele><time>2026-04-04T14:10:29Z</time></trkpt><trkpt lat="45.084459588513994" lon="8.379857364815832"><ele>312.6666666666667</ele><time>2026-04-04T14:10:30Z</time></trkpt><trkpt lat="45.08429894844546" lon="8.379900759774157"><ele>312.0</ele><time>2026-04-04T14:10:31Z</time></trkpt><trkpt lat="45.08415284932573" lon="8.379942218989743"><ele>310.5</ele><time>2026-04-04T14:10:32Z</time></trkpt><trkpt lat="45.0840239979361" lon="8.379976113408176"><ele>309.0</ele><time>2026-04-04T14:10:33Z</time></trkpt><trkpt lat="45.08390756333678" lon="8.380002247441412"><ele>307.5</ele><time>2026-04-04T14:10:34Z</time></trkpt><trkpt lat="45.08378853437044" lon="8.380014800465966"><ele>306.0</ele><time>2026-04-04T14:10:35Z</time></trkpt><trkpt lat="45.083660574076404" lon="8.379978790900891"><ele>306.0</ele><time>2026-04-04T14:10:36Z</time></trkpt><trkpt lat="45.08352796790312" lon="8.379994219323695"><ele>306.0</ele><time>2026-04-04T14:10:37Z</time></trkpt><trkpt lat="45.08339254484158" lon="8.379997096515043"><ele>306.0</ele><time>2026-04-04T14:10:38Z</time></trkpt><trkpt lat="45.08326235248866" lon="8.380038748203795"><ele>306.0</ele><time>2026-04-04T14:10:39Z</time></trkpt><trkpt lat="45.08312106620376" lon="8.38010180041152"><ele>304.0</ele><time>2026-04-04T14:10:40Z</time></trkpt><trkpt lat="45.08295930164157" lon="8.380183649020974"><ele>302.0</ele><time>2026-04-04T14:10:41Z</time></trkpt><trkpt lat="45.0828514041775" lon="8.38022557682073"><ele>300.0</ele><time>2026-04-04T14:10:42Z</time></trkpt><trkpt lat="45.08274032997618" lon="8.380267932215927"><ele>298.0</ele><time>2026-04-04T14:10:43Z</time></trkpt><trkpt lat="45.08262457327659" lon="8.380318078653744"><ele>298.0</ele><time>2026-04-04T14:10:44Z</time></trkpt><trkpt lat="45.08251005952997" lon="8.380372104368101"><ele>298.0</ele><time>2026-04-04T14:10:45Z</time></trkpt><trkpt lat="45.08241676169746" lon="8.380446056712868"><ele>298.0</ele><time>2026-04-04T14:10:46Z</time></trkpt><trkpt lat="45.082345249530555" lon="8.380549591833766"><ele>298.0</ele><time>2026-04-04T14:10:47Z</time></trkpt><trkpt lat="45.08227883636433" lon="8.380707954449914"><ele>297.75</ele><time>2026-04-04T14:10:48Z</time></trkpt><trkpt lat="45.082215339805316" lon="8.380901717743418"><ele>297.5</ele><time>2026-04-04T14:10:49Z</time></trkpt><trkpt lat="45.08216359343806" lon="8.381088401951748"><ele>297.25</ele><time>2026-04-04T14:10:50Z</time></trkpt><trkpt lat="45.08210869391931" lon="8.381259746559458"><ele>297.0</ele><time>2026-04-04T14:10:51Z</time></trkpt><trkpt lat="45.082060260227756" lon="8.381426197902112"><ele>297.0</ele><time>2026-04-04T14:10:52Z</time></trkpt><trkpt lat="45.082011933084914" lon="8.381596096252173"><ele>297.0</ele><time>2026-04-04T14:10:53Z</time></trkpt><trkpt lat="45.08195552657228" lon="8.381766161675728"><ele>297.0</ele><time>2026-04-04T14:10:54Z</time></trkpt><trkpt lat="45.08186901956896" lon="8.38189818052329"><ele>297.0</ele><time>2026-04-04T14:10:55Z</time></trkpt><trkpt lat="45.081791662580535" lon="8.382029839354335"><ele>297.0</ele><time>2026-04-04T14:10:56Z</time></trkpt><trkpt lat="45.081715963825005" lon="8.382155557399992"><ele>297.0</ele><time>2026-04-04T14:10:57Z</time></trkpt><trkpt lat="45.08164612093107" lon="8.38227403883232"><ele>297.0</ele><time>2026-04-04T14:10:58Z</time></trkpt><trkpt lat="45.081581333015194" lon="8.382385523768955"><ele>297.0</ele><time>2026-04-04T14:10:59Z</time></trkpt><trkpt lat="45.0815159726774" lon="8.382489087850159"><ele>297.0</ele><time>2026-04-04T14:11:00Z</time></trkpt><trkpt lat="45.08144643011044" lon="8.382590937738355"><ele>295.5</ele><time>2026-04-04T14:11:01Z</time></trkpt><trkpt lat="45.081381338688374" lon="8.38268581363455"><ele>294.0</ele><time>2026-04-04T14:11:02Z</time></trkpt><trkpt lat="45.0813265701356" lon="8.382768306833421"><ele>292.5</ele><time>2026-04-04T14:11:03Z</time></trkpt><trkpt lat="45.08128162888053" lon="8.382844882219127"><ele>291.0</ele><time>2026-04-04T14:11:04Z</time></trkpt><trkpt lat="45.081235029811076" lon="8.38292764471131"><ele>289.5</ele><time>2026-04-04T14:11:05Z</time></trkpt><trkpt lat="45.08118689729707" lon="8.383013802237254"><ele>288.0</ele><time>2026-04-04T14:11:06Z</time></trkpt><trkpt lat="45.08113651422279" lon="8.383103988253605"><ele>288.0</ele><time>2026-04-04T14:11:07Z</time></trkpt><trkpt lat="45.0810794342336" lon="8.383206162490378"><ele>288.0</ele><time>2026-04-04T14:11:08Z</time></trkpt><trkpt lat="45.081018471551864" lon="8.38332649311812"><ele>288.0</ele><time>2026-04-04T14:11:09Z</time></trkpt><trkpt lat="45.08095485687658" lon="8.383448393891317"><ele>288.0</ele><time>2026-04-04T14:11:10Z</time></trkpt><trkpt lat="45.080889900182235" lon="8.383566783629758"><ele>288.0</ele><time>2026-04-04T14:11:11Z</time></trkpt><trkpt lat="45.080814075693525" lon="8.383691972155553"><ele>287.25</ele><time>2026-04-04T14:11:12Z</time></trkpt><trkpt lat="45.08074169294472" lon="8.383829722429576"><ele>286.5</ele><time>2026-04-04T14:11:13Z</time></trkpt><trkpt lat="45.08069475806827" lon="8.383990791279219"><ele>285.75</ele><time>2026-04-04T14:11:14Z</time></trkpt><trkpt lat="45.08065879751174" lon="8.384137534275567"><ele>285.0</ele><time>2026-04-04T14:11:15Z</time></trkpt><trkpt lat="45.08061571337458" lon="8.384291806502006"><ele>285.0</ele><time>2026-04-04T14:11:16Z</time></trkpt><trkpt lat="45.08058988775821" lon="8.384454272772649"><ele>285.0</ele><time>2026-04-04T14:11:17Z</time></trkpt><trkpt lat="45.08057797609178" lon="8.384742754826956"><ele>285.0</ele><time>2026-04-04T14:11:19Z</time></trkpt><trkpt lat="45.080570241554604" lon="8.384882422684498"><ele>285.0</ele><time>2026-04-04T14:11:20Z</time></trkpt><trkpt lat="45.08055684297861" lon="8.385016962856044"><ele>283.75</ele><time>2026-04-04T14:11:21Z</time></trkpt><trkpt lat="45.08052184673912" lon="8.385146270659023"><ele>282.5</ele><time>2026-04-04T14:11:22Z</time></trkpt><trkpt lat="45.08044972171755" lon="8.385276422882969"><ele>281.25</ele><time>2026-04-04T14:11:23Z</time></trkpt><trkpt lat="45.08034648613338" lon="8.385405103844663"><ele>280.0</ele><time>2026-04-04T14:11:24Z</time></trkpt><trkpt lat="45.08022470888895" lon="8.385542425135588"><ele>277.0</ele><time>2026-04-04T14:11:25Z</time></trkpt><trkpt lat="45.080115196246695" lon="8.3856581651927"><ele>274.0</ele><time>2026-04-04T14:11:26Z</time></trkpt><trkpt lat="45.08003282144533" lon="8.385770060483537"><ele>271.0</ele><time>2026-04-04T14:11:26.999Z</time></trkpt><trkpt lat="45.079947210448026" lon="8.385850414066747"><ele>268.0</ele><time>2026-04-04T14:11:27.999Z</time></trkpt><trkpt lat="45.07986513305813" lon="8.385932636377074"><ele>266.8</ele><time>2026-04-04T14:11:28.999Z</time></trkpt><trkpt lat="45.079787805431515" lon="8.386010227840123"><ele>265.6</ele><time>2026-04-04T14:11:29.999Z</time></trkpt><trkpt lat="45.079700234779835" lon="8.386091553046237"><ele>264.4</ele><time>2026-04-04T14:11:30.999Z</time></trkpt><trkpt lat="45.07960313573767" lon="8.386146293841737"><ele>263.2</ele><time>2026-04-04T14:11:31.999Z</time></trkpt><trkpt lat="45.07951355294256" lon="8.386243280607644"><ele>262.0</ele><time>2026-04-04T14:11:32.999Z</time></trkpt><trkpt lat="45.079418915115134" lon="8.386312845541385"><ele>261.8</ele><time>2026-04-04T14:11:33.999Z</time></trkpt><trkpt lat="45.079329290355616" lon="8.38638588651255"><ele>261.6</ele><time>2026-04-04T14:11:34.999Z</time></trkpt><trkpt lat="45.07923517893377" lon="8.386452931127783"><ele>261.40000000000003</ele><time>2026-04-04T14:11:35.999Z</time></trkpt><trkpt lat="45.07914383966391" lon="8.38652507545932"><ele>261.2</ele><time>2026-04-04T14:11:36.999Z</time></trkpt><trkpt lat="45.079052026493315" lon="8.386595054223296"><ele>261.0</ele><time>2026-04-04T14:11:37.999Z</time></trkpt><trkpt lat="45.07896301238963" lon="8.386663117576257"><ele>261.0</ele><time>2026-04-04T14:11:38.999Z</time></trkpt><trkpt lat="45.078882094233094" lon="8.386725810305705"><ele>261.0</ele><time>2026-04-04T14:11:39.999Z</time></trkpt><trkpt lat="45.07880391034432" lon="8.386784376912953"><ele>261.0</ele><time>2026-04-04T14:11:40.999Z</time></trkpt><trkpt lat="45.07872900592823" lon="8.38683851112589"><ele>261.0</ele><time>2026-04-04T14:11:41.999Z</time></trkpt><trkpt lat="45.078656564523094" lon="8.38689666846949"><ele>261.0</ele><time>2026-04-04T14:11:42.999Z</time></trkpt><trkpt lat="45.07857036544604" lon="8.386934444220824"><ele>261.0</ele><time>2026-04-04T14:11:43.999Z</time></trkpt><trkpt lat="45.07850028737507" lon="8.387005194911318"><ele>261.0</ele><time>2026-04-04T14:11:44.999Z</time></trkpt><trkpt lat="45.07842636686186" lon="8.3870599297653"><ele>261.0</ele><time>2026-04-04T14:11:45.999Z</time></trkpt><trkpt lat="45.07835020961893" lon="8.387116149627763"><ele>261.0</ele><time>2026-04-04T14:11:46.999Z</time></trkpt><trkpt lat="45.078277729932125" lon="8.387179665445805"><ele>261.0</ele><time>2026-04-04T14:11:47.999Z</time></trkpt><trkpt lat="45.07821035800105" lon="8.387247432801024"><ele>261.0</ele><time>2026-04-04T14:11:48.999Z</time></trkpt><trkpt lat="45.07815232196642" lon="8.387321637075033"><ele>261.0</ele><time>2026-04-04T14:11:49.999Z</time></trkpt><trkpt lat="45.07807786067633" lon="8.38739691643889"><ele>260.40000000000003</ele><time>2026-04-04T14:11:50.999Z</time></trkpt><trkpt lat="45.07801011771232" lon="8.387502533839703"><ele>259.8</ele><time>2026-04-04T14:11:51.999Z</time></trkpt><trkpt lat="45.07795170764854" lon="8.38759700181837"><ele>259.20000000000005</ele><time>2026-04-04T14:11:52.999Z</time></trkpt><trkpt lat="45.07790379549814" lon="8.387707810846742"><ele>258.6</ele><time>2026-04-04T14:11:53.999Z</time></trkpt><trkpt lat="45.077844944413044" lon="8.387796432091069"><ele>258.0</ele><time>2026-04-04T14:11:54.999Z</time></trkpt><trkpt lat="45.077779197313276" lon="8.3878703718713"><ele>258.0</ele><time>2026-04-04T14:11:55.999Z</time></trkpt><trkpt lat="45.077697823883305" lon="8.387933172615138"><ele>258.0</ele><time>2026-04-04T14:11:56.999Z</time></trkpt><trkpt lat="45.07760916065653" lon="8.387984423777562"><ele>258.0</ele><time>2026-04-04T14:11:57.999Z</time></trkpt><trkpt lat="45.077522654582054" lon="8.388035931767256"><ele>258.0</ele><time>2026-04-04T14:11:58.999Z</time></trkpt><trkpt lat="45.07743498745026" lon="8.388073735015311"><ele>258.0</ele><time>2026-04-04T14:11:59.999Z</time></trkpt><trkpt lat="45.07732695459036" lon="8.388050056418237"><ele>258.4</ele><time>2026-04-04T14:12:00.999Z</time></trkpt><trkpt lat="45.07721357731448" lon="8.387985814258379"><ele>258.8</ele><time>2026-04-04T14:12:01.999Z</time></trkpt><trkpt lat="45.07710919352082" lon="8.387954842405367"><ele>259.2</ele><time>2026-04-04T14:12:02.999Z</time></trkpt><trkpt lat="45.077004843709176" lon="8.38797556713077"><ele>259.6</ele><time>2026-04-04T14:12:03.999Z</time></trkpt><trkpt lat="45.076898159436276" lon="8.388029997916707"><ele>260.0</ele><time>2026-04-04T14:12:04.999Z</time></trkpt><trkpt lat="45.07677692733815" lon="8.388097072567236"><ele>260.0</ele><time>2026-04-04T14:12:05.999Z</time></trkpt><trkpt lat="45.07665273827997" lon="8.388170175480262"><ele>260.0</ele><time>2026-04-04T14:12:06.999Z</time></trkpt><trkpt lat="45.07652861647873" lon="8.388215549227036"><ele>260.0</ele><time>2026-04-04T14:12:07.999Z</time></trkpt><trkpt lat="45.076394253942" lon="8.388235851945712"><ele>260.0</ele><time>2026-04-04T14:12:08.999Z</time></trkpt><trkpt lat="45.07624396264215" lon="8.388235369303873"><ele>259.6666666666667</ele><time>2026-04-04T14:12:09.999Z</time></trkpt><trkpt lat="45.076092038849815" lon="8.388242371808868"><ele>259.3333333333333</ele><time>2026-04-04T14:12:10.999Z</time></trkpt><trkpt lat="45.075933705465246" lon="8.388250932562153"><ele>259.0</ele><time>2026-04-04T14:12:11.999Z</time></trkpt><trkpt lat="45.075755534985916" lon="8.388259323052694"><ele>256.3333333333333</ele><time>2026-04-04T14:12:12.999Z</time></trkpt><trkpt lat="45.07553953190186" lon="8.388264163304067"><ele>253.66666666666669</ele><time>2026-04-04T14:12:13.999Z</time></trkpt><trkpt lat="45.07534407022558" lon="8.388259888977856"><ele>251.0</ele><time>2026-04-04T14:12:14.999Z</time></trkpt><trkpt lat="45.07518139697485" lon="8.388253857719759"><ele>251.0</ele><time>2026-04-04T14:12:15.999Z</time></trkpt><trkpt lat="45.07502621581141" lon="8.388199558567411"><ele>251.0</ele><time>2026-04-04T14:12:17Z</time></trkpt><trkpt lat="45.07485998635626" lon="8.38816929675915"><ele>251.0</ele><time>2026-04-04T14:12:18Z</time></trkpt><trkpt lat="45.074675908370736" lon="8.388054834474584"><ele>245.33333333333334</ele><time>2026-04-04T14:12:19Z</time></trkpt><trkpt lat="45.0744716708975" lon="8.387971484118458"><ele>239.66666666666669</ele><time>2026-04-04T14:12:20Z</time></trkpt><trkpt lat="45.0743277157621" lon="8.387929098645472"><ele>234.0</ele><time>2026-04-04T14:12:21Z</time></trkpt><trkpt lat="45.07421692842731" lon="8.387914584697368"><ele>234.0</ele><time>2026-04-04T14:12:22Z</time></trkpt><trkpt lat="45.074123622157636" lon="8.387915239513143"><ele>234.0</ele><time>2026-04-04T14:12:23Z</time></trkpt><trkpt lat="45.074038725791716" lon="8.388013717482034"><ele>234.0</ele><time>2026-04-04T14:12:24Z</time></trkpt><trkpt lat="45.073987454853935" lon="8.388213850161865"><ele>234.0</ele><time>2026-04-04T14:12:25Z</time></trkpt><trkpt lat="45.07391798212962" lon="8.388428195436603"><ele>233.0</ele><time>2026-04-04T14:12:26Z</time></trkpt><trkpt lat="45.07383894844107" lon="8.3886547762536"><ele>232.0</ele><time>2026-04-04T14:12:27Z</time></trkpt><trkpt lat="45.0737523932388" lon="8.388905677924056"><ele>231.0</ele><time>2026-04-04T14:12:28Z</time></trkpt><trkpt lat="45.07366155464509" lon="8.389170632361692"><ele>230.33333333333331</ele><time>2026-04-04T14:12:29Z</time></trkpt><trkpt lat="45.07360044215193" lon="8.389448488909906"><ele>229.66666666666666</ele><time>2026-04-04T14:12:30Z</time></trkpt><trkpt lat="45.07354930330754" lon="8.389697950153607"><ele>229.0</ele><time>2026-04-04T14:12:31Z</time></trkpt><trkpt lat="45.07350754654492" lon="8.389965819744083"><ele>229.0</ele><time>2026-04-04T14:12:32Z</time></trkpt><trkpt lat="45.07345073148634" lon="8.390207726125691"><ele>229.0</ele><time>2026-04-04T14:12:33Z</time></trkpt><trkpt lat="45.073399203171" lon="8.390442661375515"><ele>229.0</ele><time>2026-04-04T14:12:34Z</time></trkpt><trkpt lat="45.07335095833941" lon="8.3906654027228"><ele>229.2</ele><time>2026-04-04T14:12:35Z</time></trkpt><trkpt lat="45.07331577432615" lon="8.390845168375312"><ele>229.39999999999998</ele><time>2026-04-04T14:12:36Z</time></trkpt><trkpt lat="45.07328587484478" lon="8.390989101090012"><ele>229.6</ele><time>2026-04-04T14:12:37Z</time></trkpt><trkpt lat="45.07326428139615" lon="8.39113009156196"><ele>229.8</ele><time>2026-04-04T14:12:38Z</time></trkpt><trkpt lat="45.073234007674266" lon="8.391273023042578"><ele>230.0</ele><time>2026-04-04T14:12:39Z</time></trkpt><trkpt lat="45.07322189901004" lon="8.39144591099287"><ele>225.33333333333334</ele><time>2026-04-04T14:12:40Z</time></trkpt><trkpt lat="45.073210350011266" lon="8.391642807339789"><ele>220.66666666666669</ele><time>2026-04-04T14:12:41Z</time></trkpt><trkpt lat="45.07319843476993" lon="8.391863650715251"><ele>216.0</ele><time>2026-04-04T14:12:42Z</time></trkpt><trkpt lat="45.073184452768736" lon="8.392105486181682"><ele>217.0</ele><time>2026-04-04T14:12:43Z</time></trkpt><trkpt lat="45.07317967508937" lon="8.392305065135393"><ele>218.00000000000003</ele><time>2026-04-04T14:12:44Z</time></trkpt><trkpt lat="45.073153620124124" lon="8.392471952389995"><ele>219.00000000000003</ele><time>2026-04-04T14:12:45Z</time></trkpt><trkpt lat="45.073119243244065" lon="8.392590796060732"><ele>220.0</ele><time>2026-04-04T14:12:46Z</time></trkpt><trkpt lat="45.07307644688423" lon="8.39266792784491"><ele>221.0</ele><time>2026-04-04T14:12:47Z</time></trkpt><trkpt lat="45.07301204703489" lon="8.392718114660639"><ele>221.0</ele><time>2026-04-04T14:12:49Z</time></trkpt><trkpt lat="45.072955388390156" lon="8.392841902520205"><ele>221.0</ele><time>2026-04-04T14:12:53Z</time></trkpt><trkpt lat="45.07304183558409" lon="8.393046463532666"><ele>221.0</ele><time>2026-04-04T14:12:55Z</time></trkpt><trkpt lat="45.07309514194648" lon="8.393164070189114"><ele>221.0</ele><time>2026-04-04T14:12:56Z</time></trkpt><trkpt lat="45.07318561408653" lon="8.393230643128842"><ele>221.8</ele><time>2026-04-04T14:12:57Z</time></trkpt><trkpt lat="45.07326320144464" lon="8.393305498041395"><ele>222.60000000000002</ele><time>2026-04-04T14:12:58Z</time></trkpt><trkpt lat="45.07334670379293" lon="8.393380489091587"><ele>223.4</ele><time>2026-04-04T14:12:59Z</time></trkpt><trkpt lat="45.073434218262705" lon="8.393455782886653"><ele>224.2</ele><time>2026-04-04T14:13:00Z</time></trkpt><trkpt lat="45.073516401572206" lon="8.393539333816593"><ele>225.0</ele><time>2026-04-04T14:13:01Z</time></trkpt><trkpt lat="45.07360318534064" lon="8.393607115808122"><ele>225.33333333333334</ele><time>2026-04-04T14:13:02Z</time></trkpt><trkpt lat="45.07368070793162" lon="8.393683039336452"><ele>225.66666666666669</ele><time>2026-04-04T14:13:03Z</time></trkpt><trkpt lat="45.07375165303761" lon="8.393752430210355"><ele>226.0</ele><time>2026-04-04T14:13:04Z</time></trkpt><trkpt lat="45.07382306369807" lon="8.393816639685213"><ele>226.33333333333334</ele><time>2026-04-04T14:13:05Z</time></trkpt><trkpt lat="45.07389595905074" lon="8.39388466714062"><ele>226.66666666666669</ele><time>2026-04-04T14:13:06Z</time></trkpt><trkpt lat="45.07397449967844" lon="8.393954903134023"><ele>227.0</ele><time>2026-04-04T14:13:07Z</time></trkpt><trkpt lat="45.07406085496994" lon="8.394028054486363"><ele>224.0</ele><time>2026-04-04T14:13:08Z</time></trkpt><trkpt lat="45.07415566317054" lon="8.394099258099736"><ele>221.0</ele><time>2026-04-04T14:13:09Z</time></trkpt><trkpt lat="45.07425794216369" lon="8.394164530989588"><ele>218.0</ele><time>2026-04-04T14:13:10Z</time></trkpt><trkpt lat="45.07436930057472" lon="8.394224814501193"><ele>215.0</ele><time>2026-04-04T14:13:11Z</time></trkpt><trkpt lat="45.07449070429093" lon="8.394283784290534"><ele>215.0</ele><time>2026-04-04T14:13:12Z</time></trkpt><trkpt lat="45.074620550663255" lon="8.394354599144185"><ele>215.0</ele><time>2026-04-04T14:13:13Z</time></trkpt><trkpt lat="45.074732505602206" lon="8.394471556968588"><ele>215.0</ele><time>2026-04-04T14:13:14Z</time></trkpt><trkpt lat="45.074857025512514" lon="8.394553394487332"><ele>215.0</ele><time>2026-04-04T14:13:15Z</time></trkpt><trkpt lat="45.07496789627708" lon="8.394655330621477"><ele>211.25</ele><time>2026-04-04T14:13:16Z</time></trkpt><trkpt lat="45.07508378466178" lon="8.394741611283346"><ele>207.5</ele><time>2026-04-04T14:13:17Z</time></trkpt><trkpt lat="45.07521344414668" lon="8.394816841995638"><ele>203.75</ele><time>2026-04-04T14:13:18Z</time></trkpt><trkpt lat="45.07533646139071" lon="8.394887143638767"><ele>200.0</ele><time>2026-04-04T14:13:19Z</time></trkpt><trkpt lat="45.07546306400524" lon="8.39494505086221"><ele>200.0</ele><time>2026-04-04T14:13:20Z</time></trkpt><trkpt lat="45.075600947318854" lon="8.394979593291735"><ele>200.0</ele><time>2026-04-04T14:13:21Z</time></trkpt><trkpt lat="45.07574582186949" lon="8.39498147189551"><ele>200.0</ele><time>2026-04-04T14:13:22Z</time></trkpt><trkpt lat="45.07589266863109" lon="8.394941440588685"><ele>200.0</ele><time>2026-04-04T14:13:23Z</time></trkpt><trkpt lat="45.07603579822421" lon="8.394877731418578"><ele>198.0</ele><time>2026-04-04T14:13:24Z</time></trkpt><trkpt lat="45.076180977288566" lon="8.394827810137482"><ele>196.0</ele><time>2026-04-04T14:13:25Z</time></trkpt><trkpt lat="45.076308578289876" lon="8.394718164200142"><ele>194.0</ele><time>2026-04-04T14:13:26Z</time></trkpt><trkpt lat="45.07643621899374" lon="8.394620278902481"><ele>192.0</ele><time>2026-04-04T14:13:27Z</time></trkpt><trkpt lat="45.07655761772436" lon="8.394511702345971"><ele>190.5</ele><time>2026-04-04T14:13:28Z</time></trkpt><trkpt lat="45.076673586272065" lon="8.394401477015508"><ele>189.0</ele><time>2026-04-04T14:13:29Z</time></trkpt><trkpt lat="45.07678207718289" lon="8.394296170900695"><ele>187.5</ele><time>2026-04-04T14:13:30Z</time></trkpt><trkpt lat="45.07688619667966" lon="8.394197705099481"><ele>186.0</ele><time>2026-04-04T14:13:31Z</time></trkpt><trkpt lat="45.07699529969522" lon="8.394089731591542"><ele>186.0</ele><time>2026-04-04T14:13:32Z</time></trkpt><trkpt lat="45.07710940890956" lon="8.393978737007771"><ele>186.0</ele><time>2026-04-04T14:13:33Z</time></trkpt><trkpt lat="45.077229750626266" lon="8.393897372575964"><ele>186.0</ele><time>2026-04-04T14:13:33.999Z</time></trkpt><trkpt lat="45.07733516915258" lon="8.3938170985582"><ele>186.0</ele><time>2026-04-04T14:13:34.999Z</time></trkpt><trkpt lat="45.077447904160806" lon="8.393774422577742"><ele>184.75</ele><time>2026-04-04T14:13:35.999Z</time></trkpt><trkpt lat="45.077579872201824" lon="8.393815934587948"><ele>183.5</ele><time>2026-04-04T14:13:36.999Z</time></trkpt><trkpt lat="45.07768123711564" lon="8.393938849498257"><ele>182.25</ele><time>2026-04-04T14:13:37.999Z</time></trkpt><trkpt lat="45.07779650810081" lon="8.394070911763043"><ele>181.0</ele><time>2026-04-04T14:13:38.999Z</time></trkpt><trkpt lat="45.077913850667144" lon="8.394207229593356"><ele>180.25</ele><time>2026-04-04T14:13:39.999Z</time></trkpt><trkpt lat="45.07803040488534" lon="8.394342340293658"><ele>179.5</ele><time>2026-04-04T14:13:40.999Z</time></trkpt><trkpt lat="45.07813770503717" lon="8.394466723186556"><ele>178.75</ele><time>2026-04-04T14:13:41.999Z</time></trkpt><trkpt lat="45.07823484853402" lon="8.394573329359417"><ele>178.0</ele><time>2026-04-04T14:13:42.999Z</time></trkpt><trkpt lat="45.07828843781173" lon="8.39470883801095"><ele>177.25</ele><time>2026-04-04T14:13:43.999Z</time></trkpt><trkpt lat="45.078311131438774" lon="8.394853959233945"><ele>176.5</ele><time>2026-04-04T14:13:44.999Z</time></trkpt><trkpt lat="45.078302499223916" lon="8.395023650092565"><ele>175.75</ele><time>2026-04-04T14:13:45.999Z</time></trkpt><trkpt lat="45.07826124270075" lon="8.395195969340875"><ele>175.0</ele><time>2026-04-04T14:13:46.999Z</time></trkpt><trkpt lat="45.07820531814709" lon="8.395339815785048"><ele>175.0</ele><time>2026-04-04T14:13:47.999Z</time></trkpt><trkpt lat="45.07814322610664" lon="8.395496099966607"><ele>175.0</ele><time>2026-04-04T14:13:48.999Z</time></trkpt><trkpt lat="45.0780866531066" lon="8.395665809475593"><ele>175.0</ele><time>2026-04-04T14:13:49.999Z</time></trkpt><trkpt lat="45.07809854777812" lon="8.3958719834462"><ele>175.0</ele><time>2026-04-04T14:13:50.999Z</time></trkpt><trkpt lat="45.07810825788581" lon="8.396075079662467"><ele>175.25</ele><time>2026-04-04T14:13:51.999Z</time></trkpt><trkpt lat="45.078115462376125" lon="8.396271822211943"><ele>175.5</ele><time>2026-04-04T14:13:52.999Z</time></trkpt><trkpt lat="45.07811393297224" lon="8.396460471754665"><ele>175.75</ele><time>2026-04-04T14:13:53.999Z</time></trkpt><trkpt lat="45.078100768518574" lon="8.396643378053506"><ele>176.0</ele><time>2026-04-04T14:13:54.999Z</time></trkpt><trkpt lat="45.07808051057736" lon="8.39682506071303"><ele>177.75</ele><time>2026-04-04T14:13:55.999Z</time></trkpt><trkpt lat="45.07806301867271" lon="8.397003075157762"><ele>179.5</ele><time>2026-04-04T14:13:56.999Z</time></trkpt><trkpt lat="45.078063062430466" lon="8.39717614174156"><ele>181.25</ele><time>2026-04-04T14:13:57.999Z</time></trkpt><trkpt lat="45.07809067218683" lon="8.397357184963612"><ele>183.0</ele><time>2026-04-04T14:13:58.999Z</time></trkpt><trkpt lat="45.07814721004957" lon="8.397539432211524"><ele>184.5</ele><time>2026-04-04T14:13:59.999Z</time></trkpt><trkpt lat="45.07821526602357" lon="8.397697650443265"><ele>186.0</ele><time>2026-04-04T14:14:00.999Z</time></trkpt><trkpt lat="45.07828336806024" lon="8.397825698092669"><ele>187.5</ele><time>2026-04-04T14:14:01.999Z</time></trkpt><trkpt lat="45.07832792984634" lon="8.39796639407716"><ele>189.0</ele><time>2026-04-04T14:14:02.999Z</time></trkpt><trkpt lat="45.07836648937991" lon="8.398119270974014"><ele>195.0</ele><time>2026-04-04T14:14:03.999Z</time></trkpt><trkpt lat="45.07837936183344" lon="8.398293371805085"><ele>201.0</ele><time>2026-04-04T14:14:04.999Z</time></trkpt><trkpt lat="45.07839800033974" lon="8.398481234606857"><ele>207.0</ele><time>2026-04-04T14:14:05.999Z</time></trkpt><trkpt lat="45.07839525028182" lon="8.398641183304434"><ele>213.0</ele><time>2026-04-04T14:14:06.999Z</time></trkpt><trkpt lat="45.078398385150535" lon="8.398786582076315"><ele>212.83333333333334</ele><time>2026-04-04T14:14:07.999Z</time></trkpt><trkpt lat="45.078391664048624" lon="8.39891362571103"><ele>212.66666666666669</ele><time>2026-04-04T14:14:08.999Z</time></trkpt><trkpt lat="45.078383117842435" lon="8.39903162865604"><ele>212.5</ele><time>2026-04-04T14:14:09.999Z</time></trkpt><trkpt lat="45.07837300192062" lon="8.399154179734063"><ele>212.33333333333334</ele><time>2026-04-04T14:14:10.999Z</time></trkpt><trkpt lat="45.07836074290415" lon="8.39928009996405"><ele>212.16666666666669</ele><time>2026-04-04T14:14:11.999Z</time></trkpt><trkpt lat="45.07834546154018" lon="8.399412751647098"><ele>212.0</ele><time>2026-04-04T14:14:12.999Z</time></trkpt><trkpt lat="45.078330179066384" lon="8.399543078098985"><ele>212.8</ele><time>2026-04-04T14:14:13.999Z</time></trkpt><trkpt lat="45.07831155336834" lon="8.399675828531853"><ele>213.6</ele><time>2026-04-04T14:14:14.999Z</time></trkpt><trkpt lat="45.078289278060254" lon="8.399808202866483"><ele>214.40000000000003</ele><time>2026-04-04T14:14:15.999Z</time></trkpt><trkpt lat="45.07826624771554" lon="8.399937498500215"><ele>215.20000000000002</ele><time>2026-04-04T14:14:16.999Z</time></trkpt><trkpt lat="45.07824310485571" lon="8.400062097531004"><ele>216.0</ele><time>2026-04-04T14:14:17.999Z</time></trkpt><trkpt lat="45.078225569106095" lon="8.400178495147083"><ele>216.0</ele><time>2026-04-04T14:14:18.999Z</time></trkpt><trkpt lat="45.07821594302105" lon="8.400275286381442"><ele>216.0</ele><time>2026-04-04T14:14:19.999Z</time></trkpt><trkpt lat="45.07824439691058" lon="8.40036081057866"><ele>216.0</ele><time>2026-04-04T14:14:20.999Z</time></trkpt><trkpt lat="45.07830807025522" lon="8.400408238199413"><ele>216.0</ele><time>2026-04-04T14:14:22Z</time></trkpt><trkpt lat="45.07838971345572" lon="8.400441263022492"><ele>216.0</ele><time>2026-04-04T14:14:23Z</time></trkpt><trkpt lat="45.078468697791166" lon="8.400486936474609"><ele>216.0</ele><time>2026-04-04T14:14:24Z</time></trkpt><trkpt lat="45.07854103510272" lon="8.400529911535367"><ele>215.4</ele><time>2026-04-04T14:14:25Z</time></trkpt><trkpt lat="45.07860081166833" lon="8.400569390426535"><ele>214.8</ele><time>2026-04-04T14:14:26Z</time></trkpt><trkpt lat="45.07870268538172" lon="8.400650842098688"><ele>214.20000000000002</ele><time>2026-04-04T14:14:28Z</time></trkpt><trkpt lat="45.078756175322404" lon="8.400774056219669"><ele>213.60000000000002</ele><time>2026-04-04T14:14:29Z</time></trkpt><trkpt lat="45.07886491641929" lon="8.400886785731254"><ele>213.0</ele><time>2026-04-04T14:14:30Z</time></trkpt><trkpt lat="45.07896113157397" lon="8.401043146338456"><ele>213.0</ele><time>2026-04-04T14:14:31Z</time></trkpt><trkpt lat="45.0790664154926" lon="8.40120253550163"><ele>213.0</ele><time>2026-04-04T14:14:32Z</time></trkpt><trkpt lat="45.079171278496844" lon="8.401372374019969"><ele>213.0</ele><time>2026-04-04T14:14:33Z</time></trkpt><trkpt lat="45.07926208320144" lon="8.401553928180794"><ele>211.66666666666669</ele><time>2026-04-04T14:14:34Z</time></trkpt><trkpt lat="45.07932839583024" lon="8.401766525907137"><ele>210.33333333333334</ele><time>2026-04-04T14:14:35Z</time></trkpt><trkpt lat="45.07938093315329" lon="8.401995355775748"><ele>209.0</ele><time>2026-04-04T14:14:36Z</time></trkpt><trkpt lat="45.07943907126021" lon="8.402217049654022"><ele>207.25</ele><time>2026-04-04T14:14:37Z</time></trkpt><trkpt lat="45.079502408337795" lon="8.40241802690155"><ele>205.5</ele><time>2026-04-04T14:14:38Z</time></trkpt><trkpt lat="45.07957483126744" lon="8.402588776559258"><ele>203.75</ele><time>2026-04-04T14:14:39Z</time></trkpt><trkpt lat="45.0796641417556" lon="8.402735265645036"><ele>202.0</ele><time>2026-04-04T14:14:40Z</time></trkpt><trkpt lat="45.07976749751392" lon="8.402856369213781"><ele>202.0</ele><time>2026-04-04T14:14:41Z</time></trkpt><trkpt lat="45.079894602750876" lon="8.402948853113639"><ele>202.0</ele><time>2026-04-04T14:14:42Z</time></trkpt><trkpt lat="45.080047136386796" lon="8.403026654844226"><ele>202.0</ele><time>2026-04-04T14:14:43Z</time></trkpt><trkpt lat="45.080214728568514" lon="8.40309934215244"><ele>201.0</ele><time>2026-04-04T14:14:44Z</time></trkpt><trkpt lat="45.08038995198955" lon="8.403177534147444"><ele>200.0</ele><time>2026-04-04T14:14:45Z</time></trkpt><trkpt lat="45.080567952159086" lon="8.403273098434251"><ele>199.0</ele><time>2026-04-04T14:14:46Z</time></trkpt><trkpt lat="45.08072757804219" lon="8.403369918494977"><ele>198.75</ele><time>2026-04-04T14:14:47Z</time></trkpt><trkpt lat="45.080864937803895" lon="8.403471192415648"><ele>198.5</ele><time>2026-04-04T14:14:48Z</time></trkpt><trkpt lat="45.08099074452291" lon="8.403571098024061"><ele>198.25</ele><time>2026-04-04T14:14:49Z</time></trkpt><trkpt lat="45.081105311943006" lon="8.403671611694056"><ele>198.0</ele><time>2026-04-04T14:14:50Z</time></trkpt><trkpt lat="45.08120442680301" lon="8.403796926547468"><ele>195.0</ele><time>2026-04-04T14:14:51Z</time></trkpt><trkpt lat="45.08130776876441" lon="8.403898169963002"><ele>192.0</ele><time>2026-04-04T14:14:52Z</time></trkpt><trkpt lat="45.08141830349975" lon="8.404003718087896"><ele>189.0</ele><time>2026-04-04T14:14:53Z</time></trkpt><trkpt lat="45.081547892670955" lon="8.404086963261959"><ele>186.0</ele><time>2026-04-04T14:14:54Z</time></trkpt><trkpt lat="45.08169524942882" lon="8.404137590271306"><ele>186.0</ele><time>2026-04-04T14:14:55Z</time></trkpt><trkpt lat="45.08185414005103" lon="8.404187787645164"><ele>186.0</ele><time>2026-04-04T14:14:56Z</time></trkpt><trkpt lat="45.08202635882347" lon="8.404243505496824"><ele>186.0</ele><time>2026-04-04T14:14:57Z</time></trkpt><trkpt lat="45.082211822488176" lon="8.404300696384556"><ele>186.0</ele><time>2026-04-04T14:14:58Z</time></trkpt><trkpt lat="45.082394043051615" lon="8.40435707981288"><ele>186.0</ele><time>2026-04-04T14:14:59Z</time></trkpt><trkpt lat="45.08258471662832" lon="8.404422216852454"><ele>186.0</ele><time>2026-04-04T14:15:00Z</time></trkpt><trkpt lat="45.08277823813116" lon="8.404485760462036"><ele>185.0</ele><time>2026-04-04T14:15:01Z</time></trkpt><trkpt lat="45.082969500948295" lon="8.404544730758522"><ele>184.0</ele><time>2026-04-04T14:15:02Z</time></trkpt><trkpt lat="45.08314349515518" lon="8.404601036981008"><ele>183.0</ele><time>2026-04-04T14:15:03Z</time></trkpt><trkpt lat="45.083317438306196" lon="8.404650456857686"><ele>181.66666666666666</ele><time>2026-04-04T14:15:04Z</time></trkpt><trkpt lat="45.083496992588366" lon="8.404660865889733"><ele>180.33333333333331</ele><time>2026-04-04T14:15:05Z</time></trkpt><trkpt lat="45.08368013203309" lon="8.404621634383805"><ele>179.0</ele><time>2026-04-04T14:15:06Z</time></trkpt><trkpt lat="45.08385945134023" lon="8.404567213392633"><ele>179.0</ele><time>2026-04-04T14:15:07Z</time></trkpt><trkpt lat="45.084042624087125" lon="8.40451350920404"><ele>179.0</ele><time>2026-04-04T14:15:08Z</time></trkpt><trkpt lat="45.08423013351414" lon="8.404458852934471"><ele>179.0</ele><time>2026-04-04T14:15:09Z</time></trkpt><trkpt lat="45.084415107349855" lon="8.404415895281518"><ele>179.66666666666666</ele><time>2026-04-04T14:15:10Z</time></trkpt><trkpt lat="45.08459405112542" lon="8.404415755378734"><ele>180.33333333333334</ele><time>2026-04-04T14:15:11Z</time></trkpt><trkpt lat="45.08477333840762" lon="8.404434092099839"><ele>181.0</ele><time>2026-04-04T14:15:12Z</time></trkpt><trkpt lat="45.084959401251744" lon="8.404466986108874"><ele>181.33333333333334</ele><time>2026-04-04T14:15:13Z</time></trkpt><trkpt lat="45.085143291752175" lon="8.4044998923501"><ele>181.66666666666666</ele><time>2026-04-04T14:15:14Z</time></trkpt><trkpt lat="45.085317665693545" lon="8.404530162218181"><ele>182.0</ele><time>2026-04-04T14:15:15Z</time></trkpt><trkpt lat="45.08548830272813" lon="8.404535235771021"><ele>182.0</ele><time>2026-04-04T14:15:16Z</time></trkpt><trkpt lat="45.08564902800236" lon="8.404562005907083"><ele>182.0</ele><time>2026-04-04T14:15:17Z</time></trkpt><trkpt lat="45.08580226150654" lon="8.404583965277293"><ele>182.0</ele><time>2026-04-04T14:15:18Z</time></trkpt><trkpt lat="45.085946434692254" lon="8.40460468055854"><ele>182.0</ele><time>2026-04-04T14:15:19Z</time></trkpt><trkpt lat="45.08608288180376" lon="8.404625155579112"><ele>182.0</ele><time>2026-04-04T14:15:20Z</time></trkpt><trkpt lat="45.08621561958821" lon="8.404669151829147"><ele>182.0</ele><time>2026-04-04T14:15:21Z</time></trkpt><trkpt lat="45.0863585589294" lon="8.404691908650785"><ele>182.0</ele><time>2026-04-04T14:15:22Z</time></trkpt><trkpt lat="45.08650875980425" lon="8.40469408312944"><ele>182.5</ele><time>2026-04-04T14:15:23Z</time></trkpt><trkpt lat="45.08664255419488" lon="8.404722943884636"><ele>183.0</ele><time>2026-04-04T14:15:24Z</time></trkpt><trkpt lat="45.0867752022848" lon="8.404758527915977"><ele>183.5</ele><time>2026-04-04T14:15:25Z</time></trkpt><trkpt lat="45.086906739686526" lon="8.404813960080714"><ele>184.0</ele><time>2026-04-04T14:15:26Z</time></trkpt><trkpt lat="45.08702462050473" lon="8.404920852468297"><ele>184.0</ele><time>2026-04-04T14:15:27Z</time></trkpt><trkpt lat="45.087156387021686" lon="8.40501772558489"><ele>184.0</ele><time>2026-04-04T14:15:28Z</time></trkpt><trkpt lat="45.087277495436325" lon="8.405146955837148"><ele>184.0</ele><time>2026-04-04T14:15:29Z</time></trkpt><trkpt lat="45.087399706217916" lon="8.405262977050581"><ele>184.0</ele><time>2026-04-04T14:15:30Z</time></trkpt><trkpt lat="45.08752958800924" lon="8.405367662875506"><ele>185.66666666666669</ele><time>2026-04-04T14:15:31Z</time></trkpt><trkpt lat="45.0876693718498" lon="8.405457077590123"><ele>187.33333333333334</ele><time>2026-04-04T14:15:32Z</time></trkpt><trkpt lat="45.087808953957655" lon="8.405560621463998"><ele>189.0</ele><time>2026-04-04T14:15:33Z</time></trkpt><trkpt lat="45.08795682584321" lon="8.405639815430964"><ele>189.0</ele><time>2026-04-04T14:15:34Z</time></trkpt><trkpt lat="45.08810797240808" lon="8.405719659717285"><ele>189.0</ele><time>2026-04-04T14:15:35Z</time></trkpt><trkpt lat="45.08826007825587" lon="8.405799928683996"><ele>189.0</ele><time>2026-04-04T14:15:36Z</time></trkpt><trkpt lat="45.08841597606993" lon="8.405882200533968"><ele>190.33333333333331</ele><time>2026-04-04T14:15:36.999Z</time></trkpt><trkpt lat="45.08857298036695" lon="8.40596505446172"><ele>191.66666666666666</ele><time>2026-04-04T14:15:37.999Z</time></trkpt><trkpt lat="45.08873623844284" lon="8.406051208633631"><ele>193.0</ele><time>2026-04-04T14:15:38.999Z</time></trkpt><trkpt lat="45.08890828544333" lon="8.406117799862846"><ele>193.0</ele><time>2026-04-04T14:15:39.999Z</time></trkpt><trkpt lat="45.08907418386517" lon="8.40620633739437"><ele>193.0</ele><time>2026-04-04T14:15:40.999Z</time></trkpt><trkpt lat="45.089243690467676" lon="8.40629574531802"><ele>193.0</ele><time>2026-04-04T14:15:41.999Z</time></trkpt><trkpt lat="45.08941402591659" lon="8.406388557990127"><ele>194.66666666666666</ele><time>2026-04-04T14:15:42.999Z</time></trkpt><trkpt lat="45.08957769900712" lon="8.406478012790666"><ele>196.33333333333331</ele><time>2026-04-04T14:15:43.999Z</time></trkpt><trkpt lat="45.08973286106678" lon="8.406556623887656"><ele>198.0</ele><time>2026-04-04T14:15:44.999Z</time></trkpt><trkpt lat="45.08986904032161" lon="8.406648888953388"><ele>198.75</ele><time>2026-04-04T14:15:45.999Z</time></trkpt><trkpt lat="45.08999743440639" lon="8.40669305415018"><ele>199.5</ele><time>2026-04-04T14:15:46.999Z</time></trkpt><trkpt lat="45.09012555665382" lon="8.40670178212918"><ele>200.25</ele><time>2026-04-04T14:15:47.999Z</time></trkpt><trkpt lat="45.09025195151139" lon="8.406663109871339"><ele>201.0</ele><time>2026-04-04T14:15:48.999Z</time></trkpt><trkpt lat="45.090379084607754" lon="8.406638971179019"><ele>201.0</ele><time>2026-04-04T14:15:49.999Z</time></trkpt><trkpt lat="45.09048611580139" lon="8.406651697672054"><ele>201.0</ele><time>2026-04-04T14:15:50.999Z</time></trkpt><trkpt lat="45.09057689251643" lon="8.406655576815515"><ele>201.0</ele><time>2026-04-04T14:15:51.999Z</time></trkpt><trkpt lat="45.09063998825358" lon="8.406649480651453"><ele>201.0</ele><time>2026-04-04T14:15:52.999Z</time></trkpt><trkpt lat="45.090702162911825" lon="8.406677635146035"><ele>201.0</ele><time>2026-04-04T14:15:53.999Z</time></trkpt><trkpt lat="45.09076736740501" lon="8.406719496225666"><ele>201.0</ele><time>2026-04-04T14:15:54.999Z</time></trkpt><trkpt lat="45.090844847145846" lon="8.406764227100878"><ele>203.60000000000002</ele><time>2026-04-04T14:15:55.999Z</time></trkpt><trkpt lat="45.09092869981949" lon="8.406831467446596"><ele>206.2</ele><time>2026-04-04T14:15:56.999Z</time></trkpt><trkpt lat="45.091011471064796" lon="8.406932202406882"><ele>208.79999999999998</ele><time>2026-04-04T14:15:57.999Z</time></trkpt><trkpt lat="45.091107766112636" lon="8.407019382762257"><ele>211.39999999999998</ele><time>2026-04-04T14:15:58.999Z</time></trkpt><trkpt lat="45.09119159731562" lon="8.40709406540179"><ele>214.0</ele><time>2026-04-04T14:15:59.999Z</time></trkpt><trkpt lat="45.09127078556441" lon="8.407161560428849"><ele>215.2</ele><time>2026-04-04T14:16:00.999Z</time></trkpt><trkpt lat="45.091342326412054" lon="8.40721719035874"><ele>216.39999999999998</ele><time>2026-04-04T14:16:01.999Z</time></trkpt><trkpt lat="45.09141428471468" lon="8.407247399119607"><ele>217.6</ele><time>2026-04-04T14:16:02.999Z</time></trkpt><trkpt lat="45.09150843504717" lon="8.407317114161394"><ele>218.8</ele><time>2026-04-04T14:16:04.999Z</time></trkpt><trkpt lat="45.09160914784373" lon="8.407382256343622"><ele>220.0</ele><time>2026-04-04T14:16:06.999Z</time></trkpt><trkpt lat="45.09171381888863" lon="8.407468299535159"><ele>220.5</ele><time>2026-04-04T14:16:07.999Z</time></trkpt><trkpt lat="45.09183770452841" lon="8.407488529113607"><ele>221.0</ele><time>2026-04-04T14:16:08.999Z</time></trkpt><trkpt lat="45.09195462532002" lon="8.407489679906627"><ele>221.5</ele><time>2026-04-04T14:16:09.999Z</time></trkpt><trkpt lat="45.092069337486" lon="8.407484203554016"><ele>222.0</ele><time>2026-04-04T14:16:10.999Z</time></trkpt><trkpt lat="45.092177556335294" lon="8.407456325433873"><ele>222.0</ele><time>2026-04-04T14:16:11.999Z</time></trkpt><trkpt lat="45.09228437453862" lon="8.407450297330477"><ele>222.0</ele><time>2026-04-04T14:16:12.999Z</time></trkpt><trkpt lat="45.09238957444069" lon="8.407463779095748"><ele>222.0</ele><time>2026-04-04T14:16:13.999Z</time></trkpt><trkpt lat="45.09250170528909" lon="8.40745648486692"><ele>222.0</ele><time>2026-04-04T14:16:14.999Z</time></trkpt><trkpt lat="45.09262755099234" lon="8.40742981931692"><ele>220.25</ele><time>2026-04-04T14:16:15.999Z</time></trkpt><trkpt lat="45.092764179358255" lon="8.407442944483766"><ele>218.5</ele><time>2026-04-04T14:16:16.999Z</time></trkpt><trkpt lat="45.09291839927203" lon="8.407434493077162"><ele>216.75</ele><time>2026-04-04T14:16:17.999Z</time></trkpt><trkpt lat="45.09307610250121" lon="8.407422794173826"><ele>215.0</ele><time>2026-04-04T14:16:18.999Z</time></trkpt><trkpt lat="45.09323097358904" lon="8.40740775299745"><ele>212.75</ele><time>2026-04-04T14:16:19.999Z</time></trkpt><trkpt lat="45.0933747490638" lon="8.407391903330947"><ele>210.5</ele><time>2026-04-04T14:16:20.999Z</time></trkpt><trkpt lat="45.093517330929984" lon="8.407375671139878"><ele>208.25</ele><time>2026-04-04T14:16:21.999Z</time></trkpt><trkpt lat="45.0936631340804" lon="8.407336683679379"><ele>206.0</ele><time>2026-04-04T14:16:22.999Z</time></trkpt><trkpt lat="45.09380960484584" lon="8.407321932115133"><ele>206.0</ele><time>2026-04-04T14:16:23.999Z</time></trkpt><trkpt lat="45.09395800267649" lon="8.407303637958806"><ele>206.0</ele><time>2026-04-04T14:16:24.999Z</time></trkpt><trkpt lat="45.094108135844614" lon="8.40728881686653"><ele>206.0</ele><time>2026-04-04T14:16:25.999Z</time></trkpt><trkpt lat="45.09425077393803" lon="8.407275756570865"><ele>206.0</ele><time>2026-04-04T14:16:26.999Z</time></trkpt><trkpt lat="45.09437597023221" lon="8.407266458092986"><ele>205.25</ele><time>2026-04-04T14:16:28Z</time></trkpt><trkpt lat="45.09448687953526" lon="8.407256099656177"><ele>204.5</ele><time>2026-04-04T14:16:29Z</time></trkpt><trkpt lat="45.09459928072438" lon="8.40724479452615"><ele>203.75</ele><time>2026-04-04T14:16:30Z</time></trkpt><trkpt lat="45.09471312528343" lon="8.407235710612094"><ele>203.0</ele><time>2026-04-04T14:16:31Z</time></trkpt><trkpt lat="45.094826953436915" lon="8.407214192499566"><ele>202.75</ele><time>2026-04-04T14:16:32Z</time></trkpt><trkpt lat="45.09493852809043" lon="8.407187390761182"><ele>202.5</ele><time>2026-04-04T14:16:33Z</time></trkpt><trkpt lat="45.09504102133653" lon="8.4071316942064"><ele>202.25</ele><time>2026-04-04T14:16:34Z</time></trkpt><trkpt lat="45.09514802065531" lon="8.407029100024113"><ele>202.0</ele><time>2026-04-04T14:16:35Z</time></trkpt><trkpt lat="45.09525347817874" lon="8.406896290302813"><ele>202.75</ele><time>2026-04-04T14:16:36Z</time></trkpt><trkpt lat="45.09535448987945" lon="8.406754068836504"><ele>203.5</ele><time>2026-04-04T14:16:37Z</time></trkpt><trkpt lat="45.09545799103258" lon="8.406633177287008"><ele>204.25</ele><time>2026-04-04T14:16:38Z</time></trkpt><trkpt lat="45.09557392610015" lon="8.40654032541043"><ele>205.0</ele><time>2026-04-04T14:16:39Z</time></trkpt><trkpt lat="45.095702328372965" lon="8.406473600930703"><ele>203.33333333333331</ele><time>2026-04-04T14:16:40Z</time></trkpt><trkpt lat="45.09585365021888" lon="8.406464705433695"><ele>201.66666666666669</ele><time>2026-04-04T14:16:41Z</time></trkpt><trkpt lat="45.096022442842035" lon="8.406436742265273"><ele>200.0</ele><time>2026-04-04T14:16:42Z</time></trkpt><trkpt lat="45.096203747676036" lon="8.406408650464343"><ele>200.0</ele><time>2026-04-04T14:16:43Z</time></trkpt><trkpt lat="45.09635898258625" lon="8.406385517272215"><ele>200.0</ele><time>2026-04-04T14:16:44Z</time></trkpt><trkpt lat="45.09650557383586" lon="8.406364887570318"><ele>200.0</ele><time>2026-04-04T14:16:45Z</time></trkpt><trkpt lat="45.09664515791078" lon="8.406352639139744"><ele>200.0</ele><time>2026-04-04T14:16:46Z</time></trkpt><trkpt lat="45.0967832553038" lon="8.40635837865354"><ele>197.66666666666669</ele><time>2026-04-04T14:16:47Z</time></trkpt><trkpt lat="45.0969427659042" lon="8.40638563401597"><ele>195.33333333333331</ele><time>2026-04-04T14:16:48Z</time></trkpt><trkpt lat="45.09711890402343" lon="8.406426400072425"><ele>193.0</ele><time>2026-04-04T14:16:49Z</time></trkpt><trkpt lat="45.097316616038086" lon="8.406473952246328"><ele>191.33333333333331</ele><time>2026-04-04T14:16:50Z</time></trkpt><trkpt lat="45.097536069993104" lon="8.406530541924935"><ele>189.66666666666666</ele><time>2026-04-04T14:16:51Z</time></trkpt><trkpt lat="45.09771770635716" lon="8.40658965350865"><ele>188.0</ele><time>2026-04-04T14:16:52Z</time></trkpt><trkpt lat="45.0978865488527" lon="8.406686078576456"><ele>188.0</ele><time>2026-04-04T14:16:53Z</time></trkpt><trkpt lat="45.09804831698416" lon="8.406871251161348"><ele>188.0</ele><time>2026-04-04T14:16:54Z</time></trkpt><trkpt lat="45.09818831320681" lon="8.407132317026903"><ele>188.0</ele><time>2026-04-04T14:16:55Z</time></trkpt><trkpt lat="45.098339859704105" lon="8.407426078246278"><ele>184.0</ele><time>2026-04-04T14:16:56Z</time></trkpt><trkpt lat="45.09849520886672" lon="8.407749874068152"><ele>180.0</ele><time>2026-04-04T14:16:57Z</time></trkpt><trkpt lat="45.0986494253244" lon="8.40804287816148"><ele>178.33333333333334</ele><time>2026-04-04T14:16:58Z</time></trkpt><trkpt lat="45.09874798939255" lon="8.408289482459352"><ele>176.66666666666669</ele><time>2026-04-04T14:16:59Z</time></trkpt><trkpt lat="45.09881986192848" lon="8.408516535871975"><ele>175.0</ele><time>2026-04-04T14:17:00Z</time></trkpt><trkpt lat="45.09883110614677" lon="8.408769862229395"><ele>173.5</ele><time>2026-04-04T14:17:01Z</time></trkpt><trkpt lat="45.09884234655702" lon="8.409078596486406"><ele>172.0</ele><time>2026-04-04T14:17:02Z</time></trkpt><trkpt lat="45.09885050098652" lon="8.409423507557797"><ele>170.5</ele><time>2026-04-04T14:17:03Z</time></trkpt><trkpt lat="45.09886980310914" lon="8.409782112483839"><ele>169.0</ele><time>2026-04-04T14:17:04Z</time></trkpt><trkpt lat="45.0988768064284" lon="8.410108618176864"><ele>169.0</ele><time>2026-04-04T14:17:05Z</time></trkpt><trkpt lat="45.09888944671712" lon="8.41040045205706"><ele>169.0</ele><time>2026-04-04T14:17:06Z</time></trkpt><trkpt lat="45.098898114543324" lon="8.410667831751965"><ele>169.0</ele><time>2026-04-04T14:17:07Z</time></trkpt><trkpt lat="45.09890543894656" lon="8.4109087055075"><ele>168.25</ele><time>2026-04-04T14:17:08Z</time></trkpt><trkpt lat="45.09891570288509" lon="8.411114839377001"><ele>167.5</ele><time>2026-04-04T14:17:09Z</time></trkpt><trkpt lat="45.09894781189605" lon="8.411300154587192"><ele>166.75</ele><time>2026-04-04T14:17:10Z</time></trkpt><trkpt lat="45.09901196091267" lon="8.411484877318534"><ele>166.0</ele><time>2026-04-04T14:17:11Z</time></trkpt><trkpt lat="45.0991456382287" lon="8.411597910040376"><ele>166.0</ele><time>2026-04-04T14:17:12Z</time></trkpt><trkpt lat="45.09928817230806" lon="8.41170308746581"><ele>166.0</ele><time>2026-04-04T14:17:13Z</time></trkpt><trkpt lat="45.0994236098755" lon="8.411806263914755"><ele>166.0</ele><time>2026-04-04T14:17:14Z</time></trkpt><trkpt lat="45.099522008406765" lon="8.4119182081526"><ele>166.0</ele><time>2026-04-04T14:17:15Z</time></trkpt><trkpt lat="45.09957397643229" lon="8.412067199276628"><ele>166.20000000000002</ele><time>2026-04-04T14:17:16Z</time></trkpt><trkpt lat="45.099587175565674" lon="8.41223824066233"><ele>166.4</ele><time>2026-04-04T14:17:17Z</time></trkpt><trkpt lat="45.099581580327325" lon="8.412410351523292"><ele>166.6</ele><time>2026-04-04T14:17:18Z</time></trkpt><trkpt lat="45.099581031926355" lon="8.412553924939372"><ele>166.8</ele><time>2026-04-04T14:17:19Z</time></trkpt><trkpt lat="45.09960956830455" lon="8.41267469616393"><ele>167.0</ele><time>2026-04-04T14:17:20Z</time></trkpt><trkpt lat="45.09967294737885" lon="8.412757448383138"><ele>167.0</ele><time>2026-04-04T14:17:21Z</time></trkpt><trkpt lat="45.09974970777209" lon="8.412802942515778"><ele>167.0</ele><time>2026-04-04T14:17:22Z</time></trkpt><trkpt lat="45.09982844931106" lon="8.412801778785498"><ele>167.0</ele><time>2026-04-04T14:17:23Z</time></trkpt><trkpt lat="45.099910704667366" lon="8.412772409733194"><ele>167.0</ele><time>2026-04-04T14:17:24Z</time></trkpt><trkpt lat="45.09998287080729" lon="8.41266122725727"><ele>167.0</ele><time>2026-04-04T14:17:25Z</time></trkpt><trkpt lat="45.10000580483144" lon="8.412492034106464"><ele>164.25</ele><time>2026-04-04T14:17:26Z</time></trkpt><trkpt lat="45.100027336410015" lon="8.412308898019381"><ele>161.5</ele><time>2026-04-04T14:17:27Z</time></trkpt><trkpt lat="45.10004360814013" lon="8.412110528322343"><ele>158.75</ele><time>2026-04-04T14:17:28Z</time></trkpt><trkpt lat="45.100050839251274" lon="8.411919421922699"><ele>156.0</ele><time>2026-04-04T14:17:29Z</time></trkpt><trkpt lat="45.10007450936444" lon="8.411732345459685"><ele>155.5</ele><time>2026-04-04T14:17:30Z</time></trkpt><trkpt lat="45.10008713826876" lon="8.411558742560313"><ele>155.0</ele><time>2026-04-04T14:17:31Z</time></trkpt><trkpt lat="45.10009944684294" lon="8.411389543077055"><ele>154.5</ele><time>2026-04-04T14:17:32Z</time></trkpt><trkpt lat="45.10010836771936" lon="8.411230755772893"><ele>154.0</ele><time>2026-04-04T14:17:33Z</time></trkpt><trkpt lat="45.100101742045986" lon="8.411081744373451"><ele>153.8</ele><time>2026-04-04T14:17:34Z</time></trkpt><trkpt lat="45.10011120448457" lon="8.41092610032811"><ele>153.60000000000002</ele><time>2026-04-04T14:17:35Z</time></trkpt><trkpt lat="45.10012357982301" lon="8.410766780098042"><ele>153.4</ele><time>2026-04-04T14:17:36Z</time></trkpt><trkpt lat="45.10013402965641" lon="8.410621325029869"><ele>153.20000000000002</ele><time>2026-04-04T14:17:37Z</time></trkpt><trkpt lat="45.100144074564014" lon="8.410493617290042"><ele>153.0</ele><time>2026-04-04T14:17:38Z</time></trkpt><trkpt lat="45.10015617510369" lon="8.410373756668545"><ele>153.33333333333334</ele><time>2026-04-04T14:17:39Z</time></trkpt><trkpt lat="45.100176688308395" lon="8.410261278775032"><ele>153.66666666666666</ele><time>2026-04-04T14:17:40Z</time></trkpt><trkpt lat="45.100206725210214" lon="8.410156933578344"><ele>154.0</ele><time>2026-04-04T14:17:41Z</time></trkpt><trkpt lat="45.10025636141739" lon="8.410061807881911"><ele>154.33333333333331</ele><time>2026-04-04T14:17:42Z</time></trkpt><trkpt lat="45.100335287267725" lon="8.410013132285528"><ele>154.66666666666666</ele><time>2026-04-04T14:17:43Z</time></trkpt><trkpt lat="45.10041200268658" lon="8.409948514055273"><ele>155.0</ele><time>2026-04-04T14:17:43.999Z</time></trkpt><trkpt lat="45.10050011941972" lon="8.40994549791274"><ele>155.0</ele><time>2026-04-04T14:17:44.999Z</time></trkpt><trkpt lat="45.100598410079826" lon="8.409952929148185"><ele>155.0</ele><time>2026-04-04T14:17:45.999Z</time></trkpt><trkpt lat="45.1007048570675" lon="8.409993699209341"><ele>155.0</ele><time>2026-04-04T14:17:46.999Z</time></trkpt><trkpt lat="45.10082815777683" lon="8.410055583964297"><ele>155.0</ele><time>2026-04-04T14:17:47.999Z</time></trkpt><trkpt lat="45.1009762129465" lon="8.410123813824509"><ele>153.5</ele><time>2026-04-04T14:17:48.999Z</time></trkpt><trkpt lat="45.10113338346343" lon="8.41019514354373"><ele>152.0</ele><time>2026-04-04T14:17:49.999Z</time></trkpt><trkpt lat="45.101265859130145" lon="8.410252815011438"><ele>150.5</ele><time>2026-04-04T14:17:50.999Z</time></trkpt><trkpt lat="45.10137212407333" lon="8.41029704425002"><ele>149.0</ele><time>2026-04-04T14:17:51.999Z</time></trkpt><trkpt lat="45.10145571635982" lon="8.410330023043112"><ele>149.0</ele><time>2026-04-04T14:17:52.999Z</time></trkpt><trkpt lat="45.10153035154416" lon="8.410374780301868"><ele>149.0</ele><time>2026-04-04T14:17:54.999Z</time></trkpt><trkpt lat="45.101576138210646" lon="8.41046390933757"><ele>149.0</ele><time>2026-04-04T14:18:10.999Z</time></trkpt><trkpt lat="45.10158364565774" lon="8.41056211266578"><ele>149.0</ele><time>2026-04-04T14:18:11.999Z</time></trkpt><trkpt lat="45.10159062458961" lon="8.41067436340969"><ele>149.0</ele><time>2026-04-04T14:18:12.999Z</time></trkpt><trkpt lat="45.1015995723069" lon="8.410802714707312"><ele>149.0</ele><time>2026-04-04T14:18:13.999Z</time></trkpt><trkpt lat="45.101610277683015" lon="8.410944050186389"><ele>149.2</ele><time>2026-04-04T14:18:14.999Z</time></trkpt><trkpt lat="45.1016228809659" lon="8.411096649904712"><ele>149.4</ele><time>2026-04-04T14:18:15.999Z</time></trkpt><trkpt lat="45.1016324591848" lon="8.411255910824394"><ele>149.6</ele><time>2026-04-04T14:18:16.999Z</time></trkpt><trkpt lat="45.101643857497734" lon="8.411413531865689"><ele>149.8</ele><time>2026-04-04T14:18:17.999Z</time></trkpt><trkpt lat="45.101657031319036" lon="8.41156240030797"><ele>150.0</ele><time>2026-04-04T14:18:18.999Z</time></trkpt><trkpt lat="45.10167151687235" lon="8.411725019457746"><ele>150.0</ele><time>2026-04-04T14:18:19.999Z</time></trkpt><trkpt lat="45.101683688848105" lon="8.411897470028242"><ele>150.0</ele><time>2026-04-04T14:18:20.999Z</time></trkpt><trkpt lat="45.10170212187336" lon="8.412092478203178"><ele>150.0</ele><time>2026-04-04T14:18:21.999Z</time></trkpt><trkpt lat="45.10171724774242" lon="8.412268348546867"><ele>150.0</ele><time>2026-04-04T14:18:22.999Z</time></trkpt><trkpt lat="45.10172767080437" lon="8.41245698903383"><ele>149.5</ele><time>2026-04-04T14:18:23.999Z</time></trkpt><trkpt lat="45.101739946781414" lon="8.41263994569159"><ele>149.0</ele><time>2026-04-04T14:18:24.999Z</time></trkpt><trkpt lat="45.10175241215617" lon="8.412840429403536"><ele>148.5</ele><time>2026-04-04T14:18:25.999Z</time></trkpt><trkpt lat="45.10176496787975" lon="8.413048215624261"><ele>148.0</ele><time>2026-04-04T14:18:26.999Z</time></trkpt><trkpt lat="45.1017790573914" lon="8.413257031303516"><ele>148.0</ele><time>2026-04-04T14:18:27.999Z</time></trkpt><trkpt lat="45.10179488937368" lon="8.413492857425915"><ele>148.0</ele><time>2026-04-04T14:18:28.999Z</time></trkpt><trkpt lat="45.10181021420846" lon="8.413716247518101"><ele>148.0</ele><time>2026-04-04T14:18:29.999Z</time></trkpt><trkpt lat="45.10182639830204" lon="8.413917150816424"><ele>147.75</ele><time>2026-04-04T14:18:30.999Z</time></trkpt><trkpt lat="45.10184246606008" lon="8.41411354216584"><ele>147.5</ele><time>2026-04-04T14:18:31.999Z</time></trkpt><trkpt lat="45.10185699081234" lon="8.414305422880123"><ele>147.25</ele><time>2026-04-04T14:18:32.999Z</time></trkpt><trkpt lat="45.10186884821785" lon="8.414485177560582"><ele>147.0</ele><time>2026-04-04T14:18:34Z</time></trkpt><trkpt lat="45.10188237850385" lon="8.414663307977436"><ele>146.2</ele><time>2026-04-04T14:18:35Z</time></trkpt><trkpt lat="45.10189559034373" lon="8.414830949430996"><ele>145.39999999999998</ele><time>2026-04-04T14:18:36Z</time></trkpt><trkpt lat="45.10190688547991" lon="8.414991120744569"><ele>144.60000000000002</ele><time>2026-04-04T14:18:37Z</time></trkpt><trkpt lat="45.10191794300934" lon="8.415142790380578"><ele>143.8</ele><time>2026-04-04T14:18:38Z</time></trkpt><trkpt lat="45.10192672999607" lon="8.415292137939003"><ele>143.0</ele><time>2026-04-04T14:18:39Z</time></trkpt><trkpt lat="45.10193572492083" lon="8.415445865692579"><ele>142.5</ele><time>2026-04-04T14:18:40Z</time></trkpt><trkpt lat="45.10194563243084" lon="8.415612438354051"><ele>142.0</ele><time>2026-04-04T14:18:41Z</time></trkpt><trkpt lat="45.10195455080269" lon="8.415791762547471"><ele>141.5</ele><time>2026-04-04T14:18:42Z</time></trkpt><trkpt lat="45.10196179316754" lon="8.415970063321144"><ele>141.0</ele><time>2026-04-04T14:18:43Z</time></trkpt><trkpt lat="45.101965444369114" lon="8.416141510972727"><ele>141.75</ele><time>2026-04-04T14:18:44Z</time></trkpt><trkpt lat="45.101959961765616" lon="8.416321537412653"><ele>142.5</ele><time>2026-04-04T14:18:45Z</time></trkpt><trkpt lat="45.10194885557801" lon="8.41650686669479"><ele>143.25</ele><time>2026-04-04T14:18:46Z</time></trkpt><trkpt lat="45.10192821142056" lon="8.416694070546233"><ele>144.0</ele><time>2026-04-04T14:18:47Z</time></trkpt><trkpt lat="45.10190132305822" lon="8.416872218660146"><ele>144.0</ele><time>2026-04-04T14:18:48Z</time></trkpt><trkpt lat="45.1018766132873" lon="8.417036730336926"><ele>144.0</ele><time>2026-04-04T14:18:49Z</time></trkpt><trkpt lat="45.101854080463795" lon="8.417193855886213"><ele>144.0</ele><time>2026-04-04T14:18:50Z</time></trkpt><trkpt lat="45.10182937493426" lon="8.417354945960058"><ele>144.0</ele><time>2026-04-04T14:18:51Z</time></trkpt><trkpt lat="45.10180535334315" lon="8.417504791991108"><ele>144.25</ele><time>2026-04-04T14:18:52Z</time></trkpt><trkpt lat="45.10178060762956" lon="8.417653347908674"><ele>144.5</ele><time>2026-04-04T14:18:53Z</time></trkpt><trkpt lat="45.1017561838769" lon="8.417812469283584"><ele>144.75</ele><time>2026-04-04T14:18:54Z</time></trkpt><trkpt lat="45.10173120208585" lon="8.4179790659526"><ele>145.0</ele><time>2026-04-04T14:18:55Z</time></trkpt><trkpt lat="45.101703681656964" lon="8.418157936917888"><ele>144.25</ele><time>2026-04-04T14:18:56Z</time></trkpt><trkpt lat="45.1016737687419" lon="8.418346966754685"><ele>143.5</ele><time>2026-04-04T14:18:57Z</time></trkpt><trkpt lat="45.10164025181745" lon="8.418554031863376"><ele>142.75</ele><time>2026-04-04T14:18:58Z</time></trkpt><trkpt lat="45.10160665175539" lon="8.418778488732118"><ele>142.0</ele><time>2026-04-04T14:18:59Z</time></trkpt><trkpt lat="45.101573231491344" lon="8.419005746467327"><ele>142.0</ele><time>2026-04-04T14:19:00Z</time></trkpt><trkpt lat="45.10153647117398" lon="8.419258981420574"><ele>142.0</ele><time>2026-04-04T14:19:01Z</time></trkpt><trkpt lat="45.10149658101283" lon="8.419522892572001"><ele>142.0</ele><time>2026-04-04T14:19:02Z</time></trkpt><trkpt lat="45.1014563635741" lon="8.419788483322945"><ele>141.33333333333334</ele><time>2026-04-04T14:19:03Z</time></trkpt><trkpt lat="45.10141552479475" lon="8.420051090814127"><ele>140.66666666666666</ele><time>2026-04-04T14:19:04Z</time></trkpt><trkpt lat="45.10137360772242" lon="8.420308422912719"><ele>140.0</ele><time>2026-04-04T14:19:05Z</time></trkpt><trkpt lat="45.101335337915074" lon="8.42055647772372"><ele>140.0</ele><time>2026-04-04T14:19:06Z</time></trkpt><trkpt lat="45.10129693909193" lon="8.420804011611567"><ele>140.0</ele><time>2026-04-04T14:19:07Z</time></trkpt><trkpt lat="45.101259050491166" lon="8.42105100523159"><ele>140.0</ele><time>2026-04-04T14:19:08Z</time></trkpt><trkpt lat="45.10122064708764" lon="8.421295617401606"><ele>139.66666666666666</ele><time>2026-04-04T14:19:09Z</time></trkpt><trkpt lat="45.10118174498979" lon="8.42154033286449"><ele>139.33333333333334</ele><time>2026-04-04T14:19:10Z</time></trkpt><trkpt lat="45.101142067302085" lon="8.421791444712674"><ele>139.0</ele><time>2026-04-04T14:19:11Z</time></trkpt><trkpt lat="45.10110168447396" lon="8.422048389895263"><ele>139.0</ele><time>2026-04-04T14:19:12Z</time></trkpt><trkpt lat="45.10106200746982" lon="8.422307053180427"><ele>139.0</ele><time>2026-04-04T14:19:13Z</time></trkpt><trkpt lat="45.10102083831983" lon="8.42257125764524"><ele>139.0</ele><time>2026-04-04T14:19:14Z</time></trkpt><trkpt lat="45.10098092192676" lon="8.422831267837486"><ele>139.0</ele><time>2026-04-04T14:19:15Z</time></trkpt><trkpt lat="45.1009420842682" lon="8.423082557241095"><ele>139.0</ele><time>2026-04-04T14:19:16Z</time></trkpt><trkpt lat="45.10090729267436" lon="8.423315929083962"><ele>139.0</ele><time>2026-04-04T14:19:17Z</time></trkpt><trkpt lat="45.100872488064525" lon="8.423533543821023"><ele>139.0</ele><time>2026-04-04T14:19:18Z</time></trkpt><trkpt lat="45.10083959263338" lon="8.423740550071065"><ele>139.0</ele><time>2026-04-04T14:19:19Z</time></trkpt><trkpt lat="45.100804240426015" lon="8.423953950947537"><ele>139.0</ele><time>2026-04-04T14:19:20Z</time></trkpt><trkpt lat="45.10076805455884" lon="8.424179934391473"><ele>138.66666666666669</ele><time>2026-04-04T14:19:21Z</time></trkpt><trkpt lat="45.100734481919055" lon="8.424410229139966"><ele>138.33333333333334</ele><time>2026-04-04T14:19:22Z</time></trkpt><trkpt lat="45.1006991295597" lon="8.42464559483928"><ele>138.0</ele><time>2026-04-04T14:19:23Z</time></trkpt><trkpt lat="45.100663399832165" lon="8.424880971225397"><ele>138.0</ele><time>2026-04-04T14:19:24Z</time></trkpt><trkpt lat="45.10062787680837" lon="8.425119479144712"><ele>138.0</ele><time>2026-04-04T14:19:25Z</time></trkpt><trkpt lat="45.100591754338545" lon="8.425366163686544"><ele>138.0</ele><time>2026-04-04T14:19:26Z</time></trkpt><trkpt lat="45.1005555085729" lon="8.425616513117221"><ele>137.33333333333334</ele><time>2026-04-04T14:19:27Z</time></trkpt><trkpt lat="45.10051587524589" lon="8.425868410546165"><ele>136.66666666666669</ele><time>2026-04-04T14:19:28Z</time></trkpt><trkpt lat="45.10047450407604" lon="8.426114507451404"><ele>136.0</ele><time>2026-04-04T14:19:29Z</time></trkpt><trkpt lat="45.100436246962296" lon="8.426354941462085"><ele>135.66666666666669</ele><time>2026-04-04T14:19:30Z</time></trkpt><trkpt lat="45.100397677760874" lon="8.426591172882725"><ele>135.33333333333334</ele><time>2026-04-04T14:19:31Z</time></trkpt><trkpt lat="45.10036183823209" lon="8.426820885775768"><ele>135.0</ele><time>2026-04-04T14:19:32Z</time></trkpt><trkpt lat="45.100327127541014" lon="8.427055439328411"><ele>135.66666666666666</ele><time>2026-04-04T14:19:33Z</time></trkpt><trkpt lat="45.10029118038485" lon="8.427301551755399"><ele>136.33333333333331</ele><time>2026-04-04T14:19:34Z</time></trkpt><trkpt lat="45.100254857289" lon="8.427546819207514"><ele>137.0</ele><time>2026-04-04T14:19:35Z</time></trkpt><trkpt lat="45.10021839566952" lon="8.42778422679666"><ele>137.33333333333331</ele><time>2026-04-04T14:19:36Z</time></trkpt><trkpt lat="45.100185342603105" lon="8.428019800382547"><ele>137.66666666666666</ele><time>2026-04-04T14:19:37Z</time></trkpt><trkpt lat="45.10015420910412" lon="8.42825495485048"><ele>138.0</ele><time>2026-04-04T14:19:38Z</time></trkpt><trkpt lat="45.10013101651805" lon="8.428496408215942"><ele>138.0</ele><time>2026-04-04T14:19:39Z</time></trkpt><trkpt lat="45.100121379990696" lon="8.428738335952259"><ele>138.0</ele><time>2026-04-04T14:19:40Z</time></trkpt><trkpt lat="45.10013107669425" lon="8.428977128616527"><ele>138.0</ele><time>2026-04-04T14:19:41Z</time></trkpt><trkpt lat="45.100159915615016" lon="8.429224272433917"><ele>137.0</ele><time>2026-04-04T14:19:42Z</time></trkpt><trkpt lat="45.10020406508411" lon="8.429472700305782"><ele>136.0</ele><time>2026-04-04T14:19:43Z</time></trkpt><trkpt lat="45.100262754151146" lon="8.429714168527864"><ele>135.0</ele><time>2026-04-04T14:19:44Z</time></trkpt><trkpt lat="45.100336109460166" lon="8.429956332277447"><ele>135.0</ele><time>2026-04-04T14:19:45Z</time></trkpt><trkpt lat="45.100422324182915" lon="8.430189164627238"><ele>135.0</ele><time>2026-04-04T14:19:46Z</time></trkpt><trkpt lat="45.100513265062595" lon="8.43040553982361"><ele>135.0</ele><time>2026-04-04T14:19:47Z</time></trkpt><trkpt lat="45.10061970750094" lon="8.43061454838395"><ele>134.66666666666666</ele><time>2026-04-04T14:19:47.999Z</time></trkpt><trkpt lat="45.10073956996405" lon="8.430815024170547"><ele>134.33333333333331</ele><time>2026-04-04T14:19:48.999Z</time></trkpt><trkpt lat="45.10088200720646" lon="8.431005737966597"><ele>134.0</ele><time>2026-04-04T14:19:49.999Z</time></trkpt><trkpt lat="45.10104022554" lon="8.431179201840148"><ele>134.0</ele><time>2026-04-04T14:19:50.999Z</time></trkpt><trkpt lat="45.1011962664764" lon="8.431335432808"><ele>134.0</ele><time>2026-04-04T14:19:51.999Z</time></trkpt><trkpt lat="45.101346900044284" lon="8.43148418908328"><ele>134.0</ele><time>2026-04-04T14:19:52.999Z</time></trkpt><trkpt lat="45.1014968253706" lon="8.431634790359077"><ele>133.66666666666666</ele><time>2026-04-04T14:19:53.999Z</time></trkpt><trkpt lat="45.10164243366407" lon="8.4317866055345"><ele>133.33333333333334</ele><time>2026-04-04T14:19:54.999Z</time></trkpt><trkpt lat="45.10179383274174" lon="8.431942774786798"><ele>133.0</ele><time>2026-04-04T14:19:55.999Z</time></trkpt><trkpt lat="45.10194557060605" lon="8.432100416804554"><ele>132.33333333333334</ele><time>2026-04-04T14:19:56.999Z</time></trkpt><trkpt lat="45.102099799741715" lon="8.432260722290012"><ele>131.66666666666666</ele><time>2026-04-04T14:19:57.999Z</time></trkpt><trkpt lat="45.10224823102197" lon="8.432413905265252"><ele>131.0</ele><time>2026-04-04T14:19:58.999Z</time></trkpt><trkpt lat="45.1023983322469" lon="8.432570731864864"><ele>131.0</ele><time>2026-04-04T14:19:59.999Z</time></trkpt><trkpt lat="45.102547709191064" lon="8.432727008152945"><ele>131.0</ele><time>2026-04-04T14:20:00.999Z</time></trkpt><trkpt lat="45.10269252872666" lon="8.432876570200447"><ele>131.0</ele><time>2026-04-04T14:20:01.999Z</time></trkpt><trkpt lat="45.10282849475456" lon="8.433018329474288"><ele>130.33333333333331</ele><time>2026-04-04T14:20:02.999Z</time></trkpt><trkpt lat="45.102957752169566" lon="8.433155822466711"><ele>129.66666666666666</ele><time>2026-04-04T14:20:03.999Z</time></trkpt><trkpt lat="45.10308280358372" lon="8.433285065809063"><ele>129.0</ele><time>2026-04-04T14:20:04.999Z</time></trkpt><trkpt lat="45.10319909182474" lon="8.433405933303389"><ele>129.33333333333334</ele><time>2026-04-04T14:20:05.999Z</time></trkpt><trkpt lat="45.103320483894755" lon="8.433537770666327"><ele>129.66666666666669</ele><time>2026-04-04T14:20:06.999Z</time></trkpt><trkpt lat="45.10345312018255" lon="8.433680406222708"><ele>130.0</ele><time>2026-04-04T14:20:07.999Z</time></trkpt><trkpt lat="45.103587720069946" lon="8.433815467479539"><ele>129.33333333333334</ele><time>2026-04-04T14:20:08.999Z</time></trkpt><trkpt lat="45.10371491085512" lon="8.433945360479312"><ele>128.66666666666666</ele><time>2026-04-04T14:20:09.999Z</time></trkpt><trkpt lat="45.103837623578244" lon="8.4340739157664"><ele>128.0</ele><time>2026-04-04T14:20:10.999Z</time></trkpt><trkpt lat="45.103957594776105" lon="8.434197688486531"><ele>128.0</ele><time>2026-04-04T14:20:11.999Z</time></trkpt><trkpt lat="45.10407819494033" lon="8.434322429218263"><ele>128.0</ele><time>2026-04-04T14:20:12.999Z</time></trkpt><trkpt lat="45.10420267665553" lon="8.434449656606807"><ele>128.0</ele><time>2026-04-04T14:20:13.999Z</time></trkpt><trkpt lat="45.10432763331062" lon="8.434577963249538"><ele>128.0</ele><time>2026-04-04T14:20:14.999Z</time></trkpt><trkpt lat="45.10445394286037" lon="8.434710384532975"><ele>128.0</ele><time>2026-04-04T14:20:15.999Z</time></trkpt><trkpt lat="45.104584915476664" lon="8.434844549509407"><ele>128.0</ele><time>2026-04-04T14:20:16.999Z</time></trkpt><trkpt lat="45.104717766988756" lon="8.434980407766593"><ele>128.0</ele><time>2026-04-04T14:20:17.999Z</time></trkpt><trkpt lat="45.10485301081867" lon="8.435120851339496"><ele>128.0</ele><time>2026-04-04T14:20:18.999Z</time></trkpt><trkpt lat="45.104991725201224" lon="8.435263895869884"><ele>128.0</ele><time>2026-04-04T14:20:19.999Z</time></trkpt><trkpt lat="45.10513161385693" lon="8.43540727417175"><ele>127.66666666666666</ele><time>2026-04-04T14:20:20.999Z</time></trkpt><trkpt lat="45.10526931688572" lon="8.435547742125399"><ele>127.33333333333334</ele><time>2026-04-04T14:20:21.999Z</time></trkpt><trkpt lat="45.10540352230097" lon="8.435689395012913"><ele>127.0</ele><time>2026-04-04T14:20:22.999Z</time></trkpt><trkpt lat="45.10553392274956" lon="8.435826879843662"><ele>127.0</ele><time>2026-04-04T14:20:23.999Z</time></trkpt><trkpt lat="45.10566165373793" lon="8.435960721468174"><ele>127.0</ele><time>2026-04-04T14:20:24.999Z</time></trkpt><trkpt lat="45.10578725549433" lon="8.43609068281413"><ele>127.0</ele><time>2026-04-04T14:20:25.999Z</time></trkpt><trkpt lat="45.105911661222656" lon="8.43621590763175"><ele>127.0</ele><time>2026-04-04T14:20:26.999Z</time></trkpt><trkpt lat="45.10604089195712" lon="8.436346875128843"><ele>127.0</ele><time>2026-04-04T14:20:27.999Z</time></trkpt><trkpt lat="45.106171714180356" lon="8.436483956017048"><ele>127.0</ele><time>2026-04-04T14:20:28.999Z</time></trkpt><trkpt lat="45.106304572746104" lon="8.436621127680679"><ele>127.0</ele><time>2026-04-04T14:20:29.999Z</time></trkpt><trkpt lat="45.10643684407952" lon="8.436755807092668"><ele>127.0</ele><time>2026-04-04T14:20:30.999Z</time></trkpt><trkpt lat="45.106571606072734" lon="8.43689271522201"><ele>127.0</ele><time>2026-04-04T14:20:31.999Z</time></trkpt><trkpt lat="45.10670556219648" lon="8.437024957086852"><ele>126.33333333333334</ele><time>2026-04-04T14:20:32.999Z</time></trkpt><trkpt lat="45.106841989485105" lon="8.437162991216168"><ele>125.66666666666666</ele><time>2026-04-04T14:20:33.999Z</time></trkpt><trkpt lat="45.106985588860375" lon="8.437320309842727"><ele>125.0</ele><time>2026-04-04T14:20:34.999Z</time></trkpt><trkpt lat="45.107133820329274" lon="8.437477287175097"><ele>125.0</ele><time>2026-04-04T14:20:35.999Z</time></trkpt><trkpt lat="45.107285574280866" lon="8.437635974694198"><ele>125.0</ele><time>2026-04-04T14:20:36.999Z</time></trkpt><trkpt lat="45.107433264710274" lon="8.43778690169404"><ele>125.0</ele><time>2026-04-04T14:20:37.999Z</time></trkpt><trkpt lat="45.10757847149976" lon="8.437936452854904"><ele>126.0</ele><time>2026-04-04T14:20:39Z</time></trkpt><trkpt lat="45.10772153259409" lon="8.438082769471542"><ele>127.0</ele><time>2026-04-04T14:20:40Z</time></trkpt><trkpt lat="45.107861028910925" lon="8.438226143144613"><ele>128.0</ele><time>2026-04-04T14:20:41Z</time></trkpt><trkpt lat="45.10799100334974" lon="8.438362299148636"><ele>128.0</ele><time>2026-04-04T14:20:42Z</time></trkpt><trkpt lat="45.10811428797859" lon="8.438488614229593"><ele>128.0</ele><time>2026-04-04T14:20:43Z</time></trkpt><trkpt lat="45.108233162466206" lon="8.438610964573364"><ele>128.0</ele><time>2026-04-04T14:20:44Z</time></trkpt><trkpt lat="45.10834720461738" lon="8.43872747190627"><ele>128.0</ele><time>2026-04-04T14:20:45Z</time></trkpt><trkpt lat="45.10845831904659" lon="8.438842868318563"><ele>127.5</ele><time>2026-04-04T14:20:46Z</time></trkpt><trkpt lat="45.10856919369275" lon="8.438956870232849"><ele>127.0</ele><time>2026-04-04T14:20:47Z</time></trkpt><trkpt lat="45.10867511594795" lon="8.439066103364793"><ele>126.5</ele><time>2026-04-04T14:20:48Z</time></trkpt><trkpt lat="45.10878037855374" lon="8.439173770734087"><ele>126.0</ele><time>2026-04-04T14:20:49Z</time></trkpt><trkpt lat="45.1088848637565" lon="8.43928161040657"><ele>126.0</ele><time>2026-04-04T14:20:50Z</time></trkpt><trkpt lat="45.10898726981517" lon="8.439387722690284"><ele>126.0</ele><time>2026-04-04T14:20:51Z</time></trkpt><trkpt lat="45.10908683516412" lon="8.439490715356014"><ele>126.0</ele><time>2026-04-04T14:20:52Z</time></trkpt><trkpt lat="45.10918579796591" lon="8.439593356577872"><ele>126.0</ele><time>2026-04-04T14:20:53Z</time></trkpt><trkpt lat="45.10928166442198" lon="8.439692213109742"><ele>126.0</ele><time>2026-04-04T14:20:54Z</time></trkpt><trkpt lat="45.10938229084087" lon="8.439795553248409"><ele>126.0</ele><time>2026-04-04T14:20:55Z</time></trkpt><trkpt lat="45.109493585210096" lon="8.439909905661388"><ele>126.0</ele><time>2026-04-04T14:20:56Z</time></trkpt><trkpt lat="45.10961187563934" lon="8.440032395154109"><ele>126.0</ele><time>2026-04-04T14:20:57Z</time></trkpt><trkpt lat="45.10973681121864" lon="8.440161450827347"><ele>126.0</ele><time>2026-04-04T14:20:58Z</time></trkpt><trkpt lat="45.109861858677874" lon="8.44029192988408"><ele>126.0</ele><time>2026-04-04T14:20:59Z</time></trkpt><trkpt lat="45.109985448465444" lon="8.440419935188897"><ele>126.0</ele><time>2026-04-04T14:21:00Z</time></trkpt><trkpt lat="45.110110477594276" lon="8.440549824876767"><ele>125.0</ele><time>2026-04-04T14:21:01Z</time></trkpt><trkpt lat="45.110237315566316" lon="8.440680287730881"><ele>124.0</ele><time>2026-04-04T14:21:02Z</time></trkpt><trkpt lat="45.110362822433174" lon="8.440810511177274"><ele>123.0</ele><time>2026-04-04T14:21:03Z</time></trkpt><trkpt lat="45.11048344074574" lon="8.44093529135563"><ele>123.0</ele><time>2026-04-04T14:21:04Z</time></trkpt><trkpt lat="45.110606380012854" lon="8.441059676754533"><ele>123.0</ele><time>2026-04-04T14:21:05Z</time></trkpt><trkpt lat="45.110733449710715" lon="8.441191307749374"><ele>123.0</ele><time>2026-04-04T14:21:06Z</time></trkpt><trkpt lat="45.110867946472965" lon="8.441332149988288"><ele>122.0</ele><time>2026-04-04T14:21:07Z</time></trkpt><trkpt lat="45.111011336350984" lon="8.441480711242932"><ele>121.0</ele><time>2026-04-04T14:21:08Z</time></trkpt><trkpt lat="45.111166064631696" lon="8.441635985233335"><ele>120.0</ele><time>2026-04-04T14:21:09Z</time></trkpt><trkpt lat="45.11133542182761" lon="8.441809004050201"><ele>120.0</ele><time>2026-04-04T14:21:10Z</time></trkpt><trkpt lat="45.111515495410394" lon="8.441997245453793"><ele>120.0</ele><time>2026-04-04T14:21:11Z</time></trkpt><trkpt lat="45.111679486344" lon="8.442165136933342"><ele>120.0</ele><time>2026-04-04T14:21:12Z</time></trkpt><trkpt lat="45.11183386471535" lon="8.442322134316328"><ele>120.66666666666666</ele><time>2026-04-04T14:21:13Z</time></trkpt><trkpt lat="45.111979508907986" lon="8.442471769140878"><ele>121.33333333333333</ele><time>2026-04-04T14:21:14Z</time></trkpt><trkpt lat="45.11211927321762" lon="8.442614618056897"><ele>122.0</ele><time>2026-04-04T14:21:15Z</time></trkpt><trkpt lat="45.11225428628025" lon="8.442751750090924"><ele>122.0</ele><time>2026-04-04T14:21:16Z</time></trkpt><trkpt lat="45.11238211226929" lon="8.442882044259807"><ele>122.0</ele><time>2026-04-04T14:21:17Z</time></trkpt><trkpt lat="45.112506961999415" lon="8.443009081709599"><ele>122.0</ele><time>2026-04-04T14:21:18Z</time></trkpt><trkpt lat="45.112636775871074" lon="8.443144624481572"><ele>121.66666666666666</ele><time>2026-04-04T14:21:19Z</time></trkpt><trkpt lat="45.112776098613956" lon="8.443292289586838"><ele>121.33333333333334</ele><time>2026-04-04T14:21:20Z</time></trkpt><trkpt lat="45.112927575454364" lon="8.44344556740234"><ele>121.0</ele><time>2026-04-04T14:21:21Z</time></trkpt><trkpt lat="45.11309150229199" lon="8.443609712869248"><ele>121.0</ele><time>2026-04-04T14:21:22Z</time></trkpt><trkpt lat="45.11324277019951" lon="8.44376536970621"><ele>121.0</ele><time>2026-04-04T14:21:23Z</time></trkpt><trkpt lat="45.11338784039778" lon="8.44391393578505"><ele>121.0</ele><time>2026-04-04T14:21:24Z</time></trkpt><trkpt lat="45.113526494898075" lon="8.444056844636915"><ele>120.33333333333334</ele><time>2026-04-04T14:21:25Z</time></trkpt><trkpt lat="45.11366377792042" lon="8.444198625195654"><ele>119.66666666666666</ele><time>2026-04-04T14:21:26Z</time></trkpt><trkpt lat="45.113802740840825" lon="8.444342774940916"><ele>119.0</ele><time>2026-04-04T14:21:27Z</time></trkpt><trkpt lat="45.11394669641275" lon="8.4444957493975"><ele>119.66666666666666</ele><time>2026-04-04T14:21:28Z</time></trkpt><trkpt lat="45.11408946652467" lon="8.44464282837779"><ele>120.33333333333334</ele><time>2026-04-04T14:21:29Z</time></trkpt><trkpt lat="45.11422321769091" lon="8.444780114785026"><ele>121.0</ele><time>2026-04-04T14:21:30Z</time></trkpt><trkpt lat="45.11436076209289" lon="8.444921930171072"><ele>121.0</ele><time>2026-04-04T14:21:31Z</time></trkpt><trkpt lat="45.114494316938654" lon="8.445061859076764"><ele>121.0</ele><time>2026-04-04T14:21:32Z</time></trkpt><trkpt lat="45.114625952963856" lon="8.445198521350289"><ele>121.0</ele><time>2026-04-04T14:21:33Z</time></trkpt><trkpt lat="45.114753264768254" lon="8.445330246609096"><ele>121.33333333333334</ele><time>2026-04-04T14:21:34Z</time></trkpt><trkpt lat="45.11488197625249" lon="8.445463950800535"><ele>121.66666666666666</ele><time>2026-04-04T14:21:35Z</time></trkpt><trkpt lat="45.115014903212234" lon="8.445599700104607"><ele>122.0</ele><time>2026-04-04T14:21:36Z</time></trkpt><trkpt lat="45.11514506394388" lon="8.445733079530944"><ele>122.0</ele><time>2026-04-04T14:21:37Z</time></trkpt><trkpt lat="45.11527453774339" lon="8.445863855594776"><ele>122.0</ele><time>2026-04-04T14:21:38Z</time></trkpt><trkpt lat="45.11540261277004" lon="8.44599445667119"><ele>122.0</ele><time>2026-04-04T14:21:39Z</time></trkpt><trkpt lat="45.115530580132834" lon="8.446128249738427"><ele>122.0</ele><time>2026-04-04T14:21:40Z</time></trkpt><trkpt lat="45.115657253502505" lon="8.446260036828741"><ele>122.0</ele><time>2026-04-04T14:21:41Z</time></trkpt><trkpt lat="45.11578422477772" lon="8.44639168019138"><ele>122.0</ele><time>2026-04-04T14:21:42Z</time></trkpt><trkpt lat="45.11591278857528" lon="8.446523785223484"><ele>122.0</ele><time>2026-04-04T14:21:43Z</time></trkpt><trkpt lat="45.11604397560335" lon="8.44665973467497"><ele>122.0</ele><time>2026-04-04T14:21:44Z</time></trkpt><trkpt lat="45.11617039056487" lon="8.44679193497039"><ele>122.0</ele><time>2026-04-04T14:21:45Z</time></trkpt><trkpt lat="45.116296786832855" lon="8.446925234345834"><ele>122.0</ele><time>2026-04-04T14:21:46Z</time></trkpt><trkpt lat="45.11641104841019" lon="8.44704254530395"><ele>122.0</ele><time>2026-04-04T14:21:47Z</time></trkpt><trkpt lat="45.116518280773114" lon="8.447155320442663"><ele>122.0</ele><time>2026-04-04T14:21:48Z</time></trkpt><trkpt lat="45.116622379037956" lon="8.447263642443588"><ele>122.0</ele><time>2026-04-04T14:21:49Z</time></trkpt><trkpt lat="45.116723027892945" lon="8.44736650311973"><ele>122.0</ele><time>2026-04-04T14:21:50Z</time></trkpt><trkpt lat="45.11682375632282" lon="8.447469959020271"><ele>122.0</ele><time>2026-04-04T14:21:50.999Z</time></trkpt><trkpt lat="45.116932848486464" lon="8.447584304320934"><ele>122.0</ele><time>2026-04-04T14:21:51.999Z</time></trkpt><trkpt lat="45.11705501571355" lon="8.447707536807844"><ele>122.0</ele><time>2026-04-04T14:21:52.999Z</time></trkpt><trkpt lat="45.11717701722594" lon="8.447831420200538"><ele>122.0</ele><time>2026-04-04T14:21:53.999Z</time></trkpt><trkpt lat="45.11729134963499" lon="8.447950156517214"><ele>122.0</ele><time>2026-04-04T14:21:54.999Z</time></trkpt><trkpt lat="45.11740488400477" lon="8.4480655785735"><ele>122.0</ele><time>2026-04-04T14:21:55.999Z</time></trkpt><trkpt lat="45.11751769463855" lon="8.44818089899384"><ele>122.0</ele><time>2026-04-04T14:21:56.999Z</time></trkpt><trkpt lat="45.11763111859622" lon="8.448297588631892"><ele>121.75</ele><time>2026-04-04T14:21:57.999Z</time></trkpt><trkpt lat="45.1177470529074" lon="8.448417445300885"><ele>121.5</ele><time>2026-04-04T14:21:58.999Z</time></trkpt><trkpt lat="45.117862845498195" lon="8.448539195007267"><ele>121.25</ele><time>2026-04-04T14:21:59.999Z</time></trkpt><trkpt lat="45.11798304015846" lon="8.448661909224622"><ele>121.0</ele><time>2026-04-04T14:22:00.999Z</time></trkpt><trkpt lat="45.11809999373103" lon="8.448780597044474"><ele>120.5</ele><time>2026-04-04T14:22:01.999Z</time></trkpt><trkpt lat="45.11821068179194" lon="8.448893508282765"><ele>120.0</ele><time>2026-04-04T14:22:02.999Z</time></trkpt><trkpt lat="45.11831521934514" lon="8.44900193296384"><ele>119.5</ele><time>2026-04-04T14:22:03.999Z</time></trkpt><trkpt lat="45.11841711861291" lon="8.449105256042623"><ele>119.0</ele><time>2026-04-04T14:22:04.999Z</time></trkpt><trkpt lat="45.11851443258782" lon="8.449205062313437"><ele>118.75</ele><time>2026-04-04T14:22:05.999Z</time></trkpt><trkpt lat="45.118608771621844" lon="8.449300695188931"><ele>118.5</ele><time>2026-04-04T14:22:06.999Z</time></trkpt><trkpt lat="45.11870380565968" lon="8.449398251487588"><ele>118.25</ele><time>2026-04-04T14:22:07.999Z</time></trkpt><trkpt lat="45.11880079011783" lon="8.449498700244176"><ele>118.0</ele><time>2026-04-04T14:22:08.999Z</time></trkpt><trkpt lat="45.118902885991794" lon="8.449601858071764"><ele>118.25</ele><time>2026-04-04T14:22:09.999Z</time></trkpt><trkpt lat="45.119011084477584" lon="8.449713490864404"><ele>118.5</ele><time>2026-04-04T14:22:10.999Z</time></trkpt><trkpt lat="45.11912625301249" lon="8.449832629220852"><ele>118.75</ele><time>2026-04-04T14:22:11.999Z</time></trkpt><trkpt lat="45.11923834111826" lon="8.449949558789367"><ele>119.0</ele><time>2026-04-04T14:22:12.999Z</time></trkpt><trkpt lat="45.11934361667389" lon="8.45006069185186"><ele>119.0</ele><time>2026-04-04T14:22:13.999Z</time></trkpt><trkpt lat="45.119447657499386" lon="8.45016724382994"><ele>119.0</ele><time>2026-04-04T14:22:14.999Z</time></trkpt><trkpt lat="45.11954769384448" lon="8.45027211771743"><ele>119.0</ele><time>2026-04-04T14:22:15.999Z</time></trkpt><trkpt lat="45.11964363395339" lon="8.450374169737309"><ele>119.0</ele><time>2026-04-04T14:22:16.999Z</time></trkpt><trkpt lat="45.11974082404168" lon="8.450476575946157"><ele>119.0</ele><time>2026-04-04T14:22:17.999Z</time></trkpt><trkpt lat="45.11983221211234" lon="8.45057140723821"><ele>119.0</ele><time>2026-04-04T14:22:18.999Z</time></trkpt><trkpt lat="45.11991065778142" lon="8.450653338831575"><ele>119.0</ele><time>2026-04-04T14:22:19.999Z</time></trkpt><trkpt lat="45.11997391698788" lon="8.4507191395389"><ele>119.0</ele><time>2026-04-04T14:22:20.999Z</time></trkpt><trkpt lat="45.1200601914599" lon="8.450813380307235"><ele>119.0</ele><time>2026-04-04T14:22:22.999Z</time></trkpt><trkpt lat="45.120124371673754" lon="8.450892338448105"><ele>119.16666666666666</ele><time>2026-04-04T14:22:25.999Z</time></trkpt><trkpt lat="45.120161997079926" lon="8.450965311074668"><ele>119.33333333333333</ele><time>2026-04-04T14:22:28.999Z</time></trkpt><trkpt lat="45.12020189597648" lon="8.451079662824707"><ele>119.5</ele><time>2026-04-04T14:22:34.999Z</time></trkpt><trkpt lat="45.12025929976343" lon="8.451186289315473"><ele>119.66666666666666</ele><time>2026-04-04T14:22:36.999Z</time></trkpt><trkpt lat="45.12037414370576" lon="8.45118587315773"><ele>119.83333333333333</ele><time>2026-04-04T14:22:38.999Z</time></trkpt><trkpt lat="45.12044456741083" lon="8.451168799450603"><ele>120.0</ele><time>2026-04-04T14:22:39.999Z</time></trkpt><trkpt lat="45.12052306032232" lon="8.451163578752356"><ele>120.0</ele><time>2026-04-04T14:22:40.999Z</time></trkpt><trkpt lat="45.120603274449394" lon="8.451161991680637"><ele>120.0</ele><time>2026-04-04T14:22:41.999Z</time></trkpt><trkpt lat="45.120684576463155" lon="8.451159390680148"><ele>120.0</ele><time>2026-04-04T14:22:42.999Z</time></trkpt><trkpt lat="45.12076072938035" lon="8.451157923600187"><ele>120.0</ele><time>2026-04-04T14:22:43.999Z</time></trkpt><trkpt lat="45.12084229737085" lon="8.451156935731031"><ele>120.0</ele><time>2026-04-04T14:22:45Z</time></trkpt><trkpt lat="45.12093690616999" lon="8.451146839532937"><ele>120.0</ele><time>2026-04-04T14:22:46Z</time></trkpt><trkpt lat="45.12104106916618" lon="8.451134816957778"><ele>119.8</ele><time>2026-04-04T14:22:47Z</time></trkpt><trkpt lat="45.121156595410305" lon="8.45111746814733"><ele>119.6</ele><time>2026-04-04T14:22:48Z</time></trkpt><trkpt lat="45.121273919202146" lon="8.451100703742329"><ele>119.4</ele><time>2026-04-04T14:22:49Z</time></trkpt><trkpt lat="45.12137481343696" lon="8.451092970707064"><ele>119.2</ele><time>2026-04-04T14:22:50Z</time></trkpt><trkpt lat="45.121467457505474" lon="8.451089245170847"><ele>119.0</ele><time>2026-04-04T14:22:51Z</time></trkpt><trkpt lat="45.12156097309766" lon="8.45108928332267"><ele>119.16666666666666</ele><time>2026-04-04T14:22:52Z</time></trkpt><trkpt lat="45.121645510092755" lon="8.451083900847065"><ele>119.33333333333333</ele><time>2026-04-04T14:22:53Z</time></trkpt><trkpt lat="45.12173155114801" lon="8.451074940511127"><ele>119.5</ele><time>2026-04-04T14:22:54Z</time></trkpt><trkpt lat="45.12181623297775" lon="8.45107354401908"><ele>119.66666666666666</ele><time>2026-04-04T14:22:55Z</time></trkpt><trkpt lat="45.12189144279297" lon="8.451118569840384"><ele>119.83333333333333</ele><time>2026-04-04T14:22:56Z</time></trkpt><trkpt lat="45.121960341571395" lon="8.451120026245233"><ele>120.0</ele><time>2026-04-04T14:22:57Z</time></trkpt><trkpt lat="45.122025510259085" lon="8.451097585016798"><ele>120.0</ele><time>2026-04-04T14:22:58Z</time></trkpt><trkpt lat="45.12209397861768" lon="8.451096305978483"><ele>120.0</ele><time>2026-04-04T14:22:59Z</time></trkpt><trkpt lat="45.1221610685277" lon="8.451092819270135"><ele>120.0</ele><time>2026-04-04T14:23:00Z</time></trkpt><trkpt lat="45.12222965610837" lon="8.451090064110277"><ele>120.0</ele><time>2026-04-04T14:23:01Z</time></trkpt><trkpt lat="45.12229712169045" lon="8.4510840015463"><ele>120.0</ele><time>2026-04-04T14:23:02Z</time></trkpt><trkpt lat="45.12237079066619" lon="8.451102265556889"><ele>120.0</ele><time>2026-04-04T14:23:03Z</time></trkpt><trkpt lat="45.12244675564548" lon="8.451075380963449"><ele>120.0</ele><time>2026-04-04T14:23:04Z</time></trkpt><trkpt lat="45.12252987536112" lon="8.451072142148147"><ele>119.8</ele><time>2026-04-04T14:23:05Z</time></trkpt><trkpt lat="45.12262717107135" lon="8.451088486857845"><ele>119.6</ele><time>2026-04-04T14:23:06Z</time></trkpt><trkpt lat="45.12273599259417" lon="8.45105889408433"><ele>119.4</ele><time>2026-04-04T14:23:07Z</time></trkpt><trkpt lat="45.12283932564845" lon="8.451053663083522"><ele>119.2</ele><time>2026-04-04T14:23:08Z</time></trkpt><trkpt lat="45.12293677348649" lon="8.451048875455838"><ele>119.0</ele><time>2026-04-04T14:23:09Z</time></trkpt><trkpt lat="45.1230327644581" lon="8.451043934643328"><ele>119.0</ele><time>2026-04-04T14:23:10Z</time></trkpt><trkpt lat="45.12312591774579" lon="8.451040401267775"><ele>119.0</ele><time>2026-04-04T14:23:11Z</time></trkpt><trkpt lat="45.12322134172703" lon="8.451035809634442"><ele>119.0</ele><time>2026-04-04T14:23:12Z</time></trkpt><trkpt lat="45.12331876594501" lon="8.451053437598448"><ele>119.0</ele><time>2026-04-04T14:23:13Z</time></trkpt><trkpt lat="45.12341303703902" lon="8.451049000228355"><ele>119.0</ele><time>2026-04-04T14:23:14Z</time></trkpt><trkpt lat="45.1235028373721" lon="8.451044773305126"><ele>118.83333333333333</ele><time>2026-04-04T14:23:15Z</time></trkpt><trkpt lat="45.12358372945494" lon="8.451010525296931"><ele>118.66666666666666</ele><time>2026-04-04T14:23:16Z</time></trkpt><trkpt lat="45.12366223148868" lon="8.451010676834068"><ele>118.5</ele><time>2026-04-04T14:23:17Z</time></trkpt><trkpt lat="45.12373538929672" lon="8.45100768697776"><ele>118.33333333333334</ele><time>2026-04-04T14:23:18Z</time></trkpt><trkpt lat="45.12379953802816" lon="8.451003851709096"><ele>118.16666666666667</ele><time>2026-04-04T14:23:19Z</time></trkpt><trkpt lat="45.12387328996888" lon="8.451002123928705"><ele>118.0</ele><time>2026-04-04T14:23:21Z</time></trkpt><trkpt lat="45.123972382137495" lon="8.451005440843367"><ele>118.0</ele><time>2026-04-04T14:23:28Z</time></trkpt><trkpt lat="45.12405380315271" lon="8.451024816124999"><ele>118.00000000000001</ele><time>2026-04-04T14:23:30Z</time></trkpt><trkpt lat="45.124126196211385" lon="8.451080498239927"><ele>118.00000000000001</ele><time>2026-04-04T14:23:32Z</time></trkpt><trkpt lat="45.12417477402481" lon="8.451187243271422"><ele>118.0</ele><time>2026-04-04T14:23:34Z</time></trkpt><trkpt lat="45.12428480020056" lon="8.451155192158673"><ele>118.0</ele><time>2026-04-04T14:23:36Z</time></trkpt><trkpt lat="45.124357487696166" lon="8.451087497803137"><ele>117.66666666666667</ele><time>2026-04-04T14:23:37Z</time></trkpt><trkpt lat="45.12442513629764" lon="8.451004807370692"><ele>117.33333333333334</ele><time>2026-04-04T14:23:38Z</time></trkpt><trkpt lat="45.12449288435201" lon="8.450953649765596"><ele>117.0</ele><time>2026-04-04T14:23:39Z</time></trkpt><trkpt lat="45.12456644439358" lon="8.450939756916446"><ele>116.66666666666666</ele><time>2026-04-04T14:23:40Z</time></trkpt><trkpt lat="45.124654339910414" lon="8.45094491506345"><ele>116.33333333333333</ele><time>2026-04-04T14:23:41Z</time></trkpt><trkpt lat="45.12474291727024" lon="8.450950683670344"><ele>116.0</ele><time>2026-04-04T14:23:42Z</time></trkpt><trkpt lat="45.124839299394914" lon="8.450949803039162"><ele>116.0</ele><time>2026-04-04T14:23:43Z</time></trkpt><trkpt lat="45.12495889718219" lon="8.45094651550523"><ele>116.0</ele><time>2026-04-04T14:23:44Z</time></trkpt><trkpt lat="45.125097537272346" lon="8.450938694130196"><ele>116.0</ele><time>2026-04-04T14:23:45Z</time></trkpt><trkpt lat="45.125236712712635" lon="8.450930864688674"><ele>116.0</ele><time>2026-04-04T14:23:46Z</time></trkpt><trkpt lat="45.12537203694565" lon="8.450925058839434"><ele>116.0</ele><time>2026-04-04T14:23:47Z</time></trkpt><trkpt lat="45.12550555834274" lon="8.450917472893833"><ele>116.0</ele><time>2026-04-04T14:23:48Z</time></trkpt><trkpt lat="45.125636414996684" lon="8.450910109184031"><ele>116.0</ele><time>2026-04-04T14:23:49Z</time></trkpt><trkpt lat="45.12576798404747" lon="8.450902722408127"><ele>116.0</ele><time>2026-04-04T14:23:50Z</time></trkpt><trkpt lat="45.12589911764031" lon="8.450894571169329"><ele>116.5</ele><time>2026-04-04T14:23:51Z</time></trkpt><trkpt lat="45.12602797590247" lon="8.450910576666432"><ele>117.0</ele><time>2026-04-04T14:23:52Z</time></trkpt><trkpt lat="45.126159213940234" lon="8.45090303769239"><ele>117.5</ele><time>2026-04-04T14:23:53Z</time></trkpt><trkpt lat="45.12628918444256" lon="8.45089558711064"><ele>118.0</ele><time>2026-04-04T14:23:54Z</time></trkpt><trkpt lat="45.12641110721232" lon="8.45086555671413"><ele>118.0</ele><time>2026-04-04T14:23:55Z</time></trkpt><trkpt lat="45.12653677564755" lon="8.450882915647615"><ele>118.0</ele><time>2026-04-04T14:23:56Z</time></trkpt><trkpt lat="45.126656237607286" lon="8.450877200597011"><ele>118.0</ele><time>2026-04-04T14:23:57Z</time></trkpt><trkpt lat="45.12676149148522" lon="8.450872131648127"><ele>118.0</ele><time>2026-04-04T14:23:58Z</time></trkpt><trkpt lat="45.126862640781525" lon="8.450843927858529"><ele>118.00000000000001</ele><time>2026-04-04T14:23:58.999Z</time></trkpt><trkpt lat="45.12694825685013" lon="8.450840159440231"><ele>118.0</ele><time>2026-04-04T14:23:59.999Z</time></trkpt><trkpt lat="45.12702054957662" lon="8.450837955819944"><ele>118.0</ele><time>2026-04-04T14:24:00.999Z</time></trkpt><trkpt lat="45.12708381681973" lon="8.450833857778212"><ele>118.0</ele><time>2026-04-04T14:24:01.999Z</time></trkpt><trkpt lat="45.12717823507682" lon="8.450852063558413"><ele>118.00000000000001</ele><time>2026-04-04T14:24:03.999Z</time></trkpt><trkpt lat="45.127268925539525" lon="8.450847861744558"><ele>118.0</ele><time>2026-04-04T14:24:05.999Z</time></trkpt><trkpt lat="45.127383714381075" lon="8.450842506024445"><ele>117.83333333333334</ele><time>2026-04-04T14:24:07.999Z</time></trkpt><trkpt lat="45.127457268927365" lon="8.450839025696755"><ele>117.66666666666667</ele><time>2026-04-04T14:24:08.999Z</time></trkpt><trkpt lat="45.12753444253852" lon="8.450833913641308"><ele>117.5</ele><time>2026-04-04T14:24:09.999Z</time></trkpt><trkpt lat="45.12761872749807" lon="8.450828904585553"><ele>117.33333333333334</ele><time>2026-04-04T14:24:10.999Z</time></trkpt><trkpt lat="45.12770800331743" lon="8.450823828065138"><ele>117.16666666666667</ele><time>2026-04-04T14:24:11.999Z</time></trkpt><trkpt lat="45.127796474751136" lon="8.450818699789066"><ele>117.0</ele><time>2026-04-04T14:24:12.999Z</time></trkpt><trkpt lat="45.127882957503104" lon="8.450813370498711"><ele>117.0</ele><time>2026-04-04T14:24:13.999Z</time></trkpt><trkpt lat="45.12796864480142" lon="8.450808055027792"><ele>117.0</ele><time>2026-04-04T14:24:14.999Z</time></trkpt><trkpt lat="45.12805412710845" lon="8.45080295771986"><ele>117.0</ele><time>2026-04-04T14:24:15.999Z</time></trkpt><trkpt lat="45.12813971081662" lon="8.450797883696263"><ele>117.0</ele><time>2026-04-04T14:24:16.999Z</time></trkpt><trkpt lat="45.12822585557893" lon="8.450792776405878"><ele>117.0</ele><time>2026-04-04T14:24:17.999Z</time></trkpt><trkpt lat="45.12831005380579" lon="8.45078745063694"><ele>117.0</ele><time>2026-04-04T14:24:18.999Z</time></trkpt><trkpt lat="45.12838542982951" lon="8.450781119050871"><ele>117.0</ele><time>2026-04-04T14:24:19.999Z</time></trkpt><trkpt lat="45.12845806737015" lon="8.450775017494696"><ele>117.0</ele><time>2026-04-04T14:24:20.999Z</time></trkpt><trkpt lat="45.128529590615194" lon="8.450766879915355"><ele>117.0</ele><time>2026-04-04T14:24:21.999Z</time></trkpt><trkpt lat="45.12859845225976" lon="8.450735057842321"><ele>117.0</ele><time>2026-04-04T14:24:22.999Z</time></trkpt><trkpt lat="45.12866990659101" lon="8.450727095425643"><ele>117.0</ele><time>2026-04-04T14:24:23.999Z</time></trkpt><trkpt lat="45.12873824169319" lon="8.450723254024298"><ele>117.0</ele><time>2026-04-04T14:24:24.999Z</time></trkpt><trkpt lat="45.128832470123655" lon="8.450724286459586"><ele>117.0</ele><time>2026-04-04T14:24:26.999Z</time></trkpt><trkpt lat="45.12890473043024" lon="8.450728872602255"><ele>116.99999999999999</ele><time>2026-04-04T14:24:32.999Z</time></trkpt><trkpt lat="45.1290069990657" lon="8.45073596603519"><ele>116.99999999999999</ele><time>2026-04-04T14:24:36.999Z</time></trkpt><trkpt lat="45.12909428913137" lon="8.45081370169028"><ele>117.0</ele><time>2026-04-04T14:24:38.999Z</time></trkpt><trkpt lat="45.12907531894236" lon="8.450959374158327"><ele>117.0</ele><time>2026-04-04T14:24:40.999Z</time></trkpt><trkpt lat="45.129012238223694" lon="8.451049146024609"><ele>117.0</ele><time>2026-04-04T14:24:41.999Z</time></trkpt><trkpt lat="45.12893392605366" lon="8.451152513364509"><ele>117.0</ele><time>2026-04-04T14:24:42.999Z</time></trkpt><trkpt lat="45.128848512665506" lon="8.451272649532562"><ele>117.0</ele><time>2026-04-04T14:24:43.999Z</time></trkpt><trkpt lat="45.12876741353953" lon="8.451392354322008"><ele>117.0</ele><time>2026-04-04T14:24:44.999Z</time></trkpt><trkpt lat="45.12868845453739" lon="8.451506069575743"><ele>117.0</ele><time>2026-04-04T14:24:45.999Z</time></trkpt><trkpt lat="45.128606386373605" lon="8.451624235115391"><ele>117.0</ele><time>2026-04-04T14:24:46.999Z</time></trkpt><trkpt lat="45.12852292653307" lon="8.45174616242708"><ele>117.0</ele><time>2026-04-04T14:24:47.999Z</time></trkpt><trkpt lat="45.12843236113487" lon="8.451877597570244"><ele>117.0</ele><time>2026-04-04T14:24:48.999Z</time></trkpt><trkpt lat="45.12834112763185" lon="8.45201318910418"><ele>117.25</ele><time>2026-04-04T14:24:49.999Z</time></trkpt><trkpt lat="45.12825398353893" lon="8.452141547021656"><ele>117.5</ele><time>2026-04-04T14:24:51Z</time></trkpt><trkpt lat="45.12817101966963" lon="8.452263926473849"><ele>117.75</ele><time>2026-04-04T14:24:52Z</time></trkpt><trkpt lat="45.12809099901638" lon="8.452380408088812"><ele>118.0</ele><time>2026-04-04T14:24:53Z</time></trkpt><trkpt lat="45.128009531381075" lon="8.45249894126777"><ele>117.4</ele><time>2026-04-04T14:24:54Z</time></trkpt><trkpt lat="45.1279271436573" lon="8.45261782385756"><ele>116.80000000000001</ele><time>2026-04-04T14:24:55Z</time></trkpt><trkpt lat="45.127856108671814" lon="8.452728297313522"><ele>116.2</ele><time>2026-04-04T14:24:56Z</time></trkpt><trkpt lat="45.127802481747416" lon="8.452845704655667"><ele>115.6</ele><time>2026-04-04T14:24:57Z</time></trkpt><trkpt lat="45.12776748253071" lon="8.452973100902062"><ele>115.0</ele><time>2026-04-04T14:24:58Z</time></trkpt><trkpt lat="45.127752208734925" lon="8.453098655768747"><ele>115.00000000000001</ele><time>2026-04-04T14:24:59Z</time></trkpt><trkpt lat="45.127749525664434" lon="8.453216100874492"><ele>115.0</ele><time>2026-04-04T14:25:00Z</time></trkpt><trkpt lat="45.12774274252472" lon="8.453331185710397"><ele>115.0</ele><time>2026-04-04T14:25:01Z</time></trkpt><trkpt lat="45.127737282113" lon="8.453435640544395"><ele>115.0</ele><time>2026-04-04T14:25:02Z</time></trkpt><trkpt lat="45.127732647792385" lon="8.453527709171427"><ele>115.00000000000001</ele><time>2026-04-04T14:25:03Z</time></trkpt><trkpt lat="45.127721097358446" lon="8.453665715474768"><ele>115.0</ele><time>2026-04-04T14:25:05Z</time></trkpt><trkpt lat="45.12770939110019" lon="8.453755810274842"><ele>115.2</ele><time>2026-04-04T14:25:12Z</time></trkpt><trkpt lat="45.12774882038936" lon="8.45389856445053"><ele>115.4</ele><time>2026-04-04T14:25:16Z</time></trkpt><trkpt lat="45.127815966619835" lon="8.453937234179813"><ele>115.6</ele><time>2026-04-04T14:25:17Z</time></trkpt><trkpt lat="45.127912352925854" lon="8.453963173980176"><ele>115.8</ele><time>2026-04-04T14:25:18Z</time></trkpt><trkpt lat="45.1280222600473" lon="8.453982744778646"><ele>116.0</ele><time>2026-04-04T14:25:19Z</time></trkpt><trkpt lat="45.12812417225348" lon="8.454009899844287"><ele>116.19999999999999</ele><time>2026-04-04T14:25:20Z</time></trkpt><trkpt lat="45.128229287431964" lon="8.45404106066613"><ele>116.39999999999999</ele><time>2026-04-04T14:25:21Z</time></trkpt><trkpt lat="45.12833583666117" lon="8.45406511201886"><ele>116.6</ele><time>2026-04-04T14:25:22Z</time></trkpt><trkpt lat="45.128433099851556" lon="8.454081875242489"><ele>116.8</ele><time>2026-04-04T14:25:23Z</time></trkpt><trkpt lat="45.12851988906742" lon="8.454095622757212"><ele>117.0</ele><time>2026-04-04T14:25:24Z</time></trkpt><trkpt lat="45.12860315568703" lon="8.454105102153271"><ele>117.0</ele><time>2026-04-04T14:25:25Z</time></trkpt><trkpt lat="45.12868218894279" lon="8.454108577827101"><ele>117.0</ele><time>2026-04-04T14:25:26Z</time></trkpt><trkpt lat="45.12876043292677" lon="8.45410862465071"><ele>117.0</ele><time>2026-04-04T14:25:27Z</time></trkpt><trkpt lat="45.12883852164893" lon="8.45410774046686"><ele>117.0</ele><time>2026-04-04T14:25:28Z</time></trkpt><trkpt lat="45.12891634983435" lon="8.454106442473709"><ele>117.0</ele><time>2026-04-04T14:25:29Z</time></trkpt><trkpt lat="45.128992288612615" lon="8.454104406088135"><ele>117.0</ele><time>2026-04-04T14:25:30Z</time></trkpt><trkpt lat="45.129071001748" lon="8.454102024971162"><ele>116.71428571428572</ele><time>2026-04-04T14:25:31Z</time></trkpt><trkpt lat="45.129149449174335" lon="8.45409862444469"><ele>116.42857142857144</ele><time>2026-04-04T14:25:32Z</time></trkpt><trkpt lat="45.12922813007869" lon="8.454095286713333"><ele>116.14285714285714</ele><time>2026-04-04T14:25:33Z</time></trkpt><trkpt lat="45.12929969416209" lon="8.454095323492464"><ele>115.85714285714286</ele><time>2026-04-04T14:25:34Z</time></trkpt><trkpt lat="45.12936642554546" lon="8.454101036978273"><ele>115.57142857142857</ele><time>2026-04-04T14:25:35Z</time></trkpt><trkpt lat="45.12942719906422" lon="8.454128493717018"><ele>115.28571428571428</ele><time>2026-04-04T14:25:36Z</time></trkpt><trkpt lat="45.129471289844304" lon="8.454197044173354"><ele>114.99999999999999</ele><time>2026-04-04T14:25:37Z</time></trkpt><trkpt lat="45.12950780484256" lon="8.454301404770646"><ele>115.0</ele><time>2026-04-04T14:25:38Z</time></trkpt><trkpt lat="45.129554878910525" lon="8.454419889499615"><ele>115.0</ele><time>2026-04-04T14:25:39Z</time></trkpt><trkpt lat="45.12960910707498" lon="8.454547236093775"><ele>115.0</ele><time>2026-04-04T14:25:40Z</time></trkpt><trkpt lat="45.12965332606424" lon="8.454653770410115"><ele>115.0</ele><time>2026-04-04T14:25:41Z</time></trkpt><trkpt lat="45.12969778065259" lon="8.454755054579383"><ele>115.0</ele><time>2026-04-04T14:25:42Z</time></trkpt><trkpt lat="45.129745031446404" lon="8.454854473151416"><ele>115.16666666666667</ele><time>2026-04-04T14:25:43Z</time></trkpt><trkpt lat="45.12977591610524" lon="8.45494264816117"><ele>115.33333333333334</ele><time>2026-04-04T14:25:44Z</time></trkpt><trkpt lat="45.12972752329575" lon="8.455079274164753"><ele>115.5</ele><time>2026-04-04T14:25:46Z</time></trkpt><trkpt lat="45.12965433327074" lon="8.455117028501169"><ele>115.66666666666666</ele><time>2026-04-04T14:25:48Z</time></trkpt><trkpt lat="45.12953942056807" lon="8.45516906409231"><ele>115.83333333333333</ele><time>2026-04-04T14:25:50Z</time></trkpt><trkpt lat="45.12947635632317" lon="8.455195581331163"><ele>116.0</ele><time>2026-04-04T14:25:51Z</time></trkpt><trkpt lat="45.129409892785176" lon="8.455226402937452"><ele>115.99999999999999</ele><time>2026-04-04T14:25:52Z</time></trkpt><trkpt lat="45.12934084685209" lon="8.455262098071083"><ele>116.0</ele><time>2026-04-04T14:25:53Z</time></trkpt><trkpt lat="45.12926614602422" lon="8.45530189284209"><ele>116.0</ele><time>2026-04-04T14:25:54Z</time></trkpt><trkpt lat="45.12918660197107" lon="8.455341291256225"><ele>116.0</ele><time>2026-04-04T14:25:55Z</time></trkpt><trkpt lat="45.12909776026568" lon="8.455384230769969"><ele>115.99999999999999</ele><time>2026-04-04T14:25:56Z</time></trkpt><trkpt lat="45.12900602423665" lon="8.45543329215021"><ele>116.0</ele><time>2026-04-04T14:25:57Z</time></trkpt><trkpt lat="45.12894617524851" lon="8.455471380286715"><ele>116.19999999999999</ele><time>2026-04-04T14:25:58Z</time></trkpt><trkpt lat="45.12890000236958" lon="8.455545378787305"><ele>116.39999999999999</ele><time>2026-04-04T14:26:00Z</time></trkpt><trkpt lat="45.12887911128242" lon="8.455648974263553"><ele>116.6</ele><time>2026-04-04T14:26:02Z</time></trkpt><trkpt lat="45.12885720944035" lon="8.455786667695207"><ele>116.8</ele><time>2026-04-04T14:26:03.999Z</time></trkpt><trkpt lat="45.12883341811583" lon="8.455932600048344"><ele>117.0</ele><time>2026-04-04T14:26:05.999Z</time></trkpt><trkpt lat="45.128809322313664" lon="8.456075017124231"><ele>117.0</ele><time>2026-04-04T14:26:07.999Z</time></trkpt><trkpt lat="45.12881186254547" lon="8.456213158432359"><ele>116.99999999999999</ele><time>2026-04-04T14:26:09.999Z</time></trkpt><trkpt lat="45.128849007573386" lon="8.456360480830435"><ele>116.99999999999999</ele><time>2026-04-04T14:26:11.999Z</time></trkpt><trkpt lat="45.12888724437235" lon="8.4565208906837"><ele>117.0</ele><time>2026-04-04T14:26:13.999Z</time></trkpt><trkpt lat="45.12890666943884" lon="8.456606985150696"><ele>117.0</ele><time>2026-04-04T14:26:14.999Z</time></trkpt><trkpt lat="45.128927836848014" lon="8.456696692430533"><ele>117.0</ele><time>2026-04-04T14:26:15.999Z</time></trkpt><trkpt lat="45.12894884527146" lon="8.456784229288038"><ele>117.0</ele><time>2026-04-04T14:26:16.999Z</time></trkpt><trkpt lat="45.12898608719158" lon="8.456941950493425"><ele>117.0</ele><time>2026-04-04T14:26:18.999Z</time></trkpt><trkpt lat="45.12900585283566" lon="8.457030850494698"><ele>117.0</ele><time>2026-04-04T14:26:19.999Z</time></trkpt><trkpt lat="45.12902830848912" lon="8.4571244277516"><ele>117.0</ele><time>2026-04-04T14:26:20.999Z</time></trkpt><trkpt lat="45.12905321056876" lon="8.45721994891705"><ele>117.0</ele><time>2026-04-04T14:26:21.999Z</time></trkpt><trkpt lat="45.12907954736355" lon="8.457322058904143"><ele>117.39999999999999</ele><time>2026-04-04T14:26:22.999Z</time></trkpt><trkpt lat="45.129102847476794" lon="8.457411619344315"><ele>117.79999999999998</ele><time>2026-04-04T14:26:23.999Z</time></trkpt><trkpt lat="45.12913773924422" lon="8.457563883474924"><ele>118.2</ele><time>2026-04-04T14:26:25.999Z</time></trkpt><trkpt lat="45.129146341876115" lon="8.457720101491555"><ele>118.6</ele><time>2026-04-04T14:26:27.999Z</time></trkpt><trkpt lat="45.12908648929933" lon="8.457831179258815"><ele>119.0</ele><time>2026-04-04T14:26:29.999Z</time></trkpt><trkpt lat="45.12900435736595" lon="8.457971730608438"><ele>118.42857142857143</ele><time>2026-04-04T14:26:31.999Z</time></trkpt><trkpt lat="45.12893757696816" lon="8.457937760114067"><ele>117.85714285714286</ele><time>2026-04-04T14:26:32.999Z</time></trkpt><trkpt lat="45.12885822689296" lon="8.45800464413283"><ele>117.28571428571428</ele><time>2026-04-04T14:26:34.999Z</time></trkpt><trkpt lat="45.1288003544804" lon="8.458058379445315"><ele>116.71428571428571</ele><time>2026-04-04T14:27:22Z</time></trkpt><trkpt lat="45.128876009616796" lon="8.458093126236573"><ele>116.14285714285714</ele><time>2026-04-04T14:57:42Z</time></trkpt><trkpt lat="45.12889783246268" lon="8.458007425917879"><ele>115.57142857142856</ele><time>2026-04-04T14:57:43Z</time></trkpt><trkpt lat="45.128901704159254" lon="8.45790808774299"><ele>114.99999999999999</ele><time>2026-04-04T14:57:44Z</time></trkpt><trkpt lat="45.12889264759934" lon="8.457817564014656"><ele>115.00000000000001</ele><time>2026-04-04T14:57:45Z</time></trkpt><trkpt lat="45.12887476600558" lon="8.457728744183056"><ele>115.0</ele><time>2026-04-04T14:57:46Z</time></trkpt><trkpt lat="45.12885518912778" lon="8.457637054306282"><ele>115.0</ele><time>2026-04-04T14:57:47Z</time></trkpt><trkpt lat="45.12883744464013" lon="8.457525287676894"><ele>115.0</ele><time>2026-04-04T14:57:48Z</time></trkpt><trkpt lat="45.128817233736086" lon="8.457393413003093"><ele>115.00000000000001</ele><time>2026-04-04T14:57:49Z</time></trkpt><trkpt lat="45.12877887681175" lon="8.45724873455666"><ele>115.0</ele><time>2026-04-04T14:57:49.999Z</time></trkpt><trkpt lat="45.128744466906745" lon="8.457107244790622"><ele>115.5</ele><time>2026-04-04T14:57:50.999Z</time></trkpt><trkpt lat="45.1287156555912" lon="8.45696939188644"><ele>116.0</ele><time>2026-04-04T14:57:51.999Z</time></trkpt><trkpt lat="45.128692368364966" lon="8.45681527324551"><ele>116.5</ele><time>2026-04-04T14:57:52.999Z</time></trkpt><trkpt lat="45.12866192432707" lon="8.456622632556698"><ele>117.0</ele><time>2026-04-04T14:57:53.999Z</time></trkpt><trkpt lat="45.128628335548854" lon="8.456392956527472"><ele>117.0</ele><time>2026-04-04T14:57:54.999Z</time></trkpt><trkpt lat="45.12861940765084" lon="8.456207123261516"><ele>116.99999999999999</ele><time>2026-04-04T14:57:55.999Z</time></trkpt><trkpt lat="45.128635984949796" lon="8.456048694670697"><ele>116.99999999999999</ele><time>2026-04-04T14:57:56.999Z</time></trkpt><trkpt lat="45.12867086561562" lon="8.45591084799496"><ele>117.0</ele><time>2026-04-04T14:57:57.999Z</time></trkpt><trkpt lat="45.128726126211106" lon="8.455795073025657"><ele>117.0</ele><time>2026-04-04T14:57:58.999Z</time></trkpt><trkpt lat="45.12879159328026" lon="8.455700534255053"><ele>117.0</ele><time>2026-04-04T14:57:59.999Z</time></trkpt><trkpt lat="45.128851358894806" lon="8.455624125898527"><ele>117.00000000000001</ele><time>2026-04-04T14:58:00.999Z</time></trkpt><trkpt lat="45.12891184657254" lon="8.455555746330633"><ele>117.0</ele><time>2026-04-04T14:58:01.999Z</time></trkpt><trkpt lat="45.128971197577016" lon="8.455498852907228"><ele>117.0</ele><time>2026-04-04T14:58:02.999Z</time></trkpt><trkpt lat="45.12903295905022" lon="8.45544890777527"><ele>117.00000000000001</ele><time>2026-04-04T14:58:03.999Z</time></trkpt><trkpt lat="45.12910252242022" lon="8.455409425608142"><ele>117.0</ele><time>2026-04-04T14:58:04.999Z</time></trkpt><trkpt lat="45.12917231633458" lon="8.455381238599104"><ele>117.0</ele><time>2026-04-04T14:58:05.999Z</time></trkpt><trkpt lat="45.12928442832939" lon="8.45532963781222"><ele>116.75</ele><time>2026-04-04T14:58:07.999Z</time></trkpt><trkpt lat="45.12940184861996" lon="8.45527378285122"><ele>116.5</ele><time>2026-04-04T14:58:09.999Z</time></trkpt><trkpt lat="45.129514416222435" lon="8.455217160478492"><ele>116.25</ele><time>2026-04-04T14:58:11.999Z</time></trkpt><trkpt lat="45.12964878101064" lon="8.455156480231969"><ele>116.0</ele><time>2026-04-04T14:58:13.999Z</time></trkpt><trkpt lat="45.129715828767516" lon="8.455124676673316"><ele>115.99999999999999</ele><time>2026-04-04T14:58:14.999Z</time></trkpt><trkpt lat="45.12978006036519" lon="8.455092027383861"><ele>116.0</ele><time>2026-04-04T14:58:16.999Z</time></trkpt><trkpt lat="45.12981643697613" lon="8.454994709068604"><ele>116.0</ele><time>2026-04-04T14:58:19.999Z</time></trkpt><trkpt lat="45.1297936548495" lon="8.454896129818199"><ele>116.0</ele><time>2026-04-04T14:58:20.999Z</time></trkpt><trkpt lat="45.12974396106952" lon="8.454788177196965"><ele>115.99999999999999</ele><time>2026-04-04T14:58:21.999Z</time></trkpt><trkpt lat="45.129678113198466" lon="8.454668570394995"><ele>116.0</ele><time>2026-04-04T14:58:22.999Z</time></trkpt><trkpt lat="45.129623593774674" lon="8.454565456270629"><ele>115.83333333333333</ele><time>2026-04-04T14:58:23.999Z</time></trkpt><trkpt lat="45.129582203066754" lon="8.454471942783275"><ele>115.66666666666666</ele><time>2026-04-04T14:58:24.999Z</time></trkpt><trkpt lat="45.129548806741944" lon="8.454387876739364"><ele>115.5</ele><time>2026-04-04T14:58:26.001Z</time></trkpt><trkpt lat="45.129512951534245" lon="8.45427638594049"><ele>115.33333333333334</ele><time>2026-04-04T14:58:28.001Z</time></trkpt><trkpt lat="45.12951471857116" lon="8.454183585790569"><ele>115.16666666666667</ele><time>2026-04-04T14:58:34.001Z</time></trkpt><trkpt lat="45.12948489547208" lon="8.45404973113732"><ele>115.0</ele><time>2026-04-04T14:58:36.001Z</time></trkpt><trkpt lat="45.12935355801969" lon="8.454071674006823"><ele>115.0</ele><time>2026-04-04T14:58:38.001Z</time></trkpt><trkpt lat="45.12922968044341" lon="8.454081000462564"><ele>115.0</ele><time>2026-04-04T14:58:40.001Z</time></trkpt><trkpt lat="45.12914500593577" lon="8.454076615554792"><ele>115.0</ele><time>2026-04-04T14:58:41.001Z</time></trkpt><trkpt lat="45.12904668782174" lon="8.454078809702029"><ele>115.0</ele><time>2026-04-04T14:58:42Z</time></trkpt><trkpt lat="45.12893916390056" lon="8.454079809693555"><ele>115.0</ele><time>2026-04-04T14:58:43Z</time></trkpt><trkpt lat="45.12883198996708" lon="8.454081874355786"><ele>115.33333333333334</ele><time>2026-04-04T14:58:44Z</time></trkpt><trkpt lat="45.12873269501089" lon="8.4540802261543"><ele>115.66666666666667</ele><time>2026-04-04T14:58:45Z</time></trkpt><trkpt lat="45.12864315096586" lon="8.45407638621952"><ele>116.0</ele><time>2026-04-04T14:58:46Z</time></trkpt><trkpt lat="45.12855856608535" lon="8.454075049123732"><ele>116.33333333333334</ele><time>2026-04-04T14:58:47Z</time></trkpt><trkpt lat="45.128480211260616" lon="8.45407045532402"><ele>116.66666666666667</ele><time>2026-04-04T14:58:48Z</time></trkpt><trkpt lat="45.12840271078028" lon="8.454056047951974"><ele>117.0</ele><time>2026-04-04T14:58:49Z</time></trkpt><trkpt lat="45.12832170508602" lon="8.454040514426193"><ele>117.0</ele><time>2026-04-04T14:58:50Z</time></trkpt><trkpt lat="45.12823220954868" lon="8.454019024948845"><ele>117.0</ele><time>2026-04-04T14:58:51Z</time></trkpt><trkpt lat="45.12813934585149" lon="8.45399744444903"><ele>117.0</ele><time>2026-04-04T14:58:52Z</time></trkpt><trkpt lat="45.12805655212373" lon="8.453975944983549"><ele>117.0</ele><time>2026-04-04T14:58:53Z</time></trkpt><trkpt lat="45.12798236313937" lon="8.453947018900312"><ele>117.0</ele><time>2026-04-04T14:58:54Z</time></trkpt><trkpt lat="45.127909661987935" lon="8.453909799529823"><ele>117.0</ele><time>2026-04-04T14:58:55Z</time></trkpt><trkpt lat="45.12784417928762" lon="8.45384528774487"><ele>116.6</ele><time>2026-04-04T14:58:56Z</time></trkpt><trkpt lat="45.12779882025672" lon="8.45374614429453"><ele>116.19999999999999</ele><time>2026-04-04T14:58:57Z</time></trkpt><trkpt lat="45.12777647350088" lon="8.453626995718363"><ele>115.8</ele><time>2026-04-04T14:58:58Z</time></trkpt><trkpt lat="45.127770021070354" lon="8.453507654833336"><ele>115.4</ele><time>2026-04-04T14:58:59Z</time></trkpt><trkpt lat="45.127776276301034" lon="8.453344463710067"><ele>115.0</ele><time>2026-04-04T14:59:00Z</time></trkpt><trkpt lat="45.12779960331763" lon="8.45314091266184"><ele>115.0</ele><time>2026-04-04T14:59:01Z</time></trkpt><trkpt lat="45.12782604826871" lon="8.452948829883136"><ele>115.0</ele><time>2026-04-04T14:59:02Z</time></trkpt><trkpt lat="45.12787187222274" lon="8.452803548857986"><ele>115.0</ele><time>2026-04-04T14:59:03Z</time></trkpt><trkpt lat="45.12794612362986" lon="8.45268800855901"><ele>115.0</ele><time>2026-04-04T14:59:04Z</time></trkpt><trkpt lat="45.12802984044761" lon="8.4525807527092"><ele>115.00000000000001</ele><time>2026-04-04T14:59:05Z</time></trkpt><trkpt lat="45.12810118610652" lon="8.452482360034422"><ele>115.0</ele><time>2026-04-04T14:59:06Z</time></trkpt><trkpt lat="45.12815927255474" lon="8.452391971742413"><ele>115.0</ele><time>2026-04-04T14:59:07Z</time></trkpt><trkpt lat="45.1282122672882" lon="8.45231144197177"><ele>115.0</ele><time>2026-04-04T14:59:08Z</time></trkpt><trkpt lat="45.12825665976988" lon="8.452244920659583"><ele>115.00000000000001</ele><time>2026-04-04T14:59:09Z</time></trkpt><trkpt lat="45.12830095473524" lon="8.45218082368183"><ele>115.0</ele><time>2026-04-04T14:59:10Z</time></trkpt><trkpt lat="45.12835262628425" lon="8.452103028893163"><ele>115.4</ele><time>2026-04-04T14:59:11Z</time></trkpt><trkpt lat="45.128421124119505" lon="8.452004423774866"><ele>115.8</ele><time>2026-04-04T14:59:12Z</time></trkpt><trkpt lat="45.12849547533545" lon="8.451892737045576"><ele>116.19999999999999</ele><time>2026-04-04T14:59:13Z</time></trkpt><trkpt lat="45.12856813911426" lon="8.45178722118411"><ele>116.6</ele><time>2026-04-04T14:59:14Z</time></trkpt><trkpt lat="45.12863749995244" lon="8.451684862538743"><ele>117.0</ele><time>2026-04-04T14:59:15Z</time></trkpt><trkpt lat="45.12869912198969" lon="8.451593193141871"><ele>117.0</ele><time>2026-04-04T14:59:16Z</time></trkpt><trkpt lat="45.128761826952804" lon="8.45150874822296"><ele>117.0</ele><time>2026-04-04T14:59:17Z</time></trkpt><trkpt lat="45.12882466443501" lon="8.451416925157115"><ele>117.0</ele><time>2026-04-04T14:59:18Z</time></trkpt><trkpt lat="45.12888702563973" lon="8.45132573113414"><ele>117.0</ele><time>2026-04-04T14:59:19Z</time></trkpt><trkpt lat="45.12894654802362" lon="8.45124035760554"><ele>117.0</ele><time>2026-04-04T14:59:20Z</time></trkpt><trkpt lat="45.12899873931781" lon="8.451163564568082"><ele>117.0</ele><time>2026-04-04T14:59:21Z</time></trkpt><trkpt lat="45.12904545047073" lon="8.451093251973923"><ele>117.0</ele><time>2026-04-04T14:59:22Z</time></trkpt><trkpt lat="45.12910732581238" lon="8.451001772436026"><ele>117.0</ele><time>2026-04-04T14:59:24Z</time></trkpt><trkpt lat="45.12915367937898" lon="8.450921676978039"><ele>117.0</ele><time>2026-04-04T14:59:31Z</time></trkpt><trkpt lat="45.12920135359377" lon="8.450813967431515"><ele>117.0</ele><time>2026-04-04T14:59:44Z</time></trkpt><trkpt lat="45.129246208279696" lon="8.450679747446634"><ele>117.0</ele><time>2026-04-04T14:59:46Z</time></trkpt><trkpt lat="45.12923709067531" lon="8.450553666310885"><ele>117.0</ele><time>2026-04-04T14:59:48Z</time></trkpt><trkpt lat="45.12922295856139" lon="8.450402457461362"><ele>117.16666666666667</ele><time>2026-04-04T14:59:50Z</time></trkpt><trkpt lat="45.12925077857198" lon="8.450312605815702"><ele>117.33333333333334</ele><time>2026-04-04T14:59:51Z</time></trkpt><trkpt lat="45.12929616034598" lon="8.45022907843108"><ele>117.5</ele><time>2026-04-04T14:59:52Z</time></trkpt><trkpt lat="45.12935584542483" lon="8.45014206981603"><ele>117.66666666666667</ele><time>2026-04-04T14:59:53Z</time></trkpt><trkpt lat="45.12941892405991" lon="8.450055546261531"><ele>117.83333333333334</ele><time>2026-04-04T14:59:54Z</time></trkpt><trkpt lat="45.129483723059174" lon="8.44996263254845"><ele>118.0</ele><time>2026-04-04T14:59:55Z</time></trkpt><trkpt lat="45.12954795841096" lon="8.449873152630843"><ele>118.0</ele><time>2026-04-04T14:59:56Z</time></trkpt><trkpt lat="45.129609176955086" lon="8.449774383412784"><ele>118.00000000000001</ele><time>2026-04-04T14:59:57Z</time></trkpt><trkpt lat="45.12968190350938" lon="8.449671146574982"><ele>118.00000000000001</ele><time>2026-04-04T14:59:58Z</time></trkpt><trkpt lat="45.12976034538349" lon="8.449555646226893"><ele>118.0</ele><time>2026-04-04T14:59:59Z</time></trkpt><trkpt lat="45.129843511903054" lon="8.449437012546843"><ele>118.0</ele><time>2026-04-04T15:00:00Z</time></trkpt><trkpt lat="45.12991423953885" lon="8.449331017570916"><ele>118.14285714285714</ele><time>2026-04-04T15:00:00.999Z</time></trkpt><trkpt lat="45.12997300220115" lon="8.449248482269732"><ele>118.28571428571429</ele><time>2026-04-04T15:00:01.999Z</time></trkpt><trkpt lat="45.13001583993511" lon="8.449182189282823"><ele>118.42857142857143</ele><time>2026-04-04T15:00:02.999Z</time></trkpt><trkpt lat="45.1300695156713" lon="8.449103770275167"><ele>118.57142857142857</ele><time>2026-04-04T15:00:10.999Z</time></trkpt><trkpt lat="45.130124908202916" lon="8.449019290826444"><ele>118.71428571428572</ele><time>2026-04-04T15:00:12.999Z</time></trkpt><trkpt lat="45.13017261700428" lon="8.448957374500477"><ele>118.85714285714286</ele><time>2026-04-04T15:00:17.999Z</time></trkpt><trkpt lat="45.13022583603369" lon="8.448908618896242"><ele>119.0</ele><time>2026-04-04T15:00:19.999Z</time></trkpt><trkpt lat="45.13030931144271" lon="8.448846449625991"><ele>119.0</ele><time>2026-04-04T15:00:21.999Z</time></trkpt><trkpt lat="45.13038279638876" lon="8.448743995280855"><ele>119.0</ele><time>2026-04-04T15:00:23.999Z</time></trkpt><trkpt lat="45.130425015726594" lon="8.448599608383535"><ele>119.0</ele><time>2026-04-04T15:00:25.999Z</time></trkpt><trkpt lat="45.13049371310161" lon="8.448475347092367"><ele>119.0</ele><time>2026-04-04T15:00:27.999Z</time></trkpt><trkpt lat="45.13054733171046" lon="8.448398105729773"><ele>119.0</ele><time>2026-04-04T15:00:28.999Z</time></trkpt><trkpt lat="45.13060964590877" lon="8.448316886172508"><ele>119.0</ele><time>2026-04-04T15:00:29.999Z</time></trkpt><trkpt lat="45.13067121440087" lon="8.448223937372454"><ele>119.0</ele><time>2026-04-04T15:00:30.999Z</time></trkpt><trkpt lat="45.13072764154154" lon="8.448136835902657"><ele>119.0</ele><time>2026-04-04T15:00:32.001Z</time></trkpt><trkpt lat="45.13079812019845" lon="8.44803643763501"><ele>119.0</ele><time>2026-04-04T15:00:33.001Z</time></trkpt><trkpt lat="45.13087976064485" lon="8.447919952338097"><ele>119.0</ele><time>2026-04-04T15:00:34.001Z</time></trkpt><trkpt lat="45.130964794252066" lon="8.447796221155116"><ele>118.5</ele><time>2026-04-04T15:00:35.001Z</time></trkpt><trkpt lat="45.131048530794885" lon="8.447676870544576"><ele>118.0</ele><time>2026-04-04T15:00:36.001Z</time></trkpt><trkpt lat="45.131139306153" lon="8.447546810741597"><ele>117.5</ele><time>2026-04-04T15:00:37.001Z</time></trkpt><trkpt lat="45.131239582516784" lon="8.447396559953742"><ele>117.0</ele><time>2026-04-04T15:00:38.001Z</time></trkpt><trkpt lat="45.13135388632293" lon="8.447228700014307"><ele>116.66666666666666</ele><time>2026-04-04T15:00:39.001Z</time></trkpt><trkpt lat="45.13146221198344" lon="8.44706547201632"><ele>116.33333333333333</ele><time>2026-04-04T15:00:40.001Z</time></trkpt><trkpt lat="45.13156651750517" lon="8.446910079127445"><ele>116.0</ele><time>2026-04-04T15:00:41.001Z</time></trkpt><trkpt lat="45.13166739233931" lon="8.446759738973627"><ele>116.0</ele><time>2026-04-04T15:00:42.001Z</time></trkpt><trkpt lat="45.131768426732116" lon="8.446610826864827"><ele>116.0</ele><time>2026-04-04T15:00:43.001Z</time></trkpt><trkpt lat="45.13187770763877" lon="8.446446252403982"><ele>116.0</ele><time>2026-04-04T15:00:44.001Z</time></trkpt><trkpt lat="45.13199672181187" lon="8.446255773014759"><ele>116.0</ele><time>2026-04-04T15:00:45.001Z</time></trkpt><trkpt lat="45.132135525654206" lon="8.446025030136251"><ele>116.0</ele><time>2026-04-04T15:00:46.001Z</time></trkpt><trkpt lat="45.13229951401918" lon="8.445801325418413"><ele>116.0</ele><time>2026-04-04T15:00:47.001Z</time></trkpt><trkpt lat="45.13245977888026" lon="8.445588356278128"><ele>117.0</ele><time>2026-04-04T15:00:48.001Z</time></trkpt><trkpt lat="45.13256791203543" lon="8.445437194849173"><ele>118.0</ele><time>2026-04-04T15:00:49.001Z</time></trkpt><trkpt lat="45.13264113499732" lon="8.445323838608674"><ele>119.0</ele><time>2026-04-04T15:00:50.001Z</time></trkpt><trkpt lat="45.13270440416263" lon="8.445224913783111"><ele>120.0</ele><time>2026-04-04T15:00:51.001Z</time></trkpt><trkpt lat="45.1327713502595" lon="8.445121935861158"><ele>120.0</ele><time>2026-04-04T15:00:52Z</time></trkpt><trkpt lat="45.13283618524231" lon="8.445026655233876"><ele>120.0</ele><time>2026-04-04T15:00:53Z</time></trkpt><trkpt lat="45.13288496163772" lon="8.444951897949805"><ele>120.0</ele><time>2026-04-04T15:00:54Z</time></trkpt><trkpt lat="45.13293116993058" lon="8.444874204251978"><ele>120.0</ele><time>2026-04-04T15:00:56Z</time></trkpt><trkpt lat="45.13299673021585" lon="8.444802448202088"><ele>120.0</ele><time>2026-04-04T15:00:58Z</time></trkpt><trkpt lat="45.133074108424" lon="8.444690264334833"><ele>120.0</ele><time>2026-04-04T15:01:00Z</time></trkpt><trkpt lat="45.13314725005747" lon="8.444562907103727"><ele>119.4</ele><time>2026-04-04T15:01:02Z</time></trkpt><trkpt lat="45.13325120958442" lon="8.444631223505851"><ele>118.8</ele><time>2026-04-04T15:01:04Z</time></trkpt><trkpt lat="45.13331805758492" lon="8.444688649368247"><ele>118.19999999999999</ele><time>2026-04-04T15:01:05Z</time></trkpt><trkpt lat="45.13338323884654" lon="8.44473610623163"><ele>117.6</ele><time>2026-04-04T15:01:06Z</time></trkpt><trkpt lat="45.13349729127124" lon="8.444794660295877"><ele>117.0</ele><time>2026-04-04T15:01:08Z</time></trkpt><trkpt lat="45.133607394808884" lon="8.444772138750102"><ele>117.0</ele><time>2026-04-04T15:01:10Z</time></trkpt><trkpt lat="45.13366479588733" lon="8.444655937253208"><ele>117.0</ele><time>2026-04-04T15:01:11Z</time></trkpt><trkpt lat="45.13373143734721" lon="8.444556117203172"><ele>117.0</ele><time>2026-04-04T15:01:12Z</time></trkpt><trkpt lat="45.13387763993821" lon="8.444432453055953"><ele>117.0</ele><time>2026-04-04T15:01:13Z</time></trkpt><trkpt lat="45.13402603133675" lon="8.444396803421098"><ele>116.8</ele><time>2026-04-04T15:01:14Z</time></trkpt><trkpt lat="45.134163894938034" lon="8.444359573909361"><ele>116.6</ele><time>2026-04-04T15:01:15Z</time></trkpt><trkpt lat="45.13429147524096" lon="8.44435772011273"><ele>116.39999999999999</ele><time>2026-04-04T15:01:16Z</time></trkpt><trkpt lat="45.13439173209196" lon="8.444362960458108"><ele>116.19999999999999</ele><time>2026-04-04T15:01:17Z</time></trkpt><trkpt lat="45.13446572923853" lon="8.44437344657602"><ele>116.0</ele><time>2026-04-04T15:01:18Z</time></trkpt><trkpt lat="45.13457552950084" lon="8.444434466193494"><ele>116.00000000000001</ele><time>2026-04-04T15:01:20Z</time></trkpt><trkpt lat="45.134639132397794" lon="8.444480578530875"><ele>116.0</ele><time>2026-04-04T15:01:21Z</time></trkpt><trkpt lat="45.13470431845905" lon="8.44449531914114"><ele>116.00000000000001</ele><time>2026-04-04T15:01:22Z</time></trkpt><trkpt lat="45.13476174268522" lon="8.444455398776883"><ele>116.00000000000001</ele><time>2026-04-04T15:01:23Z</time></trkpt><trkpt lat="45.134816056166294" lon="8.444395716957585"><ele>116.0</ele><time>2026-04-04T15:01:24Z</time></trkpt><trkpt lat="45.13487903291351" lon="8.444355431504134"><ele>116.00000000000001</ele><time>2026-04-04T15:01:25Z</time></trkpt><trkpt lat="45.134940188783474" lon="8.444333131655078"><ele>116.00000000000001</ele><time>2026-04-04T15:01:26Z</time></trkpt><trkpt lat="45.135061946874835" lon="8.444317060739612"><ele>115.99999999999999</ele><time>2026-04-04T15:01:28Z</time></trkpt><trkpt lat="45.135138550797635" lon="8.444311045837159"><ele>116.0</ele><time>2026-04-04T15:01:29Z</time></trkpt><trkpt lat="45.135216563250935" lon="8.44430718170503"><ele>116.0</ele><time>2026-04-04T15:01:30Z</time></trkpt><trkpt lat="45.135292447111695" lon="8.444309892799224"><ele>116.0</ele><time>2026-04-04T15:01:31Z</time></trkpt><trkpt lat="45.13536872490133" lon="8.44431243076112"><ele>115.99999999999999</ele><time>2026-04-04T15:01:32Z</time></trkpt><trkpt lat="45.135449406947" lon="8.444298530109995"><ele>116.0</ele><time>2026-04-04T15:01:33Z</time></trkpt><trkpt lat="45.13557032387476" lon="8.444285081189387"><ele>115.99999999999999</ele><time>2026-04-04T15:01:35Z</time></trkpt><trkpt lat="45.13566197338175" lon="8.44427821515754"><ele>116.0</ele><time>2026-04-04T15:01:37Z</time></trkpt><trkpt lat="45.13576057365426" lon="8.444298157472621"><ele>116.0</ele><time>2026-04-04T15:01:40Z</time></trkpt><trkpt lat="45.13582104900825" lon="8.444337489555748"><ele>116.0</ele><time>2026-04-04T15:01:43Z</time></trkpt><trkpt lat="45.135870039721944" lon="8.444410537622252"><ele>115.99999999999999</ele><time>2026-04-04T15:01:45Z</time></trkpt><trkpt lat="45.13594889963516" lon="8.444485995914858"><ele>116.0</ele><time>2026-04-04T15:01:47Z</time></trkpt><trkpt lat="45.13605121409481" lon="8.444472619326605"><ele>116.4</ele><time>2026-04-04T15:01:49Z</time></trkpt><trkpt lat="45.136092598240516" lon="8.444338694720326"><ele>116.8</ele><time>2026-04-04T15:01:51Z</time></trkpt><trkpt lat="45.13602256832811" lon="8.444224680137923"><ele>117.20000000000002</ele><time>2026-04-04T15:01:53Z</time></trkpt><trkpt lat="45.135965590852955" lon="8.444089665626333"><ele>117.60000000000001</ele><time>2026-04-04T15:01:55Z</time></trkpt><trkpt lat="45.1359576101845" lon="8.443978685373589"><ele>118.0</ele><time>2026-04-04T15:01:56Z</time></trkpt><trkpt lat="45.135957431423904" lon="8.443840002355481"><ele>118.16666666666667</ele><time>2026-04-04T15:01:57Z</time></trkpt><trkpt lat="45.13595817754474" lon="8.443720107163374"><ele>118.33333333333334</ele><time>2026-04-04T15:01:58Z</time></trkpt><trkpt lat="45.13595371596806" lon="8.443592151744093"><ele>118.5</ele><time>2026-04-04T15:01:59Z</time></trkpt><trkpt lat="45.1359483503624" lon="8.443465872843788"><ele>118.66666666666666</ele><time>2026-04-04T15:02:00Z</time></trkpt><trkpt lat="45.13594534548999" lon="8.443355892492407"><ele>118.83333333333333</ele><time>2026-04-04T15:02:01Z</time></trkpt><trkpt lat="45.135941621090424" lon="8.443250433676484"><ele>119.0</ele><time>2026-04-04T15:02:02Z</time></trkpt><trkpt lat="45.135938525189125" lon="8.443141034199973"><ele>118.99999999999999</ele><time>2026-04-04T15:02:03Z</time></trkpt><trkpt lat="45.13593743402649" lon="8.44302590036012"><ele>119.0</ele><time>2026-04-04T15:02:04Z</time></trkpt><trkpt lat="45.13593313260327" lon="8.442905825363745"><ele>119.0</ele><time>2026-04-04T15:02:05Z</time></trkpt><trkpt lat="45.1359296625302" lon="8.442794904920524"><ele>119.0</ele><time>2026-04-04T15:02:06Z</time></trkpt><trkpt lat="45.13592569181274" lon="8.442690852757224"><ele>118.99999999999999</ele><time>2026-04-04T15:02:07Z</time></trkpt><trkpt lat="45.13592097874933" lon="8.44255519324305"><ele>119.0</ele><time>2026-04-04T15:02:08Z</time></trkpt><trkpt lat="45.13591648185925" lon="8.442411488212171"><ele>119.0</ele><time>2026-04-04T15:02:09Z</time></trkpt><trkpt lat="45.135919336354945" lon="8.442296017943884"><ele>119.0</ele><time>2026-04-04T15:02:10Z</time></trkpt><trkpt lat="45.1359247346723" lon="8.44214299474427"><ele>119.0</ele><time>2026-04-04T15:02:11.999Z</time></trkpt><trkpt lat="45.13592838314717" lon="8.44199931166119"><ele>119.0</ele><time>2026-04-04T15:02:13.999Z</time></trkpt><trkpt lat="45.1359337562502" lon="8.44185574458461"><ele>119.0</ele><time>2026-04-04T15:02:15.999Z</time></trkpt><trkpt lat="45.13593530443496" lon="8.441688890043304"><ele>119.0</ele><time>2026-04-04T15:02:17.999Z</time></trkpt><trkpt lat="45.13593943088612" lon="8.44158773764146"><ele>119.0</ele><time>2026-04-04T15:02:18.999Z</time></trkpt><trkpt lat="45.13593958930378" lon="8.441481434147784"><ele>119.0</ele><time>2026-04-04T15:02:19.999Z</time></trkpt><trkpt lat="45.13594292855756" lon="8.441375692113931"><ele>119.0</ele><time>2026-04-04T15:02:20.999Z</time></trkpt><trkpt lat="45.13594516171329" lon="8.44126150254756"><ele>119.0</ele><time>2026-04-04T15:02:21.999Z</time></trkpt><trkpt lat="45.13594728139914" lon="8.441157236240471"><ele>119.0</ele><time>2026-04-04T15:02:22.998Z</time></trkpt><trkpt lat="45.13594552070823" lon="8.441063247917821"><ele>119.0</ele><time>2026-04-04T15:02:23.998Z</time></trkpt><trkpt lat="45.135946259197944" lon="8.440962219429467"><ele>118.6</ele><time>2026-04-04T15:02:24.998Z</time></trkpt><trkpt lat="45.13594671202859" lon="8.440850377276167"><ele>118.2</ele><time>2026-04-04T15:02:25.998Z</time></trkpt><trkpt lat="45.13594611185738" lon="8.440727997597245"><ele>117.79999999999998</ele><time>2026-04-04T15:02:26.998Z</time></trkpt><trkpt lat="45.13594841574716" lon="8.440569632357017"><ele>117.39999999999999</ele><time>2026-04-04T15:02:27.998Z</time></trkpt><trkpt lat="45.13595116176861" lon="8.440405610078871"><ele>117.0</ele><time>2026-04-04T15:02:28.998Z</time></trkpt><trkpt lat="45.13595185787268" lon="8.440245494898246"><ele>117.0</ele><time>2026-04-04T15:02:29.998Z</time></trkpt><trkpt lat="45.13594414684582" lon="8.440043895931941"><ele>117.0</ele><time>2026-04-04T15:02:30.998Z</time></trkpt><trkpt lat="45.13595784622202" lon="8.439799328469304"><ele>117.0</ele><time>2026-04-04T15:02:31.998Z</time></trkpt><trkpt lat="45.135957846221785" lon="8.439516899954368"><ele>117.0</ele><time>2026-04-04T15:02:32.998Z</time></trkpt><trkpt lat="45.135957846221345" lon="8.439243443969486"><ele>117.0</ele><time>2026-04-04T15:02:33.998Z</time></trkpt><trkpt lat="45.13594421564765" lon="8.438922770853166"><ele>117.0</ele><time>2026-04-04T15:02:34.998Z</time></trkpt><trkpt lat="45.13595160885081" lon="8.438630379061488"><ele>117.0</ele><time>2026-04-04T15:02:35.998Z</time></trkpt><trkpt lat="45.13594721891326" lon="8.43837253204586"><ele>117.0</ele><time>2026-04-04T15:02:36.998Z</time></trkpt><trkpt lat="45.135943486013076" lon="8.4381397318687"><ele>117.0</ele><time>2026-04-04T15:02:38Z</time></trkpt><trkpt lat="45.135925770531486" lon="8.437935187303589"><ele>117.0</ele><time>2026-04-04T15:02:39Z</time></trkpt><trkpt lat="45.13589419174434" lon="8.437718740195118"><ele>117.0</ele><time>2026-04-04T15:02:40Z</time></trkpt><trkpt lat="45.135875047714556" lon="8.437522047850884"><ele>117.0</ele><time>2026-04-04T15:02:41Z</time></trkpt><trkpt lat="45.135773750210475" lon="8.43735957654742"><ele>117.0</ele><time>2026-04-04T15:02:42Z</time></trkpt><trkpt lat="45.13568311120843" lon="8.437197743610119"><ele>118.33333333333334</ele><time>2026-04-04T15:02:43Z</time></trkpt><trkpt lat="45.13560792506775" lon="8.437024228041453"><ele>119.66666666666667</ele><time>2026-04-04T15:02:44Z</time></trkpt><trkpt lat="45.135595307640536" lon="8.436810905440868"><ele>121.0</ele><time>2026-04-04T15:02:45Z</time></trkpt><trkpt lat="45.135556263520634" lon="8.436575901301023"><ele>121.33333333333334</ele><time>2026-04-04T15:02:46Z</time></trkpt><trkpt lat="45.13554871988739" lon="8.436298633101451"><ele>121.66666666666666</ele><time>2026-04-04T15:02:47Z</time></trkpt><trkpt lat="45.135533940073095" lon="8.436084643609775"><ele>122.0</ele><time>2026-04-04T15:02:48Z</time></trkpt><trkpt lat="45.135494157240004" lon="8.435876107990866"><ele>122.0</ele><time>2026-04-04T15:02:49Z</time></trkpt><trkpt lat="45.13542656660279" lon="8.435659200176705"><ele>122.0</ele><time>2026-04-04T15:02:50Z</time></trkpt><trkpt lat="45.1353778616579" lon="8.435404526925364"><ele>122.0</ele><time>2026-04-04T15:02:51Z</time></trkpt><trkpt lat="45.13532408509141" lon="8.435065950367001"><ele>123.5</ele><time>2026-04-04T15:02:52Z</time></trkpt><trkpt lat="45.13526718360562" lon="8.434713649845161"><ele>125.0</ele><time>2026-04-04T15:02:53Z</time></trkpt><trkpt lat="45.13520471167984" lon="8.434340360901304"><ele>125.66666666666666</ele><time>2026-04-04T15:02:54Z</time></trkpt><trkpt lat="45.13514337690747" lon="8.43399855751547"><ele>126.33333333333334</ele><time>2026-04-04T15:02:55Z</time></trkpt><trkpt lat="45.135107871824204" lon="8.433745645666498"><ele>127.0</ele><time>2026-04-04T15:02:56Z</time></trkpt><trkpt lat="45.13507630770037" lon="8.433540341266356"><ele>127.0</ele><time>2026-04-04T15:02:57Z</time></trkpt><trkpt lat="45.13504217058411" lon="8.433304169608892"><ele>127.0</ele><time>2026-04-04T15:02:58Z</time></trkpt><trkpt lat="45.13499704868688" lon="8.43298623232378"><ele>127.0</ele><time>2026-04-04T15:02:58.999Z</time></trkpt><trkpt lat="45.13494932488539" lon="8.432645223101625"><ele>127.0</ele><time>2026-04-04T15:02:59.999Z</time></trkpt><trkpt lat="45.13489462123074" lon="8.432297013079829"><ele>127.0</ele><time>2026-04-04T15:03:00.999Z</time></trkpt><trkpt lat="45.13482460549324" lon="8.431863833155939"><ele>128.0</ele><time>2026-04-04T15:03:01.999Z</time></trkpt><trkpt lat="45.134756731578975" lon="8.431465285729821"><ele>129.0</ele><time>2026-04-04T15:03:02.999Z</time></trkpt><trkpt lat="45.13470316267799" lon="8.431155059252172"><ele>129.0</ele><time>2026-04-04T15:03:03.999Z</time></trkpt><trkpt lat="45.13465180809565" lon="8.430943221994374"><ele>129.0</ele><time>2026-04-04T15:03:04.999Z</time></trkpt><trkpt lat="45.13458194892525" lon="8.430766762613592"><ele>129.0</ele><time>2026-04-04T15:03:05.999Z</time></trkpt><trkpt lat="45.134491076866" lon="8.430618350696864"><ele>129.0</ele><time>2026-04-04T15:03:06.999Z</time></trkpt><trkpt lat="45.13438442604993" lon="8.430478678135469"><ele>129.75</ele><time>2026-04-04T15:03:07.999Z</time></trkpt><trkpt lat="45.13427679497912" lon="8.430349635514684"><ele>130.5</ele><time>2026-04-04T15:03:08.999Z</time></trkpt><trkpt lat="45.134177218376884" lon="8.430235718876066"><ele>131.25</ele><time>2026-04-04T15:03:09.999Z</time></trkpt><trkpt lat="45.134095185737614" lon="8.430103335868361"><ele>132.0</ele><time>2026-04-04T15:03:10.999Z</time></trkpt><trkpt lat="45.13400593996525" lon="8.429990789559875"><ele>132.0</ele><time>2026-04-04T15:03:11.999Z</time></trkpt><trkpt lat="45.13391117736181" lon="8.429901608896529"><ele>132.0</ele><time>2026-04-04T15:03:12.999Z</time></trkpt><trkpt lat="45.13382954751989" lon="8.429797376277676"><ele>132.0</ele><time>2026-04-04T15:03:13.999Z</time></trkpt><trkpt lat="45.13374800397666" lon="8.429686238103294"><ele>132.0</ele><time>2026-04-04T15:03:14.999Z</time></trkpt><trkpt lat="45.13367688747304" lon="8.429564581800452"><ele>132.0</ele><time>2026-04-04T15:03:15.999Z</time></trkpt><trkpt lat="45.13361716101445" lon="8.429425152521182"><ele>132.0</ele><time>2026-04-04T15:03:16.999Z</time></trkpt><trkpt lat="45.133573410703946" lon="8.429274427573366"><ele>132.0</ele><time>2026-04-04T15:03:17.999Z</time></trkpt><trkpt lat="45.13354990166947" lon="8.429113489780635"><ele>132.0</ele><time>2026-04-04T15:03:18.999Z</time></trkpt><trkpt lat="45.133549526469665" lon="8.428948831902343"><ele>132.0</ele><time>2026-04-04T15:03:19.999Z</time></trkpt><trkpt lat="45.133576541090896" lon="8.42878868973041"><ele>132.25</ele><time>2026-04-04T15:03:20.999Z</time></trkpt><trkpt lat="45.133631273218484" lon="8.428619758062643"><ele>132.5</ele><time>2026-04-04T15:03:21.999Z</time></trkpt><trkpt lat="45.133716673819286" lon="8.42844548422071"><ele>132.75</ele><time>2026-04-04T15:03:22.999Z</time></trkpt><trkpt lat="45.1338261199647" lon="8.428272917589068"><ele>133.0</ele><time>2026-04-04T15:03:23.999Z</time></trkpt><trkpt lat="45.13395955834405" lon="8.428096964164224"><ele>134.0</ele><time>2026-04-04T15:03:24.999Z</time></trkpt><trkpt lat="45.134076384077936" lon="8.427942054870952"><ele>135.0</ele><time>2026-04-04T15:03:25.999Z</time></trkpt><trkpt lat="45.13420051142797" lon="8.427799584955835"><ele>136.0</ele><time>2026-04-04T15:03:26.999Z</time></trkpt><trkpt lat="45.13433652652328" lon="8.427656603108213"><ele>136.0</ele><time>2026-04-04T15:03:27.999Z</time></trkpt><trkpt lat="45.13447235746401" lon="8.427518579309503"><ele>136.0</ele><time>2026-04-04T15:03:28.999Z</time></trkpt><trkpt lat="45.13459553349847" lon="8.427386203844405"><ele>136.0</ele><time>2026-04-04T15:03:29.999Z</time></trkpt><trkpt lat="45.134711677262224" lon="8.427241279891307"><ele>137.33333333333334</ele><time>2026-04-04T15:03:30.999Z</time></trkpt><trkpt lat="45.134819609945204" lon="8.427080554418557"><ele>138.66666666666666</ele><time>2026-04-04T15:03:31.999Z</time></trkpt><trkpt lat="45.13491822513072" lon="8.426890512562494"><ele>140.0</ele><time>2026-04-04T15:03:32.999Z</time></trkpt><trkpt lat="45.13500357788823" lon="8.426672002447477"><ele>137.33333333333331</ele><time>2026-04-04T15:03:33.999Z</time></trkpt><trkpt lat="45.135071952945154" lon="8.42644827275636"><ele>134.66666666666666</ele><time>2026-04-04T15:03:34.999Z</time></trkpt><trkpt lat="45.13512557912211" lon="8.42621787291246"><ele>132.0</ele><time>2026-04-04T15:03:35.999Z</time></trkpt><trkpt lat="45.13516437035021" lon="8.42597567480246"><ele>132.0</ele><time>2026-04-04T15:03:36.999Z</time></trkpt><trkpt lat="45.135194732987564" lon="8.425713128627857"><ele>132.0</ele><time>2026-04-04T15:03:37.999Z</time></trkpt><trkpt lat="45.135211156576766" lon="8.425394093269531"><ele>132.0</ele><time>2026-04-04T15:03:38.999Z</time></trkpt><trkpt lat="45.13522998580682" lon="8.425059724157414"><ele>132.66666666666666</ele><time>2026-04-04T15:03:39.999Z</time></trkpt><trkpt lat="45.13524404428545" lon="8.424773814118765"><ele>133.33333333333331</ele><time>2026-04-04T15:03:40.999Z</time></trkpt><trkpt lat="45.13525627391726" lon="8.424550870173691"><ele>134.0</ele><time>2026-04-04T15:03:41.999Z</time></trkpt><trkpt lat="45.135264637709255" lon="8.424367052782813"><ele>135.5</ele><time>2026-04-04T15:03:42.999Z</time></trkpt><trkpt lat="45.135273427105716" lon="8.424198309103492"><ele>137.0</ele><time>2026-04-04T15:03:43.999Z</time></trkpt><trkpt lat="45.135281869769194" lon="8.424033962540173"><ele>138.5</ele><time>2026-04-04T15:03:44.999Z</time></trkpt><trkpt lat="45.135289464235676" lon="8.42385661204854"><ele>140.0</ele><time>2026-04-04T15:03:45.999Z</time></trkpt><trkpt lat="45.135299084347494" lon="8.42367382570937"><ele>140.0</ele><time>2026-04-04T15:03:46.999Z</time></trkpt><trkpt lat="45.135309803332454" lon="8.423488288336054"><ele>140.0</ele><time>2026-04-04T15:03:47.999Z</time></trkpt><trkpt lat="45.135318977494016" lon="8.423299677651766"><ele>140.0</ele><time>2026-04-04T15:03:48.999Z</time></trkpt><trkpt lat="45.13532965267823" lon="8.42310732606254"><ele>140.0</ele><time>2026-04-04T15:03:49.999Z</time></trkpt><trkpt lat="45.135343168364656" lon="8.422914371635224"><ele>140.5</ele><time>2026-04-04T15:03:50.999Z</time></trkpt><trkpt lat="45.13535640501318" lon="8.422715501340454"><ele>141.0</ele><time>2026-04-04T15:03:51.999Z</time></trkpt><trkpt lat="45.13536590545993" lon="8.422507487034522"><ele>141.5</ele><time>2026-04-04T15:03:52.999Z</time></trkpt><trkpt lat="45.135375337191725" lon="8.42229867384548"><ele>142.0</ele><time>2026-04-04T15:03:53.999Z</time></trkpt><trkpt lat="45.13538597344035" lon="8.422089939896054"><ele>142.33333333333334</ele><time>2026-04-04T15:03:54.999Z</time></trkpt><trkpt lat="45.13539516262171" lon="8.421877458184392"><ele>142.66666666666666</ele><time>2026-04-04T15:03:55.999Z</time></trkpt><trkpt lat="45.1354054750423" lon="8.421661131590593"><ele>143.0</ele><time>2026-04-04T15:03:56.999Z</time></trkpt><trkpt lat="45.135410066167374" lon="8.421442840704346"><ele>142.66666666666666</ele><time>2026-04-04T15:03:57.999Z</time></trkpt><trkpt lat="45.13539876042535" lon="8.42122161804475"><ele>142.33333333333334</ele><time>2026-04-04T15:03:58.999Z</time></trkpt><trkpt lat="45.13536879369627" lon="8.421013788337856"><ele>142.0</ele><time>2026-04-04T15:03:59.999Z</time></trkpt><trkpt lat="45.13531606119818" lon="8.420808953446326"><ele>142.0</ele><time>2026-04-04T15:04:00.999Z</time></trkpt><trkpt lat="45.135242799648516" lon="8.420616597312911"><ele>142.0</ele><time>2026-04-04T15:04:01.999Z</time></trkpt><trkpt lat="45.1351494881789" lon="8.420428447406064"><ele>142.0</ele><time>2026-04-04T15:04:02.999Z</time></trkpt><trkpt lat="45.13505004686744" lon="8.420249698044902"><ele>141.33333333333334</ele><time>2026-04-04T15:04:03.999Z</time></trkpt><trkpt lat="45.13494431480972" lon="8.42006851699209"><ele>140.66666666666666</ele><time>2026-04-04T15:04:04.999Z</time></trkpt><trkpt lat="45.134833842040265" lon="8.419883756946998"><ele>140.0</ele><time>2026-04-04T15:04:05.999Z</time></trkpt><trkpt lat="45.13472225524995" lon="8.419701574132887"><ele>140.33333333333331</ele><time>2026-04-04T15:04:06.999Z</time></trkpt><trkpt lat="45.13461647134971" lon="8.419526604538092"><ele>140.66666666666666</ele><time>2026-04-04T15:04:07.999Z</time></trkpt><trkpt lat="45.1345188983028" lon="8.419362305096646"><ele>141.0</ele><time>2026-04-04T15:04:08.999Z</time></trkpt><trkpt lat="45.13443072265847" lon="8.419201937261747"><ele>141.0</ele><time>2026-04-04T15:04:09.999Z</time></trkpt><trkpt lat="45.13434656148141" lon="8.419034747347302"><ele>141.0</ele><time>2026-04-04T15:04:10.999Z</time></trkpt><trkpt lat="45.13427416171654" lon="8.418855926324706"><ele>141.0</ele><time>2026-04-04T15:04:11.999Z</time></trkpt><trkpt lat="45.134220446486744" lon="8.418667611167"><ele>141.0</ele><time>2026-04-04T15:04:12.999Z</time></trkpt><trkpt lat="45.13420471630907" lon="8.418467514814836"><ele>140.66666666666666</ele><time>2026-04-04T15:04:13.999Z</time></trkpt><trkpt lat="45.13422382728408" lon="8.41825776136374"><ele>140.33333333333331</ele><time>2026-04-04T15:04:14.999Z</time></trkpt><trkpt lat="45.13428062193044" lon="8.418056322862542"><ele>140.0</ele><time>2026-04-04T15:04:15.998Z</time></trkpt><trkpt lat="45.13437014810096" lon="8.417875474708051"><ele>141.66666666666666</ele><time>2026-04-04T15:04:16.998Z</time></trkpt><trkpt lat="45.13446816628176" lon="8.41770146670644"><ele>143.33333333333334</ele><time>2026-04-04T15:04:17.998Z</time></trkpt><trkpt lat="45.134550149208366" lon="8.417510137773855"><ele>145.0</ele><time>2026-04-04T15:04:18.998Z</time></trkpt><trkpt lat="45.13459586145806" lon="8.41730761633631"><ele>147.0</ele><time>2026-04-04T15:04:19.998Z</time></trkpt><trkpt lat="45.13460049222117" lon="8.417093214984167"><ele>149.0</ele><time>2026-04-04T15:04:20.998Z</time></trkpt><trkpt lat="45.134560877575574" lon="8.416887629409812"><ele>151.0</ele><time>2026-04-04T15:04:21.998Z</time></trkpt><trkpt lat="45.13449233335163" lon="8.416696085414447"><ele>151.0</ele><time>2026-04-04T15:04:22.998Z</time></trkpt><trkpt lat="45.13440083492609" lon="8.416514871758963"><ele>151.0</ele><time>2026-04-04T15:04:23.998Z</time></trkpt><trkpt lat="45.1343014208498" lon="8.416338329837368"><ele>151.0</ele><time>2026-04-04T15:04:24.998Z</time></trkpt><trkpt lat="45.1342077990373" lon="8.416153852527986"><ele>150.66666666666669</ele><time>2026-04-04T15:04:25.998Z</time></trkpt><trkpt lat="45.13411882376954" lon="8.415964088679909"><ele>150.33333333333334</ele><time>2026-04-04T15:04:26.998Z</time></trkpt><trkpt lat="45.13403257702203" lon="8.415775349594488"><ele>150.0</ele><time>2026-04-04T15:04:27.998Z</time></trkpt><trkpt lat="45.133943931711414" lon="8.415585155312646"><ele>153.0</ele><time>2026-04-04T15:04:28.998Z</time></trkpt><trkpt lat="45.13385488782025" lon="8.415399503734184"><ele>156.0</ele><time>2026-04-04T15:04:29.998Z</time></trkpt><trkpt lat="45.13376476387814" lon="8.415220892488971"><ele>159.0</ele><time>2026-04-04T15:04:30.998Z</time></trkpt><trkpt lat="45.133691822058175" lon="8.415026941876466"><ele>159.0</ele><time>2026-04-04T15:04:31.998Z</time></trkpt><trkpt lat="45.13361255735672" lon="8.414844480538738"><ele>159.0</ele><time>2026-04-04T15:04:32.998Z</time></trkpt><trkpt lat="45.13358677782781" lon="8.414653299403616"><ele>159.0</ele><time>2026-04-04T15:04:33.998Z</time></trkpt><trkpt lat="45.13359622076152" lon="8.414457260264616"><ele>159.0</ele><time>2026-04-04T15:04:34.998Z</time></trkpt><trkpt lat="45.13363269697851" lon="8.414255056009532"><ele>158.5</ele><time>2026-04-04T15:04:35.998Z</time></trkpt><trkpt lat="45.133694805837415" lon="8.414069873529815"><ele>158.0</ele><time>2026-04-04T15:04:36.998Z</time></trkpt><trkpt lat="45.13377628917241" lon="8.4138979728844"><ele>157.5</ele><time>2026-04-04T15:04:37.998Z</time></trkpt><trkpt lat="45.133868259542474" lon="8.413729655416214"><ele>157.0</ele><time>2026-04-04T15:04:38.998Z</time></trkpt><trkpt lat="45.13396176210371" lon="8.413557428335706"><ele>157.33333333333334</ele><time>2026-04-04T15:04:39.998Z</time></trkpt><trkpt lat="45.13404968855546" lon="8.413374656640496"><ele>157.66666666666666</ele><time>2026-04-04T15:04:40.998Z</time></trkpt><trkpt lat="45.134124255847894" lon="8.41317883190638"><ele>158.0</ele><time>2026-04-04T15:04:41.998Z</time></trkpt><trkpt lat="45.134177637361354" lon="8.412968417314858"><ele>159.33333333333331</ele><time>2026-04-04T15:04:43Z</time></trkpt><trkpt lat="45.13421517076973" lon="8.412744213694548"><ele>160.66666666666666</ele><time>2026-04-04T15:04:44Z</time></trkpt><trkpt lat="45.13424620173318" lon="8.41251488638648"><ele>162.0</ele><time>2026-04-04T15:04:45Z</time></trkpt><trkpt lat="45.13427619864709" lon="8.412279139580113"><ele>161.33333333333334</ele><time>2026-04-04T15:04:46Z</time></trkpt><trkpt lat="45.13430345966234" lon="8.412050491667676"><ele>160.66666666666669</ele><time>2026-04-04T15:04:47Z</time></trkpt><trkpt lat="45.134322426262415" lon="8.411830274614877"><ele>160.0</ele><time>2026-04-04T15:04:48Z</time></trkpt><trkpt lat="45.13432270170017" lon="8.411622954912675"><ele>160.0</ele><time>2026-04-04T15:04:49Z</time></trkpt><trkpt lat="45.13429095312207" lon="8.41142851372297"><ele>160.0</ele><time>2026-04-04T15:04:50Z</time></trkpt><trkpt lat="45.13422416173764" lon="8.411245713920918"><ele>160.0</ele><time>2026-04-04T15:04:51Z</time></trkpt><trkpt lat="45.13413162549605" lon="8.41108463784522"><ele>160.0</ele><time>2026-04-04T15:04:52Z</time></trkpt><trkpt lat="45.13403559685601" lon="8.41092931602756"><ele>159.33333333333334</ele><time>2026-04-04T15:04:53Z</time></trkpt><trkpt lat="45.133879164551246" lon="8.410871336292594"><ele>158.66666666666666</ele><time>2026-04-04T15:04:54Z</time></trkpt><trkpt lat="45.1337247556943" lon="8.410824543341308"><ele>158.0</ele><time>2026-04-04T15:04:55Z</time></trkpt><trkpt lat="45.13357946759236" lon="8.410763071341187"><ele>158.0</ele><time>2026-04-04T15:04:56Z</time></trkpt><trkpt lat="45.133453171497905" lon="8.410714783674232"><ele>158.0</ele><time>2026-04-04T15:04:57Z</time></trkpt><trkpt lat="45.13341206361064" lon="8.410531427960281"><ele>158.0</ele><time>2026-04-04T15:04:58Z</time></trkpt><trkpt lat="45.13337733264664" lon="8.410344941944706"><ele>158.0</ele><time>2026-04-04T15:04:59Z</time></trkpt><trkpt lat="45.13334814594916" lon="8.410127303092512"><ele>158.33333333333331</ele><time>2026-04-04T15:05:00Z</time></trkpt><trkpt lat="45.133383318568555" lon="8.409901083273988"><ele>158.66666666666666</ele><time>2026-04-04T15:05:01Z</time></trkpt><trkpt lat="45.1334041550301" lon="8.409659388373967"><ele>159.0</ele><time>2026-04-04T15:05:02Z</time></trkpt><trkpt lat="45.13344103146375" lon="8.409416130928092"><ele>159.0</ele><time>2026-04-04T15:05:02.999Z</time></trkpt><trkpt lat="45.13345411995449" lon="8.40917778716928"><ele>159.0</ele><time>2026-04-04T15:05:03.999Z</time></trkpt><trkpt lat="45.133467673915355" lon="8.408941596505137"><ele>159.0</ele><time>2026-04-04T15:05:04.999Z</time></trkpt><trkpt lat="45.133496160968335" lon="8.408709088910456"><ele>159.33333333333334</ele><time>2026-04-04T15:05:05.999Z</time></trkpt><trkpt lat="45.13355000002791" lon="8.408476409828838"><ele>159.66666666666669</ele><time>2026-04-04T15:05:06.999Z</time></trkpt><trkpt lat="45.13362773364638" lon="8.408242015421719"><ele>160.0</ele><time>2026-04-04T15:05:07.999Z</time></trkpt><trkpt lat="45.133714446279555" lon="8.408000600977159"><ele>160.66666666666669</ele><time>2026-04-04T15:05:08.999Z</time></trkpt><trkpt lat="45.13379548869876" lon="8.40776444134603"><ele>161.33333333333334</ele><time>2026-04-04T15:05:09.999Z</time></trkpt><trkpt lat="45.13387219010063" lon="8.40754031315597"><ele>162.0</ele><time>2026-04-04T15:05:10.999Z</time></trkpt><trkpt lat="45.133945454735894" lon="8.407326122904637"><ele>162.33333333333334</ele><time>2026-04-04T15:05:11.999Z</time></trkpt><trkpt lat="45.134014847291766" lon="8.407115470138612"><ele>162.66666666666669</ele><time>2026-04-04T15:05:12.999Z</time></trkpt><trkpt lat="45.13408727157409" lon="8.406904504828802"><ele>163.0</ele><time>2026-04-04T15:05:13.999Z</time></trkpt><trkpt lat="45.13416002970643" lon="8.40669419199342"><ele>158.33333333333334</ele><time>2026-04-04T15:05:14.999Z</time></trkpt><trkpt lat="45.13423562659946" lon="8.40647926455445"><ele>153.66666666666666</ele><time>2026-04-04T15:05:15.999Z</time></trkpt><trkpt lat="45.13430958591343" lon="8.40626434904163"><ele>149.0</ele><time>2026-04-04T15:05:16.999Z</time></trkpt><trkpt lat="45.134381251755435" lon="8.40605017989261"><ele>149.0</ele><time>2026-04-04T15:05:17.999Z</time></trkpt><trkpt lat="45.13445452513281" lon="8.4058352725236"><ele>149.0</ele><time>2026-04-04T15:05:18.999Z</time></trkpt><trkpt lat="45.13452727827692" lon="8.405618849962533"><ele>149.0</ele><time>2026-04-04T15:05:19.999Z</time></trkpt><trkpt lat="45.134593873811305" lon="8.405394172927117"><ele>147.33333333333331</ele><time>2026-04-04T15:05:20.999Z</time></trkpt><trkpt lat="45.134652090301245" lon="8.405164237279772"><ele>145.66666666666666</ele><time>2026-04-04T15:05:21.999Z</time></trkpt><trkpt lat="45.13470393163653" lon="8.40493230779377"><ele>144.0</ele><time>2026-04-04T15:05:22.999Z</time></trkpt><trkpt lat="45.13475074610843" lon="8.404703421723813"><ele>141.66666666666666</ele><time>2026-04-04T15:05:23.999Z</time></trkpt><trkpt lat="45.134798644389356" lon="8.40447102123156"><ele>139.33333333333331</ele><time>2026-04-04T15:05:24.999Z</time></trkpt><trkpt lat="45.13484471484407" lon="8.404237938384444"><ele>137.0</ele><time>2026-04-04T15:05:25.999Z</time></trkpt><trkpt lat="45.134887198055" lon="8.40400522557519"><ele>135.0</ele><time>2026-04-04T15:05:26.999Z</time></trkpt><trkpt lat="45.13493071327524" lon="8.403773848063102"><ele>133.0</ele><time>2026-04-04T15:05:27.999Z</time></trkpt><trkpt lat="45.13497657777642" lon="8.403546341722056"><ele>131.0</ele><time>2026-04-04T15:05:28.999Z</time></trkpt><trkpt lat="45.13502250709034" lon="8.403320713584787"><ele>131.0</ele><time>2026-04-04T15:05:29.999Z</time></trkpt><trkpt lat="45.13506849147184" lon="8.403095595571656"><ele>131.0</ele><time>2026-04-04T15:05:30.999Z</time></trkpt><trkpt lat="45.135118333403554" lon="8.402873438464674"><ele>131.0</ele><time>2026-04-04T15:05:31.999Z</time></trkpt><trkpt lat="45.135182229478765" lon="8.402659076902482"><ele>132.33333333333331</ele><time>2026-04-04T15:05:32.999Z</time></trkpt><trkpt lat="45.135271059826806" lon="8.402463504006265"><ele>133.66666666666666</ele><time>2026-04-04T15:05:33.999Z</time></trkpt><trkpt lat="45.13538596107419" lon="8.40228639514193"><ele>135.0</ele><time>2026-04-04T15:05:34.999Z</time></trkpt><trkpt lat="45.13551054192189" lon="8.402117896941604"><ele>134.66666666666666</ele><time>2026-04-04T15:05:35.999Z</time></trkpt><trkpt lat="45.13562897407236" lon="8.401937192928383"><ele>134.33333333333331</ele><time>2026-04-04T15:05:36.999Z</time></trkpt><trkpt lat="45.135725577686735" lon="8.40173498675313"><ele>134.0</ele><time>2026-04-04T15:05:37.999Z</time></trkpt><trkpt lat="45.135795736133545" lon="8.401504667005582"><ele>134.66666666666666</ele><time>2026-04-04T15:05:38.999Z</time></trkpt><trkpt lat="45.13584643075367" lon="8.401257053361276"><ele>135.33333333333334</ele><time>2026-04-04T15:05:39.999Z</time></trkpt><trkpt lat="45.135893142286804" lon="8.40100463441323"><ele>136.0</ele><time>2026-04-04T15:05:40.999Z</time></trkpt><trkpt lat="45.135936867765906" lon="8.400764815960303"><ele>136.0</ele><time>2026-04-04T15:05:41.999Z</time></trkpt><trkpt lat="45.135979718259" lon="8.400530003879874"><ele>136.0</ele><time>2026-04-04T15:05:42.999Z</time></trkpt><trkpt lat="45.13602557866653" lon="8.400293304781615"><ele>136.0</ele><time>2026-04-04T15:05:43.999Z</time></trkpt><trkpt lat="45.136070617344686" lon="8.400055949081246"><ele>136.33333333333334</ele><time>2026-04-04T15:05:44.999Z</time></trkpt><trkpt lat="45.13611651819874" lon="8.399815275477602"><ele>136.66666666666666</ele><time>2026-04-04T15:05:45.999Z</time></trkpt><trkpt lat="45.13616249439871" lon="8.399570869094916"><ele>137.0</ele><time>2026-04-04T15:05:46.999Z</time></trkpt><trkpt lat="45.13620789318837" lon="8.39931859313159"><ele>137.0</ele><time>2026-04-04T15:05:47.999Z</time></trkpt><trkpt lat="45.13625483503647" lon="8.399062218723534"><ele>137.0</ele><time>2026-04-04T15:05:48.999Z</time></trkpt><trkpt lat="45.136305276710665" lon="8.398806568552695"><ele>137.0</ele><time>2026-04-04T15:05:49.999Z</time></trkpt><trkpt lat="45.13635473761607" lon="8.39855305922923"><ele>138.0</ele><time>2026-04-04T15:05:50.999Z</time></trkpt><trkpt lat="45.13640512795194" lon="8.398300219907277"><ele>139.0</ele><time>2026-04-04T15:05:51.999Z</time></trkpt><trkpt lat="45.13645638102923" lon="8.398045757250927"><ele>140.0</ele><time>2026-04-04T15:05:52.999Z</time></trkpt><trkpt lat="45.13650720689898" lon="8.397794433805567"><ele>137.66666666666666</ele><time>2026-04-04T15:05:53.999Z</time></trkpt><trkpt lat="45.13655357461091" lon="8.397545129892066"><ele>135.33333333333334</ele><time>2026-04-04T15:05:54.999Z</time></trkpt><trkpt lat="45.136596592253596" lon="8.397298374383865"><ele>133.0</ele><time>2026-04-04T15:05:55.999Z</time></trkpt><trkpt lat="45.13664027582892" lon="8.397053668871443"><ele>132.33333333333334</ele><time>2026-04-04T15:05:56.999Z</time></trkpt><trkpt lat="45.13668374351406" lon="8.396812033715353"><ele>131.66666666666666</ele><time>2026-04-04T15:05:57.999Z</time></trkpt><trkpt lat="45.13672770688459" lon="8.396576632749555"><ele>131.0</ele><time>2026-04-04T15:05:58.999Z</time></trkpt><trkpt lat="45.13676937612834" lon="8.396348467454581"><ele>132.33333333333331</ele><time>2026-04-04T15:05:59.999Z</time></trkpt><trkpt lat="45.136810997472644" lon="8.396124053908952"><ele>133.66666666666666</ele><time>2026-04-04T15:06:00.999Z</time></trkpt><trkpt lat="45.13685034605759" lon="8.395909263363587"><ele>135.0</ele><time>2026-04-04T15:06:01.999Z</time></trkpt><trkpt lat="45.13688642456805" lon="8.395706301379832"><ele>135.0</ele><time>2026-04-04T15:06:02.999Z</time></trkpt><trkpt lat="45.136920600884686" lon="8.395517353101553"><ele>135.0</ele><time>2026-04-04T15:06:03.999Z</time></trkpt><trkpt lat="45.136956470982575" lon="8.395325117524331"><ele>135.0</ele><time>2026-04-04T15:06:04.999Z</time></trkpt><trkpt lat="45.13699243776584" lon="8.39512797663495"><ele>135.0</ele><time>2026-04-04T15:06:05.999Z</time></trkpt><trkpt lat="45.13702783638868" lon="8.394943148266968"><ele>135.5</ele><time>2026-04-04T15:06:06.999Z</time></trkpt><trkpt lat="45.137065652637695" lon="8.39475041448522"><ele>136.0</ele><time>2026-04-04T15:06:07.999Z</time></trkpt><trkpt lat="45.13710557438415" lon="8.394549263782936"><ele>136.5</ele><time>2026-04-04T15:06:08.999Z</time></trkpt><trkpt lat="45.137149532400116" lon="8.394339957575573"><ele>137.0</ele><time>2026-04-04T15:06:09.999Z</time></trkpt><trkpt lat="45.13720142260771" lon="8.394121172871108"><ele>137.66666666666666</ele><time>2026-04-04T15:06:10.999Z</time></trkpt><trkpt lat="45.13725852740483" lon="8.393899100590119"><ele>138.33333333333334</ele><time>2026-04-04T15:06:11.999Z</time></trkpt><trkpt lat="45.137322469479905" lon="8.393674104852098"><ele>139.0</ele><time>2026-04-04T15:06:12.999Z</time></trkpt><trkpt lat="45.13739708953572" lon="8.393447739615022"><ele>139.0</ele><time>2026-04-04T15:06:13.999Z</time></trkpt><trkpt lat="45.13748021284209" lon="8.393220320016413"><ele>139.0</ele><time>2026-04-04T15:06:14.999Z</time></trkpt><trkpt lat="45.13756888100266" lon="8.39298687168697"><ele>139.0</ele><time>2026-04-04T15:06:15.999Z</time></trkpt><trkpt lat="45.13766221222038" lon="8.392759671877114"><ele>139.0</ele><time>2026-04-04T15:06:16.999Z</time></trkpt><trkpt lat="45.13775648389385" lon="8.392548511905018"><ele>139.0</ele><time>2026-04-04T15:06:17.999Z</time></trkpt><trkpt lat="45.13785381121602" lon="8.392344268903576"><ele>139.0</ele><time>2026-04-04T15:06:18.999Z</time></trkpt><trkpt lat="45.13795260085994" lon="8.392141978620117"><ele>140.0</ele><time>2026-04-04T15:06:19.998Z</time></trkpt><trkpt lat="45.1380513505821" lon="8.39193463000924"><ele>141.0</ele><time>2026-04-04T15:06:20.998Z</time></trkpt><trkpt lat="45.138147083163076" lon="8.391735646336246"><ele>142.0</ele><time>2026-04-04T15:06:21.998Z</time></trkpt><trkpt lat="45.138237477975096" lon="8.391549514157974"><ele>141.66666666666669</ele><time>2026-04-04T15:06:22.998Z</time></trkpt><trkpt lat="45.138326572004175" lon="8.391364707258354"><ele>141.33333333333334</ele><time>2026-04-04T15:06:23.998Z</time></trkpt><trkpt lat="45.13841347430452" lon="8.391179206489214"><ele>141.0</ele><time>2026-04-04T15:06:24.998Z</time></trkpt><trkpt lat="45.13850038683581" lon="8.390997071991809"><ele>141.0</ele><time>2026-04-04T15:06:25.998Z</time></trkpt><trkpt lat="45.1385881228277" lon="8.390817846061275"><ele>141.0</ele><time>2026-04-04T15:06:26.998Z</time></trkpt><trkpt lat="45.13868021447403" lon="8.390635005017785"><ele>141.0</ele><time>2026-04-04T15:06:27.998Z</time></trkpt><trkpt lat="45.13877101108181" lon="8.390449193384672"><ele>142.66666666666666</ele><time>2026-04-04T15:06:28.998Z</time></trkpt><trkpt lat="45.13886019753327" lon="8.390259542911773"><ele>144.33333333333331</ele><time>2026-04-04T15:06:29.998Z</time></trkpt><trkpt lat="45.138946479523625" lon="8.390074447224979"><ele>146.0</ele><time>2026-04-04T15:06:30.998Z</time></trkpt><trkpt lat="45.13902823879284" lon="8.389900821397454"><ele>144.5</ele><time>2026-04-04T15:06:31.998Z</time></trkpt><trkpt lat="45.13910813610351" lon="8.389733867721741"><ele>143.0</ele><time>2026-04-04T15:06:32.998Z</time></trkpt><trkpt lat="45.139189410745985" lon="8.389572789992217"><ele>141.5</ele><time>2026-04-04T15:06:33.998Z</time></trkpt><trkpt lat="45.13926942197287" lon="8.389413260816605"><ele>140.0</ele><time>2026-04-04T15:06:34.998Z</time></trkpt><trkpt lat="45.13934756738639" lon="8.38925341172744"><ele>140.0</ele><time>2026-04-04T15:06:35.998Z</time></trkpt><trkpt lat="45.13942362782524" lon="8.389092237439225"><ele>140.0</ele><time>2026-04-04T15:06:36.998Z</time></trkpt><trkpt lat="45.1394931713361" lon="8.388925290629594"><ele>140.0</ele><time>2026-04-04T15:06:37.998Z</time></trkpt><trkpt lat="45.13955592257407" lon="8.388754046241031"><ele>140.0</ele><time>2026-04-04T15:06:38.998Z</time></trkpt><trkpt lat="45.13961151271114" lon="8.388576596411987"><ele>140.5</ele><time>2026-04-04T15:06:39.998Z</time></trkpt><trkpt lat="45.13966359497648" lon="8.38838556334258"><ele>141.0</ele><time>2026-04-04T15:06:40.998Z</time></trkpt><trkpt lat="45.13971509052777" lon="8.388186723007747"><ele>141.5</ele><time>2026-04-04T15:06:41.998Z</time></trkpt><trkpt lat="45.139770276258254" lon="8.387983312758498"><ele>142.0</ele><time>2026-04-04T15:06:42.998Z</time></trkpt><trkpt lat="45.13982635536529" lon="8.387776174265353"><ele>142.66666666666669</ele><time>2026-04-04T15:06:43.998Z</time></trkpt><trkpt lat="45.139879762883936" lon="8.387571477675092"><ele>143.33333333333334</ele><time>2026-04-04T15:06:44.998Z</time></trkpt><trkpt lat="45.13993525883978" lon="8.387369267628292"><ele>144.0</ele><time>2026-04-04T15:06:45.998Z</time></trkpt><trkpt lat="45.13999050640518" lon="8.387169661364052"><ele>141.66666666666666</ele><time>2026-04-04T15:06:46.998Z</time></trkpt><trkpt lat="45.14004656610425" lon="8.386964986036295"><ele>139.33333333333331</ele><time>2026-04-04T15:06:47.998Z</time></trkpt><trkpt lat="45.14010380175789" lon="8.386748033449361"><ele>137.0</ele><time>2026-04-04T15:06:49Z</time></trkpt><trkpt lat="45.140160087008574" lon="8.386532498563163"><ele>137.33333333333331</ele><time>2026-04-04T15:06:50Z</time></trkpt><trkpt lat="45.14021174134913" lon="8.386309702439055"><ele>137.66666666666666</ele><time>2026-04-04T15:06:51Z</time></trkpt><trkpt lat="45.14025466972901" lon="8.386073328867239"><ele>138.0</ele><time>2026-04-04T15:06:52Z</time></trkpt><trkpt lat="45.140283981490775" lon="8.385839449155434"><ele>138.0</ele><time>2026-04-04T15:06:53Z</time></trkpt><trkpt lat="45.140301334327944" lon="8.38561728398865"><ele>138.0</ele><time>2026-04-04T15:06:54Z</time></trkpt><trkpt lat="45.14031145815127" lon="8.385405657918852"><ele>138.0</ele><time>2026-04-04T15:06:55Z</time></trkpt><trkpt lat="45.14033905409742" lon="8.385219721436462"><ele>138.0</ele><time>2026-04-04T15:06:56Z</time></trkpt><trkpt lat="45.14033776909352" lon="8.385051548722098"><ele>138.0</ele><time>2026-04-04T15:06:57Z</time></trkpt><trkpt lat="45.1403682680387" lon="8.384896758332133"><ele>138.0</ele><time>2026-04-04T15:06:58Z</time></trkpt><trkpt lat="45.140418484868746" lon="8.384761102154048"><ele>138.0</ele><time>2026-04-04T15:06:59Z</time></trkpt><trkpt lat="45.14049756014719" lon="8.384649354906434"><ele>138.0</ele><time>2026-04-04T15:07:00Z</time></trkpt><trkpt lat="45.14060329735193" lon="8.384558345520718"><ele>137.25</ele><time>2026-04-04T15:07:01Z</time></trkpt><trkpt lat="45.14072145174767" lon="8.384470848411057"><ele>136.5</ele><time>2026-04-04T15:07:02Z</time></trkpt><trkpt lat="45.140834625494136" lon="8.384399231795975"><ele>135.75</ele><time>2026-04-04T15:07:03Z</time></trkpt><trkpt lat="45.140952757573004" lon="8.384320816609222"><ele>135.0</ele><time>2026-04-04T15:07:04Z</time></trkpt><trkpt lat="45.14106624298422" lon="8.384251040827916"><ele>135.0</ele><time>2026-04-04T15:07:05Z</time></trkpt><trkpt lat="45.14118520552616" lon="8.384162994501672"><ele>135.0</ele><time>2026-04-04T15:07:06Z</time></trkpt><trkpt lat="45.14130181532622" lon="8.384054663088287"><ele>135.0</ele><time>2026-04-04T15:07:07Z</time></trkpt><trkpt lat="45.141412523272066" lon="8.383908382414132"><ele>135.0</ele><time>2026-04-04T15:07:07.999Z</time></trkpt><trkpt lat="45.14151930079532" lon="8.383742864919661"><ele>138.0</ele><time>2026-04-04T15:07:08.999Z</time></trkpt><trkpt lat="45.141623175500335" lon="8.383575802523728"><ele>141.0</ele><time>2026-04-04T15:07:09.999Z</time></trkpt><trkpt lat="45.141720808659144" lon="8.383404980138838"><ele>144.0</ele><time>2026-04-04T15:07:10.999Z</time></trkpt><trkpt lat="45.141808227236105" lon="8.383224146800142"><ele>144.0</ele><time>2026-04-04T15:07:11.999Z</time></trkpt><trkpt lat="45.14188352933544" lon="8.383039597033262"><ele>144.0</ele><time>2026-04-04T15:07:12.999Z</time></trkpt><trkpt lat="45.14194754630731" lon="8.3828294347856"><ele>144.0</ele><time>2026-04-04T15:07:13.999Z</time></trkpt><trkpt lat="45.1419999280157" lon="8.382594519754061"><ele>144.0</ele><time>2026-04-04T15:07:14.999Z</time></trkpt><trkpt lat="45.14204837189485" lon="8.382342967496912"><ele>144.0</ele><time>2026-04-04T15:07:15.999Z</time></trkpt><trkpt lat="45.142097171272034" lon="8.382084232965191"><ele>144.0</ele><time>2026-04-04T15:07:16.999Z</time></trkpt><trkpt lat="45.14214473612953" lon="8.381822610288442"><ele>144.66666666666666</ele><time>2026-04-04T15:07:17.999Z</time></trkpt><trkpt lat="45.142183118346175" lon="8.381584028161061"><ele>145.33333333333331</ele><time>2026-04-04T15:07:18.999Z</time></trkpt><trkpt lat="45.1422150722764" lon="8.381371496821494"><ele>146.0</ele><time>2026-04-04T15:07:19.999Z</time></trkpt><trkpt lat="45.14224242435567" lon="8.381175823651835"><ele>146.0</ele><time>2026-04-04T15:07:20.999Z</time></trkpt><trkpt lat="45.14226377334695" lon="8.380991021421034"><ele>146.0</ele><time>2026-04-04T15:07:21.999Z</time></trkpt><trkpt lat="45.142281176451675" lon="8.380818775809947"><ele>146.0</ele><time>2026-04-04T15:07:22.999Z</time></trkpt><trkpt lat="45.14230151334186" lon="8.380651173117199"><ele>146.0</ele><time>2026-04-04T15:07:23.999Z</time></trkpt><trkpt lat="45.14233215815808" lon="8.380474079683143"><ele>149.75</ele><time>2026-04-04T15:07:24.999Z</time></trkpt><trkpt lat="45.14239484258265" lon="8.380308673930934"><ele>153.5</ele><time>2026-04-04T15:07:25.999Z</time></trkpt><trkpt lat="45.14248149107262" lon="8.380202321555954"><ele>157.25</ele><time>2026-04-04T15:07:26.999Z</time></trkpt><trkpt lat="45.14258858231192" lon="8.38016286781601"><ele>161.0</ele><time>2026-04-04T15:07:27.999Z</time></trkpt><trkpt lat="45.14270142996784" lon="8.38019832615704"><ele>161.0</ele><time>2026-04-04T15:07:28.999Z</time></trkpt><trkpt lat="45.142807137828875" lon="8.380269935086625"><ele>161.0</ele><time>2026-04-04T15:07:29.999Z</time></trkpt><trkpt lat="45.14291078846068" lon="8.3803654885688"><ele>161.0</ele><time>2026-04-04T15:07:30.999Z</time></trkpt><trkpt lat="45.14300090235144" lon="8.380486184263534"><ele>161.0</ele><time>2026-04-04T15:07:31.999Z</time></trkpt><trkpt lat="45.14307485515077" lon="8.380604450033319"><ele>160.60000000000002</ele><time>2026-04-04T15:07:32.999Z</time></trkpt><trkpt lat="45.14314093163914" lon="8.380719093501076"><ele>160.20000000000002</ele><time>2026-04-04T15:07:33.999Z</time></trkpt><trkpt lat="45.14319880292882" lon="8.380840402222335"><ele>159.8</ele><time>2026-04-04T15:07:34.999Z</time></trkpt><trkpt lat="45.143242776485486" lon="8.380979454861679"><ele>159.4</ele><time>2026-04-04T15:07:35.999Z</time></trkpt><trkpt lat="45.143256714995125" lon="8.381142818041479"><ele>159.0</ele><time>2026-04-04T15:07:36.999Z</time></trkpt><trkpt lat="45.14323898397713" lon="8.381320107063996"><ele>158.75</ele><time>2026-04-04T15:07:37.999Z</time></trkpt><trkpt lat="45.143213892046745" lon="8.381503906114144"><ele>158.5</ele><time>2026-04-04T15:07:38.999Z</time></trkpt><trkpt lat="45.14320984139821" lon="8.381684491439122"><ele>158.25</ele><time>2026-04-04T15:07:39.999Z</time></trkpt><trkpt lat="45.14323047178966" lon="8.38184321794313"><ele>158.0</ele><time>2026-04-04T15:07:40.999Z</time></trkpt><trkpt lat="45.14327925514304" lon="8.381978639640367"><ele>161.60000000000002</ele><time>2026-04-04T15:07:41.999Z</time></trkpt><trkpt lat="45.143359086523404" lon="8.382079734909732"><ele>165.20000000000002</ele><time>2026-04-04T15:07:42.999Z</time></trkpt><trkpt lat="45.14346177988772" lon="8.382132812116625"><ele>168.8</ele><time>2026-04-04T15:07:43.999Z</time></trkpt><trkpt lat="45.143569254925886" lon="8.382118845686472"><ele>172.4</ele><time>2026-04-04T15:07:44.999Z</time></trkpt><trkpt lat="45.14365762627628" lon="8.382049456059475"><ele>176.0</ele><time>2026-04-04T15:07:45.999Z</time></trkpt><trkpt lat="45.1437115650028" lon="8.381939667996798"><ele>176.0</ele><time>2026-04-04T15:07:46.999Z</time></trkpt><trkpt lat="45.1437374379853" lon="8.381791915639644"><ele>176.0</ele><time>2026-04-04T15:07:47.999Z</time></trkpt><trkpt lat="45.14375064664607" lon="8.38162655062181"><ele>176.0</ele><time>2026-04-04T15:07:48.999Z</time></trkpt><trkpt lat="45.14375927021916" lon="8.381445626565936"><ele>176.0</ele><time>2026-04-04T15:07:49.999Z</time></trkpt><trkpt lat="45.14377150810676" lon="8.381250679040996"><ele>175.66666666666666</ele><time>2026-04-04T15:07:50.999Z</time></trkpt><trkpt lat="45.14378478611501" lon="8.381043373002193"><ele>175.33333333333334</ele><time>2026-04-04T15:07:51.999Z</time></trkpt><trkpt lat="45.143799076454144" lon="8.380826404366582"><ele>175.0</ele><time>2026-04-04T15:07:52.999Z</time></trkpt><trkpt lat="45.14381417477659" lon="8.380610657483453"><ele>175.25</ele><time>2026-04-04T15:07:53.999Z</time></trkpt><trkpt lat="45.14383204375065" lon="8.380406676756515"><ele>175.5</ele><time>2026-04-04T15:07:54.999Z</time></trkpt><trkpt lat="45.14385540492261" lon="8.380219507011791"><ele>175.75</ele><time>2026-04-04T15:07:55.999Z</time></trkpt><trkpt lat="45.14389561772013" lon="8.380049848943509"><ele>176.0</ele><time>2026-04-04T15:07:56.999Z</time></trkpt><trkpt lat="45.14397203961606" lon="8.379913265146312"><ele>179.75</ele><time>2026-04-04T15:07:57.999Z</time></trkpt><trkpt lat="45.14408382751835" lon="8.379829312633529"><ele>183.5</ele><time>2026-04-04T15:07:58.999Z</time></trkpt><trkpt lat="45.14421995030375" lon="8.379794337291258"><ele>187.25</ele><time>2026-04-04T15:07:59.999Z</time></trkpt><trkpt lat="45.14436533293906" lon="8.379818913205911"><ele>191.0</ele><time>2026-04-04T15:08:00.999Z</time></trkpt><trkpt lat="45.14450562034697" lon="8.379889266557981"><ele>191.0</ele><time>2026-04-04T15:08:01.999Z</time></trkpt><trkpt lat="45.14464287846685" lon="8.379991635706943"><ele>191.0</ele><time>2026-04-04T15:08:02.999Z</time></trkpt><trkpt lat="45.14477870036303" lon="8.380107705253835"><ele>191.0</ele><time>2026-04-04T15:08:03.999Z</time></trkpt><trkpt lat="45.1449067659804" lon="8.38020925119662"><ele>192.0</ele><time>2026-04-04T15:08:04.999Z</time></trkpt><trkpt lat="45.14504445203393" lon="8.380288980080259"><ele>193.0</ele><time>2026-04-04T15:08:05.999Z</time></trkpt><trkpt lat="45.14518495495124" lon="8.38033580641047"><ele>194.0</ele><time>2026-04-04T15:08:06.999Z</time></trkpt><trkpt lat="45.145333165578805" lon="8.380342051481076"><ele>195.0</ele><time>2026-04-04T15:08:07.999Z</time></trkpt><trkpt lat="45.14548417882109" lon="8.380301045687348"><ele>195.0</ele><time>2026-04-04T15:08:08.999Z</time></trkpt><trkpt lat="45.14563381246919" lon="8.380238422857005"><ele>195.0</ele><time>2026-04-04T15:08:09.999Z</time></trkpt><trkpt lat="45.14577931882962" lon="8.38017366178592"><ele>195.0</ele><time>2026-04-04T15:08:10.999Z</time></trkpt><trkpt lat="45.145925574210565" lon="8.380134717947358"><ele>198.0</ele><time>2026-04-04T15:08:11.999Z</time></trkpt><trkpt lat="45.14606840869217" lon="8.380118778908498"><ele>201.0</ele><time>2026-04-04T15:08:12.999Z</time></trkpt><trkpt lat="45.14620121613336" lon="8.380091903755874"><ele>204.0</ele><time>2026-04-04T15:08:13.999Z</time></trkpt><trkpt lat="45.14632364566499" lon="8.380019195369593"><ele>207.0</ele><time>2026-04-04T15:08:14.999Z</time></trkpt><trkpt lat="45.14642700521948" lon="8.37990492940258"><ele>207.0</ele><time>2026-04-04T15:08:15.999Z</time></trkpt><trkpt lat="45.14650785053709" lon="8.37977172495333"><ele>207.0</ele><time>2026-04-04T15:08:16.999Z</time></trkpt><trkpt lat="45.146572914245574" lon="8.37961497503877"><ele>207.0</ele><time>2026-04-04T15:08:17.999Z</time></trkpt><trkpt lat="45.146629382484946" lon="8.379437909093705"><ele>207.0</ele><time>2026-04-04T15:08:18.999Z</time></trkpt><trkpt lat="45.14668580115591" lon="8.379259314296883"><ele>209.5</ele><time>2026-04-04T15:08:19.999Z</time></trkpt><trkpt lat="45.14674399440843" lon="8.379079762126741"><ele>212.0</ele><time>2026-04-04T15:08:20.999Z</time></trkpt><trkpt lat="45.14680478666574" lon="8.378892425367416"><ele>214.5</ele><time>2026-04-04T15:08:21.999Z</time></trkpt><trkpt lat="45.1468631303374" lon="8.378698289237583"><ele>217.0</ele><time>2026-04-04T15:08:22.999Z</time></trkpt><trkpt lat="45.14691424405428" lon="8.378511753244457"><ele>217.0</ele><time>2026-04-04T15:08:23.999Z</time></trkpt><trkpt lat="45.146951401035025" lon="8.378327808248192"><ele>217.0</ele><time>2026-04-04T15:08:24.998Z</time></trkpt><trkpt lat="45.14698320772222" lon="8.378130446152419"><ele>217.0</ele><time>2026-04-04T15:08:25.998Z</time></trkpt><trkpt lat="45.14700920894785" lon="8.37792123657112"><ele>217.0</ele><time>2026-04-04T15:08:26.998Z</time></trkpt><trkpt lat="45.14703248855883" lon="8.377703146068903"><ele>217.66666666666666</ele><time>2026-04-04T15:08:27.998Z</time></trkpt><trkpt lat="45.14705537643024" lon="8.377484149478976"><ele>218.33333333333331</ele><time>2026-04-04T15:08:28.998Z</time></trkpt><trkpt lat="45.14707909467306" lon="8.377260885813312"><ele>219.0</ele><time>2026-04-04T15:08:29.998Z</time></trkpt><trkpt lat="45.14709910074844" lon="8.377058949708761"><ele>220.0</ele><time>2026-04-04T15:08:30.998Z</time></trkpt><trkpt lat="45.14711636183803" lon="8.3768745485064"><ele>221.0</ele><time>2026-04-04T15:08:31.998Z</time></trkpt><trkpt lat="45.14713074366725" lon="8.376706410525308"><ele>222.0</ele><time>2026-04-04T15:08:32.998Z</time></trkpt><trkpt lat="45.14714497016019" lon="8.3765562950305"><ele>223.0</ele><time>2026-04-04T15:08:33.998Z</time></trkpt><trkpt lat="45.14715738269332" lon="8.376426740021358"><ele>223.49999999999997</ele><time>2026-04-04T15:08:34.998Z</time></trkpt><trkpt lat="45.147169610369644" lon="8.376303989122263"><ele>224.0</ele><time>2026-04-04T15:08:35.998Z</time></trkpt><trkpt lat="45.14718319905682" lon="8.376176777492564"><ele>224.5</ele><time>2026-04-04T15:08:36.998Z</time></trkpt><trkpt lat="45.147194094033175" lon="8.37605961761013"><ele>225.0</ele><time>2026-04-04T15:08:37.998Z</time></trkpt><trkpt lat="45.147202934622584" lon="8.375950734826246"><ele>225.49999999999997</ele><time>2026-04-04T15:08:38.998Z</time></trkpt><trkpt lat="45.14721299991508" lon="8.37583638871625"><ele>226.0</ele><time>2026-04-04T15:08:39.998Z</time></trkpt><trkpt lat="45.14722720093402" lon="8.375720146932922"><ele>225.99999999999997</ele><time>2026-04-04T15:08:40.998Z</time></trkpt><trkpt lat="45.147241843916916" lon="8.375613425020466"><ele>226.0</ele><time>2026-04-04T15:08:41.998Z</time></trkpt><trkpt lat="45.14725651753897" lon="8.375492181678885"><ele>226.0</ele><time>2026-04-04T15:08:42.998Z</time></trkpt><trkpt lat="45.147266692981134" lon="8.375379686380215"><ele>226.0</ele><time>2026-04-04T15:08:43.998Z</time></trkpt><trkpt lat="45.14727747771696" lon="8.375270464702767"><ele>225.99999999999997</ele><time>2026-04-04T15:08:44.998Z</time></trkpt><trkpt lat="45.147289177291235" lon="8.37516566601544"><ele>226.0</ele><time>2026-04-04T15:08:45.998Z</time></trkpt><trkpt lat="45.14729794412139" lon="8.375054581222964"><ele>226.16666666666666</ele><time>2026-04-04T15:08:46.998Z</time></trkpt><trkpt lat="45.14730992285567" lon="8.374945794925262"><ele>226.33333333333331</ele><time>2026-04-04T15:08:47.998Z</time></trkpt><trkpt lat="45.147323244096995" lon="8.374835573184487"><ele>226.5</ele><time>2026-04-04T15:08:48.998Z</time></trkpt><trkpt lat="45.14733600432067" lon="8.374728674550553"><ele>226.66666666666669</ele><time>2026-04-04T15:08:49.998Z</time></trkpt><trkpt lat="45.14734652545206" lon="8.374621271199747"><ele>226.83333333333334</ele><time>2026-04-04T15:08:50.998Z</time></trkpt><trkpt lat="45.14736364076037" lon="8.37450642762918"><ele>227.0</ele><time>2026-04-04T15:08:51.998Z</time></trkpt><trkpt lat="45.14738561842472" lon="8.374385265514642"><ele>229.50000000000003</ele><time>2026-04-04T15:08:52.998Z</time></trkpt><trkpt lat="45.14741245602955" lon="8.374263561260875"><ele>232.0</ele><time>2026-04-04T15:08:53.998Z</time></trkpt><trkpt lat="45.14744422803427" lon="8.374151662234059"><ele>234.5</ele><time>2026-04-04T15:08:55Z</time></trkpt><trkpt lat="45.147478697577874" lon="8.37404605480682"><ele>237.0</ele><time>2026-04-04T15:08:56Z</time></trkpt><trkpt lat="45.147518274260264" lon="8.373940781621306"><ele>239.50000000000003</ele><time>2026-04-04T15:08:57Z</time></trkpt><trkpt lat="45.1475628699734" lon="8.373834366676912"><ele>242.0</ele><time>2026-04-04T15:08:58Z</time></trkpt><trkpt lat="45.14760288363357" lon="8.373730240815215"><ele>242.0</ele><time>2026-04-04T15:08:59Z</time></trkpt><trkpt lat="45.147634226780426" lon="8.373628919894964"><ele>241.99999999999997</ele><time>2026-04-04T15:09:00Z</time></trkpt><trkpt lat="45.1476461865646" lon="8.373521359106752"><ele>242.0</ele><time>2026-04-04T15:09:01Z</time></trkpt><trkpt lat="45.14763422991207" lon="8.373417824281812"><ele>242.0</ele><time>2026-04-04T15:09:02Z</time></trkpt><trkpt lat="45.147613800805836" lon="8.373323456706483"><ele>241.99999999999997</ele><time>2026-04-04T15:09:03Z</time></trkpt><trkpt lat="45.14759261193293" lon="8.373229892750949"><ele>242.0</ele><time>2026-04-04T15:09:04Z</time></trkpt><trkpt lat="45.147571195039006" lon="8.373138241992017"><ele>242.0</ele><time>2026-04-04T15:09:05Z</time></trkpt><trkpt lat="45.14754962650726" lon="8.373045950778703"><ele>241.85714285714283</ele><time>2026-04-04T15:09:06Z</time></trkpt><trkpt lat="45.14752487541711" lon="8.372951163429338"><ele>241.7142857142857</ele><time>2026-04-04T15:09:07Z</time></trkpt><trkpt lat="45.14749710109085" lon="8.372866235635104"><ele>241.57142857142856</ele><time>2026-04-04T15:09:08Z</time></trkpt><trkpt lat="45.14746995805913" lon="8.372781855525051"><ele>241.42857142857144</ele><time>2026-04-04T15:09:09Z</time></trkpt><trkpt lat="45.14744232290724" lon="8.3726939773311"><ele>241.2857142857143</ele><time>2026-04-04T15:09:10Z</time></trkpt><trkpt lat="45.14741250164056" lon="8.372599136775609"><ele>241.14285714285717</ele><time>2026-04-04T15:09:11Z</time></trkpt><trkpt lat="45.14737955628161" lon="8.372505138653663"><ele>241.0</ele><time>2026-04-04T15:09:12Z</time></trkpt><trkpt lat="45.14734474553645" lon="8.372412528323897"><ele>240.57142857142858</ele><time>2026-04-04T15:09:13Z</time></trkpt><trkpt lat="45.14731287153852" lon="8.3723254758948"><ele>240.14285714285717</ele><time>2026-04-04T15:09:14Z</time></trkpt><trkpt lat="45.147291860406305" lon="8.372233168325224"><ele>239.71428571428572</ele><time>2026-04-04T15:09:15Z</time></trkpt><trkpt lat="45.147275971518866" lon="8.372144988625017"><ele>239.28571428571428</ele><time>2026-04-04T15:09:15.999Z</time></trkpt><trkpt lat="45.14725733181306" lon="8.372055675955167"><ele>238.85714285714286</ele><time>2026-04-04T15:09:16.999Z</time></trkpt><trkpt lat="45.14723827029432" lon="8.371947636831816"><ele>238.42857142857144</ele><time>2026-04-04T15:09:17.999Z</time></trkpt><trkpt lat="45.147219196811136" lon="8.371836024600539"><ele>238.0</ele><time>2026-04-04T15:09:18.999Z</time></trkpt><trkpt lat="45.14720556010621" lon="8.37173985470533"><ele>237.99999999999997</ele><time>2026-04-04T15:09:19.999Z</time></trkpt><trkpt lat="45.14719139761873" lon="8.371644711650088"><ele>238.0</ele><time>2026-04-04T15:09:20.999Z</time></trkpt><trkpt lat="45.14717613876613" lon="8.371546238072028"><ele>238.0</ele><time>2026-04-04T15:09:21.999Z</time></trkpt><trkpt lat="45.147161725959855" lon="8.371449504477095"><ele>238.0</ele><time>2026-04-04T15:09:22.999Z</time></trkpt><trkpt lat="45.14714731448979" lon="8.371353883326151"><ele>237.99999999999997</ele><time>2026-04-04T15:09:23.999Z</time></trkpt><trkpt lat="45.14713393396095" lon="8.371229072612913"><ele>238.0</ele><time>2026-04-04T15:09:24.999Z</time></trkpt><trkpt lat="45.147133002662855" lon="8.37110407279112"><ele>238.2</ele><time>2026-04-04T15:09:25.999Z</time></trkpt><trkpt lat="45.14713642078368" lon="8.370965155772952"><ele>238.4</ele><time>2026-04-04T15:09:26.999Z</time></trkpt><trkpt lat="45.14715361977652" lon="8.370823488150318"><ele>238.59999999999997</ele><time>2026-04-04T15:09:27.999Z</time></trkpt><trkpt lat="45.14717897682185" lon="8.37068579559293"><ele>238.79999999999998</ele><time>2026-04-04T15:09:28.999Z</time></trkpt><trkpt lat="45.147215998353545" lon="8.370539144176163"><ele>239.0</ele><time>2026-04-04T15:09:29.999Z</time></trkpt><trkpt lat="45.147251047840456" lon="8.370389203223247"><ele>238.0</ele><time>2026-04-04T15:09:30.999Z</time></trkpt><trkpt lat="45.147283181410856" lon="8.370237171832269"><ele>236.99999999999997</ele><time>2026-04-04T15:09:31.999Z</time></trkpt><trkpt lat="45.147319793247306" lon="8.370089811694822"><ele>235.99999999999997</ele><time>2026-04-04T15:09:32.999Z</time></trkpt><trkpt lat="45.14735729879959" lon="8.369947994156062"><ele>235.0</ele><time>2026-04-04T15:09:33.999Z</time></trkpt><trkpt lat="45.14739663254141" lon="8.369814143151785"><ele>234.0</ele><time>2026-04-04T15:09:34.999Z</time></trkpt><trkpt lat="45.14743388074323" lon="8.369686655485385"><ele>236.16666666666666</ele><time>2026-04-04T15:09:35.999Z</time></trkpt><trkpt lat="45.14746670067207" lon="8.36956536432037"><ele>238.33333333333331</ele><time>2026-04-04T15:09:36.999Z</time></trkpt><trkpt lat="45.14749651127544" lon="8.369455502283738"><ele>240.5</ele><time>2026-04-04T15:09:37.999Z</time></trkpt><trkpt lat="45.147521861045966" lon="8.36935964934417"><ele>242.66666666666666</ele><time>2026-04-04T15:09:38.999Z</time></trkpt><trkpt lat="45.147551569080534" lon="8.369249102531853"><ele>244.83333333333331</ele><time>2026-04-04T15:09:39.999Z</time></trkpt><trkpt lat="45.147583862058944" lon="8.36912810838068"><ele>247.0</ele><time>2026-04-04T15:09:40.999Z</time></trkpt><trkpt lat="45.147619207065475" lon="8.369001540194976"><ele>246.99999999999997</ele><time>2026-04-04T15:09:41.999Z</time></trkpt><trkpt lat="45.147652632783924" lon="8.368880836515626"><ele>247.0</ele><time>2026-04-04T15:09:42.999Z</time></trkpt><trkpt lat="45.14768304539961" lon="8.368765185212608"><ele>247.0</ele><time>2026-04-04T15:09:43.999Z</time></trkpt><trkpt lat="45.14770866910185" lon="8.368656665839552"><ele>247.0</ele><time>2026-04-04T15:09:44.999Z</time></trkpt><trkpt lat="45.14772158798448" lon="8.368561908693128"><ele>246.99999999999997</ele><time>2026-04-04T15:09:45.999Z</time></trkpt><trkpt lat="45.147721998796705" lon="8.36842365691374"><ele>247.0</ele><time>2026-04-04T15:09:47.999Z</time></trkpt><trkpt lat="45.147734481754306" lon="8.368308355521073"><ele>248.0</ele><time>2026-04-04T15:09:50.999Z</time></trkpt><trkpt lat="45.1478589211084" lon="8.368304908716985"><ele>249.0</ele><time>2026-04-04T15:09:51.999Z</time></trkpt><trkpt lat="45.14792778520623" lon="8.36843360496159"><ele>250.0</ele><time>2026-04-04T15:09:54.999Z</time></trkpt><trkpt lat="45.147926770546505" lon="8.368170172065351"><ele>251.0</ele><time>2026-04-04T15:09:58.999Z</time></trkpt><trkpt lat="45.14795570361102" lon="8.368079973425155"><ele>251.4285714285714</ele><time>2026-04-04T15:10:00.999Z</time></trkpt><trkpt lat="45.14797507902182" lon="8.36799201454255"><ele>251.85714285714283</ele><time>2026-04-04T15:10:02.999Z</time></trkpt><trkpt lat="45.14803948212634" lon="8.367956911673224"><ele>252.28571428571428</ele><time>2026-04-04T15:11:03Z</time></trkpt><trkpt lat="45.148038603012395" lon="8.367836544066693"><ele>252.7142857142857</ele><time>2026-04-04T15:37:55.999Z</time></trkpt><trkpt lat="45.14799261216485" lon="8.367746600028852"><ele>253.1428571428571</ele><time>2026-04-04T15:37:58.999Z</time></trkpt><trkpt lat="45.147954043926426" lon="8.367847704059788"><ele>253.57142857142858</ele><time>2026-04-04T15:38:01.999Z</time></trkpt><trkpt lat="45.14793313664019" lon="8.367935309052672"><ele>254.0</ele><time>2026-04-04T15:38:03.999Z</time></trkpt><trkpt lat="45.147894344072554" lon="8.368018236366918"><ele>253.50000000000003</ele><time>2026-04-04T15:38:05.999Z</time></trkpt><trkpt lat="45.147850950891794" lon="8.368118039821725"><ele>253.0</ele><time>2026-04-04T15:38:07.999Z</time></trkpt><trkpt lat="45.1478103214954" lon="8.368223664661441"><ele>252.5</ele><time>2026-04-04T15:38:09.999Z</time></trkpt><trkpt lat="45.147765689597954" lon="8.368317323575223"><ele>252.0</ele><time>2026-04-04T15:38:11.998Z</time></trkpt><trkpt lat="45.14770798827281" lon="8.368416295982282"><ele>251.50000000000003</ele><time>2026-04-04T15:38:30Z</time></trkpt><trkpt lat="45.14767925021252" lon="8.368551730686919"><ele>251.0</ele><time>2026-04-04T15:38:32Z</time></trkpt><trkpt lat="45.147656458969124" lon="8.368741973703804"><ele>250.20000000000002</ele><time>2026-04-04T15:38:34Z</time></trkpt><trkpt lat="45.147631463704876" lon="8.368873828461654"><ele>249.40000000000003</ele><time>2026-04-04T15:38:35Z</time></trkpt><trkpt lat="45.14759660454547" lon="8.368989720982452"><ele>248.6</ele><time>2026-04-04T15:38:36Z</time></trkpt><trkpt lat="45.14756510123229" lon="8.36909878513248"><ele>247.8</ele><time>2026-04-04T15:38:37Z</time></trkpt><trkpt lat="45.14753066995234" lon="8.369218404066984"><ele>247.0</ele><time>2026-04-04T15:38:38Z</time></trkpt><trkpt lat="45.14749157717502" lon="8.36935553974421"><ele>247.0</ele><time>2026-04-04T15:38:39Z</time></trkpt><trkpt lat="45.14745060114574" lon="8.369505205072082"><ele>247.0</ele><time>2026-04-04T15:38:40Z</time></trkpt><trkpt lat="45.14741156996689" lon="8.369661612884666"><ele>247.0</ele><time>2026-04-04T15:38:41Z</time></trkpt><trkpt lat="45.147374152672256" lon="8.3698270261628"><ele>247.0</ele><time>2026-04-04T15:38:42Z</time></trkpt><trkpt lat="45.147326752114374" lon="8.369996721734427"><ele>245.0</ele><time>2026-04-04T15:38:43Z</time></trkpt><trkpt lat="45.147271534554655" lon="8.37017780739914"><ele>243.0</ele><time>2026-04-04T15:38:44Z</time></trkpt><trkpt lat="45.147217299959976" lon="8.370355643042368"><ele>241.0</ele><time>2026-04-04T15:38:45Z</time></trkpt><trkpt lat="45.14717201943939" lon="8.370521020069495"><ele>239.0</ele><time>2026-04-04T15:38:46Z</time></trkpt><trkpt lat="45.14713799557388" lon="8.370681694733802"><ele>239.0</ele><time>2026-04-04T15:38:47Z</time></trkpt><trkpt lat="45.14711634046461" lon="8.370833072684135"><ele>238.99999999999997</ele><time>2026-04-04T15:38:48Z</time></trkpt><trkpt lat="45.14709734078856" lon="8.370980182122622"><ele>238.99999999999997</ele><time>2026-04-04T15:38:49Z</time></trkpt><trkpt lat="45.14709865198071" lon="8.371118402679215"><ele>239.0</ele><time>2026-04-04T15:38:50Z</time></trkpt><trkpt lat="45.147118559768" lon="8.371259549336905"><ele>239.0</ele><time>2026-04-04T15:38:51Z</time></trkpt><trkpt lat="45.147140420020484" lon="8.3714175348647"><ele>238.75</ele><time>2026-04-04T15:38:52Z</time></trkpt><trkpt lat="45.147167542328745" lon="8.371589202768643"><ele>238.5</ele><time>2026-04-04T15:38:53Z</time></trkpt><trkpt lat="45.147203976970154" lon="8.371762331148746"><ele>238.25</ele><time>2026-04-04T15:38:53.999Z</time></trkpt><trkpt lat="45.147235047887484" lon="8.371948649803324"><ele>238.0</ele><time>2026-04-04T15:38:54.999Z</time></trkpt><trkpt lat="45.147269444827025" lon="8.372143131145327"><ele>239.0</ele><time>2026-04-04T15:38:55.999Z</time></trkpt><trkpt lat="45.147313078757065" lon="8.372341307680308"><ele>240.0</ele><time>2026-04-04T15:38:56.999Z</time></trkpt><trkpt lat="45.147381050921716" lon="8.372564297691286"><ele>241.0</ele><time>2026-04-04T15:38:57.999Z</time></trkpt><trkpt lat="45.14745953767369" lon="8.372827485712667"><ele>241.25</ele><time>2026-04-04T15:38:58.999Z</time></trkpt><trkpt lat="45.14752897485651" lon="8.373046546103836"><ele>241.5</ele><time>2026-04-04T15:38:59.999Z</time></trkpt><trkpt lat="45.14757777322914" lon="8.373252495471759"><ele>241.75</ele><time>2026-04-04T15:39:00.999Z</time></trkpt><trkpt lat="45.14760679147228" lon="8.373420863806125"><ele>242.0</ele><time>2026-04-04T15:39:01.999Z</time></trkpt><trkpt lat="45.14760542293238" lon="8.373527563398182"><ele>242.0</ele><time>2026-04-04T15:39:02.999Z</time></trkpt><trkpt lat="45.1475775227622" lon="8.373663624887254"><ele>242.0</ele><time>2026-04-04T15:39:03.999Z</time></trkpt><trkpt lat="45.14752400858599" lon="8.373785867876618"><ele>242.0</ele><time>2026-04-04T15:39:04.999Z</time></trkpt><trkpt lat="45.14747225245138" lon="8.373914633934604"><ele>242.0</ele><time>2026-04-04T15:39:05.999Z</time></trkpt><trkpt lat="45.14742258383735" lon="8.374062826299356"><ele>242.0</ele><time>2026-04-04T15:39:06.999Z</time></trkpt><trkpt lat="45.147386164092254" lon="8.374219566369824"><ele>238.5</ele><time>2026-04-04T15:39:07.999Z</time></trkpt><trkpt lat="45.147356763165334" lon="8.374378253927874"><ele>235.0</ele><time>2026-04-04T15:39:08.999Z</time></trkpt><trkpt lat="45.14732815321873" lon="8.374557303683584"><ele>231.5</ele><time>2026-04-04T15:39:09.999Z</time></trkpt><trkpt lat="45.14730861720939" lon="8.374724962261599"><ele>228.0</ele><time>2026-04-04T15:39:10.999Z</time></trkpt><trkpt lat="45.14729308927377" lon="8.374890581015853"><ele>227.75</ele><time>2026-04-04T15:39:11.999Z</time></trkpt><trkpt lat="45.1472787869423" lon="8.375057569227854"><ele>227.5</ele><time>2026-04-04T15:39:12.999Z</time></trkpt><trkpt lat="45.14726387349013" lon="8.375229096393348"><ele>227.25</ele><time>2026-04-04T15:39:13.999Z</time></trkpt><trkpt lat="45.14724527344033" lon="8.375388153979985"><ele>227.0</ele><time>2026-04-04T15:39:14.999Z</time></trkpt><trkpt lat="45.14722600762406" lon="8.375545926533935"><ele>226.8</ele><time>2026-04-04T15:39:15.999Z</time></trkpt><trkpt lat="45.14720798109049" lon="8.37570941196742"><ele>226.6</ele><time>2026-04-04T15:39:16.999Z</time></trkpt><trkpt lat="45.147191146979914" lon="8.375861300202505"><ele>226.40000000000003</ele><time>2026-04-04T15:39:17.999Z</time></trkpt><trkpt lat="45.14717600330745" lon="8.37600618512234"><ele>226.20000000000002</ele><time>2026-04-04T15:39:18.999Z</time></trkpt><trkpt lat="45.14716276244596" lon="8.376150014143644"><ele>226.0</ele><time>2026-04-04T15:39:19.999Z</time></trkpt><trkpt lat="45.14714873445923" lon="8.376289820988097"><ele>225.4</ele><time>2026-04-04T15:39:20.999Z</time></trkpt><trkpt lat="45.14713424255356" lon="8.376433365385175"><ele>224.8</ele><time>2026-04-04T15:39:21.999Z</time></trkpt><trkpt lat="45.14711986444607" lon="8.37657092163109"><ele>224.20000000000002</ele><time>2026-04-04T15:39:22.999Z</time></trkpt><trkpt lat="45.14710507477419" lon="8.376712083051562"><ele>223.60000000000002</ele><time>2026-04-04T15:39:23.999Z</time></trkpt><trkpt lat="45.14709081271254" lon="8.376853533496464"><ele>223.0</ele><time>2026-04-04T15:39:24.999Z</time></trkpt><trkpt lat="45.147074369474744" lon="8.377000913558264"><ele>223.0</ele><time>2026-04-04T15:39:25.999Z</time></trkpt><trkpt lat="45.147057698844506" lon="8.377149990528423"><ele>223.0</ele><time>2026-04-04T15:39:26.999Z</time></trkpt><trkpt lat="45.147043653427986" lon="8.377292666097764"><ele>223.0</ele><time>2026-04-04T15:39:27.999Z</time></trkpt><trkpt lat="45.14702908061126" lon="8.377426084413472"><ele>223.0</ele><time>2026-04-04T15:39:28.999Z</time></trkpt><trkpt lat="45.14701621186212" lon="8.377568669365845"><ele>223.0</ele><time>2026-04-04T15:39:29.999Z</time></trkpt><trkpt lat="45.14700122216004" lon="8.377714345713043"><ele>222.2</ele><time>2026-04-04T15:39:30.999Z</time></trkpt><trkpt lat="45.14698680835344" lon="8.377857300026573"><ele>221.4</ele><time>2026-04-04T15:39:31.999Z</time></trkpt><trkpt lat="45.146973269730836" lon="8.377992914038925"><ele>220.59999999999997</ele><time>2026-04-04T15:39:32.999Z</time></trkpt><trkpt lat="45.14695828197974" lon="8.378123113556606"><ele>219.79999999999998</ele><time>2026-04-04T15:39:33.999Z</time></trkpt><trkpt lat="45.146938195453764" lon="8.378257543668116"><ele>219.0</ele><time>2026-04-04T15:39:34.999Z</time></trkpt><trkpt lat="45.146908474487304" lon="8.378394442735548"><ele>218.79999999999998</ele><time>2026-04-04T15:39:35.999Z</time></trkpt><trkpt lat="45.14687150252749" lon="8.378533671863769"><ele>218.59999999999997</ele><time>2026-04-04T15:39:36.999Z</time></trkpt><trkpt lat="45.14682981727358" lon="8.378676907365465"><ele>218.4</ele><time>2026-04-04T15:39:37.999Z</time></trkpt><trkpt lat="45.146786955629054" lon="8.378814058163181"><ele>218.2</ele><time>2026-04-04T15:39:38.999Z</time></trkpt><trkpt lat="45.146748275954984" lon="8.378940610163871"><ele>218.0</ele><time>2026-04-04T15:39:39.999Z</time></trkpt><trkpt lat="45.146710402335565" lon="8.37906841067556"><ele>218.0</ele><time>2026-04-04T15:39:40.999Z</time></trkpt><trkpt lat="45.146670521204264" lon="8.379191192217933"><ele>218.0</ele><time>2026-04-04T15:39:41.999Z</time></trkpt><trkpt lat="45.14663004297005" lon="8.3793123195527"><ele>218.0</ele><time>2026-04-04T15:39:42.999Z</time></trkpt><trkpt lat="45.14658882972494" lon="8.37942889000094"><ele>218.0</ele><time>2026-04-04T15:39:43.999Z</time></trkpt><trkpt lat="45.146546308583716" lon="8.37955349769563"><ele>218.0</ele><time>2026-04-04T15:39:44.999Z</time></trkpt><trkpt lat="45.14650273412621" lon="8.37967155217626"><ele>215.8</ele><time>2026-04-04T15:39:45.999Z</time></trkpt><trkpt lat="45.14645456285247" lon="8.379775765049358"><ele>213.60000000000002</ele><time>2026-04-04T15:39:46.999Z</time></trkpt><trkpt lat="45.1463952303704" lon="8.37986842599369"><ele>211.39999999999998</ele><time>2026-04-04T15:39:47.999Z</time></trkpt><trkpt lat="45.14632200454952" lon="8.379947536123447"><ele>209.2</ele><time>2026-04-04T15:39:48.999Z</time></trkpt><trkpt lat="45.14624018827308" lon="8.379999918064927"><ele>207.0</ele><time>2026-04-04T15:39:49.999Z</time></trkpt><trkpt lat="45.14615006646166" lon="8.38002914206546"><ele>207.0</ele><time>2026-04-04T15:39:50.999Z</time></trkpt><trkpt lat="45.146052590830124" lon="8.380049141215045"><ele>207.0</ele><time>2026-04-04T15:39:51.999Z</time></trkpt><trkpt lat="45.145939029942014" lon="8.38006844003849"><ele>207.0</ele><time>2026-04-04T15:39:52.999Z</time></trkpt><trkpt lat="45.145803420290754" lon="8.380101989827855"><ele>207.0</ele><time>2026-04-04T15:39:53.999Z</time></trkpt><trkpt lat="45.14567492232555" lon="8.380151330842653"><ele>203.0</ele><time>2026-04-04T15:39:54.999Z</time></trkpt><trkpt lat="45.145542802190214" lon="8.380209385194341"><ele>199.0</ele><time>2026-04-04T15:39:55.999Z</time></trkpt><trkpt lat="45.145397260996276" lon="8.380265678842997"><ele>195.0</ele><time>2026-04-04T15:39:56.999Z</time></trkpt><trkpt lat="45.145235928816255" lon="8.380288892306652"><ele>195.0</ele><time>2026-04-04T15:39:57.999Z</time></trkpt><trkpt lat="45.14508500029218" lon="8.380245135127893"><ele>195.0</ele><time>2026-04-04T15:39:58.999Z</time></trkpt><trkpt lat="45.14493631694912" lon="8.380149869762763"><ele>195.0</ele><time>2026-04-04T15:39:59.999Z</time></trkpt><trkpt lat="45.144782940788474" lon="8.380030409224776"><ele>193.66666666666666</ele><time>2026-04-04T15:40:00.999Z</time></trkpt><trkpt lat="45.14461667504169" lon="8.379906824627001"><ele>192.33333333333331</ele><time>2026-04-04T15:40:01.999Z</time></trkpt><trkpt lat="45.14446449101737" lon="8.379812472546591"><ele>191.0</ele><time>2026-04-04T15:40:02.999Z</time></trkpt><trkpt lat="45.14431896532527" lon="8.37975704621504"><ele>191.0</ele><time>2026-04-04T15:40:03.999Z</time></trkpt><trkpt lat="45.14417862026709" lon="8.37973553073942"><ele>191.0</ele><time>2026-04-04T15:40:04.999Z</time></trkpt><trkpt lat="45.144051573627074" lon="8.379767427393112"><ele>191.0</ele><time>2026-04-04T15:40:05.999Z</time></trkpt><trkpt lat="45.143944354424136" lon="8.379859663082227"><ele>191.0</ele><time>2026-04-04T15:40:06.999Z</time></trkpt><trkpt lat="45.143865158061935" lon="8.379999013631531"><ele>186.0</ele><time>2026-04-04T15:40:07.999Z</time></trkpt><trkpt lat="45.143820699789366" lon="8.38018579095118"><ele>181.0</ele><time>2026-04-04T15:40:08.999Z</time></trkpt><trkpt lat="45.143798550153456" lon="8.38040280274324"><ele>176.0</ele><time>2026-04-04T15:40:09.999Z</time></trkpt><trkpt lat="45.14378661771224" lon="8.380627782045373"><ele>176.0</ele><time>2026-04-04T15:40:10.999Z</time></trkpt><trkpt lat="45.143774236108584" lon="8.380877025678508"><ele>176.0</ele><time>2026-04-04T15:40:11.999Z</time></trkpt><trkpt lat="45.143756492249125" lon="8.38113338474834"><ele>176.0</ele><time>2026-04-04T15:40:12.999Z</time></trkpt><trkpt lat="45.143740361331666" lon="8.381404299819067"><ele>176.0</ele><time>2026-04-04T15:40:13.999Z</time></trkpt><trkpt lat="45.14372695021736" lon="8.381623410492166"><ele>176.0</ele><time>2026-04-04T15:40:14.998Z</time></trkpt><trkpt lat="45.143711486717706" lon="8.381788959244894"><ele>176.0</ele><time>2026-04-04T15:40:15.998Z</time></trkpt><trkpt lat="45.14367640278875" lon="8.38191941572639"><ele>176.0</ele><time>2026-04-04T15:40:16.998Z</time></trkpt><trkpt lat="45.14361125062452" lon="8.382009705303837"><ele>176.0</ele><time>2026-04-04T15:40:17.998Z</time></trkpt><trkpt lat="45.143514060636114" lon="8.382052411841173"><ele>176.0</ele><time>2026-04-04T15:40:18.998Z</time></trkpt><trkpt lat="45.14340066803375" lon="8.382017115090257"><ele>176.0</ele><time>2026-04-04T15:40:19.998Z</time></trkpt><trkpt lat="45.14330844487828" lon="8.381920583147094"><ele>176.0</ele><time>2026-04-04T15:40:20.998Z</time></trkpt><trkpt lat="45.143255825692606" lon="8.381775486257629"><ele>176.0</ele><time>2026-04-04T15:40:22Z</time></trkpt><trkpt lat="45.143235615354584" lon="8.381593611894958"><ele>176.0</ele><time>2026-04-04T15:40:23Z</time></trkpt><trkpt lat="45.143243822582974" lon="8.38139542748093"><ele>176.0</ele><time>2026-04-04T15:40:24Z</time></trkpt><trkpt lat="45.143266018114" lon="8.381193188927286"><ele>176.0</ele><time>2026-04-04T15:40:25Z</time></trkpt><trkpt lat="45.14326919675249" lon="8.381002673661866"><ele>176.0</ele><time>2026-04-04T15:40:26Z</time></trkpt><trkpt lat="45.143239706666634" lon="8.38081924273208"><ele>171.0</ele><time>2026-04-04T15:40:27Z</time></trkpt><trkpt lat="45.14316361910411" lon="8.380642897901458"><ele>166.0</ele><time>2026-04-04T15:40:28Z</time></trkpt><trkpt lat="45.14305057296254" lon="8.380473821039178"><ele>161.0</ele><time>2026-04-04T15:40:29Z</time></trkpt><trkpt lat="45.14291078765529" lon="8.380314867888117"><ele>161.0</ele><time>2026-04-04T15:40:30Z</time></trkpt><trkpt lat="45.14277756562618" lon="8.3801912700886"><ele>161.0</ele><time>2026-04-04T15:40:31Z</time></trkpt><trkpt lat="45.142653710551485" lon="8.380116839548657"><ele>161.0</ele><time>2026-04-04T15:40:32Z</time></trkpt><trkpt lat="45.14253400093559" lon="8.380104041647245"><ele>161.0</ele><time>2026-04-04T15:40:33Z</time></trkpt><trkpt lat="45.14243251291421" lon="8.380159806061334"><ele>157.5</ele><time>2026-04-04T15:40:34Z</time></trkpt><trkpt lat="45.142359275082796" lon="8.380272738285207"><ele>154.0</ele><time>2026-04-04T15:40:35Z</time></trkpt><trkpt lat="45.142301474019405" lon="8.38042792812366"><ele>150.5</ele><time>2026-04-04T15:40:36Z</time></trkpt><trkpt lat="45.14226278076832" lon="8.380633961356896"><ele>147.0</ele><time>2026-04-04T15:40:37Z</time></trkpt><trkpt lat="45.1422352238091" lon="8.380844886934476"><ele>147.0</ele><time>2026-04-04T15:40:38Z</time></trkpt><trkpt lat="45.14221032816691" lon="8.381085032290102"><ele>147.0</ele><time>2026-04-04T15:40:39Z</time></trkpt><trkpt lat="45.14217841336269" lon="8.381344188822746"><ele>147.0</ele><time>2026-04-04T15:40:40Z</time></trkpt><trkpt lat="45.14214325129815" lon="8.38159960385485"><ele>147.0</ele><time>2026-04-04T15:40:41Z</time></trkpt><trkpt lat="45.142102405748794" lon="8.38187460816661"><ele>147.0</ele><time>2026-04-04T15:40:42Z</time></trkpt><trkpt lat="45.14204833790757" lon="8.382158007638306"><ele>147.0</ele><time>2026-04-04T15:40:43Z</time></trkpt><trkpt lat="45.141981337546355" lon="8.38245454989674"><ele>146.0</ele><time>2026-04-04T15:40:44Z</time></trkpt><trkpt lat="45.141909406029285" lon="8.382755299759818"><ele>145.0</ele><time>2026-04-04T15:40:45Z</time></trkpt><trkpt lat="45.141831131964075" lon="8.383028581744982"><ele>144.0</ele><time>2026-04-04T15:40:46Z</time></trkpt><trkpt lat="45.14173268508146" lon="8.383285399790747"><ele>144.0</ele><time>2026-04-04T15:40:47Z</time></trkpt><trkpt lat="45.14160884897548" lon="8.38352058907389"><ele>144.0</ele><time>2026-04-04T15:40:48Z</time></trkpt><trkpt lat="45.14148464950948" lon="8.383717673473518"><ele>144.0</ele><time>2026-04-04T15:40:49Z</time></trkpt><trkpt lat="45.14137035871821" lon="8.38388057502208"><ele>141.0</ele><time>2026-04-04T15:40:50Z</time></trkpt><trkpt lat="45.1412455720479" lon="8.384028550474897"><ele>138.0</ele><time>2026-04-04T15:40:51Z</time></trkpt><trkpt lat="45.141107465702994" lon="8.38414856966306"><ele>135.0</ele><time>2026-04-04T15:40:52Z</time></trkpt><trkpt lat="45.14097197874151" lon="8.384233947998492"><ele>135.0</ele><time>2026-04-04T15:40:53Z</time></trkpt><trkpt lat="45.140845777796024" lon="8.384314052181026"><ele>135.0</ele><time>2026-04-04T15:40:54Z</time></trkpt><trkpt lat="45.14073257429979" lon="8.384391195036164"><ele>135.0</ele><time>2026-04-04T15:40:55Z</time></trkpt><trkpt lat="45.14061618340158" lon="8.384473087292246"><ele>135.0</ele><time>2026-04-04T15:40:56Z</time></trkpt><trkpt lat="45.14050629104064" lon="8.38456650910085"><ele>135.75</ele><time>2026-04-04T15:40:57Z</time></trkpt><trkpt lat="45.14041637989523" lon="8.384680832079065"><ele>136.5</ele><time>2026-04-04T15:40:58Z</time></trkpt><trkpt lat="45.1403565477587" lon="8.384806255480456"><ele>137.25</ele><time>2026-04-04T15:40:59Z</time></trkpt><trkpt lat="45.14031937751512" lon="8.384960353175012"><ele>138.0</ele><time>2026-04-04T15:40:59.999Z</time></trkpt><trkpt lat="45.140304008400136" lon="8.385141162283965"><ele>138.0</ele><time>2026-04-04T15:41:00.999Z</time></trkpt><trkpt lat="45.14029528962806" lon="8.385335254326616"><ele>138.0</ele><time>2026-04-04T15:41:01.999Z</time></trkpt><trkpt lat="45.14028195548241" lon="8.385538520079189"><ele>138.0</ele><time>2026-04-04T15:41:02.999Z</time></trkpt><trkpt lat="45.1402603980355" lon="8.385752074384158"><ele>138.0</ele><time>2026-04-04T15:41:03.999Z</time></trkpt><trkpt lat="45.140233710127255" lon="8.385970520762227"><ele>138.0</ele><time>2026-04-04T15:41:04.999Z</time></trkpt><trkpt lat="45.1402028287736" lon="8.386173902874718"><ele>138.0</ele><time>2026-04-04T15:41:05.999Z</time></trkpt><trkpt lat="45.140163119511634" lon="8.386355932940154"><ele>138.0</ele><time>2026-04-04T15:41:06.999Z</time></trkpt><trkpt lat="45.14011536103241" lon="8.38653617481254"><ele>138.0</ele><time>2026-04-04T15:41:07.999Z</time></trkpt><trkpt lat="45.140064486220034" lon="8.386719121039016"><ele>137.75</ele><time>2026-04-04T15:41:08.999Z</time></trkpt><trkpt lat="45.140011930231644" lon="8.386909412599552"><ele>137.5</ele><time>2026-04-04T15:41:09.999Z</time></trkpt><trkpt lat="45.13996187852593" lon="8.387112190769146"><ele>137.25</ele><time>2026-04-04T15:41:10.999Z</time></trkpt><trkpt lat="45.13991156721634" lon="8.387313446583462"><ele>137.0</ele><time>2026-04-04T15:41:11.999Z</time></trkpt><trkpt lat="45.13985990331911" lon="8.387512661750085"><ele>138.25</ele><time>2026-04-04T15:41:12.999Z</time></trkpt><trkpt lat="45.13980730827016" lon="8.387714126707765"><ele>139.5</ele><time>2026-04-04T15:41:13.999Z</time></trkpt><trkpt lat="45.139753349864" lon="8.38791177467064"><ele>140.75</ele><time>2026-04-04T15:41:14.999Z</time></trkpt><trkpt lat="45.13970017069249" lon="8.388107733349871"><ele>142.0</ele><time>2026-04-04T15:41:15.999Z</time></trkpt><trkpt lat="45.139647853225334" lon="8.388299515841785"><ele>142.0</ele><time>2026-04-04T15:41:16.999Z</time></trkpt><trkpt lat="45.13959584810381" lon="8.388490771412599"><ele>142.0</ele><time>2026-04-04T15:41:17.999Z</time></trkpt><trkpt lat="45.1395372090663" lon="8.38868105828566"><ele>142.0</ele><time>2026-04-04T15:41:18.999Z</time></trkpt><trkpt lat="45.139462602287665" lon="8.388881267021704"><ele>141.33333333333334</ele><time>2026-04-04T15:41:19.999Z</time></trkpt><trkpt lat="45.13936952075403" lon="8.389086747390788"><ele>140.66666666666666</ele><time>2026-04-04T15:41:20.999Z</time></trkpt><trkpt lat="45.13926656769318" lon="8.389301816250088"><ele>140.0</ele><time>2026-04-04T15:41:21.999Z</time></trkpt><trkpt lat="45.13915959704644" lon="8.389522281478653"><ele>139.33333333333331</ele><time>2026-04-04T15:41:22.999Z</time></trkpt><trkpt lat="45.13905731624505" lon="8.389733285555339"><ele>138.66666666666666</ele><time>2026-04-04T15:41:23.999Z</time></trkpt><trkpt lat="45.13896303639465" lon="8.389936367378066"><ele>138.0</ele><time>2026-04-04T15:41:24.999Z</time></trkpt><trkpt lat="45.13887011274462" lon="8.390137166877158"><ele>139.0</ele><time>2026-04-04T15:41:25.999Z</time></trkpt><trkpt lat="45.13877463294396" lon="8.39034557608244"><ele>140.0</ele><time>2026-04-04T15:41:26.999Z</time></trkpt><trkpt lat="45.13867221077913" lon="8.390562311734367"><ele>141.0</ele><time>2026-04-04T15:41:27.999Z</time></trkpt><trkpt lat="45.13856362039659" lon="8.390780668442842"><ele>141.0</ele><time>2026-04-04T15:41:28.999Z</time></trkpt><trkpt lat="45.13845831638574" lon="8.39099012419658"><ele>141.0</ele><time>2026-04-04T15:41:29.999Z</time></trkpt><trkpt lat="45.13835551626889" lon="8.391196860807739"><ele>141.0</ele><time>2026-04-04T15:41:30.999Z</time></trkpt><trkpt lat="45.138256030718715" lon="8.391403821048893"><ele>141.33333333333334</ele><time>2026-04-04T15:41:31.999Z</time></trkpt><trkpt lat="45.138160172743106" lon="8.391605479109044"><ele>141.66666666666669</ele><time>2026-04-04T15:41:32.999Z</time></trkpt><trkpt lat="45.138070017802825" lon="8.391791899654196"><ele>142.0</ele><time>2026-04-04T15:41:33.999Z</time></trkpt><trkpt lat="45.137982036592355" lon="8.391969802353238"><ele>142.0</ele><time>2026-04-04T15:41:34.999Z</time></trkpt><trkpt lat="45.13789794589529" lon="8.392137326202059"><ele>142.0</ele><time>2026-04-04T15:41:35.999Z</time></trkpt><trkpt lat="45.137818432966725" lon="8.392302910003602"><ele>142.0</ele><time>2026-04-04T15:41:36.999Z</time></trkpt><trkpt lat="45.137742967464675" lon="8.39246284333865"><ele>142.0</ele><time>2026-04-04T15:41:37.999Z</time></trkpt><trkpt lat="45.137670068397696" lon="8.392623096581174"><ele>141.25</ele><time>2026-04-04T15:41:38.999Z</time></trkpt><trkpt lat="45.13760000573692" lon="8.392778395311456"><ele>140.5</ele><time>2026-04-04T15:41:39.999Z</time></trkpt><trkpt lat="45.13753249961236" lon="8.392935714548267"><ele>139.75</ele><time>2026-04-04T15:41:40.999Z</time></trkpt><trkpt lat="45.13747014995513" lon="8.39309645558594"><ele>139.0</ele><time>2026-04-04T15:41:41.999Z</time></trkpt><trkpt lat="45.13741073001233" lon="8.393261739954477"><ele>139.0</ele><time>2026-04-04T15:41:42.999Z</time></trkpt><trkpt lat="45.13735453680423" lon="8.393424926753276"><ele>139.0</ele><time>2026-04-04T15:41:43.999Z</time></trkpt><trkpt lat="45.137300996342304" lon="8.393585683917022"><ele>139.0</ele><time>2026-04-04T15:41:44.999Z</time></trkpt><trkpt lat="45.13724794043548" lon="8.393756764933912"><ele>139.0</ele><time>2026-04-04T15:41:45.999Z</time></trkpt><trkpt lat="45.13719828526875" lon="8.39394207424129"><ele>139.0</ele><time>2026-04-04T15:41:46.999Z</time></trkpt><trkpt lat="45.1371514203909" lon="8.394137045523763"><ele>139.0</ele><time>2026-04-04T15:41:47.999Z</time></trkpt><trkpt lat="45.13710648602999" lon="8.3943413811143"><ele>139.0</ele><time>2026-04-04T15:41:48.999Z</time></trkpt><trkpt lat="45.137066467910685" lon="8.394546181341799"><ele>139.0</ele><time>2026-04-04T15:41:49.999Z</time></trkpt><trkpt lat="45.137026810721025" lon="8.394758599936237"><ele>138.33333333333334</ele><time>2026-04-04T15:41:50.999Z</time></trkpt><trkpt lat="45.136986556247805" lon="8.394986557302488"><ele>137.66666666666666</ele><time>2026-04-04T15:41:51.999Z</time></trkpt><trkpt lat="45.13694447281403" lon="8.395210979026773"><ele>137.0</ele><time>2026-04-04T15:41:52.999Z</time></trkpt><trkpt lat="45.13690120680263" lon="8.395441441459566"><ele>136.33333333333331</ele><time>2026-04-04T15:41:53.999Z</time></trkpt><trkpt lat="45.136856088789585" lon="8.395691127892247"><ele>135.66666666666666</ele><time>2026-04-04T15:41:54.999Z</time></trkpt><trkpt lat="45.136813543955775" lon="8.395931448753798"><ele>135.0</ele><time>2026-04-04T15:41:55.999Z</time></trkpt><trkpt lat="45.13676752403908" lon="8.396164962462276"><ele>133.66666666666666</ele><time>2026-04-04T15:41:56.999Z</time></trkpt><trkpt lat="45.13672290350257" lon="8.3963991062946"><ele>132.33333333333331</ele><time>2026-04-04T15:41:57.999Z</time></trkpt><trkpt lat="45.13668257386683" lon="8.396619777780614"><ele>131.0</ele><time>2026-04-04T15:41:58.999Z</time></trkpt><trkpt lat="45.13664263468436" lon="8.396824524168993"><ele>131.0</ele><time>2026-04-04T15:41:59.999Z</time></trkpt><trkpt lat="45.13660573370815" lon="8.3970189240675"><ele>131.0</ele><time>2026-04-04T15:42:00.999Z</time></trkpt><trkpt lat="45.136576768789325" lon="8.397193809321028"><ele>131.0</ele><time>2026-04-04T15:42:01.999Z</time></trkpt><trkpt lat="45.13654242282227" lon="8.397375187677996"><ele>131.0</ele><time>2026-04-04T15:42:02.999Z</time></trkpt><trkpt lat="45.13650546198529" lon="8.397570392146287"><ele>134.0</ele><time>2026-04-04T15:42:03.999Z</time></trkpt><trkpt lat="45.13646229444269" lon="8.397783741732455"><ele>137.0</ele><time>2026-04-04T15:42:04.999Z</time></trkpt><trkpt lat="45.136417225913775" lon="8.398010637743964"><ele>140.0</ele><time>2026-04-04T15:42:05.999Z</time></trkpt><trkpt lat="45.136370575440004" lon="8.398244422903954"><ele>140.0</ele><time>2026-04-04T15:42:06.999Z</time></trkpt><trkpt lat="45.13632584927428" lon="8.398470685803876"><ele>140.0</ele><time>2026-04-04T15:42:07.999Z</time></trkpt><trkpt lat="45.13628308266393" lon="8.39869497443402"><ele>140.0</ele><time>2026-04-04T15:42:08.999Z</time></trkpt><trkpt lat="45.136242860747885" lon="8.398912499528313"><ele>139.5</ele><time>2026-04-04T15:42:09.999Z</time></trkpt><trkpt lat="45.13620339846759" lon="8.399114116733449"><ele>139.0</ele><time>2026-04-04T15:42:10.999Z</time></trkpt><trkpt lat="45.136165654341305" lon="8.399307090048602"><ele>138.5</ele><time>2026-04-04T15:42:11.999Z</time></trkpt><trkpt lat="45.136126475032626" lon="8.399501636320693"><ele>138.0</ele><time>2026-04-04T15:42:12.999Z</time></trkpt><trkpt lat="45.136088468640644" lon="8.399711054761223"><ele>138.0</ele><time>2026-04-04T15:42:13.999Z</time></trkpt><trkpt lat="45.13605060103502" lon="8.399915640265629"><ele>138.0</ele><time>2026-04-04T15:42:14.999Z</time></trkpt><trkpt lat="45.13601396615255" lon="8.40011092064225"><ele>138.0</ele><time>2026-04-04T15:42:15.999Z</time></trkpt><trkpt lat="45.13597604413427" lon="8.40030243698"><ele>138.0</ele><time>2026-04-04T15:42:16.999Z</time></trkpt><trkpt lat="45.13593898564143" lon="8.40050035576308"><ele>137.33333333333334</ele><time>2026-04-04T15:42:17.999Z</time></trkpt><trkpt lat="45.13590142017069" lon="8.400715582430589"><ele>136.66666666666669</ele><time>2026-04-04T15:42:18.999Z</time></trkpt><trkpt lat="45.13586360197469" lon="8.400930316398803"><ele>136.0</ele><time>2026-04-04T15:42:19.999Z</time></trkpt><trkpt lat="45.13582357606369" lon="8.4011395570433"><ele>135.33333333333334</ele><time>2026-04-04T15:42:20.998Z</time></trkpt><trkpt lat="45.13578083625165" lon="8.401346513290374"><ele>134.66666666666666</ele><time>2026-04-04T15:42:21.998Z</time></trkpt><trkpt lat="45.13572938298726" lon="8.401548361864478"><ele>134.0</ele><time>2026-04-04T15:42:22.998Z</time></trkpt><trkpt lat="45.135658987858044" lon="8.401754030237104"><ele>134.33333333333331</ele><time>2026-04-04T15:42:23.998Z</time></trkpt><trkpt lat="45.13555868878982" lon="8.401950062859157"><ele>134.66666666666666</ele><time>2026-04-04T15:42:24.998Z</time></trkpt><trkpt lat="45.13543889562461" lon="8.402117238439926"><ele>135.0</ele><time>2026-04-04T15:42:25.998Z</time></trkpt><trkpt lat="45.13530828057572" lon="8.402296822582715"><ele>135.0</ele><time>2026-04-04T15:42:26.998Z</time></trkpt><trkpt lat="45.135190451592045" lon="8.402512103692198"><ele>135.0</ele><time>2026-04-04T15:42:28Z</time></trkpt><trkpt lat="45.13510941889907" lon="8.402748165656202"><ele>135.0</ele><time>2026-04-04T15:42:29Z</time></trkpt><trkpt lat="45.135050671892266" lon="8.402991798197034"><ele>133.66666666666666</ele><time>2026-04-04T15:42:30Z</time></trkpt><trkpt lat="45.13499616204873" lon="8.403235882521091"><ele>132.33333333333331</ele><time>2026-04-04T15:42:31Z</time></trkpt><trkpt lat="45.1349460571435" lon="8.40347645767254"><ele>131.0</ele><time>2026-04-04T15:42:32Z</time></trkpt><trkpt lat="45.13489925791052" lon="8.403714189432861"><ele>133.0</ele><time>2026-04-04T15:42:33Z</time></trkpt><trkpt lat="45.134850918147364" lon="8.403953487331137"><ele>135.0</ele><time>2026-04-04T15:42:34Z</time></trkpt><trkpt lat="45.13480249491624" lon="8.40420208182842"><ele>137.0</ele><time>2026-04-04T15:42:35Z</time></trkpt><trkpt lat="45.13475526137817" lon="8.40444927939251"><ele>139.33333333333331</ele><time>2026-04-04T15:42:36Z</time></trkpt><trkpt lat="45.13470927629486" lon="8.404688661919696"><ele>141.66666666666666</ele><time>2026-04-04T15:42:37Z</time></trkpt><trkpt lat="45.134665770228054" lon="8.404919393370925"><ele>144.0</ele><time>2026-04-04T15:42:38Z</time></trkpt><trkpt lat="45.134618631431195" lon="8.405146523731743"><ele>144.0</ele><time>2026-04-04T15:42:39Z</time></trkpt><trkpt lat="45.134558582646726" lon="8.405375907170287"><ele>144.0</ele><time>2026-04-04T15:42:40Z</time></trkpt><trkpt lat="45.13448937174898" lon="8.405599550260039"><ele>144.0</ele><time>2026-04-04T15:42:41Z</time></trkpt><trkpt lat="45.134421466423504" lon="8.405796772689897"><ele>145.33333333333334</ele><time>2026-04-04T15:42:42Z</time></trkpt><trkpt lat="45.13434739735803" lon="8.406011858561328"><ele>146.66666666666669</ele><time>2026-04-04T15:42:43Z</time></trkpt><trkpt lat="45.13427417134754" lon="8.406231574707116"><ele>148.0</ele><time>2026-04-04T15:42:44Z</time></trkpt><trkpt lat="45.13420045328405" lon="8.406452959055656"><ele>148.0</ele><time>2026-04-04T15:42:45Z</time></trkpt><trkpt lat="45.134126823215865" lon="8.406669090159907"><ele>148.0</ele><time>2026-04-04T15:42:46Z</time></trkpt><trkpt lat="45.13404898645018" lon="8.406889013407453"><ele>148.0</ele><time>2026-04-04T15:42:47Z</time></trkpt><trkpt lat="45.13397133887694" lon="8.40711262755815"><ele>152.66666666666669</ele><time>2026-04-04T15:42:48Z</time></trkpt><trkpt lat="45.13389658287381" lon="8.407330480331314"><ele>157.33333333333334</ele><time>2026-04-04T15:42:49Z</time></trkpt><trkpt lat="45.13382506140528" lon="8.407537071802896"><ele>162.0</ele><time>2026-04-04T15:42:50Z</time></trkpt><trkpt lat="45.13375114397091" lon="8.407748568569207"><ele>162.0</ele><time>2026-04-04T15:42:51Z</time></trkpt><trkpt lat="45.13368010597678" lon="8.407956561587604"><ele>162.0</ele><time>2026-04-04T15:42:52Z</time></trkpt><trkpt lat="45.13361175614252" lon="8.40816126061437"><ele>162.0</ele><time>2026-04-04T15:42:53Z</time></trkpt><trkpt lat="45.133548204991584" lon="8.40836936363544"><ele>161.33333333333334</ele><time>2026-04-04T15:42:54Z</time></trkpt><trkpt lat="45.133496521554406" lon="8.408573207503007"><ele>160.66666666666669</ele><time>2026-04-04T15:42:55Z</time></trkpt><trkpt lat="45.13345490036965" lon="8.408776254617482"><ele>160.0</ele><time>2026-04-04T15:42:56Z</time></trkpt><trkpt lat="45.133426683932974" lon="8.408987573490883"><ele>159.66666666666669</ele><time>2026-04-04T15:42:57Z</time></trkpt><trkpt lat="45.133413010719536" lon="8.409227403176704"><ele>159.33333333333334</ele><time>2026-04-04T15:42:58Z</time></trkpt><trkpt lat="45.13340019130209" lon="8.409485543274126"><ele>159.0</ele><time>2026-04-04T15:42:59Z</time></trkpt><trkpt lat="45.13337109210916" lon="8.409756486242541"><ele>159.0</ele><time>2026-04-04T15:43:00Z</time></trkpt><trkpt lat="45.13334286097125" lon="8.40998984284138"><ele>159.0</ele><time>2026-04-04T15:43:01Z</time></trkpt><trkpt lat="45.13333795482973" lon="8.410194714797354"><ele>159.0</ele><time>2026-04-04T15:43:02Z</time></trkpt><trkpt lat="45.13335887196513" lon="8.410385096797143"><ele>159.0</ele><time>2026-04-04T15:43:03Z</time></trkpt><trkpt lat="45.133406018809104" lon="8.410558689044418"><ele>158.75</ele><time>2026-04-04T15:43:04Z</time></trkpt><trkpt lat="45.133463687070694" lon="8.410718350177818"><ele>158.5</ele><time>2026-04-04T15:43:05Z</time></trkpt><trkpt lat="45.13356950303564" lon="8.41081376715125"><ele>158.25</ele><time>2026-04-04T15:43:06Z</time></trkpt><trkpt lat="45.13370452310119" lon="8.410832517617536"><ele>158.0</ele><time>2026-04-04T15:43:06.999Z</time></trkpt><trkpt lat="45.13384189701041" lon="8.410894095349136"><ele>158.0</ele><time>2026-04-04T15:43:07.999Z</time></trkpt><trkpt lat="45.13396510104963" lon="8.41096070322153"><ele>158.0</ele><time>2026-04-04T15:43:08.999Z</time></trkpt><trkpt lat="45.13409984230094" lon="8.411069471840335"><ele>158.0</ele><time>2026-04-04T15:43:09.999Z</time></trkpt><trkpt lat="45.13420483807519" lon="8.411249426324291"><ele>158.66666666666666</ele><time>2026-04-04T15:43:10.999Z</time></trkpt><trkpt lat="45.134272956357734" lon="8.411454688466838"><ele>159.33333333333334</ele><time>2026-04-04T15:43:11.999Z</time></trkpt><trkpt lat="45.1343001032997" lon="8.411670922225717"><ele>160.0</ele><time>2026-04-04T15:43:12.999Z</time></trkpt><trkpt lat="45.13428436727787" lon="8.411898444504061"><ele>160.0</ele><time>2026-04-04T15:43:13.999Z</time></trkpt><trkpt lat="45.13425786729082" lon="8.412111090046155"><ele>160.0</ele><time>2026-04-04T15:43:14.999Z</time></trkpt><trkpt lat="45.13422789535665" lon="8.412318167413353"><ele>160.0</ele><time>2026-04-04T15:43:15.999Z</time></trkpt><trkpt lat="45.13419766921867" lon="8.412532367212451"><ele>160.66666666666669</ele><time>2026-04-04T15:43:16.999Z</time></trkpt><trkpt lat="45.134161921912394" lon="8.412747857975779"><ele>161.33333333333334</ele><time>2026-04-04T15:43:17.999Z</time></trkpt><trkpt lat="45.134116604815745" lon="8.412966229041476"><ele>162.0</ele><time>2026-04-04T15:43:18.999Z</time></trkpt><trkpt lat="45.134048110287665" lon="8.4131909099803"><ele>162.0</ele><time>2026-04-04T15:43:19.999Z</time></trkpt><trkpt lat="45.1339581798624" lon="8.413409631833762"><ele>162.0</ele><time>2026-04-04T15:43:20.999Z</time></trkpt><trkpt lat="45.13385893490099" lon="8.413618021712034"><ele>162.0</ele><time>2026-04-04T15:43:21.999Z</time></trkpt><trkpt lat="45.13376446554775" lon="8.413812894909595"><ele>160.75</ele><time>2026-04-04T15:43:22.999Z</time></trkpt><trkpt lat="45.13368448539615" lon="8.413991923321678"><ele>159.5</ele><time>2026-04-04T15:43:23.999Z</time></trkpt><trkpt lat="45.13361897059985" lon="8.414176562778406"><ele>158.25</ele><time>2026-04-04T15:43:24.999Z</time></trkpt><trkpt lat="45.133573981652596" lon="8.414368894310083"><ele>157.0</ele><time>2026-04-04T15:43:25.999Z</time></trkpt><trkpt lat="45.133559132313934" lon="8.414568658027873"><ele>157.5</ele><time>2026-04-04T15:43:26.999Z</time></trkpt><trkpt lat="45.133576985220124" lon="8.41476791433682"><ele>158.0</ele><time>2026-04-04T15:43:27.999Z</time></trkpt><trkpt lat="45.133629637718016" lon="8.414961102355427"><ele>158.5</ele><time>2026-04-04T15:43:28.999Z</time></trkpt><trkpt lat="45.13371197578635" lon="8.41515820273199"><ele>159.0</ele><time>2026-04-04T15:43:29.999Z</time></trkpt><trkpt lat="45.13381329103586" lon="8.415363547188846"><ele>159.33333333333334</ele><time>2026-04-04T15:43:30.999Z</time></trkpt><trkpt lat="45.133922115563585" lon="8.415574836119784"><ele>159.66666666666669</ele><time>2026-04-04T15:43:31.999Z</time></trkpt><trkpt lat="45.134020694891035" lon="8.415780194698801"><ele>160.0</ele><time>2026-04-04T15:43:32.999Z</time></trkpt><trkpt lat="45.13411715732272" lon="8.41598574366751"><ele>157.0</ele><time>2026-04-04T15:43:33.999Z</time></trkpt><trkpt lat="45.13420935402164" lon="8.416186963496063"><ele>154.0</ele><time>2026-04-04T15:43:34.999Z</time></trkpt><trkpt lat="45.134296296043665" lon="8.416379896449861"><ele>151.0</ele><time>2026-04-04T15:43:35.999Z</time></trkpt><trkpt lat="45.13437669064963" lon="8.416554209392487"><ele>151.0</ele><time>2026-04-04T15:43:36.999Z</time></trkpt><trkpt lat="45.13444783021376" lon="8.416712118743616"><ele>151.0</ele><time>2026-04-04T15:43:37.999Z</time></trkpt><trkpt lat="45.13450356173336" lon="8.416862115640825"><ele>151.0</ele><time>2026-04-04T15:43:38.999Z</time></trkpt><trkpt lat="45.13453584169524" lon="8.41702645876261"><ele>151.0</ele><time>2026-04-04T15:43:39.999Z</time></trkpt><trkpt lat="45.134541401000654" lon="8.417199969773305"><ele>149.5</ele><time>2026-04-04T15:43:40.999Z</time></trkpt><trkpt lat="45.134522207318916" lon="8.417372818194126"><ele>148.0</ele><time>2026-04-04T15:43:41.999Z</time></trkpt><trkpt lat="45.13447215992925" lon="8.417545254656993"><ele>146.5</ele><time>2026-04-04T15:43:42.999Z</time></trkpt><trkpt lat="45.13440006365333" lon="8.417717073287246"><ele>145.0</ele><time>2026-04-04T15:43:43.999Z</time></trkpt><trkpt lat="45.134319340583716" lon="8.41788168833224"><ele>143.75</ele><time>2026-04-04T15:43:44.999Z</time></trkpt><trkpt lat="45.13424566345734" lon="8.41805511453546"><ele>142.5</ele><time>2026-04-04T15:43:45.999Z</time></trkpt><trkpt lat="45.13419555792726" lon="8.418233451232943"><ele>141.25</ele><time>2026-04-04T15:43:46.999Z</time></trkpt><trkpt lat="45.134172927943645" lon="8.418411084062132"><ele>140.0</ele><time>2026-04-04T15:43:47.999Z</time></trkpt><trkpt lat="45.13418245343541" lon="8.418585878014435"><ele>140.0</ele><time>2026-04-04T15:43:48.999Z</time></trkpt><trkpt lat="45.1342176467078" lon="8.418759878611104"><ele>140.0</ele><time>2026-04-04T15:43:49.999Z</time></trkpt><trkpt lat="45.134276860240554" lon="8.418930961660108"><ele>140.0</ele><time>2026-04-04T15:43:50.999Z</time></trkpt><trkpt lat="45.1343616638243" lon="8.419112000584725"><ele>140.0</ele><time>2026-04-04T15:43:51.999Z</time></trkpt><trkpt lat="45.13446439072817" lon="8.419294285605805"><ele>140.33333333333331</ele><time>2026-04-04T15:43:52.999Z</time></trkpt><trkpt lat="45.134576454750295" lon="8.419478907107974"><ele>140.66666666666666</ele><time>2026-04-04T15:43:53.999Z</time></trkpt><trkpt lat="45.13469654994511" lon="8.419681130031615"><ele>141.0</ele><time>2026-04-04T15:43:54.999Z</time></trkpt><trkpt lat="45.13481568303326" lon="8.419889653826264"><ele>140.66666666666666</ele><time>2026-04-04T15:43:55.999Z</time></trkpt><trkpt lat="45.1349289303362" lon="8.420080485910653"><ele>140.33333333333331</ele><time>2026-04-04T15:43:56.999Z</time></trkpt><trkpt lat="45.13503531290313" lon="8.420258265384591"><ele>140.0</ele><time>2026-04-04T15:43:57.999Z</time></trkpt><trkpt lat="45.13513024102377" lon="8.420433970305936"><ele>140.66666666666666</ele><time>2026-04-04T15:43:58.999Z</time></trkpt><trkpt lat="45.13521555877243" lon="8.420623642457324"><ele>141.33333333333334</ele><time>2026-04-04T15:43:59.999Z</time></trkpt><trkpt lat="45.135287896488876" lon="8.420830930866595"><ele>142.0</ele><time>2026-04-04T15:44:00.999Z</time></trkpt><trkpt lat="45.13533462583115" lon="8.421049417850151"><ele>142.0</ele><time>2026-04-04T15:44:01.999Z</time></trkpt><trkpt lat="45.13536127178617" lon="8.421275706623922"><ele>142.0</ele><time>2026-04-04T15:44:02.999Z</time></trkpt><trkpt lat="45.13536900240114" lon="8.421511399744919"><ele>142.0</ele><time>2026-04-04T15:44:03.999Z</time></trkpt><trkpt lat="45.13536039211474" lon="8.421753164538442"><ele>142.0</ele><time>2026-04-04T15:44:04.999Z</time></trkpt><trkpt lat="45.13534762370356" lon="8.422005629081202"><ele>142.0</ele><time>2026-04-04T15:44:05.999Z</time></trkpt><trkpt lat="45.13533622955736" lon="8.422268261647224"><ele>142.0</ele><time>2026-04-04T15:44:06.999Z</time></trkpt><trkpt lat="45.13532472760837" lon="8.42254232230995"><ele>142.0</ele><time>2026-04-04T15:44:07.999Z</time></trkpt><trkpt lat="45.13531091431046" lon="8.42282824909786"><ele>142.0</ele><time>2026-04-04T15:44:08.999Z</time></trkpt><trkpt lat="45.13529563905235" lon="8.423124516674628"><ele>142.0</ele><time>2026-04-04T15:44:09.999Z</time></trkpt><trkpt lat="45.13528022978821" lon="8.423424830792316"><ele>141.33333333333334</ele><time>2026-04-04T15:44:10.999Z</time></trkpt><trkpt lat="45.13526503174803" lon="8.423704332546352"><ele>140.66666666666666</ele><time>2026-04-04T15:44:11.999Z</time></trkpt><trkpt lat="45.135248153290085" lon="8.42396789165603"><ele>140.0</ele><time>2026-04-04T15:44:12.999Z</time></trkpt><trkpt lat="45.13523321140325" lon="8.424220069137558"><ele>140.0</ele><time>2026-04-04T15:44:13.999Z</time></trkpt><trkpt lat="45.135222936505166" lon="8.424466843508021"><ele>140.0</ele><time>2026-04-04T15:44:14.999Z</time></trkpt><trkpt lat="45.13521299646987" lon="8.424700969736854"><ele>140.0</ele><time>2026-04-04T15:44:15.999Z</time></trkpt><trkpt lat="45.135200117644516" lon="8.424946796660278"><ele>138.0</ele><time>2026-04-04T15:44:16.999Z</time></trkpt><trkpt lat="45.135186773219026" lon="8.425197046243582"><ele>136.0</ele><time>2026-04-04T15:44:17.999Z</time></trkpt><trkpt lat="45.13517108408838" lon="8.425441536385117"><ele>134.0</ele><time>2026-04-04T15:44:18.999Z</time></trkpt><trkpt lat="45.135154203361125" lon="8.425679316427752"><ele>133.33333333333331</ele><time>2026-04-04T15:44:19.999Z</time></trkpt><trkpt lat="45.13513054884297" lon="8.42591874840968"><ele>132.66666666666666</ele><time>2026-04-04T15:44:20.999Z</time></trkpt><trkpt lat="45.135091530921024" lon="8.426158872498487"><ele>132.0</ele><time>2026-04-04T15:44:21.999Z</time></trkpt><trkpt lat="45.135035180451496" lon="8.426393156788548"><ele>131.33333333333334</ele><time>2026-04-04T15:44:22.999Z</time></trkpt><trkpt lat="45.13496112139006" lon="8.426621843288917"><ele>130.66666666666669</ele><time>2026-04-04T15:44:23.999Z</time></trkpt><trkpt lat="45.13487216097033" lon="8.426833762081236"><ele>130.0</ele><time>2026-04-04T15:44:24.999Z</time></trkpt><trkpt lat="45.13477441949907" lon="8.4270298046244"><ele>132.0</ele><time>2026-04-04T15:44:25.998Z</time></trkpt><trkpt lat="45.134654167041454" lon="8.427212461547901"><ele>134.0</ele><time>2026-04-04T15:44:26.998Z</time></trkpt><trkpt lat="45.13451791928874" lon="8.427378344030698"><ele>136.0</ele><time>2026-04-04T15:44:27.998Z</time></trkpt><trkpt lat="45.1343680123561" lon="8.427547022324413"><ele>136.0</ele><time>2026-04-04T15:44:28.998Z</time></trkpt><trkpt lat="45.134204712195356" lon="8.427740914924328"><ele>136.0</ele><time>2026-04-04T15:44:29.998Z</time></trkpt><trkpt lat="45.1340137839029" lon="8.42793007452325"><ele>136.0</ele><time>2026-04-04T15:44:30.998Z</time></trkpt><trkpt lat="45.13383240884214" lon="8.42816455698126"><ele>135.0</ele><time>2026-04-04T15:44:31.998Z</time></trkpt><trkpt lat="45.1337077369117" lon="8.428390286379805"><ele>134.0</ele><time>2026-04-04T15:44:32.998Z</time></trkpt><trkpt lat="45.13360452679225" lon="8.428577713004463"><ele>133.0</ele><time>2026-04-04T15:44:34Z</time></trkpt><trkpt lat="45.13354422459783" lon="8.428744091461628"><ele>132.75</ele><time>2026-04-04T15:44:35Z</time></trkpt><trkpt lat="45.13351604930056" lon="8.428916045898903"><ele>132.5</ele><time>2026-04-04T15:44:36Z</time></trkpt><trkpt lat="45.13352031020587" lon="8.429096097158709"><ele>132.25</ele><time>2026-04-04T15:44:37Z</time></trkpt><trkpt lat="45.13353237761826" lon="8.429280677082106"><ele>132.0</ele><time>2026-04-04T15:44:38Z</time></trkpt><trkpt lat="45.133594736355356" lon="8.429467722080188"><ele>132.0</ele><time>2026-04-04T15:44:39Z</time></trkpt><trkpt lat="45.13368509105183" lon="8.429627081696786"><ele>132.0</ele><time>2026-04-04T15:44:40Z</time></trkpt><trkpt lat="45.13381166091946" lon="8.429808103085485"><ele>132.0</ele><time>2026-04-04T15:44:41Z</time></trkpt><trkpt lat="45.13397340616273" lon="8.430012809986644"><ele>133.0</ele><time>2026-04-04T15:44:42Z</time></trkpt><trkpt lat="45.134153337624134" lon="8.430239718354724"><ele>134.0</ele><time>2026-04-04T15:44:43Z</time></trkpt><trkpt lat="45.13434179618472" lon="8.430477381567632"><ele>132.33333333333331</ele><time>2026-04-04T15:44:44Z</time></trkpt><trkpt lat="45.13450437106171" lon="8.430680614119849"><ele>130.66666666666666</ele><time>2026-04-04T15:44:45Z</time></trkpt><trkpt lat="45.13459330056825" lon="8.430919736293282"><ele>129.0</ele><time>2026-04-04T15:44:46Z</time></trkpt><trkpt lat="45.134652565723215" lon="8.431167406651594"><ele>130.0</ele><time>2026-04-04T15:44:47Z</time></trkpt><trkpt lat="45.13469737318468" lon="8.43140333990558"><ele>131.0</ele><time>2026-04-04T15:44:48Z</time></trkpt><trkpt lat="45.13474148198466" lon="8.431631428099129"><ele>132.0</ele><time>2026-04-04T15:44:49Z</time></trkpt><trkpt lat="45.13478052573074" lon="8.431847796904352"><ele>132.0</ele><time>2026-04-04T15:44:50Z</time></trkpt><trkpt lat="45.13481072470618" lon="8.432028843871823"><ele>132.0</ele><time>2026-04-04T15:44:51Z</time></trkpt><trkpt lat="45.13483783598279" lon="8.432192798284103"><ele>132.0</ele><time>2026-04-04T15:44:52Z</time></trkpt><trkpt lat="45.13486362466716" lon="8.43234946326656"><ele>132.0</ele><time>2026-04-04T15:44:53Z</time></trkpt><trkpt lat="45.1348866155131" lon="8.432495079589682"><ele>131.33333333333334</ele><time>2026-04-04T15:44:54Z</time></trkpt><trkpt lat="45.1349025877088" lon="8.432610415828332"><ele>130.66666666666666</ele><time>2026-04-04T15:44:55Z</time></trkpt><trkpt lat="45.134919434033314" lon="8.432719991211195"><ele>130.0</ele><time>2026-04-04T15:44:56Z</time></trkpt><trkpt lat="45.13493669233311" lon="8.43281602323086"><ele>129.33333333333331</ele><time>2026-04-04T15:44:57Z</time></trkpt><trkpt lat="45.134953508164415" lon="8.432924684617662"><ele>128.66666666666666</ele><time>2026-04-04T15:44:58Z</time></trkpt><trkpt lat="45.13496940548332" lon="8.433032949942817"><ele>128.0</ele><time>2026-04-04T15:44:59Z</time></trkpt><trkpt lat="45.13497751072666" lon="8.433134121863159"><ele>128.0</ele><time>2026-04-04T15:45:00Z</time></trkpt><trkpt lat="45.13498018471313" lon="8.433239851328818"><ele>127.99999999999999</ele><time>2026-04-04T15:45:01Z</time></trkpt><trkpt lat="45.13497672036014" lon="8.433334962986239"><ele>128.0</ele><time>2026-04-04T15:45:02Z</time></trkpt><trkpt lat="45.134970384305795" lon="8.433432393786047"><ele>128.0</ele><time>2026-04-04T15:45:03Z</time></trkpt><trkpt lat="45.13498570083832" lon="8.43352609719371"><ele>127.99999999999999</ele><time>2026-04-04T15:45:04Z</time></trkpt><trkpt lat="45.135023397994566" lon="8.433614567340364"><ele>128.0</ele><time>2026-04-04T15:45:05Z</time></trkpt><trkpt lat="45.13505685724354" lon="8.43370719491545"><ele>128.0</ele><time>2026-04-04T15:45:06Z</time></trkpt><trkpt lat="45.135082759432414" lon="8.433807253094031"><ele>127.80000000000001</ele><time>2026-04-04T15:45:07Z</time></trkpt><trkpt lat="45.13510662725785" lon="8.433916354185241"><ele>127.60000000000001</ele><time>2026-04-04T15:45:08Z</time></trkpt><trkpt lat="45.13512967229562" lon="8.434040858654736"><ele>127.39999999999999</ele><time>2026-04-04T15:45:08.999Z</time></trkpt><trkpt lat="45.13515371155106" lon="8.434174507081512"><ele>127.19999999999999</ele><time>2026-04-04T15:45:09.999Z</time></trkpt><trkpt lat="45.13517699501742" lon="8.434307928525346"><ele>127.0</ele><time>2026-04-04T15:45:10.999Z</time></trkpt><trkpt lat="45.135198616524015" lon="8.434438184291752"><ele>127.00000000000001</ele><time>2026-04-04T15:45:11.999Z</time></trkpt><trkpt lat="45.135220429555595" lon="8.434565264785101"><ele>127.0</ele><time>2026-04-04T15:45:12.999Z</time></trkpt><trkpt lat="45.13523867516516" lon="8.434670594032012"><ele>127.0</ele><time>2026-04-04T15:45:13.999Z</time></trkpt><trkpt lat="45.1352535223519" lon="8.434769482673813"><ele>127.0</ele><time>2026-04-04T15:45:14.999Z</time></trkpt><trkpt lat="45.13526831472445" lon="8.434866029688369"><ele>127.00000000000001</ele><time>2026-04-04T15:45:15.999Z</time></trkpt><trkpt lat="45.13528302013223" lon="8.434967578348388"><ele>127.0</ele><time>2026-04-04T15:45:16.999Z</time></trkpt><trkpt lat="45.135299566882395" lon="8.435069485798186"><ele>126.66666666666667</ele><time>2026-04-04T15:45:17.999Z</time></trkpt><trkpt lat="45.13531308725042" lon="8.435172573272688"><ele>126.33333333333334</ele><time>2026-04-04T15:45:18.999Z</time></trkpt><trkpt lat="45.13532677333546" lon="8.43527709328756"><ele>126.0</ele><time>2026-04-04T15:45:19.999Z</time></trkpt><trkpt lat="45.135343083800684" lon="8.43538942306213"><ele>125.66666666666666</ele><time>2026-04-04T15:45:20.999Z</time></trkpt><trkpt lat="45.13536113421004" lon="8.435507948195001"><ele>125.33333333333333</ele><time>2026-04-04T15:45:21.999Z</time></trkpt><trkpt lat="45.135378297241616" lon="8.435617911744233"><ele>125.0</ele><time>2026-04-04T15:45:22.999Z</time></trkpt><trkpt lat="45.13539433006878" lon="8.435715072854698"><ele>124.49999999999999</ele><time>2026-04-04T15:45:23.999Z</time></trkpt><trkpt lat="45.13540777322634" lon="8.435803621196929"><ele>124.0</ele><time>2026-04-04T15:45:24.999Z</time></trkpt><trkpt lat="45.13541712457211" lon="8.435892494377422"><ele>123.5</ele><time>2026-04-04T15:45:25.999Z</time></trkpt><trkpt lat="45.1354198602509" lon="8.435984178547969"><ele>123.0</ele><time>2026-04-04T15:45:26.999Z</time></trkpt><trkpt lat="45.13539742730452" lon="8.436132347776502"><ele>122.49999999999999</ele><time>2026-04-04T15:45:28.999Z</time></trkpt><trkpt lat="45.135405290521106" lon="8.436255203767054"><ele>122.0</ele><time>2026-04-04T15:45:30.999Z</time></trkpt><trkpt lat="45.135456566617115" lon="8.436353816232868"><ele>121.8</ele><time>2026-04-04T15:45:32.999Z</time></trkpt><trkpt lat="45.13550816484666" lon="8.436469444605216"><ele>121.6</ele><time>2026-04-04T15:45:34.999Z</time></trkpt><trkpt lat="45.135529860018735" lon="8.436570898391379"><ele>121.39999999999999</ele><time>2026-04-04T15:45:35.999Z</time></trkpt><trkpt lat="45.13554673416605" lon="8.43672007046708"><ele>121.19999999999999</ele><time>2026-04-04T15:45:36.999Z</time></trkpt><trkpt lat="45.135568027809995" lon="8.436865407367632"><ele>121.0</ele><time>2026-04-04T15:45:37.999Z</time></trkpt><trkpt lat="45.13558364955869" lon="8.436988362503342"><ele>121.00000000000001</ele><time>2026-04-04T15:45:38.999Z</time></trkpt><trkpt lat="45.13560451717534" lon="8.437099423530407"><ele>121.0</ele><time>2026-04-04T15:45:39.999Z</time></trkpt><trkpt lat="45.1356368336564" lon="8.437202761535605"><ele>121.0</ele><time>2026-04-04T15:45:40.999Z</time></trkpt><trkpt lat="45.135679832137285" lon="8.437299634989024"><ele>121.0</ele><time>2026-04-04T15:45:41.999Z</time></trkpt><trkpt lat="45.13572489441532" lon="8.43739102987965"><ele>121.00000000000001</ele><time>2026-04-04T15:45:42.999Z</time></trkpt><trkpt lat="45.13577042162686" lon="8.437481643136188"><ele>121.0</ele><time>2026-04-04T15:45:43.999Z</time></trkpt><trkpt lat="45.13581190207084" lon="8.43757327831799"><ele>120.33333333333334</ele><time>2026-04-04T15:45:44.999Z</time></trkpt><trkpt lat="45.13584054836916" lon="8.437674269619725"><ele>119.66666666666667</ele><time>2026-04-04T15:45:45.999Z</time></trkpt><trkpt lat="45.13585587129402" lon="8.437780258297588"><ele>119.0</ele><time>2026-04-04T15:45:46.999Z</time></trkpt><trkpt lat="45.13586435090414" lon="8.437889235623581"><ele>118.33333333333334</ele><time>2026-04-04T15:45:47.999Z</time></trkpt><trkpt lat="45.135875083866466" lon="8.438001396188566"><ele>117.66666666666667</ele><time>2026-04-04T15:45:48.999Z</time></trkpt><trkpt lat="45.13588493856205" lon="8.438112359606931"><ele>117.0</ele><time>2026-04-04T15:45:49.999Z</time></trkpt><trkpt lat="45.135894485383375" lon="8.438221571227858"><ele>117.0</ele><time>2026-04-04T15:45:50.999Z</time></trkpt><trkpt lat="45.135903905340825" lon="8.438314898606752"><ele>117.00000000000001</ele><time>2026-04-04T15:45:51.999Z</time></trkpt><trkpt lat="45.135908553384475" lon="8.438405551382155"><ele>117.0</ele><time>2026-04-04T15:45:52.999Z</time></trkpt><trkpt lat="45.13591409883796" lon="8.438497467384423"><ele>117.0</ele><time>2026-04-04T15:45:53.999Z</time></trkpt><trkpt lat="45.13591791671066" lon="8.438597878701204"><ele>117.00000000000001</ele><time>2026-04-04T15:45:54.999Z</time></trkpt><trkpt lat="45.13592030144498" lon="8.438699347076568"><ele>117.0</ele><time>2026-04-04T15:45:55.999Z</time></trkpt><trkpt lat="45.13592170097299" lon="8.438794586188752"><ele>117.0</ele><time>2026-04-04T15:45:56.999Z</time></trkpt><trkpt lat="45.135922764347946" lon="8.438897401920224"><ele>116.85714285714286</ele><time>2026-04-04T15:45:57.999Z</time></trkpt><trkpt lat="45.13592353692465" lon="8.439006090161108"><ele>116.71428571428572</ele><time>2026-04-04T15:45:58.999Z</time></trkpt><trkpt lat="45.13592301279804" lon="8.439116208685412"><ele>116.57142857142858</ele><time>2026-04-04T15:45:59.999Z</time></trkpt><trkpt lat="45.135924554239786" lon="8.439214805026268"><ele>116.42857142857144</ele><time>2026-04-04T15:46:00.999Z</time></trkpt><trkpt lat="45.135923288624085" lon="8.439315084560986"><ele>116.28571428571429</ele><time>2026-04-04T15:46:01.999Z</time></trkpt><trkpt lat="45.135924235179395" lon="8.43940537700758"><ele>116.14285714285717</ele><time>2026-04-04T15:46:02.999Z</time></trkpt><trkpt lat="45.1359210717979" lon="8.439503148980943"><ele>116.00000000000001</ele><time>2026-04-04T15:46:03.999Z</time></trkpt><trkpt lat="45.13592660599944" lon="8.439619136148824"><ele>116.19999999999999</ele><time>2026-04-04T15:46:04.999Z</time></trkpt><trkpt lat="45.13593033300396" lon="8.439753368623165"><ele>116.39999999999999</ele><time>2026-04-04T15:46:05.999Z</time></trkpt><trkpt lat="45.13593652372085" lon="8.439903671690232"><ele>116.6</ele><time>2026-04-04T15:46:06.999Z</time></trkpt><trkpt lat="45.13594453748499" lon="8.440078787498296"><ele>116.8</ele><time>2026-04-04T15:46:07.999Z</time></trkpt><trkpt lat="45.13592173593014" lon="8.440245337387951"><ele>117.0</ele><time>2026-04-04T15:46:08.999Z</time></trkpt><trkpt lat="45.13593603932872" lon="8.440380807036407"><ele>117.0</ele><time>2026-04-04T15:46:09.999Z</time></trkpt><trkpt lat="45.135931730677804" lon="8.440498734403855"><ele>117.0</ele><time>2026-04-04T15:46:10.999Z</time></trkpt><trkpt lat="45.13592640626389" lon="8.440592482792262"><ele>117.0</ele><time>2026-04-04T15:46:11.999Z</time></trkpt><trkpt lat="45.13592459510343" lon="8.440767031543908"><ele>117.0</ele><time>2026-04-04T15:46:13.999Z</time></trkpt><trkpt lat="45.135921199374486" lon="8.440865629870524"><ele>117.0</ele><time>2026-04-04T15:46:14.999Z</time></trkpt><trkpt lat="45.13591953719482" lon="8.44096157514139"><ele>117.0</ele><time>2026-04-04T15:46:15.999Z</time></trkpt><trkpt lat="45.13591679010577" lon="8.441141649118544"><ele>117.0</ele><time>2026-04-04T15:46:17.999Z</time></trkpt><trkpt lat="45.135916901803824" lon="8.4412449404544"><ele>116.99999999999999</ele><time>2026-04-04T15:46:18.999Z</time></trkpt><trkpt lat="45.13592079164387" lon="8.441376763462602"><ele>116.99999999999999</ele><time>2026-04-04T15:46:19.999Z</time></trkpt><trkpt lat="45.135925229394594" lon="8.441552538877056"><ele>117.0</ele><time>2026-04-04T15:46:20.999Z</time></trkpt><trkpt lat="45.13592370483004" lon="8.441738416180034"><ele>117.0</ele><time>2026-04-04T15:46:21.999Z</time></trkpt><trkpt lat="45.13591295865879" lon="8.441932510519504"><ele>117.25</ele><time>2026-04-04T15:46:22.999Z</time></trkpt><trkpt lat="45.135905722817995" lon="8.442113193220914"><ele>117.5</ele><time>2026-04-04T15:46:23.999Z</time></trkpt><trkpt lat="45.13590434495237" lon="8.442285574134546"><ele>117.75</ele><time>2026-04-04T15:46:24.999Z</time></trkpt><trkpt lat="45.13589693722236" lon="8.44244140787805"><ele>118.0</ele><time>2026-04-04T15:46:25.999Z</time></trkpt><trkpt lat="45.1358971254439" lon="8.44259192993791"><ele>118.00000000000001</ele><time>2026-04-04T15:46:26.999Z</time></trkpt><trkpt lat="45.13589959469792" lon="8.442723049812644"><ele>118.0</ele><time>2026-04-04T15:46:27.998Z</time></trkpt><trkpt lat="45.13590162421093" lon="8.44284649153991"><ele>118.0</ele><time>2026-04-04T15:46:28.998Z</time></trkpt><trkpt lat="45.135907046878785" lon="8.442977006267078"><ele>118.0</ele><time>2026-04-04T15:46:29.998Z</time></trkpt><trkpt lat="45.1358931546858" lon="8.443097065122357"><ele>118.00000000000001</ele><time>2026-04-04T15:46:30.998Z</time></trkpt><trkpt lat="45.135895113817256" lon="8.443218771865233"><ele>118.0</ele><time>2026-04-04T15:46:31.998Z</time></trkpt><trkpt lat="45.13589771996195" lon="8.443335252393808"><ele>118.00000000000001</ele><time>2026-04-04T15:46:32.998Z</time></trkpt><trkpt lat="45.13590017847969" lon="8.443439373439446"><ele>118.0</ele><time>2026-04-04T15:46:33.998Z</time></trkpt><trkpt lat="45.13590526033648" lon="8.443583884046966"><ele>118.0</ele><time>2026-04-04T15:46:35.998Z</time></trkpt><trkpt lat="45.135908689253064" lon="8.443681390956126"><ele>118.0</ele><time>2026-04-04T15:46:37.998Z</time></trkpt><trkpt lat="45.13591194415831" lon="8.443773949297738"><ele>118.00000000000001</ele><time>2026-04-04T15:46:40Z</time></trkpt><trkpt lat="45.135915952754466" lon="8.443906455848358"><ele>118.0</ele><time>2026-04-04T15:46:43Z</time></trkpt><trkpt lat="45.135918371576366" lon="8.443997912866353"><ele>118.0</ele><time>2026-04-04T15:46:45Z</time></trkpt><trkpt lat="45.13592115708611" lon="8.444089301325658"><ele>118.00000000000001</ele><time>2026-04-04T15:46:47Z</time></trkpt><trkpt lat="45.1359302285876" lon="8.444246118769282"><ele>118.00000000000001</ele><time>2026-04-04T15:46:49Z</time></trkpt><trkpt lat="45.135944865190126" lon="8.444357413974995"><ele>118.0</ele><time>2026-04-04T15:46:51Z</time></trkpt><trkpt lat="45.13596093574274" lon="8.444512679837056"><ele>118.0</ele><time>2026-04-04T15:46:53Z</time></trkpt><trkpt lat="45.1360445695568" lon="8.4445261171696"><ele>118.00000000000001</ele><time>2026-04-04T15:46:54Z</time></trkpt><trkpt lat="45.136121326250056" lon="8.444414315875262"><ele>118.0</ele><time>2026-04-04T15:46:55Z</time></trkpt><trkpt lat="45.13618428131198" lon="8.444380956971646"><ele>118.0</ele><time>2026-04-04T15:46:56Z</time></trkpt><trkpt lat="45.13625928555253" lon="8.444360825373614"><ele>118.0</ele><time>2026-04-04T15:46:57Z</time></trkpt><trkpt lat="45.13633851367057" lon="8.444357302679013"><ele>118.00000000000001</ele><time>2026-04-04T15:46:58Z</time></trkpt><trkpt lat="45.1364175692212" lon="8.444400082002849"><ele>118.0</ele><time>2026-04-04T15:46:59Z</time></trkpt><trkpt lat="45.13652120237502" lon="8.444421785993413"><ele>118.0</ele><time>2026-04-04T15:47:00Z</time></trkpt><trkpt lat="45.13667736225554" lon="8.444455547356766"><ele>118.0</ele><time>2026-04-04T15:47:01Z</time></trkpt><trkpt lat="45.13686666128368" lon="8.444463659616577"><ele>118.0</ele><time>2026-04-04T15:47:02Z</time></trkpt><trkpt lat="45.13706318633314" lon="8.444515210517094"><ele>118.0</ele><time>2026-04-04T15:47:03Z</time></trkpt><trkpt lat="45.137250899345666" lon="8.444563141313797"><ele>118.0</ele><time>2026-04-04T15:47:04Z</time></trkpt><trkpt lat="45.13740402405071" lon="8.444604107081759"><ele>118.0</ele><time>2026-04-04T15:47:05Z</time></trkpt><trkpt lat="45.137524760985606" lon="8.444649860071936"><ele>118.0</ele><time>2026-04-04T15:47:06Z</time></trkpt><trkpt lat="45.13762215068097" lon="8.444716165785222"><ele>118.00000000000001</ele><time>2026-04-04T15:47:07Z</time></trkpt><trkpt lat="45.13770868167734" lon="8.444802414878623"><ele>118.00000000000001</ele><time>2026-04-04T15:47:08Z</time></trkpt><trkpt lat="45.13778150233246" lon="8.44490056517531"><ele>118.0</ele><time>2026-04-04T15:47:09Z</time></trkpt><trkpt lat="45.137840522760065" lon="8.444998226291967"><ele>118.0</ele><time>2026-04-04T15:47:10Z</time></trkpt><trkpt lat="45.13789514832595" lon="8.445074154709229"><ele>118.00000000000001</ele><time>2026-04-04T15:47:11Z</time></trkpt><trkpt lat="45.13794484378558" lon="8.445139511275332"><ele>118.0</ele><time>2026-04-04T15:47:12Z</time></trkpt><trkpt lat="45.13799859564361" lon="8.445208185768077"><ele>118.0</ele><time>2026-04-04T15:47:13Z</time></trkpt><trkpt lat="45.13805310418642" lon="8.4452833414725"><ele>118.0</ele><time>2026-04-04T15:47:14Z</time></trkpt><trkpt lat="45.13811198187879" lon="8.445361843259557"><ele>118.00000000000001</ele><time>2026-04-04T15:47:15Z</time></trkpt><trkpt lat="45.13818221754527" lon="8.445454494749985"><ele>118.0</ele><time>2026-04-04T15:47:15.999Z</time></trkpt><trkpt lat="45.13825452939305" lon="8.445550457129803"><ele>117.66666666666667</ele><time>2026-04-04T15:47:16.999Z</time></trkpt><trkpt lat="45.13832439754634" lon="8.4456417891449"><ele>117.33333333333334</ele><time>2026-04-04T15:47:17.999Z</time></trkpt><trkpt lat="45.13838681817724" lon="8.445721558749543"><ele>117.0</ele><time>2026-04-04T15:47:18.999Z</time></trkpt><trkpt lat="45.13844320678219" lon="8.445793574488624"><ele>116.66666666666666</ele><time>2026-04-04T15:47:19.999Z</time></trkpt><trkpt lat="45.13848930951183" lon="8.445858159824953"><ele>116.33333333333333</ele><time>2026-04-04T15:47:20.999Z</time></trkpt><trkpt lat="45.13857763381391" lon="8.445976762227367"><ele>116.0</ele><time>2026-04-04T15:47:22.999Z</time></trkpt><trkpt lat="45.138665372060004" lon="8.446104388791902"><ele>116.0</ele><time>2026-04-04T15:47:24.999Z</time></trkpt><trkpt lat="45.13872263457936" lon="8.44624341574022"><ele>116.0</ele><time>2026-04-04T15:47:26.999Z</time></trkpt><trkpt lat="45.13875122424711" lon="8.446392798210734"><ele>116.0</ele><time>2026-04-04T15:47:28.999Z</time></trkpt><trkpt lat="45.138822797088814" lon="8.446520993049694"><ele>116.0</ele><time>2026-04-04T15:47:30.999Z</time></trkpt><trkpt lat="45.13889112044151" lon="8.446530539968744"><ele>116.0</ele><time>2026-04-04T15:47:31.999Z</time></trkpt><trkpt lat="45.13899351224577" lon="8.446492913433467"><ele>116.5</ele><time>2026-04-04T15:47:32.999Z</time></trkpt><trkpt lat="45.13910130808856" lon="8.446483800619623"><ele>117.0</ele><time>2026-04-04T15:47:33.999Z</time></trkpt><trkpt lat="45.139220991799085" lon="8.446509684691044"><ele>117.5</ele><time>2026-04-04T15:47:34.999Z</time></trkpt><trkpt lat="45.13934188987713" lon="8.446555369949248"><ele>118.0</ele><time>2026-04-04T15:47:35.999Z</time></trkpt><trkpt lat="45.139469623349214" lon="8.446607461085271"><ele>118.0</ele><time>2026-04-04T15:47:36.999Z</time></trkpt><trkpt lat="45.139597059434145" lon="8.446660750963382"><ele>118.0</ele><time>2026-04-04T15:47:37.999Z</time></trkpt><trkpt lat="45.13971291061461" lon="8.446711176264015"><ele>118.0</ele><time>2026-04-04T15:47:38.999Z</time></trkpt><trkpt lat="45.13982428620793" lon="8.446772587228025"><ele>118.0</ele><time>2026-04-04T15:47:39.999Z</time></trkpt><trkpt lat="45.13992732084367" lon="8.446853118310365"><ele>118.75</ele><time>2026-04-04T15:47:40.999Z</time></trkpt><trkpt lat="45.14002218640036" lon="8.44695462313815"><ele>119.5</ele><time>2026-04-04T15:47:41.999Z</time></trkpt><trkpt lat="45.14010733190536" lon="8.447076699724345"><ele>120.25</ele><time>2026-04-04T15:47:42.999Z</time></trkpt><trkpt lat="45.14018410574056" lon="8.447215357182301"><ele>121.0</ele><time>2026-04-04T15:47:43.999Z</time></trkpt><trkpt lat="45.14025060100528" lon="8.447362696970176"><ele>121.0</ele><time>2026-04-04T15:47:44.999Z</time></trkpt><trkpt lat="45.140310846381254" lon="8.447497019150155"><ele>121.0</ele><time>2026-04-04T15:47:45.999Z</time></trkpt><trkpt lat="45.1403616464099" lon="8.44761422130406"><ele>121.0</ele><time>2026-04-04T15:47:46.999Z</time></trkpt><trkpt lat="45.14040117881203" lon="8.447704704149896"><ele>121.0</ele><time>2026-04-04T15:47:47.999Z</time></trkpt><trkpt lat="45.14047012366828" lon="8.447848572923917"><ele>121.0</ele><time>2026-04-04T15:47:49.999Z</time></trkpt><trkpt lat="45.140530180159686" lon="8.447961847423738"><ele>121.00000000000001</ele><time>2026-04-04T15:47:51.999Z</time></trkpt><trkpt lat="45.14056881387749" lon="8.448043298840966"><ele>121.0</ele><time>2026-04-04T15:47:53.999Z</time></trkpt><trkpt lat="45.14061918088579" lon="8.448175629460147"><ele>121.0</ele><time>2026-04-04T15:47:55.999Z</time></trkpt><trkpt lat="45.140638143587296" lon="8.448303520957705"><ele>121.0</ele><time>2026-04-04T15:47:57.999Z</time></trkpt><trkpt lat="45.14068223020133" lon="8.448389827641487"><ele>121.00000000000001</ele><time>2026-04-04T15:47:59.999Z</time></trkpt><trkpt lat="45.14077538454993" lon="8.44841362373982"><ele>121.0</ele><time>2026-04-04T15:48:01.999Z</time></trkpt><trkpt lat="45.140862585454094" lon="8.448309206938953"><ele>120.0</ele><time>2026-04-04T15:48:02.999Z</time></trkpt><trkpt lat="45.14092089165539" lon="8.448189837438404"><ele>119.0</ele><time>2026-04-04T15:48:03.999Z</time></trkpt><trkpt lat="45.14102423383952" lon="8.448115950482476"><ele>118.0</ele><time>2026-04-04T15:48:04.999Z</time></trkpt><trkpt lat="45.141140485547275" lon="8.448052005557503"><ele>117.0</ele><time>2026-04-04T15:48:05.999Z</time></trkpt><trkpt lat="45.14126528319586" lon="8.447985249864658"><ele>116.0</ele><time>2026-04-04T15:48:06.999Z</time></trkpt><trkpt lat="45.141395760901425" lon="8.447910580011005"><ele>115.0</ele><time>2026-04-04T15:48:07.999Z</time></trkpt><trkpt lat="45.141526202115216" lon="8.447835642661072"><ele>114.0</ele><time>2026-04-04T15:48:08.999Z</time></trkpt><trkpt lat="45.14166583330016" lon="8.447759219995886"><ele>113.0</ele><time>2026-04-04T15:48:09.999Z</time></trkpt><trkpt lat="45.14181226806944" lon="8.44767892641108"><ele>111.0</ele><time>2026-04-04T15:48:10.999Z</time></trkpt><trkpt lat="45.14195556434291" lon="8.447598227433549"><ele>109.0</ele><time>2026-04-04T15:48:11.999Z</time></trkpt><trkpt lat="45.14210401330947" lon="8.44751481949235"><ele>107.0</ele><time>2026-04-04T15:48:12.999Z</time></trkpt><trkpt lat="45.1422700956067" lon="8.447420652691884"><ele>107.66666666666666</ele><time>2026-04-04T15:48:13.999Z</time></trkpt><trkpt lat="45.14244709711798" lon="8.447321256464512"><ele>108.33333333333334</ele><time>2026-04-04T15:48:14.999Z</time></trkpt><trkpt lat="45.14261027789885" lon="8.447222501534325"><ele>109.0</ele><time>2026-04-04T15:48:15.999Z</time></trkpt><trkpt lat="45.14271152154606" lon="8.447157210015392"><ele>109.83333333333334</ele><time>2026-04-04T15:48:16.999Z</time></trkpt><trkpt lat="45.14281492685958" lon="8.447109352665624"><ele>110.66666666666667</ele><time>2026-04-04T15:48:17.999Z</time></trkpt><trkpt lat="45.142900654756396" lon="8.447089112275615"><ele>111.5</ele><time>2026-04-04T15:48:18.999Z</time></trkpt><trkpt lat="45.142975439637496" lon="8.4470852606668"><ele>112.33333333333334</ele><time>2026-04-04T15:48:19.999Z</time></trkpt><trkpt lat="45.143046584443134" lon="8.44708614727594"><ele>113.16666666666667</ele><time>2026-04-04T15:48:20.999Z</time></trkpt><trkpt lat="45.14311851786476" lon="8.447105926586854"><ele>114.0</ele><time>2026-04-04T15:48:21.999Z</time></trkpt><trkpt lat="45.14318612957191" lon="8.447031496923428"><ele>114.42857142857142</ele><time>2026-04-04T15:48:22.999Z</time></trkpt><trkpt lat="45.14324581507823" lon="8.446966915866629"><ele>114.85714285714285</ele><time>2026-04-04T15:48:23.999Z</time></trkpt><trkpt lat="45.143300519826205" lon="8.446901473949428"><ele>115.28571428571428</ele><time>2026-04-04T15:48:24.999Z</time></trkpt><trkpt lat="45.14335849720915" lon="8.446849803368547"><ele>115.71428571428572</ele><time>2026-04-04T15:48:25.999Z</time></trkpt><trkpt lat="45.143415963903806" lon="8.446810941797551"><ele>116.14285714285715</ele><time>2026-04-04T15:48:26.999Z</time></trkpt><trkpt lat="45.14347666159802" lon="8.44677547033749"><ele>116.57142857142858</ele><time>2026-04-04T15:48:27.999Z</time></trkpt><trkpt lat="45.14354307689406" lon="8.446737651303378"><ele>117.0</ele><time>2026-04-04T15:48:28.999Z</time></trkpt><trkpt lat="45.14361369989694" lon="8.4466965225226"><ele>117.0</ele><time>2026-04-04T15:48:29.999Z</time></trkpt><trkpt lat="45.14368600196783" lon="8.44665449952403"><ele>117.0</ele><time>2026-04-04T15:48:30.999Z</time></trkpt><trkpt lat="45.14376328214358" lon="8.446609883808254"><ele>117.0</ele><time>2026-04-04T15:48:31.999Z</time></trkpt><trkpt lat="45.143842783059135" lon="8.446563768167003"><ele>117.0</ele><time>2026-04-04T15:48:32.999Z</time></trkpt><trkpt lat="45.143916939297995" lon="8.446523284359413"><ele>117.0</ele><time>2026-04-04T15:48:33.998Z</time></trkpt><trkpt lat="45.143988346931636" lon="8.44648435642808"><ele>117.0</ele><time>2026-04-04T15:48:34.998Z</time></trkpt><trkpt lat="45.14406748696904" lon="8.446441991265974"><ele>116.8</ele><time>2026-04-04T15:48:35.998Z</time></trkpt><trkpt lat="45.14415894120137" lon="8.446389800822043"><ele>116.6</ele><time>2026-04-04T15:48:36.998Z</time></trkpt><trkpt lat="45.14425299517472" lon="8.446335246981787"><ele>116.39999999999999</ele><time>2026-04-04T15:48:37.998Z</time></trkpt><trkpt lat="45.144317377879815" lon="8.446304539380895"><ele>116.19999999999999</ele><time>2026-04-04T15:48:38.998Z</time></trkpt><trkpt lat="45.14438103059424" lon="8.4463271071568"><ele>116.0</ele><time>2026-04-04T15:48:40.998Z</time></trkpt><trkpt lat="45.14442927727861" lon="8.446480999412032"><ele>116.0</ele><time>2026-04-04T15:48:42.998Z</time></trkpt><trkpt lat="45.144459957123495" lon="8.44662031014773"><ele>116.0</ele><time>2026-04-04T15:48:43.998Z</time></trkpt><trkpt lat="45.14450173860968" lon="8.446761276104443"><ele>116.0</ele><time>2026-04-04T15:48:44.998Z</time></trkpt><trkpt lat="45.14453613013876" lon="8.446881978170111"><ele>116.0</ele><time>2026-04-04T15:48:46Z</time></trkpt><trkpt lat="45.1445713348706" lon="8.447004510966423"><ele>116.0</ele><time>2026-04-04T15:48:47Z</time></trkpt><trkpt lat="45.14460459890119" lon="8.447116602328611"><ele>115.16666666666666</ele><time>2026-04-04T15:48:48Z</time></trkpt><trkpt lat="45.14463251228666" lon="8.447218937119535"><ele>114.33333333333333</ele><time>2026-04-04T15:48:49Z</time></trkpt><trkpt lat="45.14465805538053" lon="8.447315268834174"><ele>113.5</ele><time>2026-04-04T15:48:50Z</time></trkpt><trkpt lat="45.14468182548081" lon="8.447404857556508"><ele>112.66666666666666</ele><time>2026-04-04T15:48:51Z</time></trkpt><trkpt lat="45.14472950944416" lon="8.447557292849753"><ele>111.83333333333333</ele><time>2026-04-04T15:48:53Z</time></trkpt><trkpt lat="45.14477937159706" lon="8.447657051236863"><ele>111.0</ele><time>2026-04-04T15:48:55Z</time></trkpt><trkpt lat="45.14489496257789" lon="8.447611317671251"><ele>111.0</ele><time>2026-04-04T15:48:56Z</time></trkpt><trkpt lat="45.1449827617471" lon="8.447555093273236"><ele>111.0</ele><time>2026-04-04T15:48:57Z</time></trkpt><trkpt lat="45.14508905763699" lon="8.447485079946281"><ele>111.0</ele><time>2026-04-04T15:48:58Z</time></trkpt><trkpt lat="45.14520790477506" lon="8.447414987380787"><ele>111.0</ele><time>2026-04-04T15:48:59Z</time></trkpt><trkpt lat="45.14532320619901" lon="8.447347035714005"><ele>111.0</ele><time>2026-04-04T15:49:00Z</time></trkpt><trkpt lat="45.14543048413547" lon="8.447278453582758"><ele>111.0</ele><time>2026-04-04T15:49:01Z</time></trkpt><trkpt lat="45.14551830086898" lon="8.447217727435676"><ele>111.0</ele><time>2026-04-04T15:49:02Z</time></trkpt><trkpt lat="45.14559985432662" lon="8.44719454312554"><ele>111.0</ele><time>2026-04-04T15:49:03Z</time></trkpt><trkpt lat="45.14567344281168" lon="8.447152652743062"><ele>111.0</ele><time>2026-04-04T15:49:05Z</time></trkpt><trkpt lat="45.14566536852318" lon="8.446939979349866"><ele>111.5</ele><time>2026-04-04T15:49:07Z</time></trkpt><trkpt lat="45.14563762999715" lon="8.446843707657456"><ele>112.0</ele><time>2026-04-04T15:49:08Z</time></trkpt><trkpt lat="45.14565025091801" lon="8.446746124126557"><ele>112.5</ele><time>2026-04-04T15:49:10Z</time></trkpt><trkpt lat="45.14574760303992" lon="8.446713187739235"><ele>113.0</ele><time>2026-04-04T15:49:12Z</time></trkpt><trkpt lat="45.14583791444261" lon="8.446660669569413"><ele>113.5</ele><time>2026-04-04T15:49:14Z</time></trkpt><trkpt lat="45.14590451826717" lon="8.446599568814436"><ele>114.0</ele><time>2026-04-04T15:49:17Z</time></trkpt><trkpt lat="45.14584202594908" lon="8.446569710638391"><ele>114.0</ele><time>2026-04-04T15:50:57Z</time></trkpt><trkpt lat="45.14578182495772" lon="8.44652713622689"><ele>114.0</ele><time>2026-04-04T15:51:08Z</time></trkpt><trkpt lat="45.145795740877865" lon="8.446436321249632"><ele>114.0</ele><time>2026-04-04T15:51:19Z</time></trkpt><trkpt lat="45.1458463954396" lon="8.446354220562256"><ele>114.0</ele><time>2026-04-04T15:52:27.999Z</time></trkpt><trkpt lat="45.14591272590414" lon="8.446462680536555"><ele>114.0</ele><time>2026-04-04T15:52:36.999Z</time></trkpt><trkpt lat="45.145866003921434" lon="8.446268815334356"><ele>114.33333333333334</ele><time>2026-04-04T15:53:03.714Z</time></trkpt><trkpt lat="45.14587216718671" lon="8.446119506810561"><ele>114.66666666666667</ele><time>2026-04-04T15:53:08.075Z</time></trkpt><trkpt lat="45.14581341925631" lon="8.446064241328052"><ele>115.0</ele><time>2026-04-04T15:53:10.063Z</time></trkpt><trkpt lat="45.14558793820044" lon="8.445765287683512"><ele>115.0</ele><time>2026-04-04T15:53:12.998Z</time></trkpt><trkpt lat="45.14569808673819" lon="8.445896457922005"><ele>115.0</ele><time>2026-04-04T15:53:14.998Z</time></trkpt><trkpt lat="45.145776199359915" lon="8.445965617513913"><ele>115.0</ele><time>2026-04-04T15:53:15.998Z</time></trkpt><trkpt lat="45.145706733379896" lon="8.445937984454611"><ele>115.0</ele><time>2026-04-04T15:53:22Z</time></trkpt><trkpt lat="45.14577900495102" lon="8.445930935282913"><ele>115.0</ele><time>2026-04-04T15:53:33.076Z</time></trkpt><trkpt lat="45.1457378951506" lon="8.446028782372359"><ele>115.0</ele><time>2026-04-04T15:53:36.072Z</time></trkpt><trkpt lat="45.14568078632095" lon="8.446167596785724"><ele>115.0</ele><time>2026-04-04T15:53:39.073Z</time></trkpt><trkpt lat="45.14580392746215" lon="8.446283160745255"><ele>115.0</ele><time>2026-04-04T15:53:41.072Z</time></trkpt><trkpt lat="45.14573732454607" lon="8.446265333899303"><ele>115.0</ele><time>2026-04-04T15:53:49Z</time></trkpt><trkpt lat="45.14570765440479" lon="8.44618007612938"><ele>115.0</ele><time>2026-04-04T15:53:57.999Z</time></trkpt><trkpt lat="45.14580661167989" lon="8.446114876105323"><ele>115.0</ele><time>2026-04-04T15:54:00.999Z</time></trkpt><trkpt lat="45.14572098993716" lon="8.446177544914638"><ele>115.0</ele><time>2026-04-04T15:54:05.999Z</time></trkpt><trkpt lat="45.145658463522516" lon="8.446199667356847"><ele>115.0</ele><time>2026-04-04T15:54:07.999Z</time></trkpt><trkpt lat="45.14576587324031" lon="8.446163292252045"><ele>115.0</ele><time>2026-04-04T15:54:33.362Z</time></trkpt><trkpt lat="45.145668354379865" lon="8.445986042954956"><ele>115.0</ele><time>2026-04-04T15:54:49.999Z</time></trkpt><trkpt lat="45.14562594292098" lon="8.445905561055985"><ele>115.0</ele><time>2026-04-04T15:54:50.999Z</time></trkpt><trkpt lat="45.145759767917504" lon="8.445919162125284"><ele>115.0</ele><time>2026-04-04T15:55:00.022Z</time></trkpt><trkpt lat="45.145790288001514" lon="8.446022968418191"><ele>115.0</ele><time>2026-04-04T15:55:06.464Z</time></trkpt><trkpt lat="45.14583133754652" lon="8.446159320647983"><ele>115.0</ele><time>2026-04-04T15:55:12.456Z</time></trkpt><trkpt lat="45.145749548383385" lon="8.446493333153537"><ele>115.0</ele><time>2026-04-04T15:56:25.057Z</time></trkpt><trkpt lat="45.14579164325242" lon="8.446423669751447"><ele>115.0</ele><time>2026-04-04T15:56:37Z</time></trkpt><trkpt lat="45.14564356182228" lon="8.446466550527035"><ele>115.0</ele><time>2026-04-04T15:57:42.999Z</time></trkpt><trkpt lat="45.145726263614264" lon="8.446285809195816"><ele>115.0</ele><time>2026-04-04T15:59:01Z</time></trkpt><trkpt lat="45.14584763628567" lon="8.446350610677856"><ele>114.85714285714283</ele><time>2026-04-04T16:00:46Z</time></trkpt><trkpt lat="45.14585364419766" lon="8.446447621997605"><ele>114.71428571428571</ele><time>2026-04-04T16:01:05Z</time></trkpt><trkpt lat="45.14584554512084" lon="8.4465443962894"><ele>114.57142857142856</ele><time>2026-04-04T16:01:13Z</time></trkpt><trkpt lat="45.145901497579096" lon="8.44659388485529"><ele>114.42857142857142</ele><time>2026-04-04T16:01:22Z</time></trkpt><trkpt lat="45.1458381182247" lon="8.44659294579043"><ele>114.28571428571428</ele><time>2026-04-04T16:12:05.999Z</time></trkpt><trkpt lat="45.14578254879522" lon="8.446548685080836"><ele>114.14285714285714</ele><time>2026-04-04T16:12:12.999Z</time></trkpt><trkpt lat="45.145710859259594" lon="8.446554733864144"><ele>114.0</ele><time>2026-04-04T16:12:42.999Z</time></trkpt><trkpt lat="45.14577736888349" lon="8.446590104457716"><ele>114.0</ele><time>2026-04-04T16:13:36Z</time></trkpt><trkpt lat="45.14583397658913" lon="8.446648621956232"><ele>113.99999999999999</ele><time>2026-04-04T16:13:41Z</time></trkpt><trkpt lat="45.145901071994764" lon="8.446675592158396"><ele>114.0</ele><time>2026-04-04T16:13:48Z</time></trkpt><trkpt lat="45.14594003995471" lon="8.446604424218227"><ele>114.0</ele><time>2026-04-04T16:18:30.999Z</time></trkpt><trkpt lat="45.145850775803744" lon="8.446621530514628"><ele>113.99999999999999</ele><time>2026-04-04T16:21:17.999Z</time></trkpt><trkpt lat="45.14578600216862" lon="8.446648042110168"><ele>114.0</ele><time>2026-04-04T16:21:19.999Z</time></trkpt><trkpt lat="45.14570293776369" lon="8.446687331164545"><ele>114.0</ele><time>2026-04-04T16:21:21.999Z</time></trkpt><trkpt lat="45.14563907268745" lon="8.446727518967215"><ele>114.4</ele><time>2026-04-04T16:21:24.999Z</time></trkpt><trkpt lat="45.14556837584648" lon="8.446642727709841"><ele>114.80000000000001</ele><time>2026-04-04T16:21:55Z</time></trkpt><trkpt lat="45.14552454268653" lon="8.446488220907087"><ele>115.19999999999999</ele><time>2026-04-04T16:21:57Z</time></trkpt><trkpt lat="45.145498504374224" lon="8.44638522597392"><ele>115.6</ele><time>2026-04-04T16:21:58Z</time></trkpt><trkpt lat="45.14546817532197" lon="8.446259517751173"><ele>116.0</ele><time>2026-04-04T16:21:59Z</time></trkpt><trkpt lat="45.14543975186829" lon="8.44613784231237"><ele>115.99999999999999</ele><time>2026-04-04T16:22:00Z</time></trkpt><trkpt lat="45.14540657491982" lon="8.446034014857839"><ele>116.0</ele><time>2026-04-04T16:22:01Z</time></trkpt><trkpt lat="45.14537831748148" lon="8.44595017014909"><ele>116.0</ele><time>2026-04-04T16:22:02Z</time></trkpt><trkpt lat="45.14534690733254" lon="8.445825020895125"><ele>116.0</ele><time>2026-04-04T16:22:04Z</time></trkpt><trkpt lat="45.145428941993124" lon="8.445771315597652"><ele>115.99999999999999</ele><time>2026-04-04T16:22:08Z</time></trkpt><trkpt lat="45.14549972865212" lon="8.44581855906153"><ele>116.0</ele><time>2026-04-04T16:22:10Z</time></trkpt><trkpt lat="45.145514382248074" lon="8.445722866725548"><ele>115.99999999999999</ele><time>2026-04-04T16:22:12Z</time></trkpt><trkpt lat="45.14556584824582" lon="8.445835278371161"><ele>116.0</ele><time>2026-04-04T16:22:13Z</time></trkpt><trkpt lat="45.14565010333083" lon="8.44579135640883"><ele>116.0</ele><time>2026-04-04T16:25:28.999Z</time></trkpt><trkpt lat="45.145704615902055" lon="8.445733342905934"><ele>116.0</ele><time>2026-04-04T16:25:30.999Z</time></trkpt><trkpt lat="45.14568191988204" lon="8.445624850953108"><ele>115.99999999999999</ele><time>2026-04-04T16:25:33.999Z</time></trkpt><trkpt lat="45.14558965530989" lon="8.445593157757836"><ele>116.0</ele><time>2026-04-04T16:25:35.999Z</time></trkpt><trkpt lat="45.14551972441352" lon="8.445626413045833"><ele>116.0</ele><time>2026-04-04T16:25:36.999Z</time></trkpt><trkpt lat="45.1454390667698" lon="8.44566662264303"><ele>116.0</ele><time>2026-04-04T16:25:37.999Z</time></trkpt><trkpt lat="45.14535040290833" lon="8.44570979521215"><ele>116.0</ele><time>2026-04-04T16:25:38.999Z</time></trkpt><trkpt lat="45.14523042497799" lon="8.445766829380045"><ele>116.0</ele><time>2026-04-04T16:25:39.999Z</time></trkpt><trkpt lat="45.14506784886033" lon="8.445856188954744"><ele>116.0</ele><time>2026-04-04T16:25:40.999Z</time></trkpt><trkpt lat="45.144900461977464" lon="8.445950774333307"><ele>116.0</ele><time>2026-04-04T16:25:41.999Z</time></trkpt><trkpt lat="45.144768326067194" lon="8.446003395220247"><ele>116.0</ele><time>2026-04-04T16:25:42.999Z</time></trkpt><trkpt lat="45.14466532591116" lon="8.446060642805548"><ele>116.0</ele><time>2026-04-04T16:25:43.999Z</time></trkpt><trkpt lat="45.14456459905533" lon="8.446117502369114"><ele>116.0</ele><time>2026-04-04T16:25:44.999Z</time></trkpt><trkpt lat="45.14444707428318" lon="8.446183957567612"><ele>116.0</ele><time>2026-04-04T16:25:45.999Z</time></trkpt><trkpt lat="45.144299799518855" lon="8.446266926224165"><ele>116.0</ele><time>2026-04-04T16:25:46.999Z</time></trkpt><trkpt lat="45.14413616604046" lon="8.446358684521009"><ele>116.33333333333333</ele><time>2026-04-04T16:25:47.999Z</time></trkpt><trkpt lat="45.14397813737671" lon="8.44648785100898"><ele>116.66666666666666</ele><time>2026-04-04T16:25:48.999Z</time></trkpt><trkpt lat="45.14383156496001" lon="8.446563580141268"><ele>117.0</ele><time>2026-04-04T16:25:49.999Z</time></trkpt><trkpt lat="45.14369550228954" lon="8.446638012966648"><ele>117.0</ele><time>2026-04-04T16:25:50.999Z</time></trkpt><trkpt lat="45.14357106718421" lon="8.446704707137648"><ele>116.99999999999999</ele><time>2026-04-04T16:25:52Z</time></trkpt><trkpt lat="45.143459655610364" lon="8.44676274140347"><ele>116.99999999999999</ele><time>2026-04-04T16:25:53Z</time></trkpt><trkpt lat="45.14336313054475" lon="8.446794629272084"><ele>117.0</ele><time>2026-04-04T16:25:54Z</time></trkpt><trkpt lat="45.14326988779472" lon="8.446777942998768"><ele>117.0</ele><time>2026-04-04T16:25:55Z</time></trkpt><trkpt lat="45.143164746153055" lon="8.446777813543942"><ele>116.5</ele><time>2026-04-04T16:25:56Z</time></trkpt><trkpt lat="45.14308478039961" lon="8.44668208690002"><ele>116.0</ele><time>2026-04-04T16:25:57Z</time></trkpt><trkpt lat="45.143009959941196" lon="8.446695945918346"><ele>115.5</ele><time>2026-04-04T16:25:58Z</time></trkpt><trkpt lat="45.14295185560474" lon="8.446760080691917"><ele>115.0</ele><time>2026-04-04T16:25:59Z</time></trkpt><trkpt lat="45.14292371852336" lon="8.446866409506653"><ele>114.5</ele><time>2026-04-04T16:26:00Z</time></trkpt><trkpt lat="45.14286023737397" lon="8.446946306833292"><ele>114.0</ele><time>2026-04-04T16:26:01Z</time></trkpt><trkpt lat="45.142768940287255" lon="8.447027364581368"><ele>114.0</ele><time>2026-04-04T16:26:02Z</time></trkpt><trkpt lat="45.142656596824814" lon="8.447111789734905"><ele>114.0</ele><time>2026-04-04T16:26:03Z</time></trkpt><trkpt lat="45.14252875145789" lon="8.447179744594097"><ele>114.0</ele><time>2026-04-04T16:26:04Z</time></trkpt><trkpt lat="45.14238246685182" lon="8.447251954886806"><ele>114.0</ele><time>2026-04-04T16:26:05Z</time></trkpt><trkpt lat="45.14224555880245" lon="8.44732720851822"><ele>112.25</ele><time>2026-04-04T16:26:06Z</time></trkpt><trkpt lat="45.14211876642509" lon="8.447400752420853"><ele>110.5</ele><time>2026-04-04T16:26:07Z</time></trkpt><trkpt lat="45.142001571462835" lon="8.447470934316842"><ele>108.75</ele><time>2026-04-04T16:26:08Z</time></trkpt><trkpt lat="45.14188296048946" lon="8.44754490499651"><ele>107.0</ele><time>2026-04-04T16:26:09Z</time></trkpt><trkpt lat="45.141757600757956" lon="8.447620288237971"><ele>107.0</ele><time>2026-04-04T16:26:10Z</time></trkpt><trkpt lat="45.141630277674864" lon="8.447698037054558"><ele>107.0</ele><time>2026-04-04T16:26:11Z</time></trkpt><trkpt lat="45.1414863909963" lon="8.44778610582709"><ele>107.0</ele><time>2026-04-04T16:26:12Z</time></trkpt><trkpt lat="45.141349369747076" lon="8.447869186362844"><ele>107.0</ele><time>2026-04-04T16:26:13Z</time></trkpt><trkpt lat="45.141229782444626" lon="8.447936405316057"><ele>109.0</ele><time>2026-04-04T16:26:14Z</time></trkpt><trkpt lat="45.141121453563635" lon="8.447995378012335"><ele>110.99999999999999</ele><time>2026-04-04T16:26:15Z</time></trkpt><trkpt lat="45.1410239457939" lon="8.4480479006477"><ele>112.99999999999999</ele><time>2026-04-04T16:26:16Z</time></trkpt><trkpt lat="45.14094254495087" lon="8.448092873373009"><ele>115.0</ele><time>2026-04-04T16:26:17Z</time></trkpt><trkpt lat="45.14086305331199" lon="8.448137702233344"><ele>117.0</ele><time>2026-04-04T16:26:19Z</time></trkpt><trkpt lat="45.140741494075144" lon="8.44814900040916"><ele>117.0</ele><time>2026-04-04T16:26:23Z</time></trkpt><trkpt lat="45.14065001638259" lon="8.44821318007904"><ele>116.99999999999999</ele><time>2026-04-04T16:26:25Z</time></trkpt><trkpt lat="45.140654742119914" lon="8.448357665563792"><ele>116.99999999999999</ele><time>2026-04-04T16:26:27Z</time></trkpt><trkpt lat="45.140696915473136" lon="8.448466919521929"><ele>117.0</ele><time>2026-04-04T16:26:28Z</time></trkpt><trkpt lat="45.14075223988993" lon="8.448616023962074"><ele>117.0</ele><time>2026-04-04T16:26:29Z</time></trkpt><trkpt lat="45.14078975574453" lon="8.448810265533833"><ele>117.33333333333334</ele><time>2026-04-04T16:26:30Z</time></trkpt><trkpt lat="45.14081007924536" lon="8.449039424203542"><ele>117.66666666666667</ele><time>2026-04-04T16:26:31Z</time></trkpt><trkpt lat="45.14083218129066" lon="8.449288959505335"><ele>118.0</ele><time>2026-04-04T16:26:32Z</time></trkpt><trkpt lat="45.140859467972675" lon="8.449549791240106"><ele>118.33333333333334</ele><time>2026-04-04T16:26:33Z</time></trkpt><trkpt lat="45.140882523437995" lon="8.44982761153486"><ele>118.66666666666666</ele><time>2026-04-04T16:26:34Z</time></trkpt><trkpt lat="45.1409022855588" lon="8.450064214751288"><ele>119.0</ele><time>2026-04-04T16:26:35Z</time></trkpt><trkpt lat="45.140917087710825" lon="8.450263309950689"><ele>119.0</ele><time>2026-04-04T16:26:36Z</time></trkpt><trkpt lat="45.14092517026061" lon="8.450426242728735"><ele>119.0</ele><time>2026-04-04T16:26:37Z</time></trkpt><trkpt lat="45.14091408850372" lon="8.450576591009359"><ele>119.0</ele><time>2026-04-04T16:26:38Z</time></trkpt><trkpt lat="45.14088181455773" lon="8.450724656130712"><ele>119.0</ele><time>2026-04-04T16:26:39Z</time></trkpt><trkpt lat="45.14086008065056" lon="8.45083821497775"><ele>119.0</ele><time>2026-04-04T16:26:40Z</time></trkpt><trkpt lat="45.14092170966026" lon="8.451006594539535"><ele>118.75</ele><time>2026-04-04T16:26:42Z</time></trkpt><trkpt lat="45.14100924295409" lon="8.451120669482632"><ele>118.5</ele><time>2026-04-04T16:26:43Z</time></trkpt><trkpt lat="45.14108761381554" lon="8.451279224946589"><ele>118.25</ele><time>2026-04-04T16:26:44Z</time></trkpt><trkpt lat="45.14112985381655" lon="8.451468506374788"><ele>118.0</ele><time>2026-04-04T16:26:45Z</time></trkpt><trkpt lat="45.141147208509224" lon="8.451672223257654"><ele>117.80000000000001</ele><time>2026-04-04T16:26:46Z</time></trkpt><trkpt lat="45.141131981532645" lon="8.451858136686027"><ele>117.60000000000001</ele><time>2026-04-04T16:26:47Z</time></trkpt><trkpt lat="45.14112888080699" lon="8.452010971080053"><ele>117.39999999999999</ele><time>2026-04-04T16:26:47.999Z</time></trkpt><trkpt lat="45.14113712900852" lon="8.452148742000638"><ele>117.19999999999999</ele><time>2026-04-04T16:26:48.999Z</time></trkpt><trkpt lat="45.14111558219098" lon="8.45229713063968"><ele>117.0</ele><time>2026-04-04T16:26:49.999Z</time></trkpt><trkpt lat="45.14108742077079" lon="8.452433364345564"><ele>116.75</ele><time>2026-04-04T16:26:50.999Z</time></trkpt><trkpt lat="45.141104428761615" lon="8.452601173104224"><ele>116.5</ele><time>2026-04-04T16:26:51.999Z</time></trkpt><trkpt lat="45.14110361590488" lon="8.452797568772962"><ele>116.25</ele><time>2026-04-04T16:26:52.999Z</time></trkpt><trkpt lat="45.141089464194565" lon="8.453027057324459"><ele>116.0</ele><time>2026-04-04T16:26:53.999Z</time></trkpt><trkpt lat="45.141068303764875" lon="8.45329755744436"><ele>115.0</ele><time>2026-04-04T16:26:54.999Z</time></trkpt><trkpt lat="45.14105463725886" lon="8.45360049109354"><ele>114.0</ele><time>2026-04-04T16:26:55.999Z</time></trkpt><trkpt lat="45.14098801015302" lon="8.453854751534157"><ele>113.0</ele><time>2026-04-04T16:26:56.999Z</time></trkpt><trkpt lat="45.1409298099412" lon="8.454059870555783"><ele>112.80000000000001</ele><time>2026-04-04T16:26:57.999Z</time></trkpt><trkpt lat="45.14085753087906" lon="8.45422347508275"><ele>112.60000000000001</ele><time>2026-04-04T16:26:58.999Z</time></trkpt><trkpt lat="45.14078915129068" lon="8.454369795509995"><ele>112.39999999999999</ele><time>2026-04-04T16:26:59.999Z</time></trkpt><trkpt lat="45.14073660799509" lon="8.454493718389173"><ele>112.19999999999999</ele><time>2026-04-04T16:27:00.999Z</time></trkpt><trkpt lat="45.140696549698546" lon="8.454588195528517"><ele>112.0</ele><time>2026-04-04T16:27:01.999Z</time></trkpt><trkpt lat="45.140638335652596" lon="8.45472223361649"><ele>113.0</ele><time>2026-04-04T16:27:03.999Z</time></trkpt><trkpt lat="45.14057835146854" lon="8.454811937857118"><ele>113.99999999999999</ele><time>2026-04-04T16:27:05.999Z</time></trkpt><trkpt lat="45.1404790528791" lon="8.454889351515169"><ele>114.99999999999999</ele><time>2026-04-04T16:27:07.999Z</time></trkpt><trkpt lat="45.14044803454752" lon="8.454969243381662"><ele>116.0</ele><time>2026-04-04T16:27:08.999Z</time></trkpt><trkpt lat="45.14038128694041" lon="8.455073099429935"><ele>117.0</ele><time>2026-04-04T16:27:09.999Z</time></trkpt><trkpt lat="45.14040459733951" lon="8.455232386442201"><ele>117.0</ele><time>2026-04-04T16:27:10.999Z</time></trkpt><trkpt lat="45.140370333790806" lon="8.455378653729008"><ele>117.0</ele><time>2026-04-04T16:27:11.999Z</time></trkpt><trkpt lat="45.14031902604571" lon="8.45554160984755"><ele>117.0</ele><time>2026-04-04T16:27:12.999Z</time></trkpt><trkpt lat="45.14026564779535" lon="8.45570887992335"><ele>117.0</ele><time>2026-04-04T16:27:13.999Z</time></trkpt><trkpt lat="45.1402008429077" lon="8.455899916898224"><ele>116.75</ele><time>2026-04-04T16:27:14.999Z</time></trkpt><trkpt lat="45.14013895430204" lon="8.456078794394692"><ele>116.5</ele><time>2026-04-04T16:27:15.999Z</time></trkpt><trkpt lat="45.14008166637985" lon="8.45624029868714"><ele>116.25</ele><time>2026-04-04T16:27:16.999Z</time></trkpt><trkpt lat="45.14002941943659" lon="8.456393027745259"><ele>116.0</ele><time>2026-04-04T16:27:17.999Z</time></trkpt><trkpt lat="45.13998139270187" lon="8.456531925877606"><ele>115.99999999999999</ele><time>2026-04-04T16:27:18.999Z</time></trkpt><trkpt lat="45.13993533764308" lon="8.45665872405896"><ele>116.0</ele><time>2026-04-04T16:27:19.999Z</time></trkpt><trkpt lat="45.1398940271348" lon="8.45677325948068"><ele>116.0</ele><time>2026-04-04T16:27:20.999Z</time></trkpt><trkpt lat="45.139857212472215" lon="8.45687766851771"><ele>116.0</ele><time>2026-04-04T16:27:21.999Z</time></trkpt><trkpt lat="45.13982186220061" lon="8.456977506858282"><ele>115.99999999999999</ele><time>2026-04-04T16:27:22.999Z</time></trkpt><trkpt lat="45.139769841288555" lon="8.457070944023698"><ele>116.0</ele><time>2026-04-04T16:27:23.999Z</time></trkpt><trkpt lat="45.13972324983543" lon="8.457200802678706"><ele>116.0</ele><time>2026-04-04T16:27:24.999Z</time></trkpt><trkpt lat="45.139665987010915" lon="8.457357631728328"><ele>116.0</ele><time>2026-04-04T16:27:25.999Z</time></trkpt><trkpt lat="45.13959721318338" lon="8.45754318874861"><ele>116.0</ele><time>2026-04-04T16:27:26.999Z</time></trkpt><trkpt lat="45.13951864059579" lon="8.457743649526838"><ele>116.0</ele><time>2026-04-04T16:27:27.999Z</time></trkpt><trkpt lat="45.13943119960419" lon="8.457959764155863"><ele>115.33333333333333</ele><time>2026-04-04T16:27:28.999Z</time></trkpt><trkpt lat="45.139338492886" lon="8.458165439930529"><ele>114.66666666666666</ele><time>2026-04-04T16:27:29.999Z</time></trkpt><trkpt lat="45.13924703013555" lon="8.458339683056474"><ele>114.0</ele><time>2026-04-04T16:27:30.999Z</time></trkpt><trkpt lat="45.13914051475283" lon="8.458527870231523"><ele>114.0</ele><time>2026-04-04T16:27:31.999Z</time></trkpt><trkpt lat="45.138999929057" lon="8.45874784988041"><ele>114.0</ele><time>2026-04-04T16:27:32.999Z</time></trkpt><trkpt lat="45.13882646609093" lon="8.458977790205845"><ele>114.0</ele><time>2026-04-04T16:27:33.999Z</time></trkpt><trkpt lat="45.13863319000947" lon="8.45920413341545"><ele>114.0</ele><time>2026-04-04T16:27:34.999Z</time></trkpt><trkpt lat="45.138436621621196" lon="8.459452465394358"><ele>114.0</ele><time>2026-04-04T16:27:35.999Z</time></trkpt><trkpt lat="45.1382683200092" lon="8.459626061721073"><ele>114.33333333333334</ele><time>2026-04-04T16:27:36.999Z</time></trkpt><trkpt lat="45.138120678224986" lon="8.45978105764778"><ele>114.66666666666667</ele><time>2026-04-04T16:27:37.999Z</time></trkpt><trkpt lat="45.13798765761434" lon="8.459915126953268"><ele>115.0</ele><time>2026-04-04T16:27:38.999Z</time></trkpt><trkpt lat="45.13786737795528" lon="8.460028470436763"><ele>115.0</ele><time>2026-04-04T16:27:39.999Z</time></trkpt><trkpt lat="45.13775834397711" lon="8.460125215197332"><ele>115.0</ele><time>2026-04-04T16:27:40.999Z</time></trkpt><trkpt lat="45.13765945898609" lon="8.460195675241943"><ele>115.0</ele><time>2026-04-04T16:27:41.999Z</time></trkpt><trkpt lat="45.13756643417251" lon="8.460233853696574"><ele>115.0</ele><time>2026-04-04T16:27:42.999Z</time></trkpt><trkpt lat="45.13748955269095" lon="8.460246267597606"><ele>115.0</ele><time>2026-04-04T16:27:43.999Z</time></trkpt><trkpt lat="45.13741866431673" lon="8.460253295436441"><ele>115.00000000000001</ele><time>2026-04-04T16:27:46.999Z</time></trkpt><trkpt lat="45.13735654522088" lon="8.460287148596052"><ele>115.0</ele><time>2026-04-04T16:27:48.999Z</time></trkpt><trkpt lat="45.137288530745494" lon="8.460333052984927"><ele>115.0</ele><time>2026-04-04T16:27:49.999Z</time></trkpt><trkpt lat="45.137217082770036" lon="8.460386617773011"><ele>115.0</ele><time>2026-04-04T16:27:50.999Z</time></trkpt><trkpt lat="45.13714730165025" lon="8.46039810792944"><ele>115.00000000000001</ele><time>2026-04-04T16:27:51.999Z</time></trkpt><trkpt lat="45.137052039964495" lon="8.46037746854199"><ele>115.0</ele><time>2026-04-04T16:27:52.999Z</time></trkpt><trkpt lat="45.136948064819336" lon="8.460333655273226"><ele>115.0</ele><time>2026-04-04T16:27:53.999Z</time></trkpt><trkpt lat="45.13682883471056" lon="8.460265562709587"><ele>115.0</ele><time>2026-04-04T16:27:54.999Z</time></trkpt><trkpt lat="45.13670346238155" lon="8.460186505129544"><ele>115.0</ele><time>2026-04-04T16:27:55.999Z</time></trkpt><trkpt lat="45.13658531673799" lon="8.460118677395666"><ele>115.0</ele><time>2026-04-04T16:27:56.999Z</time></trkpt><trkpt lat="45.13645665510783" lon="8.460054556063213"><ele>114.75</ele><time>2026-04-04T16:27:58Z</time></trkpt><trkpt lat="45.13632977946131" lon="8.459966560836671"><ele>114.5</ele><time>2026-04-04T16:27:59Z</time></trkpt><trkpt lat="45.136204460716705" lon="8.459929578863843"><ele>114.25</ele><time>2026-04-04T16:28:00Z</time></trkpt><trkpt lat="45.1360880603241" lon="8.459914324059552"><ele>114.0</ele><time>2026-04-04T16:28:01Z</time></trkpt><trkpt lat="45.135972039557835" lon="8.459900998459513"><ele>114.0</ele><time>2026-04-04T16:28:02Z</time></trkpt><trkpt lat="45.135849239957885" lon="8.45990316795316"><ele>114.0</ele><time>2026-04-04T16:28:03Z</time></trkpt><trkpt lat="45.135728513551854" lon="8.459864262497554"><ele>114.0</ele><time>2026-04-04T16:28:04Z</time></trkpt><trkpt lat="45.1356096861275" lon="8.459839159365591"><ele>114.0</ele><time>2026-04-04T16:28:05Z</time></trkpt><trkpt lat="45.13549503654419" lon="8.459814361376532"><ele>114.0</ele><time>2026-04-04T16:28:06Z</time></trkpt><trkpt lat="45.135384134773396" lon="8.459795985837246"><ele>114.0</ele><time>2026-04-04T16:28:07Z</time></trkpt><trkpt lat="45.135270252037124" lon="8.4597771163771"><ele>114.0</ele><time>2026-04-04T16:28:08Z</time></trkpt><trkpt lat="45.13515697942474" lon="8.459758348010228"><ele>114.0</ele><time>2026-04-04T16:28:09Z</time></trkpt><trkpt lat="45.13504212620021" lon="8.459739327843923"><ele>114.0</ele><time>2026-04-04T16:28:10Z</time></trkpt><trkpt lat="45.134929254335695" lon="8.459720650325707"><ele>114.0</ele><time>2026-04-04T16:28:11Z</time></trkpt><trkpt lat="45.13481734956119" lon="8.459702132835302"><ele>114.0</ele><time>2026-04-04T16:28:12Z</time></trkpt><trkpt lat="45.134712561724754" lon="8.45968479302809"><ele>114.0</ele><time>2026-04-04T16:28:13Z</time></trkpt><trkpt lat="45.134618771793136" lon="8.459669273033668"><ele>114.0</ele><time>2026-04-04T16:28:14Z</time></trkpt><trkpt lat="45.13452373790909" lon="8.459653635510735"><ele>114.16666666666667</ele><time>2026-04-04T16:28:15Z</time></trkpt><trkpt lat="45.13443872199603" lon="8.459639640049256"><ele>114.33333333333334</ele><time>2026-04-04T16:28:16Z</time></trkpt><trkpt lat="45.13437193908243" lon="8.459628646133023"><ele>114.5</ele><time>2026-04-04T16:28:17Z</time></trkpt><trkpt lat="45.134299055407446" lon="8.45961688873223"><ele>114.66666666666667</ele><time>2026-04-04T16:28:19Z</time></trkpt><trkpt lat="45.13422759652318" lon="8.459621314893928"><ele>114.83333333333334</ele><time>2026-04-04T16:28:23Z</time></trkpt><trkpt lat="45.13421455849812" lon="8.45983105021979"><ele>115.0</ele><time>2026-04-04T16:28:26Z</time></trkpt><trkpt lat="45.1341714003775" lon="8.459764986577238"><ele>115.00000000000001</ele><time>2026-04-04T16:29:30.999Z</time></trkpt><trkpt lat="45.13410509571191" lon="8.459733484952217"><ele>115.0</ele><time>2026-04-04T16:29:37.999Z</time></trkpt><trkpt lat="45.1340471067803" lon="8.459782126362953"><ele>115.0</ele><time>2026-04-04T16:29:45.999Z</time></trkpt><trkpt lat="45.13407933079736" lon="8.45995213894466"><ele>115.0</ele><time>2026-04-04T16:30:05Z</time></trkpt><trkpt lat="45.13413448213568" lon="8.45987395287292"><ele>115.00000000000001</ele><time>2026-04-04T16:31:05.999Z</time></trkpt><trkpt lat="45.13417840370197" lon="8.459789722126656"><ele>115.0</ele><time>2026-04-04T16:31:13.999Z</time></trkpt><trkpt lat="45.13414813023471" lon="8.459602455991707"><ele>115.6</ele><time>2026-04-04T16:32:52Z</time></trkpt><trkpt lat="45.13415456045669" lon="8.459481027104346"><ele>116.2</ele><time>2026-04-04T16:32:53Z</time></trkpt><trkpt lat="45.13417035957468" lon="8.459338379321483"><ele>116.80000000000001</ele><time>2026-04-04T16:32:54Z</time></trkpt><trkpt lat="45.134183680784794" lon="8.459183230965264"><ele>117.4</ele><time>2026-04-04T16:32:54.999Z</time></trkpt><trkpt lat="45.13422783050428" lon="8.459047142447405"><ele>118.0</ele><time>2026-04-04T16:32:55.999Z</time></trkpt><trkpt lat="45.13417686993839" lon="8.458903757439929"><ele>118.5</ele><time>2026-04-04T16:32:56.999Z</time></trkpt><trkpt lat="45.1341532286298" lon="8.458767306059986"><ele>119.0</ele><time>2026-04-04T16:32:57.999Z</time></trkpt><trkpt lat="45.13411310447608" lon="8.458621752142557"><ele>119.5</ele><time>2026-04-04T16:32:58.999Z</time></trkpt><trkpt lat="45.13408886131443" lon="8.458446212158158"><ele>120.0</ele><time>2026-04-04T16:32:59.999Z</time></trkpt><trkpt lat="45.1340988844637" lon="8.458221044826272"><ele>120.0</ele><time>2026-04-04T16:33:00.999Z</time></trkpt><trkpt lat="45.13416049331842" lon="8.457967947939608"><ele>120.0</ele><time>2026-04-04T16:33:01.999Z</time></trkpt><trkpt lat="45.134182579702255" lon="8.45771738977483"><ele>120.0</ele><time>2026-04-04T16:33:02.999Z</time></trkpt><trkpt lat="45.134202220190645" lon="8.457493773326105"><ele>120.0</ele><time>2026-04-04T16:33:03.999Z</time></trkpt><trkpt lat="45.134219782196986" lon="8.457293823137745"><ele>120.0</ele><time>2026-04-04T16:33:04.999Z</time></trkpt><trkpt lat="45.134235866686474" lon="8.457110458799836"><ele>120.0</ele><time>2026-04-04T16:33:05.999Z</time></trkpt><trkpt lat="45.134249126448076" lon="8.45695925836157"><ele>120.0</ele><time>2026-04-04T16:33:06.999Z</time></trkpt><trkpt lat="45.134261516781436" lon="8.45681797232353"><ele>120.0</ele><time>2026-04-04T16:33:07.999Z</time></trkpt><trkpt lat="45.13427465635752" lon="8.456686960773437"><ele>120.0</ele><time>2026-04-04T16:33:08.999Z</time></trkpt><trkpt lat="45.134286932497" lon="8.456566965807136"><ele>120.0</ele><time>2026-04-04T16:33:09.999Z</time></trkpt><trkpt lat="45.13429577959329" lon="8.456466770699967"><ele>120.0</ele><time>2026-04-04T16:33:10.999Z</time></trkpt><trkpt lat="45.13430649022861" lon="8.45632760978704"><ele>120.0</ele><time>2026-04-04T16:33:12.999Z</time></trkpt><trkpt lat="45.13431437678288" lon="8.456225141445952"><ele>120.0</ele><time>2026-04-04T16:33:16.999Z</time></trkpt><trkpt lat="45.13431376474903" lon="8.456073493760949"><ele>120.0</ele><time>2026-04-04T16:34:21Z</time></trkpt><trkpt lat="45.13433865434834" lon="8.455972213760889"><ele>120.0</ele><time>2026-04-04T16:34:22Z</time></trkpt><trkpt lat="45.13443935790612" lon="8.455926852019733"><ele>120.0</ele><time>2026-04-04T16:34:24Z</time></trkpt><trkpt lat="45.134515418989906" lon="8.45595328445745"><ele>120.0</ele><time>2026-04-04T16:34:25Z</time></trkpt><trkpt lat="45.1346231229558" lon="8.455969447162635"><ele>120.0</ele><time>2026-04-04T16:34:26Z</time></trkpt><trkpt lat="45.134743178976215" lon="8.45598842913117"><ele>120.0</ele><time>2026-04-04T16:34:27Z</time></trkpt><trkpt lat="45.13486062580191" lon="8.456005086807052"><ele>120.0</ele><time>2026-04-04T16:34:28Z</time></trkpt><trkpt lat="45.13497754851957" lon="8.456024731756349"><ele>120.0</ele><time>2026-04-04T16:34:29Z</time></trkpt><trkpt lat="45.13508915046196" lon="8.456044380576847"><ele>120.0</ele><time>2026-04-04T16:34:30Z</time></trkpt><trkpt lat="45.13520000716827" lon="8.456069697571735"><ele>120.5</ele><time>2026-04-04T16:34:31Z</time></trkpt><trkpt lat="45.13531027695629" lon="8.456096187848157"><ele>121.0</ele><time>2026-04-04T16:34:32Z</time></trkpt><trkpt lat="45.13542716610928" lon="8.456113762138962"><ele>121.5</ele><time>2026-04-04T16:34:33Z</time></trkpt><trkpt lat="45.13555275213169" lon="8.45612639496945"><ele>122.0</ele><time>2026-04-04T16:34:34Z</time></trkpt><trkpt lat="45.13566399766326" lon="8.45615002115324"><ele>121.6</ele><time>2026-04-04T16:34:35Z</time></trkpt><trkpt lat="45.13576534328823" lon="8.456172187936431"><ele>121.19999999999999</ele><time>2026-04-04T16:34:36Z</time></trkpt><trkpt lat="45.13585785398196" lon="8.456190135772731"><ele>120.8</ele><time>2026-04-04T16:34:37Z</time></trkpt><trkpt lat="45.13594369994672" lon="8.456209838362703"><ele>120.4</ele><time>2026-04-04T16:34:38Z</time></trkpt><trkpt lat="45.13602811182447" lon="8.456235454589994"><ele>120.0</ele><time>2026-04-04T16:34:39Z</time></trkpt><trkpt lat="45.13611831190509" lon="8.456283017003623"><ele>119.8</ele><time>2026-04-04T16:34:40Z</time></trkpt><trkpt lat="45.136224337902725" lon="8.456320571362118"><ele>119.6</ele><time>2026-04-04T16:34:41Z</time></trkpt><trkpt lat="45.13633577545142" lon="8.45634829319449"><ele>119.4</ele><time>2026-04-04T16:34:42Z</time></trkpt><trkpt lat="45.13644082832244" lon="8.456361213091853"><ele>119.2</ele><time>2026-04-04T16:34:43Z</time></trkpt><trkpt lat="45.136545088970365" lon="8.456382722603141"><ele>119.0</ele><time>2026-04-04T16:34:44Z</time></trkpt><trkpt lat="45.13664881425501" lon="8.456406079650215"><ele>119.0</ele><time>2026-04-04T16:34:45Z</time></trkpt><trkpt lat="45.136755444547724" lon="8.456416923669567"><ele>119.0</ele><time>2026-04-04T16:34:46Z</time></trkpt><trkpt lat="45.13686529228698" lon="8.456447576827065"><ele>119.0</ele><time>2026-04-04T16:34:47Z</time></trkpt><trkpt lat="45.1369653019199" lon="8.456467978520388"><ele>119.0</ele><time>2026-04-04T16:34:48Z</time></trkpt><trkpt lat="45.13705453434841" lon="8.456482259907684"><ele>119.0</ele><time>2026-04-04T16:34:49Z</time></trkpt><trkpt lat="45.13713953656738" lon="8.456493886185658"><ele>119.0</ele><time>2026-04-04T16:34:50Z</time></trkpt><trkpt lat="45.13721857752961" lon="8.456505419816988"><ele>119.0</ele><time>2026-04-04T16:34:51Z</time></trkpt><trkpt lat="45.13729747882796" lon="8.456514212968123"><ele>119.0</ele><time>2026-04-04T16:34:52Z</time></trkpt><trkpt lat="45.13737216424269" lon="8.456523693522504"><ele>119.0</ele><time>2026-04-04T16:34:53Z</time></trkpt><trkpt lat="45.137508131590934" lon="8.456535732608193"><ele>119.0</ele><time>2026-04-04T16:34:55Z</time></trkpt><trkpt lat="45.13761234034818" lon="8.456545717492876"><ele>119.0</ele><time>2026-04-04T16:34:56Z</time></trkpt><trkpt lat="45.13771665520503" lon="8.456548303531212"><ele>119.0</ele><time>2026-04-04T16:34:57Z</time></trkpt><trkpt lat="45.13784436032017" lon="8.45658189284276"><ele>119.0</ele><time>2026-04-04T16:34:58Z</time></trkpt><trkpt lat="45.137964966955685" lon="8.456612481358373"><ele>119.0</ele><time>2026-04-04T16:34:59Z</time></trkpt><trkpt lat="45.13807252519265" lon="8.456635892832992"><ele>119.0</ele><time>2026-04-04T16:35:00Z</time></trkpt><trkpt lat="45.138176581277406" lon="8.456653067638795"><ele>119.0</ele><time>2026-04-04T16:35:01Z</time></trkpt><trkpt lat="45.13827474536545" lon="8.456666185915045"><ele>119.0</ele><time>2026-04-04T16:35:02Z</time></trkpt><trkpt lat="45.138370088897524" lon="8.456688630994146"><ele>119.0</ele><time>2026-04-04T16:35:03Z</time></trkpt><trkpt lat="45.13845738654365" lon="8.456700409147546"><ele>119.0</ele><time>2026-04-04T16:35:04Z</time></trkpt><trkpt lat="45.13854533939061" lon="8.456714594843717"><ele>118.99999999999999</ele><time>2026-04-04T16:35:05Z</time></trkpt><trkpt lat="45.13862840482221" lon="8.456725547670723"><ele>119.0</ele><time>2026-04-04T16:35:06Z</time></trkpt><trkpt lat="45.13870952396303" lon="8.456735314919825"><ele>119.0</ele><time>2026-04-04T16:35:06.999Z</time></trkpt><trkpt lat="45.138776007878306" lon="8.45674275334135"><ele>119.0</ele><time>2026-04-04T16:35:07.999Z</time></trkpt><trkpt lat="45.13887492954719" lon="8.45676544585924"><ele>118.99999999999999</ele><time>2026-04-04T16:35:09.999Z</time></trkpt><trkpt lat="45.138967275209396" lon="8.456836593724894"><ele>119.0</ele><time>2026-04-04T16:35:11.999Z</time></trkpt><trkpt lat="45.13904568020819" lon="8.45693197025601"><ele>118.4</ele><time>2026-04-04T16:35:13.999Z</time></trkpt><trkpt lat="45.13912376723218" lon="8.45687158180703"><ele>117.80000000000001</ele><time>2026-04-04T16:35:15.999Z</time></trkpt><trkpt lat="45.139181150082244" lon="8.456718259108605"><ele>117.19999999999999</ele><time>2026-04-04T16:35:17.999Z</time></trkpt><trkpt lat="45.13910057906597" lon="8.456605332695501"><ele>116.6</ele><time>2026-04-04T16:35:18.999Z</time></trkpt><trkpt lat="45.13912563413597" lon="8.456501747117159"><ele>116.0</ele><time>2026-04-04T16:35:19.999Z</time></trkpt><trkpt lat="45.139189566453766" lon="8.456395590497603"><ele>116.75</ele><time>2026-04-04T16:35:20.999Z</time></trkpt><trkpt lat="45.13926418320816" lon="8.456283039084068"><ele>117.5</ele><time>2026-04-04T16:35:21.999Z</time></trkpt><trkpt lat="45.139340305492816" lon="8.45615014127569"><ele>118.25</ele><time>2026-04-04T16:35:22.999Z</time></trkpt><trkpt lat="45.13941715237253" lon="8.456012071863974"><ele>119.0</ele><time>2026-04-04T16:35:23.999Z</time></trkpt><trkpt lat="45.13948640877201" lon="8.455876340189137"><ele>119.0</ele><time>2026-04-04T16:35:24.999Z</time></trkpt><trkpt lat="45.139549453124204" lon="8.455750663761185"><ele>119.0</ele><time>2026-04-04T16:35:25.999Z</time></trkpt><trkpt lat="45.139610734568436" lon="8.45563437989586"><ele>119.0</ele><time>2026-04-04T16:35:26.999Z</time></trkpt><trkpt lat="45.13966527667747" lon="8.455519896565828"><ele>119.0</ele><time>2026-04-04T16:35:27.999Z</time></trkpt><trkpt lat="45.139720272155635" lon="8.455407939520018"><ele>119.0</ele><time>2026-04-04T16:35:28.999Z</time></trkpt><trkpt lat="45.1397718356009" lon="8.455292511402531"><ele>119.16666666666666</ele><time>2026-04-04T16:35:29.999Z</time></trkpt><trkpt lat="45.13982749962756" lon="8.455184894876716"><ele>119.33333333333333</ele><time>2026-04-04T16:35:30.999Z</time></trkpt><trkpt lat="45.13987822827406" lon="8.455077509654037"><ele>119.5</ele><time>2026-04-04T16:35:31.999Z</time></trkpt><trkpt lat="45.1399310092478" lon="8.454979213280113"><ele>119.66666666666666</ele><time>2026-04-04T16:35:32.999Z</time></trkpt><trkpt lat="45.13997662235289" lon="8.454880914582779"><ele>119.83333333333333</ele><time>2026-04-04T16:35:33.999Z</time></trkpt><trkpt lat="45.14001083711199" lon="8.454780276147744"><ele>120.0</ele><time>2026-04-04T16:35:34.999Z</time></trkpt><trkpt lat="45.14003166842448" lon="8.454674166135783"><ele>119.57142857142858</ele><time>2026-04-04T16:35:35.999Z</time></trkpt><trkpt lat="45.14006270703783" lon="8.454557632283018"><ele>119.14285714285714</ele><time>2026-04-04T16:35:36.999Z</time></trkpt><trkpt lat="45.14007662267287" lon="8.454445664498264"><ele>118.71428571428572</ele><time>2026-04-04T16:35:37.999Z</time></trkpt><trkpt lat="45.140092908256" lon="8.454337648214796"><ele>118.28571428571429</ele><time>2026-04-04T16:35:38.999Z</time></trkpt><trkpt lat="45.14011023019176" lon="8.454243866230096"><ele>117.85714285714286</ele><time>2026-04-04T16:35:39.999Z</time></trkpt><trkpt lat="45.14012588086296" lon="8.454156043001941"><ele>117.42857142857143</ele><time>2026-04-04T16:35:40.999Z</time></trkpt><trkpt lat="45.14014271410345" lon="8.454066530626145"><ele>117.0</ele><time>2026-04-04T16:35:41.999Z</time></trkpt><trkpt lat="45.140169477807206" lon="8.453937704620765"><ele>117.0</ele><time>2026-04-04T16:35:43.999Z</time></trkpt><trkpt lat="45.14018812282988" lon="8.453807322843927"><ele>116.99999999999999</ele><time>2026-04-04T16:35:45.999Z</time></trkpt><trkpt lat="45.140200328373844" lon="8.453688302542837"><ele>116.99999999999999</ele><time>2026-04-04T16:35:46.999Z</time></trkpt><trkpt lat="45.14022109002583" lon="8.453519306342882"><ele>117.0</ele><time>2026-04-04T16:35:47.999Z</time></trkpt><trkpt lat="45.14025745752817" lon="8.453346273785566"><ele>117.0</ele><time>2026-04-04T16:35:48.999Z</time></trkpt><trkpt lat="45.14027049268424" lon="8.453182769957426"><ele>118.0</ele><time>2026-04-04T16:35:49.999Z</time></trkpt><trkpt lat="45.1402885879276" lon="8.453020860299818"><ele>119.0</ele><time>2026-04-04T16:35:50.999Z</time></trkpt><trkpt lat="45.140308028394614" lon="8.452851137165746"><ele>120.0</ele><time>2026-04-04T16:35:51.999Z</time></trkpt><trkpt lat="45.140322692289864" lon="8.452679748117776"><ele>121.0</ele><time>2026-04-04T16:35:52.999Z</time></trkpt><trkpt lat="45.140333899951735" lon="8.452522866708927"><ele>121.4</ele><time>2026-04-04T16:35:53.999Z</time></trkpt><trkpt lat="45.14034405410809" lon="8.452393816568103"><ele>121.8</ele><time>2026-04-04T16:35:54.999Z</time></trkpt><trkpt lat="45.1403539805495" lon="8.452304990289997"><ele>122.20000000000002</ele><time>2026-04-04T16:35:55.999Z</time></trkpt><trkpt lat="45.14044021114698" lon="8.452224608392754"><ele>122.60000000000001</ele><time>2026-04-04T16:35:57.999Z</time></trkpt><trkpt lat="45.140542492568656" lon="8.452229515041116"><ele>123.0</ele><time>2026-04-04T16:35:58.999Z</time></trkpt><trkpt lat="45.14065508210685" lon="8.45226301822824"><ele>121.83333333333333</ele><time>2026-04-04T16:35:59.999Z</time></trkpt><trkpt lat="45.14075336192613" lon="8.452298609602687"><ele>120.66666666666666</ele><time>2026-04-04T16:36:00.999Z</time></trkpt><trkpt lat="45.140817392095684" lon="8.452353779353018"><ele>119.5</ele><time>2026-04-04T16:36:01.999Z</time></trkpt><trkpt lat="45.14089062466338" lon="8.452325284658322"><ele>118.33333333333333</ele><time>2026-04-04T16:36:02.999Z</time></trkpt><trkpt lat="45.14095472727119" lon="8.452367890992416"><ele>117.16666666666666</ele><time>2026-04-04T16:36:05.999Z</time></trkpt><trkpt lat="45.141011148269556" lon="8.452411726605156"><ele>116.0</ele><time>2026-04-04T16:36:07.999Z</time></trkpt><trkpt lat="45.14107163415085" lon="8.45246274544936"><ele>116.0</ele><time>2026-04-04T16:36:08.999Z</time></trkpt><trkpt lat="45.141133063977264" lon="8.452498527931537"><ele>116.0</ele><time>2026-04-04T16:36:09.999Z</time></trkpt><trkpt lat="45.1412245026979" lon="8.452450379784054"><ele>116.0</ele><time>2026-04-04T16:36:11.999Z</time></trkpt><trkpt lat="45.141232888102984" lon="8.452295970952399"><ele>116.0</ele><time>2026-04-04T16:36:13.999Z</time></trkpt><trkpt lat="45.141184110177875" lon="8.452151585438589"><ele>116.0</ele><time>2026-04-04T16:36:15.999Z</time></trkpt><trkpt lat="45.141156521250736" lon="8.451981312494777"><ele>116.14285714285717</ele><time>2026-04-04T16:36:17.999Z</time></trkpt><trkpt lat="45.14115428009733" lon="8.451886930311586"><ele>116.28571428571429</ele><time>2026-04-04T16:36:18.999Z</time></trkpt><trkpt lat="45.141154794496856" lon="8.45179044376126"><ele>116.42857142857144</ele><time>2026-04-04T16:36:19.999Z</time></trkpt><trkpt lat="45.1411571241218" lon="8.451687953397398"><ele>116.57142857142858</ele><time>2026-04-04T16:36:20.999Z</time></trkpt><trkpt lat="45.141156057242625" lon="8.451581386673716"><ele>116.71428571428572</ele><time>2026-04-04T16:36:22Z</time></trkpt><trkpt lat="45.14114748789112" lon="8.451480468279312"><ele>116.85714285714286</ele><time>2026-04-04T16:36:23Z</time></trkpt><trkpt lat="45.14113433345624" lon="8.451379791546618"><ele>117.0</ele><time>2026-04-04T16:36:24Z</time></trkpt><trkpt lat="45.14111659710681" lon="8.451279063005588"><ele>117.19999999999999</ele><time>2026-04-04T16:36:25Z</time></trkpt><trkpt lat="45.14109900579311" lon="8.451175044374436"><ele>117.39999999999999</ele><time>2026-04-04T16:36:26Z</time></trkpt><trkpt lat="45.14108491633748" lon="8.45106128664626"><ele>117.60000000000001</ele><time>2026-04-04T16:36:27Z</time></trkpt><trkpt lat="45.14106725549532" lon="8.450919151997097"><ele>117.80000000000001</ele><time>2026-04-04T16:36:28Z</time></trkpt><trkpt lat="45.141049130955714" lon="8.45077104835598"><ele>118.0</ele><time>2026-04-04T16:36:29Z</time></trkpt><trkpt lat="45.14102899629269" lon="8.450626172288976"><ele>118.0</ele><time>2026-04-04T16:36:30Z</time></trkpt><trkpt lat="45.14101114202685" lon="8.450491650930049"><ele>118.00000000000001</ele><time>2026-04-04T16:36:31Z</time></trkpt><trkpt lat="45.1409953267521" lon="8.45036143402618"><ele>118.00000000000001</ele><time>2026-04-04T16:36:32Z</time></trkpt><trkpt lat="45.14098386821534" lon="8.45023117549819"><ele>118.0</ele><time>2026-04-04T16:36:33Z</time></trkpt><trkpt lat="45.140970055712636" lon="8.450095401941995"><ele>118.0</ele><time>2026-04-04T16:36:34Z</time></trkpt><trkpt lat="45.14095754864217" lon="8.449953650829263"><ele>118.00000000000001</ele><time>2026-04-04T16:36:35Z</time></trkpt><trkpt lat="45.14094709874062" lon="8.449828200466005"><ele>118.0</ele><time>2026-04-04T16:36:36Z</time></trkpt><trkpt lat="45.14094177117376" lon="8.449730647435729"><ele>118.0</ele><time>2026-04-04T16:36:37Z</time></trkpt><trkpt lat="45.1409358946159" lon="8.449628990443522"><ele>118.0</ele><time>2026-04-04T16:36:38Z</time></trkpt><trkpt lat="45.140927283415756" lon="8.449528268367319"><ele>118.00000000000001</ele><time>2026-04-04T16:36:39Z</time></trkpt><trkpt lat="45.140916880934896" lon="8.449421437366935"><ele>118.0</ele><time>2026-04-04T16:36:40Z</time></trkpt><trkpt lat="45.140904889319636" lon="8.449309998726212"><ele>118.00000000000001</ele><time>2026-04-04T16:36:41Z</time></trkpt><trkpt lat="45.14089569766341" lon="8.449209045184272"><ele>118.0</ele><time>2026-04-04T16:36:42Z</time></trkpt><trkpt lat="45.140888251694385" lon="8.44911584899626"><ele>118.0</ele><time>2026-04-04T16:36:43Z</time></trkpt><trkpt lat="45.1408808904965" lon="8.449025171637013"><ele>118.0</ele><time>2026-04-04T16:36:44Z</time></trkpt><trkpt lat="45.140866652941284" lon="8.448854418842105"><ele>118.00000000000001</ele><time>2026-04-04T16:36:46Z</time></trkpt><trkpt lat="45.14086073405408" lon="8.448731168625097"><ele>118.0</ele><time>2026-04-04T16:36:48Z</time></trkpt><trkpt lat="45.14084959206167" lon="8.448642662197193"><ele>117.80000000000001</ele><time>2026-04-04T16:36:51Z</time></trkpt><trkpt lat="45.14084335640175" lon="8.44854051033715"><ele>117.60000000000001</ele><time>2026-04-04T16:36:53Z</time></trkpt><trkpt lat="45.14084504014638" lon="8.448395688830727"><ele>117.39999999999999</ele><time>2026-04-04T16:36:55Z</time></trkpt><trkpt lat="45.14093704030139" lon="8.448237833709062"><ele>117.19999999999999</ele><time>2026-04-04T16:36:57Z</time></trkpt><trkpt lat="45.14103529458256" lon="8.448168550917728"><ele>117.0</ele><time>2026-04-04T16:36:58Z</time></trkpt><trkpt lat="45.14114456180267" lon="8.448119151636066"><ele>117.0</ele><time>2026-04-04T16:36:59Z</time></trkpt><trkpt lat="45.14126520946211" lon="8.448028343487815"><ele>117.0</ele><time>2026-04-04T16:37:00Z</time></trkpt><trkpt lat="45.14139301547275" lon="8.44795726722955"><ele>117.0</ele><time>2026-04-04T16:37:01Z</time></trkpt><trkpt lat="45.14151443604285" lon="8.447888117892125"><ele>117.0</ele><time>2026-04-04T16:37:02Z</time></trkpt><trkpt lat="45.1416257454776" lon="8.447824402026939"><ele>115.0</ele><time>2026-04-04T16:37:03Z</time></trkpt><trkpt lat="45.14172908072619" lon="8.447765341438384"><ele>112.99999999999999</ele><time>2026-04-04T16:37:04Z</time></trkpt><trkpt lat="45.14182744710566" lon="8.447709331873796"><ele>110.99999999999999</ele><time>2026-04-04T16:37:05Z</time></trkpt><trkpt lat="45.141920039069355" lon="8.447656608465689"><ele>109.0</ele><time>2026-04-04T16:37:06Z</time></trkpt><trkpt lat="45.142015039098624" lon="8.447602513959904"><ele>107.0</ele><time>2026-04-04T16:37:07Z</time></trkpt><trkpt lat="45.14211052873337" lon="8.447548140616785"><ele>107.0</ele><time>2026-04-04T16:37:08Z</time></trkpt><trkpt lat="45.142206566110026" lon="8.447493455383384"><ele>106.99999999999999</ele><time>2026-04-04T16:37:09Z</time></trkpt><trkpt lat="45.142302693267936" lon="8.447438719038953"><ele>106.99999999999999</ele><time>2026-04-04T16:37:10Z</time></trkpt><trkpt lat="45.14240363067197" lon="8.447406397222577"><ele>107.0</ele><time>2026-04-04T16:37:11Z</time></trkpt><trkpt lat="45.14249602545489" lon="8.447351489859171"><ele>107.0</ele><time>2026-04-04T16:37:12Z</time></trkpt><trkpt lat="45.14257846741787" lon="8.447301863378755"><ele>107.33333333333333</ele><time>2026-04-04T16:37:13Z</time></trkpt><trkpt lat="45.14265936207559" lon="8.447253965279039"><ele>107.66666666666666</ele><time>2026-04-04T16:37:14Z</time></trkpt><trkpt lat="45.14273666446745" lon="8.447211647958968"><ele>108.0</ele><time>2026-04-04T16:37:14.999Z</time></trkpt><trkpt lat="45.14281502594472" lon="8.447179863803045"><ele>108.33333333333334</ele><time>2026-04-04T16:37:15.999Z</time></trkpt><trkpt lat="45.14289335423195" lon="8.44713930342439"><ele>108.66666666666667</ele><time>2026-04-04T16:37:16.999Z</time></trkpt><trkpt lat="45.14297696437568" lon="8.447119088208334"><ele>109.0</ele><time>2026-04-04T16:37:17.999Z</time></trkpt><trkpt lat="45.143060415495206" lon="8.447143171905541"><ele>109.0</ele><time>2026-04-04T16:37:18.999Z</time></trkpt><trkpt lat="45.14313143616054" lon="8.447155609319552"><ele>109.0</ele><time>2026-04-04T16:37:19.999Z</time></trkpt><trkpt lat="45.14318564744618" lon="8.44727310937403"><ele>109.0</ele><time>2026-04-04T16:37:20.999Z</time></trkpt><trkpt lat="45.14323766459429" lon="8.447331225822033"><ele>109.0</ele><time>2026-04-04T16:37:21.999Z</time></trkpt><trkpt lat="45.143287033095255" lon="8.447391033538024"><ele>109.0</ele><time>2026-04-04T16:37:22.999Z</time></trkpt><trkpt lat="45.14334012938683" lon="8.447452928740603"><ele>109.0</ele><time>2026-04-04T16:37:23.999Z</time></trkpt><trkpt lat="45.14339714248219" lon="8.44751621914694"><ele>109.0</ele><time>2026-04-04T16:37:24.999Z</time></trkpt><trkpt lat="45.14346220344481" lon="8.447588565949625"><ele>109.50000000000001</ele><time>2026-04-04T16:37:25.999Z</time></trkpt><trkpt lat="45.14352750918091" lon="8.447663703564256"><ele>110.0</ele><time>2026-04-04T16:37:26.999Z</time></trkpt><trkpt lat="45.143595082988156" lon="8.447745229920736"><ele>110.5</ele><time>2026-04-04T16:37:27.999Z</time></trkpt><trkpt lat="45.14366295370782" lon="8.447830208799978"><ele>111.0</ele><time>2026-04-04T16:37:28.999Z</time></trkpt><trkpt lat="45.143729983612495" lon="8.447919343189533"><ele>111.50000000000001</ele><time>2026-04-04T16:37:29.999Z</time></trkpt><trkpt lat="45.14379214457753" lon="8.448017186469734"><ele>112.0</ele><time>2026-04-04T16:37:30.999Z</time></trkpt><trkpt lat="45.143846936899116" lon="8.448120501813603"><ele>112.0</ele><time>2026-04-04T16:37:31.999Z</time></trkpt><trkpt lat="45.14389888845984" lon="8.44822900379571"><ele>111.99999999999999</ele><time>2026-04-04T16:37:32.999Z</time></trkpt><trkpt lat="45.1439462867676" lon="8.448337905747454"><ele>111.99999999999999</ele><time>2026-04-04T16:37:33.999Z</time></trkpt><trkpt lat="45.14398984575843" lon="8.448444613758047"><ele>112.0</ele><time>2026-04-04T16:37:34.999Z</time></trkpt><trkpt lat="45.14403801260189" lon="8.44855258699297"><ele>112.0</ele><time>2026-04-04T16:37:35.999Z</time></trkpt><trkpt lat="45.14408793463722" lon="8.448663341826943"><ele>112.00000000000001</ele><time>2026-04-04T16:37:36.999Z</time></trkpt><trkpt lat="45.144135466787425" lon="8.4487680556277"><ele>112.0</ele><time>2026-04-04T16:37:37.999Z</time></trkpt><trkpt lat="45.14418221886679" lon="8.448872201066916"><ele>112.0</ele><time>2026-04-04T16:37:38.999Z</time></trkpt><trkpt lat="45.144227541248384" lon="8.448972206455899"><ele>112.0</ele><time>2026-04-04T16:37:39.999Z</time></trkpt><trkpt lat="45.14426973558018" lon="8.44906937428276"><ele>112.00000000000001</ele><time>2026-04-04T16:37:40.999Z</time></trkpt><trkpt lat="45.14431304459081" lon="8.449164951283876"><ele>112.0</ele><time>2026-04-04T16:37:41.999Z</time></trkpt><trkpt lat="45.14435806755121" lon="8.449263996955366"><ele>112.16666666666667</ele><time>2026-04-04T16:37:42.999Z</time></trkpt><trkpt lat="45.144402737675485" lon="8.449366705346145"><ele>112.33333333333334</ele><time>2026-04-04T16:37:43.999Z</time></trkpt><trkpt lat="45.1444476017959" lon="8.449471717454394"><ele>112.5</ele><time>2026-04-04T16:37:44.999Z</time></trkpt><trkpt lat="45.144489862479425" lon="8.449580459914552"><ele>112.66666666666666</ele><time>2026-04-04T16:37:45.999Z</time></trkpt><trkpt lat="45.14453637211776" lon="8.449679608549888"><ele>112.83333333333333</ele><time>2026-04-04T16:37:46.999Z</time></trkpt><trkpt lat="45.14458609645759" lon="8.449775083495256"><ele>113.0</ele><time>2026-04-04T16:37:47.999Z</time></trkpt><trkpt lat="45.14464363772918" lon="8.449868024251467"><ele>112.83333333333333</ele><time>2026-04-04T16:37:48.999Z</time></trkpt><trkpt lat="45.14471011468835" lon="8.449956168407965"><ele>112.66666666666666</ele><time>2026-04-04T16:37:49.999Z</time></trkpt><trkpt lat="45.144779556863384" lon="8.450034750310323"><ele>112.5</ele><time>2026-04-04T16:37:50.999Z</time></trkpt><trkpt lat="45.144848322341055" lon="8.45010182577615"><ele>112.33333333333334</ele><time>2026-04-04T16:37:51.999Z</time></trkpt><trkpt lat="45.144919562711536" lon="8.450161760578931"><ele>112.16666666666667</ele><time>2026-04-04T16:37:52.999Z</time></trkpt><trkpt lat="45.14500060566412" lon="8.450216925005735"><ele>112.0</ele><time>2026-04-04T16:37:53.999Z</time></trkpt><trkpt lat="45.14509071148867" lon="8.450269342482992"><ele>112.0</ele><time>2026-04-04T16:37:54.999Z</time></trkpt><trkpt lat="45.14519459203588" lon="8.450315863280698"><ele>112.0</ele><time>2026-04-04T16:37:55.999Z</time></trkpt><trkpt lat="45.1453133082832" lon="8.450357486381515"><ele>112.0</ele><time>2026-04-04T16:37:56.999Z</time></trkpt><trkpt lat="45.145435312232046" lon="8.450392174664108"><ele>112.0</ele><time>2026-04-04T16:37:57.999Z</time></trkpt><trkpt lat="45.14556982145931" lon="8.45042869643561"><ele>112.0</ele><time>2026-04-04T16:37:58.999Z</time></trkpt><trkpt lat="45.14572390826183" lon="8.450494988968435"><ele>112.0</ele><time>2026-04-04T16:37:59.999Z</time></trkpt><trkpt lat="45.145896007949595" lon="8.450552597722323"><ele>112.0</ele><time>2026-04-04T16:38:00.999Z</time></trkpt><trkpt lat="45.14607575568759" lon="8.450612854836356"><ele>112.0</ele><time>2026-04-04T16:38:01.999Z</time></trkpt><trkpt lat="45.146242041763195" lon="8.45066869764585"><ele>112.0</ele><time>2026-04-04T16:38:02.999Z</time></trkpt><trkpt lat="45.146385574251596" lon="8.450697988219003"><ele>112.0</ele><time>2026-04-04T16:38:03.999Z</time></trkpt><trkpt lat="45.146515436893296" lon="8.450742262973103"><ele>112.0</ele><time>2026-04-04T16:38:04.999Z</time></trkpt><trkpt lat="45.146657042920125" lon="8.45080930156099"><ele>112.0</ele><time>2026-04-04T16:38:05.999Z</time></trkpt><trkpt lat="45.146820006648454" lon="8.450863765675248"><ele>112.0</ele><time>2026-04-04T16:38:06.999Z</time></trkpt><trkpt lat="45.146999837955484" lon="8.45092459165021"><ele>112.0</ele><time>2026-04-04T16:38:07.999Z</time></trkpt><trkpt lat="45.147180878375806" lon="8.450961679379061"><ele>112.0</ele><time>2026-04-04T16:38:08.999Z</time></trkpt><trkpt lat="45.147332936818216" lon="8.451021313788022"><ele>112.0</ele><time>2026-04-04T16:38:09.999Z</time></trkpt><trkpt lat="45.147465658060895" lon="8.451073571222759"><ele>112.0</ele><time>2026-04-04T16:38:10.999Z</time></trkpt><trkpt lat="45.147587199511634" lon="8.451117170778442"><ele>112.0</ele><time>2026-04-04T16:38:11.999Z</time></trkpt><trkpt lat="45.14769789536619" lon="8.451151976117185"><ele>111.8</ele><time>2026-04-04T16:38:12.999Z</time></trkpt><trkpt lat="45.1478051174625" lon="8.451184579254699"><ele>111.6</ele><time>2026-04-04T16:38:13.999Z</time></trkpt><trkpt lat="45.1479058495469" lon="8.451220852183177"><ele>111.39999999999999</ele><time>2026-04-04T16:38:14.999Z</time></trkpt><trkpt lat="45.148005352582004" lon="8.451255829310396"><ele>111.19999999999999</ele><time>2026-04-04T16:38:15.999Z</time></trkpt><trkpt lat="45.148112777747414" lon="8.451289381290367"><ele>111.0</ele><time>2026-04-04T16:38:16.999Z</time></trkpt><trkpt lat="45.148227281653206" lon="8.451328182245854"><ele>111.0</ele><time>2026-04-04T16:38:17.999Z</time></trkpt><trkpt lat="45.14835003318928" lon="8.45137066101443"><ele>111.0</ele><time>2026-04-04T16:38:18.999Z</time></trkpt><trkpt lat="45.14847989897687" lon="8.451413759060502"><ele>111.0</ele><time>2026-04-04T16:38:19.999Z</time></trkpt><trkpt lat="45.148614861985216" lon="8.451458241477935"><ele>111.0</ele><time>2026-04-04T16:38:20.999Z</time></trkpt><trkpt lat="45.148754985976005" lon="8.451504730787661"><ele>111.0</ele><time>2026-04-04T16:38:21.999Z</time></trkpt><trkpt lat="45.14890147055148" lon="8.451551668638421"><ele>111.0</ele><time>2026-04-04T16:38:22.999Z</time></trkpt><trkpt lat="45.14905413047139" lon="8.45160066024627"><ele>111.0</ele><time>2026-04-04T16:38:23.999Z</time></trkpt><trkpt lat="45.1492076116933" lon="8.451649968124894"><ele>111.0</ele><time>2026-04-04T16:38:24.999Z</time></trkpt><trkpt lat="45.14935597731509" lon="8.45169829321745"><ele>111.0</ele><time>2026-04-04T16:38:25.999Z</time></trkpt><trkpt lat="45.14948817861544" lon="8.451742443949795"><ele>111.0</ele><time>2026-04-04T16:38:26.999Z</time></trkpt><trkpt lat="45.14962071739306" lon="8.451786893484702"><ele>111.0</ele><time>2026-04-04T16:38:28Z</time></trkpt><trkpt lat="45.149765165836875" lon="8.451834367305041"><ele>111.0</ele><time>2026-04-04T16:38:29Z</time></trkpt><trkpt lat="45.14990525387824" lon="8.451881779267296"><ele>111.0</ele><time>2026-04-04T16:38:30Z</time></trkpt><trkpt lat="45.15004016873444" lon="8.451928252842304"><ele>111.0</ele><time>2026-04-04T16:38:31Z</time></trkpt><trkpt lat="45.15016722100274" lon="8.451975223860265"><ele>111.0</ele><time>2026-04-04T16:38:32Z</time></trkpt><trkpt lat="45.15029536241387" lon="8.452020301148721"><ele>111.0</ele><time>2026-04-04T16:38:33Z</time></trkpt><trkpt lat="45.15042247774374" lon="8.452069435384564"><ele>111.0</ele><time>2026-04-04T16:38:34Z</time></trkpt><trkpt lat="45.15054408750465" lon="8.452120376630463"><ele>111.0</ele><time>2026-04-04T16:38:35Z</time></trkpt><trkpt lat="45.15065602314986" lon="8.452168787658035"><ele>111.0</ele><time>2026-04-04T16:38:36Z</time></trkpt><trkpt lat="45.150765647324114" lon="8.452216210839866"><ele>110.5</ele><time>2026-04-04T16:38:37Z</time></trkpt><trkpt lat="45.15087304117894" lon="8.452256472921226"><ele>110.0</ele><time>2026-04-04T16:38:38Z</time></trkpt><trkpt lat="45.150976148439796" lon="8.452304520125516"><ele>109.5</ele><time>2026-04-04T16:38:39Z</time></trkpt><trkpt lat="45.15107992077297" lon="8.452368675554279"><ele>109.0</ele><time>2026-04-04T16:38:40Z</time></trkpt><trkpt lat="45.151187390161915" lon="8.452439487835438"><ele>109.0</ele><time>2026-04-04T16:38:41Z</time></trkpt><trkpt lat="45.15131876838011" lon="8.452514021795155"><ele>109.0</ele><time>2026-04-04T16:38:42Z</time></trkpt><trkpt lat="45.151457025271064" lon="8.452626060934236"><ele>109.0</ele><time>2026-04-04T16:38:43Z</time></trkpt><trkpt lat="45.151623737670114" lon="8.45273989789401"><ele>109.0</ele><time>2026-04-04T16:38:44Z</time></trkpt><trkpt lat="45.15181539144058" lon="8.452866958137003"><ele>109.0</ele><time>2026-04-04T16:38:45Z</time></trkpt><trkpt lat="45.15203803201942" lon="8.452999733204498"><ele>109.5</ele><time>2026-04-04T16:38:46Z</time></trkpt><trkpt lat="45.15225932311182" lon="8.453153785976536"><ele>110.0</ele><time>2026-04-04T16:38:47Z</time></trkpt><trkpt lat="45.15250151971829" lon="8.453318594948804"><ele>110.0</ele><time>2026-04-04T16:38:48Z</time></trkpt><trkpt lat="45.152757870842024" lon="8.453487406468723"><ele>110.0</ele><time>2026-04-04T16:38:49Z</time></trkpt><trkpt lat="45.153012407003594" lon="8.453653468739466"><ele>110.5</ele><time>2026-04-04T16:38:50Z</time></trkpt><trkpt lat="45.15327376134495" lon="8.453826782852614"><ele>111.0</ele><time>2026-04-04T16:38:51Z</time></trkpt><trkpt lat="45.15354233114207" lon="8.454004952093538"><ele>111.0</ele><time>2026-04-04T16:38:52Z</time></trkpt><trkpt lat="45.153786173972755" lon="8.45416629789491"><ele>111.0</ele><time>2026-04-04T16:38:53Z</time></trkpt><trkpt lat="45.15401191037365" lon="8.454324556959799"><ele>111.0</ele><time>2026-04-04T16:38:54Z</time></trkpt><trkpt lat="45.15424328296612" lon="8.454484944726357"><ele>111.0</ele><time>2026-04-04T16:38:55Z</time></trkpt><trkpt lat="45.154469446808505" lon="8.454635694003288"><ele>111.0</ele><time>2026-04-04T16:38:56Z</time></trkpt><trkpt lat="45.15467857960481" lon="8.454771606035884"><ele>111.0</ele><time>2026-04-04T16:38:57Z</time></trkpt><trkpt lat="45.15488723528443" lon="8.454909796283399"><ele>111.0</ele><time>2026-04-04T16:38:58Z</time></trkpt><trkpt lat="45.15509784086238" lon="8.455044813810447"><ele>111.0</ele><time>2026-04-04T16:38:59Z</time></trkpt><trkpt lat="45.15530831586743" lon="8.455184760630633"><ele>111.0</ele><time>2026-04-04T16:39:00Z</time></trkpt><trkpt lat="45.15550686504332" lon="8.455314212351285"><ele>111.0</ele><time>2026-04-04T16:39:01Z</time></trkpt><trkpt lat="45.15568121394771" lon="8.455429619117378"><ele>111.0</ele><time>2026-04-04T16:39:02Z</time></trkpt><trkpt lat="45.155838258410824" lon="8.455532957308424"><ele>111.0</ele><time>2026-04-04T16:39:03Z</time></trkpt><trkpt lat="45.15598793784756" lon="8.455632559984904"><ele>111.0</ele><time>2026-04-04T16:39:04Z</time></trkpt><trkpt lat="45.15613234266973" lon="8.455728373188935"><ele>111.0</ele><time>2026-04-04T16:39:05Z</time></trkpt><trkpt lat="45.15627064229537" lon="8.455819764799003"><ele>111.0</ele><time>2026-04-04T16:39:06Z</time></trkpt><trkpt lat="45.15639958618656" lon="8.455905065591267"><ele>111.0</ele><time>2026-04-04T16:39:07Z</time></trkpt><trkpt lat="45.156538210684076" lon="8.4559954258834"><ele>111.0</ele><time>2026-04-04T16:39:08Z</time></trkpt><trkpt lat="45.15667865388017" lon="8.45608606262047"><ele>111.0</ele><time>2026-04-04T16:39:09Z</time></trkpt><trkpt lat="45.156826469623404" lon="8.456182465883225"><ele>110.33333333333334</ele><time>2026-04-04T16:39:10Z</time></trkpt><trkpt lat="45.15697849231384" lon="8.45628206838476"><ele>109.66666666666667</ele><time>2026-04-04T16:39:11Z</time></trkpt><trkpt lat="45.15713127308968" lon="8.456382652522858"><ele>109.0</ele><time>2026-04-04T16:39:12Z</time></trkpt><trkpt lat="45.15728573335298" lon="8.456483766378247"><ele>109.5</ele><time>2026-04-04T16:39:13Z</time></trkpt><trkpt lat="45.15742697718971" lon="8.456580965582445"><ele>110.0</ele><time>2026-04-04T16:39:14Z</time></trkpt><trkpt lat="45.15755583054361" lon="8.456668992290858"><ele>110.5</ele><time>2026-04-04T16:39:15Z</time></trkpt><trkpt lat="45.15766899538053" lon="8.456746389326668"><ele>111.0</ele><time>2026-04-04T16:39:16Z</time></trkpt><trkpt lat="45.157773230614055" lon="8.456816410767367"><ele>111.0</ele><time>2026-04-04T16:39:17Z</time></trkpt><trkpt lat="45.1578690328245" lon="8.456877489508098"><ele>111.0</ele><time>2026-04-04T16:39:18Z</time></trkpt><trkpt lat="45.15795541282307" lon="8.456931946827561"><ele>111.0</ele><time>2026-04-04T16:39:19Z</time></trkpt><trkpt lat="45.15802852353234" lon="8.456982080726089"><ele>111.0</ele><time>2026-04-04T16:39:20Z</time></trkpt><trkpt lat="45.158094903998084" lon="8.457029759514679"><ele>111.0</ele><time>2026-04-04T16:39:21Z</time></trkpt><trkpt lat="45.15815466061258" lon="8.45707568731652"><ele>111.0</ele><time>2026-04-04T16:39:22Z</time></trkpt><trkpt lat="45.15825358721478" lon="8.457112970290442"><ele>111.0</ele><time>2026-04-04T16:39:23.999Z</time></trkpt><trkpt lat="45.15835248642224" lon="8.45733203645742"><ele>111.0</ele><time>2026-04-04T16:39:25.999Z</time></trkpt><trkpt lat="45.158398380967306" lon="8.457475183900446"><ele>111.0</ele><time>2026-04-04T16:39:26.999Z</time></trkpt><trkpt lat="45.158435178763774" lon="8.457582709219526"><ele>111.0</ele><time>2026-04-04T16:39:27.999Z</time></trkpt><trkpt lat="45.15847128024363" lon="8.457660107358182"><ele>111.0</ele><time>2026-04-04T16:39:28.999Z</time></trkpt><trkpt lat="45.158583718645644" lon="8.457752340576684"><ele>111.0</ele><time>2026-04-04T16:39:30.999Z</time></trkpt><trkpt lat="45.15866486444786" lon="8.457770784704701"><ele>111.0</ele><time>2026-04-04T16:39:31.999Z</time></trkpt><trkpt lat="45.15876250196691" lon="8.45775203369614"><ele>111.0</ele><time>2026-04-04T16:39:32.999Z</time></trkpt><trkpt lat="45.158855593374874" lon="8.45772411650388"><ele>111.0</ele><time>2026-04-04T16:39:33.999Z</time></trkpt><trkpt lat="45.15895711856572" lon="8.457704008038494"><ele>111.0</ele><time>2026-04-04T16:39:34.999Z</time></trkpt><trkpt lat="45.159073405270036" lon="8.457714261802627"><ele>110.33333333333334</ele><time>2026-04-04T16:39:35.999Z</time></trkpt><trkpt lat="45.15918904441409" lon="8.45775793045311"><ele>109.66666666666667</ele><time>2026-04-04T16:39:36.999Z</time></trkpt><trkpt lat="45.159342706248886" lon="8.45783939973316"><ele>109.0</ele><time>2026-04-04T16:39:37.999Z</time></trkpt><trkpt lat="45.15952973974417" lon="8.457950088748653"><ele>109.0</ele><time>2026-04-04T16:39:38.999Z</time></trkpt><trkpt lat="45.15973143340825" lon="8.45810323405091"><ele>109.0</ele><time>2026-04-04T16:39:39.999Z</time></trkpt><trkpt lat="45.159958215633644" lon="8.458251344129803"><ele>109.0</ele><time>2026-04-04T16:39:40.999Z</time></trkpt><trkpt lat="45.16020268522407" lon="8.458388916728715"><ele>109.0</ele><time>2026-04-04T16:39:41.999Z</time></trkpt><trkpt lat="45.16045181488721" lon="8.458573710882359"><ele>109.5</ele><time>2026-04-04T16:39:42.999Z</time></trkpt><trkpt lat="45.16070868034124" lon="8.458754139067086"><ele>110.0</ele><time>2026-04-04T16:39:43.999Z</time></trkpt><trkpt lat="45.160969742160745" lon="8.458932206831042"><ele>110.0</ele><time>2026-04-04T16:39:44.999Z</time></trkpt><trkpt lat="45.161240189223754" lon="8.459112104465879"><ele>110.0</ele><time>2026-04-04T16:39:45.999Z</time></trkpt><trkpt lat="45.16149375612053" lon="8.45927695169627"><ele>110.0</ele><time>2026-04-04T16:39:46.999Z</time></trkpt><trkpt lat="45.16172613636742" lon="8.459433131718214"><ele>110.0</ele><time>2026-04-04T16:39:47.999Z</time></trkpt><trkpt lat="45.161949130927475" lon="8.459581513586743"><ele>110.0</ele><time>2026-04-04T16:39:48.999Z</time></trkpt><trkpt lat="45.16216697699051" lon="8.459724874749547"><ele>110.0</ele><time>2026-04-04T16:39:49.999Z</time></trkpt><trkpt lat="45.16237752540537" lon="8.459862717311017"><ele>108.5</ele><time>2026-04-04T16:39:50.999Z</time></trkpt><trkpt lat="45.162588737981174" lon="8.460002257119928"><ele>107.0</ele><time>2026-04-04T16:39:51.999Z</time></trkpt><trkpt lat="45.162798662042384" lon="8.460140529681999"><ele>107.0</ele><time>2026-04-04T16:39:52.999Z</time></trkpt><trkpt lat="45.16300740256366" lon="8.46027786695862"><ele>107.0</ele><time>2026-04-04T16:39:53.999Z</time></trkpt><trkpt lat="45.16321846293083" lon="8.460422548454558"><ele>107.0</ele><time>2026-04-04T16:39:54.999Z</time></trkpt><trkpt lat="45.1634156338665" lon="8.460558200298225"><ele>107.0</ele><time>2026-04-04T16:39:55.999Z</time></trkpt><trkpt lat="45.16361048397441" lon="8.460691602781717"><ele>107.0</ele><time>2026-04-04T16:39:56.999Z</time></trkpt><trkpt lat="45.16381554094844" lon="8.460828271527708"><ele>107.0</ele><time>2026-04-04T16:39:57.999Z</time></trkpt><trkpt lat="45.16402868751344" lon="8.460967303479702"><ele>107.0</ele><time>2026-04-04T16:39:58.999Z</time></trkpt><trkpt lat="45.164247434296506" lon="8.461110304143343"><ele>107.0</ele><time>2026-04-04T16:39:59.999Z</time></trkpt><trkpt lat="45.1644684327368" lon="8.461256657570626"><ele>107.0</ele><time>2026-04-04T16:40:00.999Z</time></trkpt><trkpt lat="45.16468453268042" lon="8.461401706548557"><ele>107.66666666666666</ele><time>2026-04-04T16:40:01.999Z</time></trkpt><trkpt lat="45.16488985907747" lon="8.46153946473071"><ele>108.33333333333334</ele><time>2026-04-04T16:40:02.999Z</time></trkpt><trkpt lat="45.16508627067948" lon="8.461667971595682"><ele>109.0</ele><time>2026-04-04T16:40:03.999Z</time></trkpt><trkpt lat="45.1652800698265" lon="8.46179638741354"><ele>109.0</ele><time>2026-04-04T16:40:04.999Z</time></trkpt><trkpt lat="45.16544407567981" lon="8.461902953600612"><ele>109.0</ele><time>2026-04-04T16:40:05.999Z</time></trkpt><trkpt lat="45.165560074889974" lon="8.461978809211262"><ele>109.0</ele><time>2026-04-04T16:40:06.999Z</time></trkpt><trkpt lat="45.16563041581339" lon="8.462026556636026"><ele>109.0</ele><time>2026-04-04T16:40:07.999Z</time></trkpt><trkpt lat="45.165680444343174" lon="8.462100461432058"><ele>108.5</ele><time>2026-04-04T16:40:09.999Z</time></trkpt><trkpt lat="45.165615457728606" lon="8.462248148248662"><ele>108.0</ele><time>2026-04-04T16:40:11.999Z</time></trkpt><trkpt lat="45.165584130915256" lon="8.462384200612341"><ele>107.5</ele><time>2026-04-04T16:40:12.999Z</time></trkpt><trkpt lat="45.16554813281917" lon="8.462514752084946"><ele>107.0</ele><time>2026-04-04T16:40:13.999Z</time></trkpt><trkpt lat="45.16550127232404" lon="8.462700747011185"><ele>107.0</ele><time>2026-04-04T16:40:14.999Z</time></trkpt><trkpt lat="45.165441244668855" lon="8.46291942289311"><ele>107.0</ele><time>2026-04-04T16:40:15.999Z</time></trkpt><trkpt lat="45.16537429857761" lon="8.463171867344588"><ele>107.0</ele><time>2026-04-04T16:40:16.999Z</time></trkpt><trkpt lat="45.165296632986106" lon="8.463449410118523"><ele>107.33333333333333</ele><time>2026-04-04T16:40:17.999Z</time></trkpt><trkpt lat="45.16520104395023" lon="8.463732532025745"><ele>107.66666666666666</ele><time>2026-04-04T16:40:18.999Z</time></trkpt><trkpt lat="45.16512777776815" lon="8.464035716356994"><ele>108.0</ele><time>2026-04-04T16:40:19.999Z</time></trkpt><trkpt lat="45.16502565647382" lon="8.464284467550526"><ele>108.66666666666666</ele><time>2026-04-04T16:40:20.999Z</time></trkpt><trkpt lat="45.164935101041884" lon="8.464510804771633"><ele>109.33333333333333</ele><time>2026-04-04T16:40:21.999Z</time></trkpt><trkpt lat="45.164832247680174" lon="8.464739703254564"><ele>110.0</ele><time>2026-04-04T16:40:22.999Z</time></trkpt><trkpt lat="45.16471338665653" lon="8.46494571188224"><ele>110.0</ele><time>2026-04-04T16:40:23.999Z</time></trkpt><trkpt lat="45.16457791227013" lon="8.465144885958397"><ele>110.0</ele><time>2026-04-04T16:40:24.999Z</time></trkpt><trkpt lat="45.16441169445271" lon="8.465372749265155"><ele>110.0</ele><time>2026-04-04T16:40:25.999Z</time></trkpt><trkpt lat="45.16423711782906" lon="8.465614406777053"><ele>110.5</ele><time>2026-04-04T16:40:26.999Z</time></trkpt><trkpt lat="45.164051431514196" lon="8.465862580845007"><ele>111.0</ele><time>2026-04-04T16:40:27.999Z</time></trkpt><trkpt lat="45.1638743158176" lon="8.466104215572072"><ele>111.0</ele><time>2026-04-04T16:40:28.999Z</time></trkpt><trkpt lat="45.16372951220263" lon="8.46636014637661"><ele>111.0</ele><time>2026-04-04T16:40:29.999Z</time></trkpt><trkpt lat="45.163586251958456" lon="8.466601650936823"><ele>111.0</ele><time>2026-04-04T16:40:30.999Z</time></trkpt><trkpt lat="45.16346210252538" lon="8.466823397705653"><ele>111.0</ele><time>2026-04-04T16:40:31.999Z</time></trkpt><trkpt lat="45.16335268434408" lon="8.467044442028685"><ele>111.0</ele><time>2026-04-04T16:40:32.999Z</time></trkpt><trkpt lat="45.16324626255956" lon="8.46728102695886"><ele>111.0</ele><time>2026-04-04T16:40:34Z</time></trkpt><trkpt lat="45.163385220291076" lon="8.46772499278846"><ele>111.0</ele><time>2026-04-04T16:40:35Z</time></trkpt><trkpt lat="45.16325977056664" lon="8.468002249735061"><ele>110.0</ele><time>2026-04-04T16:40:36Z</time></trkpt><trkpt lat="45.16314216511248" lon="8.468256773697725"><ele>109.0</ele><time>2026-04-04T16:40:37Z</time></trkpt><trkpt lat="45.16301018898375" lon="8.468492196140792"><ele>108.0</ele><time>2026-04-04T16:40:38Z</time></trkpt><trkpt lat="45.1625749683354" lon="8.468374935592559"><ele>108.0</ele><time>2026-04-04T16:40:39Z</time></trkpt><trkpt lat="45.162490095743266" lon="8.468490247591983"><ele>108.00000000000001</ele><time>2026-04-04T16:40:40Z</time></trkpt><trkpt lat="45.16243206572652" lon="8.468586727350434"><ele>108.00000000000001</ele><time>2026-04-04T16:40:41Z</time></trkpt><trkpt lat="45.16240531668581" lon="8.468709773796327"><ele>108.0</ele><time>2026-04-04T16:40:43Z</time></trkpt><trkpt lat="45.162533401916086" lon="8.468801296451662"><ele>108.0</ele><time>2026-04-04T16:40:45Z</time></trkpt><trkpt lat="45.16265371473046" lon="8.468822006956344"><ele>108.33333333333334</ele><time>2026-04-04T16:40:46Z</time></trkpt><trkpt lat="45.16280254860889" lon="8.468842763235974"><ele>108.66666666666667</ele><time>2026-04-04T16:40:47Z</time></trkpt><trkpt lat="45.1629811851538" lon="8.468889361775823"><ele>109.0</ele><time>2026-04-04T16:40:48Z</time></trkpt><trkpt lat="45.16318137618837" lon="8.468954142758676"><ele>109.33333333333334</ele><time>2026-04-04T16:40:49Z</time></trkpt><trkpt lat="45.16338687451633" lon="8.469025982099168"><ele>109.66666666666666</ele><time>2026-04-04T16:40:50Z</time></trkpt><trkpt lat="45.163584754257876" lon="8.46908724517002"><ele>110.0</ele><time>2026-04-04T16:40:51Z</time></trkpt><trkpt lat="45.16380823251518" lon="8.469151896498744"><ele>109.0</ele><time>2026-04-04T16:40:52Z</time></trkpt><trkpt lat="45.164044595758874" lon="8.46921957531646"><ele>108.0</ele><time>2026-04-04T16:40:53Z</time></trkpt><trkpt lat="45.16427692996105" lon="8.469287477822101"><ele>108.0</ele><time>2026-04-04T16:40:54Z</time></trkpt><trkpt lat="45.16447465614194" lon="8.469347103753107"><ele>108.0</ele><time>2026-04-04T16:40:55Z</time></trkpt><trkpt lat="45.16467022561379" lon="8.46939811867936"><ele>108.0</ele><time>2026-04-04T16:40:56Z</time></trkpt><trkpt lat="45.16487149311595" lon="8.469456901160468"><ele>107.75</ele><time>2026-04-04T16:40:57Z</time></trkpt><trkpt lat="45.165037738673156" lon="8.469504135207744"><ele>107.5</ele><time>2026-04-04T16:40:58Z</time></trkpt><trkpt lat="45.16516659054762" lon="8.469543642227826"><ele>107.25</ele><time>2026-04-04T16:40:59Z</time></trkpt><trkpt lat="45.16526848923195" lon="8.469589925056567"><ele>107.0</ele><time>2026-04-04T16:41:00Z</time></trkpt><trkpt lat="45.16534547877364" lon="8.469671661290576"><ele>107.0</ele><time>2026-04-04T16:41:01Z</time></trkpt><trkpt lat="45.16540318363061" lon="8.469802327149957"><ele>107.0</ele><time>2026-04-04T16:41:02Z</time></trkpt><trkpt lat="45.16544804200706" lon="8.46999187919847"><ele>107.0</ele><time>2026-04-04T16:41:03Z</time></trkpt><trkpt lat="45.16549926935963" lon="8.470233322986067"><ele>107.0</ele><time>2026-04-04T16:41:04Z</time></trkpt><trkpt lat="45.165565776102305" lon="8.470487749856384"><ele>107.0</ele><time>2026-04-04T16:41:05Z</time></trkpt><trkpt lat="45.165632026300386" lon="8.470722453590556"><ele>107.0</ele><time>2026-04-04T16:41:06Z</time></trkpt><trkpt lat="45.16568770006026" lon="8.470891334911066"><ele>107.0</ele><time>2026-04-04T16:41:07Z</time></trkpt><trkpt lat="45.1657399550812" lon="8.471008291979926"><ele>107.0</ele><time>2026-04-04T16:41:08Z</time></trkpt><trkpt lat="45.16580158047101" lon="8.471074827058557"><ele>107.25</ele><time>2026-04-04T16:41:09Z</time></trkpt><trkpt lat="45.1658836361213" lon="8.47110904006459"><ele>107.5</ele><time>2026-04-04T16:41:10Z</time></trkpt><trkpt lat="45.16600968915166" lon="8.47114219819547"><ele>107.75</ele><time>2026-04-04T16:41:11Z</time></trkpt><trkpt lat="45.166162748461474" lon="8.471189681076071"><ele>108.0</ele><time>2026-04-04T16:41:12Z</time></trkpt><trkpt lat="45.16633898954638" lon="8.47126920282613"><ele>107.66666666666666</ele><time>2026-04-04T16:41:13Z</time></trkpt><trkpt lat="45.166516332824095" lon="8.471356567797171"><ele>107.33333333333333</ele><time>2026-04-04T16:41:14Z</time></trkpt><trkpt lat="45.16667465898765" lon="8.471443917929642"><ele>107.0</ele><time>2026-04-04T16:41:15Z</time></trkpt><trkpt lat="45.1668358639093" lon="8.471573815403312"><ele>107.66666666666666</ele><time>2026-04-04T16:41:16Z</time></trkpt><trkpt lat="45.167015273702795" lon="8.471747591511908"><ele>108.33333333333334</ele><time>2026-04-04T16:41:17Z</time></trkpt><trkpt lat="45.16717590392651" lon="8.47192176391494"><ele>109.0</ele><time>2026-04-04T16:41:18Z</time></trkpt><trkpt lat="45.167290424937185" lon="8.472050588744969"><ele>108.6</ele><time>2026-04-04T16:41:19Z</time></trkpt><trkpt lat="45.16736920407911" lon="8.472162969832622"><ele>108.2</ele><time>2026-04-04T16:41:20Z</time></trkpt><trkpt lat="45.16742235192763" lon="8.472292532453816"><ele>107.79999999999998</ele><time>2026-04-04T16:41:21Z</time></trkpt><trkpt lat="45.16746454698708" lon="8.472442152393938"><ele>107.39999999999999</ele><time>2026-04-04T16:41:22Z</time></trkpt><trkpt lat="45.16749378210783" lon="8.472548556549226"><ele>107.0</ele><time>2026-04-04T16:41:23Z</time></trkpt><trkpt lat="45.167594526547994" lon="8.472648738022398"><ele>107.0</ele><time>2026-04-04T16:41:25Z</time></trkpt><trkpt lat="45.16770189793825" lon="8.472701729101528"><ele>107.0</ele><time>2026-04-04T16:41:26Z</time></trkpt><trkpt lat="45.167835103290685" lon="8.472757798906462"><ele>107.0</ele><time>2026-04-04T16:41:27Z</time></trkpt><trkpt lat="45.16799823800844" lon="8.472810638538402"><ele>107.0</ele><time>2026-04-04T16:41:28Z</time></trkpt><trkpt lat="45.168196731051374" lon="8.47286220245573"><ele>107.0</ele><time>2026-04-04T16:41:29Z</time></trkpt><trkpt lat="45.168414278405386" lon="8.47290192833315"><ele>107.0</ele><time>2026-04-04T16:41:30Z</time></trkpt><trkpt lat="45.16865379418461" lon="8.472950528177302"><ele>107.0</ele><time>2026-04-04T16:41:31Z</time></trkpt><trkpt lat="45.168872806725616" lon="8.473035606889697"><ele>107.0</ele><time>2026-04-04T16:41:32Z</time></trkpt><trkpt lat="45.169070797629885" lon="8.47310224269629"><ele>107.0</ele><time>2026-04-04T16:41:32.999Z</time></trkpt><trkpt lat="45.16925818915761" lon="8.47312344916048"><ele>107.0</ele><time>2026-04-04T16:41:33.999Z</time></trkpt><trkpt lat="45.16942699605864" lon="8.473142290233046"><ele>107.0</ele><time>2026-04-04T16:41:34.999Z</time></trkpt><trkpt lat="45.16957833407534" lon="8.473149619160251"><ele>107.0</ele><time>2026-04-04T16:41:35.999Z</time></trkpt><trkpt lat="45.169707416492" lon="8.473147180308207"><ele>107.0</ele><time>2026-04-04T16:41:36.999Z</time></trkpt><trkpt lat="45.16981866660235" lon="8.473139934435636"><ele>106.99999999999999</ele><time>2026-04-04T16:41:37.999Z</time></trkpt><trkpt lat="45.16991948586115" lon="8.473124457574542"><ele>106.99999999999999</ele><time>2026-04-04T16:41:38.999Z</time></trkpt><trkpt lat="45.17001966825837" lon="8.47307451014267"><ele>107.0</ele><time>2026-04-04T16:41:39.999Z</time></trkpt><trkpt lat="45.17012623502938" lon="8.472993136340003"><ele>107.0</ele><time>2026-04-04T16:41:40.999Z</time></trkpt><trkpt lat="45.17021002635906" lon="8.472952806008777"><ele>107.0</ele><time>2026-04-04T16:41:41.999Z</time></trkpt><trkpt lat="45.17028979890184" lon="8.473004885283839"><ele>107.0</ele><time>2026-04-04T16:41:42.999Z</time></trkpt><trkpt lat="45.17038570641037" lon="8.473079694628401"><ele>107.0</ele><time>2026-04-04T16:41:43.999Z</time></trkpt><trkpt lat="45.17052394398853" lon="8.473172404688622"><ele>107.0</ele><time>2026-04-04T16:41:44.999Z</time></trkpt><trkpt lat="45.17067111847356" lon="8.473279447595186"><ele>107.25</ele><time>2026-04-04T16:41:45.999Z</time></trkpt><trkpt lat="45.17078903230482" lon="8.47337983925465"><ele>107.5</ele><time>2026-04-04T16:41:46.999Z</time></trkpt><trkpt lat="45.17085997120004" lon="8.473475605625193"><ele>107.75</ele><time>2026-04-04T16:41:47.999Z</time></trkpt><trkpt lat="45.170900021899854" lon="8.473609051551096"><ele>108.0</ele><time>2026-04-04T16:41:48.999Z</time></trkpt><trkpt lat="45.170926565679665" lon="8.473792864932584"><ele>107.25</ele><time>2026-04-04T16:41:49.999Z</time></trkpt><trkpt lat="45.17094534838974" lon="8.473971009047672"><ele>106.5</ele><time>2026-04-04T16:41:50.999Z</time></trkpt><trkpt lat="45.170992623435296" lon="8.474110581943544"><ele>105.75</ele><time>2026-04-04T16:41:51.999Z</time></trkpt><trkpt lat="45.17107060356699" lon="8.474226426285426"><ele>105.0</ele><time>2026-04-04T16:41:52.999Z</time></trkpt><trkpt lat="45.17116422983591" lon="8.474313314233227"><ele>105.0</ele><time>2026-04-04T16:41:53.999Z</time></trkpt><trkpt lat="45.17127721828758" lon="8.474396644709703"><ele>105.0</ele><time>2026-04-04T16:41:54.999Z</time></trkpt><trkpt lat="45.17142399599147" lon="8.474502418030841"><ele>105.0</ele><time>2026-04-04T16:41:55.999Z</time></trkpt><trkpt lat="45.17160670350897" lon="8.474623804464064"><ele>106.33333333333334</ele><time>2026-04-04T16:41:56.999Z</time></trkpt><trkpt lat="45.1717888921689" lon="8.474735669901229"><ele>107.66666666666667</ele><time>2026-04-04T16:41:57.999Z</time></trkpt><trkpt lat="45.17191409060696" lon="8.474863640195982"><ele>109.0</ele><time>2026-04-04T16:41:58.999Z</time></trkpt><trkpt lat="45.172010416836166" lon="8.474975007281218"><ele>109.0</ele><time>2026-04-04T16:41:59.999Z</time></trkpt><trkpt lat="45.172075918138425" lon="8.475100807815856"><ele>109.0</ele><time>2026-04-04T16:42:00.999Z</time></trkpt><trkpt lat="45.17212095417273" lon="8.475254594295302"><ele>109.0</ele><time>2026-04-04T16:42:01.999Z</time></trkpt><trkpt lat="45.17215018358809" lon="8.475442337555933"><ele>109.0</ele><time>2026-04-04T16:42:02.999Z</time></trkpt><trkpt lat="45.17217596304102" lon="8.475592362227298"><ele>108.80000000000001</ele><time>2026-04-04T16:42:03.999Z</time></trkpt><trkpt lat="45.17220505349446" lon="8.475685305676759"><ele>108.60000000000001</ele><time>2026-04-04T16:42:04.999Z</time></trkpt><trkpt lat="45.1722781322809" lon="8.475727051395666"><ele>108.4</ele><time>2026-04-04T16:42:05.999Z</time></trkpt><trkpt lat="45.17236587117833" lon="8.475742234396751"><ele>108.2</ele><time>2026-04-04T16:42:06.999Z</time></trkpt><trkpt lat="45.172477087978294" lon="8.475725138190805"><ele>108.0</ele><time>2026-04-04T16:42:07.999Z</time></trkpt><trkpt lat="45.172614705180784" lon="8.475670887330892"><ele>107.66666666666666</ele><time>2026-04-04T16:42:08.999Z</time></trkpt><trkpt lat="45.17276906585424" lon="8.475596469680438"><ele>107.33333333333333</ele><time>2026-04-04T16:42:09.999Z</time></trkpt><trkpt lat="45.17295782439378" lon="8.475512118023952"><ele>107.0</ele><time>2026-04-04T16:42:10.999Z</time></trkpt><trkpt lat="45.17317540766655" lon="8.475465432114097"><ele>106.5</ele><time>2026-04-04T16:42:11.999Z</time></trkpt><trkpt lat="45.17340994845058" lon="8.475405039739316"><ele>106.0</ele><time>2026-04-04T16:42:12.999Z</time></trkpt><trkpt lat="45.173655834849605" lon="8.475341725965771"><ele>106.0</ele><time>2026-04-04T16:42:13.999Z</time></trkpt><trkpt lat="45.17384293705983" lon="8.475271416470212"><ele>106.0</ele><time>2026-04-04T16:42:14.999Z</time></trkpt><trkpt lat="45.17398886292781" lon="8.475257698847226"><ele>106.0</ele><time>2026-04-04T16:42:15.999Z</time></trkpt><trkpt lat="45.17408631943118" lon="8.475224677314388"><ele>106.0</ele><time>2026-04-04T16:42:16.999Z</time></trkpt><trkpt lat="45.17415723407636" lon="8.475188980187111"><ele>106.75</ele><time>2026-04-04T16:42:17.999Z</time></trkpt><trkpt lat="45.17424894399479" lon="8.475324369399155"><ele>107.5</ele><time>2026-04-04T16:42:19.999Z</time></trkpt><trkpt lat="45.17433457314088" lon="8.475443414344735"><ele>108.25</ele><time>2026-04-04T16:42:20.999Z</time></trkpt><trkpt lat="45.174443543799114" lon="8.475604805104894"><ele>109.0</ele><time>2026-04-04T16:42:21.999Z</time></trkpt><trkpt lat="45.174571776817686" lon="8.475782311134422"><ele>109.0</ele><time>2026-04-04T16:42:22.999Z</time></trkpt><trkpt lat="45.17471376852698" lon="8.475984064775522"><ele>109.0</ele><time>2026-04-04T16:42:23.999Z</time></trkpt><trkpt lat="45.174872306215875" lon="8.476211299091734"><ele>109.0</ele><time>2026-04-04T16:42:24.999Z</time></trkpt><trkpt lat="45.175016437588724" lon="8.476408095428221"><ele>109.0</ele><time>2026-04-04T16:42:25.999Z</time></trkpt><trkpt lat="45.17514262439977" lon="8.476572868742274"><ele>109.0</ele><time>2026-04-04T16:42:26.999Z</time></trkpt><trkpt lat="45.17525348381301" lon="8.476713176312625"><ele>109.0</ele><time>2026-04-04T16:42:27.999Z</time></trkpt><trkpt lat="45.175344440716174" lon="8.476831801753523"><ele>109.0</ele><time>2026-04-04T16:42:28.999Z</time></trkpt><trkpt lat="45.17542016413075" lon="8.47692844776104"><ele>109.00000000000001</ele><time>2026-04-04T16:42:29.999Z</time></trkpt><trkpt lat="45.175479421992925" lon="8.477006910698586"><ele>109.0</ele><time>2026-04-04T16:42:30.999Z</time></trkpt><trkpt lat="45.17552648073289" lon="8.47706726355181"><ele>109.0</ele><time>2026-04-04T16:42:31.999Z</time></trkpt><trkpt lat="45.175591785066274" lon="8.477138595467368"><ele>109.0</ele><time>2026-04-04T16:42:33.999Z</time></trkpt><trkpt lat="45.175734588680804" lon="8.477066953543885"><ele>109.00000000000001</ele><time>2026-04-04T16:42:35.999Z</time></trkpt><trkpt lat="45.175799826513995" lon="8.477032019988822"><ele>109.0</ele><time>2026-04-04T16:42:37.999Z</time></trkpt><trkpt lat="45.17587411463933" lon="8.476975035141521"><ele>109.00000000000001</ele><time>2026-04-04T16:42:41Z</time></trkpt><trkpt lat="45.1759207387081" lon="8.476867327465735"><ele>109.0</ele><time>2026-04-04T16:45:55.999Z</time></trkpt><trkpt lat="45.17587310984885" lon="8.476779339214984"><ele>109.0</ele><time>2026-04-04T16:45:57.999Z</time></trkpt><trkpt lat="45.17583083798425" lon="8.476700038198397"><ele>109.0</ele><time>2026-04-04T16:46:52.999Z</time></trkpt><trkpt lat="45.17576326158305" lon="8.476613678600469"><ele>109.00000000000001</ele><time>2026-04-04T16:47:12.999Z</time></trkpt><trkpt lat="45.17569278400184" lon="8.4765105610328"><ele>109.0</ele><time>2026-04-04T16:47:13.999Z</time></trkpt><trkpt lat="45.17559087987054" lon="8.47635655617679"><ele>109.0</ele><time>2026-04-04T16:47:14.999Z</time></trkpt><trkpt lat="45.17546632271121" lon="8.47616486769433"><ele>109.0</ele><time>2026-04-04T16:47:15.999Z</time></trkpt><trkpt lat="45.17531792252832" lon="8.475936324799294"><ele>109.0</ele><time>2026-04-04T16:47:16.999Z</time></trkpt><trkpt lat="45.17515655725388" lon="8.475692235794114"><ele>109.0</ele><time>2026-04-04T16:47:17.999Z</time></trkpt><trkpt lat="45.17497796628875" lon="8.475424963981695"><ele>109.0</ele><time>2026-04-04T16:47:18.999Z</time></trkpt><trkpt lat="45.17479172599659" lon="8.475148329576697"><ele>109.0</ele><time>2026-04-04T16:47:19.999Z</time></trkpt><trkpt lat="45.17459357007702" lon="8.474848947657792"><ele>109.0</ele><time>2026-04-04T16:47:20.999Z</time></trkpt><trkpt lat="45.17438819439419" lon="8.474540886274003"><ele>108.5</ele><time>2026-04-04T16:47:21.999Z</time></trkpt><trkpt lat="45.174184513952355" lon="8.474228451749513"><ele>108.0</ele><time>2026-04-04T16:47:22.999Z</time></trkpt><trkpt lat="45.17397470695658" lon="8.47390961112879"><ele>108.0</ele><time>2026-04-04T16:47:23.999Z</time></trkpt><trkpt lat="45.173756634971404" lon="8.473579245166619"><ele>108.0</ele><time>2026-04-04T16:47:24.999Z</time></trkpt><trkpt lat="45.17353022881657" lon="8.473238155423486"><ele>108.0</ele><time>2026-04-04T16:47:25.999Z</time></trkpt><trkpt lat="45.17329941631029" lon="8.472890186905245"><ele>108.0</ele><time>2026-04-04T16:47:26.999Z</time></trkpt><trkpt lat="45.17306881989993" lon="8.472542275078078"><ele>108.5</ele><time>2026-04-04T16:47:27.999Z</time></trkpt><trkpt lat="45.172874117287655" lon="8.472245743498531"><ele>109.0</ele><time>2026-04-04T16:47:28.999Z</time></trkpt><trkpt lat="45.172719446931644" lon="8.472011415449108"><ele>109.33333333333334</ele><time>2026-04-04T16:47:29.999Z</time></trkpt><trkpt lat="45.17259224114632" lon="8.471818317831364"><ele>109.66666666666666</ele><time>2026-04-04T16:47:30.999Z</time></trkpt><trkpt lat="45.17248926515015" lon="8.471656442408694"><ele>110.0</ele><time>2026-04-04T16:47:31.999Z</time></trkpt><trkpt lat="45.17240875760656" lon="8.471525600754658"><ele>109.85714285714285</ele><time>2026-04-04T16:47:32.999Z</time></trkpt><trkpt lat="45.17235282790389" lon="8.471424458090357"><ele>109.71428571428571</ele><time>2026-04-04T16:47:33.999Z</time></trkpt><trkpt lat="45.172326610298846" lon="8.471332160397656"><ele>109.57142857142857</ele><time>2026-04-04T16:47:34.999Z</time></trkpt><trkpt lat="45.172344576913645" lon="8.471232704212559"><ele>109.42857142857142</ele><time>2026-04-04T16:47:35.999Z</time></trkpt><trkpt lat="45.17239150031055" lon="8.471148737973628"><ele>109.28571428571429</ele><time>2026-04-04T16:47:36.999Z</time></trkpt><trkpt lat="45.17245110714621" lon="8.471103739805898"><ele>109.14285714285714</ele><time>2026-04-04T16:47:37.999Z</time></trkpt><trkpt lat="45.1725194276209" lon="8.471087006487194"><ele>109.0</ele><time>2026-04-04T16:47:40.999Z</time></trkpt><trkpt lat="45.1725746697476" lon="8.471023955402256"><ele>109.0</ele><time>2026-04-04T16:50:12.999Z</time></trkpt><trkpt lat="45.17246015889216" lon="8.47090515565802"><ele>109.0</ele><time>2026-04-04T16:50:14.999Z</time></trkpt><trkpt lat="45.17237522376699" lon="8.47090090356745"><ele>109.0</ele><time>2026-04-04T16:50:15.999Z</time></trkpt><trkpt lat="45.172304016750594" lon="8.470851005181109"><ele>109.0</ele><time>2026-04-04T16:50:16.999Z</time></trkpt><trkpt lat="45.1722166937797" lon="8.470797767171435"><ele>109.0</ele><time>2026-04-04T16:50:18.999Z</time></trkpt><trkpt lat="45.17216950913023" lon="8.471071133723392"><ele>109.0</ele><time>2026-04-04T16:50:20.999Z</time></trkpt><trkpt lat="45.17220149851091" lon="8.471217981529778"><ele>109.0</ele><time>2026-04-04T16:50:22.999Z</time></trkpt><trkpt lat="45.17221688868454" lon="8.471321673034781"><ele>109.0</ele><time>2026-04-04T16:50:23.999Z</time></trkpt><trkpt lat="45.17228569521488" lon="8.471427502491577"><ele>109.0</ele><time>2026-04-04T16:50:24.999Z</time></trkpt><trkpt lat="45.17236176464358" lon="8.471541964339393"><ele>109.0</ele><time>2026-04-04T16:50:25.999Z</time></trkpt><trkpt lat="45.17244540531306" lon="8.471671869835612"><ele>109.0</ele><time>2026-04-04T16:50:26.999Z</time></trkpt><trkpt lat="45.172524524902094" lon="8.47179322458702"><ele>109.0</ele><time>2026-04-04T16:50:27.999Z</time></trkpt><trkpt lat="45.17259945708021" lon="8.471905500437336"><ele>109.0</ele><time>2026-04-04T16:50:28.999Z</time></trkpt><trkpt lat="45.17266483414125" lon="8.472003987421104"><ele>109.0</ele><time>2026-04-04T16:50:29.999Z</time></trkpt><trkpt lat="45.17271360724094" lon="8.472077798268295"><ele>109.0</ele><time>2026-04-04T16:50:30.999Z</time></trkpt><trkpt lat="45.17275982679065" lon="8.47215546631551"><ele>109.0</ele><time>2026-04-04T16:50:32.999Z</time></trkpt><trkpt lat="45.172813399034105" lon="8.472270171072322"><ele>109.0</ele><time>2026-04-04T16:51:17Z</time></trkpt><trkpt lat="45.172908504318606" lon="8.472396971304105"><ele>109.0</ele><time>2026-04-04T16:51:18Z</time></trkpt><trkpt lat="45.17302566969424" lon="8.47257244163694"><ele>109.0</ele><time>2026-04-04T16:51:19Z</time></trkpt><trkpt lat="45.173165259053945" lon="8.472773691188884"><ele>108.5</ele><time>2026-04-04T16:51:20Z</time></trkpt><trkpt lat="45.17331845262696" lon="8.473003686215115"><ele>108.0</ele><time>2026-04-04T16:51:21Z</time></trkpt><trkpt lat="45.17348852494624" lon="8.473263395412818"><ele>108.0</ele><time>2026-04-04T16:51:22Z</time></trkpt><trkpt lat="45.17366662792116" lon="8.473535526702282"><ele>108.0</ele><time>2026-04-04T16:51:23Z</time></trkpt><trkpt lat="45.173858366751276" lon="8.473824871408342"><ele>108.0</ele><time>2026-04-04T16:51:24Z</time></trkpt><trkpt lat="45.17406287658785" lon="8.474127979504784"><ele>108.0</ele><time>2026-04-04T16:51:25Z</time></trkpt><trkpt lat="45.174265506383044" lon="8.47443357510281"><ele>108.5</ele><time>2026-04-04T16:51:26Z</time></trkpt><trkpt lat="45.17447427203178" lon="8.474753597496777"><ele>109.0</ele><time>2026-04-04T16:51:27Z</time></trkpt><trkpt lat="45.174690117516064" lon="8.475079440692566"><ele>109.0</ele><time>2026-04-04T16:51:28Z</time></trkpt><trkpt lat="45.17490963587636" lon="8.475416750453325"><ele>109.0</ele><time>2026-04-04T16:51:29Z</time></trkpt><trkpt lat="45.175132783159825" lon="8.475759514982649"><ele>109.0</ele><time>2026-04-04T16:51:30Z</time></trkpt><trkpt lat="45.175337279117755" lon="8.476068457866457"><ele>109.0</ele><time>2026-04-04T16:51:31Z</time></trkpt><trkpt lat="45.175520850444165" lon="8.476345245761426"><ele>108.5</ele><time>2026-04-04T16:51:32Z</time></trkpt><trkpt lat="45.17569158730498" lon="8.47660190483011"><ele>108.0</ele><time>2026-04-04T16:51:33Z</time></trkpt><trkpt lat="45.17585282896957" lon="8.476842933719494"><ele>108.0</ele><time>2026-04-04T16:51:34Z</time></trkpt><trkpt lat="45.17600219598957" lon="8.47707392432949"><ele>108.0</ele><time>2026-04-04T16:51:35Z</time></trkpt><trkpt lat="45.176142996129194" lon="8.477292446056955"><ele>108.0</ele><time>2026-04-04T16:51:36Z</time></trkpt><trkpt lat="45.176274640221834" lon="8.477499538902848"><ele>108.0</ele><time>2026-04-04T16:51:37Z</time></trkpt><trkpt lat="45.17640298958179" lon="8.477693596067434"><ele>108.0</ele><time>2026-04-04T16:51:38Z</time></trkpt><trkpt lat="45.17652255680747" lon="8.477880925338171"><ele>108.0</ele><time>2026-04-04T16:51:39Z</time></trkpt><trkpt lat="45.17663685965416" lon="8.47805494800364"><ele>107.66666666666666</ele><time>2026-04-04T16:51:40Z</time></trkpt><trkpt lat="45.1767464454657" lon="8.478222714333343"><ele>107.33333333333333</ele><time>2026-04-04T16:51:41Z</time></trkpt><trkpt lat="45.176849124855785" lon="8.47838136575451"><ele>107.0</ele><time>2026-04-04T16:51:42Z</time></trkpt><trkpt lat="45.17694640719259" lon="8.478532379975725"><ele>107.0</ele><time>2026-04-04T16:51:43Z</time></trkpt><trkpt lat="45.17704057871562" lon="8.478676399706227"><ele>107.0</ele><time>2026-04-04T16:51:44Z</time></trkpt><trkpt lat="45.177130542026234" lon="8.478815627672802"><ele>107.0</ele><time>2026-04-04T16:51:45Z</time></trkpt><trkpt lat="45.17721474688618" lon="8.478946407944852"><ele>107.0</ele><time>2026-04-04T16:51:46Z</time></trkpt><trkpt lat="45.17729638095571" lon="8.479072239146946"><ele>107.5</ele><time>2026-04-04T16:51:47Z</time></trkpt><trkpt lat="45.17737876911821" lon="8.479195932164828"><ele>108.0</ele><time>2026-04-04T16:51:48Z</time></trkpt><trkpt lat="45.17746037298615" lon="8.479319575537065"><ele>108.5</ele><time>2026-04-04T16:51:49Z</time></trkpt><trkpt lat="45.17754074286221" lon="8.479443138036494"><ele>109.0</ele><time>2026-04-04T16:51:50Z</time></trkpt><trkpt lat="45.17761900265638" lon="8.479564574158916"><ele>108.6</ele><time>2026-04-04T16:51:51Z</time></trkpt><trkpt lat="45.177694199743726" lon="8.47968145725138"><ele>108.2</ele><time>2026-04-04T16:51:52Z</time></trkpt><trkpt lat="45.17776471949256" lon="8.479789741467163"><ele>107.79999999999998</ele><time>2026-04-04T16:51:53Z</time></trkpt><trkpt lat="45.17782855519424" lon="8.479885281578303"><ele>107.39999999999999</ele><time>2026-04-04T16:51:54Z</time></trkpt><trkpt lat="45.17788863616528" lon="8.47996461206615"><ele>107.0</ele><time>2026-04-04T16:51:55Z</time></trkpt><trkpt lat="45.17794588008228" lon="8.480029228087805"><ele>106.99999999999999</ele><time>2026-04-04T16:51:56Z</time></trkpt><trkpt lat="45.1780003754308" lon="8.480085609483327"><ele>107.0</ele><time>2026-04-04T16:51:57Z</time></trkpt><trkpt lat="45.17807709681737" lon="8.480163204456636"><ele>107.0</ele><time>2026-04-04T16:51:59Z</time></trkpt><trkpt lat="45.17813931280852" lon="8.480210159351865"><ele>107.0</ele><time>2026-04-04T16:52:45.999Z</time></trkpt><trkpt lat="45.178197024756315" lon="8.480258322775038"><ele>106.99999999999999</ele><time>2026-04-04T16:52:46.999Z</time></trkpt><trkpt lat="45.17827335259795" lon="8.480332428761391"><ele>107.0</ele><time>2026-04-04T16:52:47.999Z</time></trkpt><trkpt lat="45.17836258599296" lon="8.480413460776276"><ele>107.25</ele><time>2026-04-04T16:52:48.999Z</time></trkpt><trkpt lat="45.17847149183717" lon="8.480505610472227"><ele>107.5</ele><time>2026-04-04T16:52:49.999Z</time></trkpt><trkpt lat="45.1785929281856" lon="8.480607197985414"><ele>107.75</ele><time>2026-04-04T16:52:50.999Z</time></trkpt><trkpt lat="45.178731240802286" lon="8.480732021482705"><ele>108.0</ele><time>2026-04-04T16:52:51.999Z</time></trkpt><trkpt lat="45.178876264869295" lon="8.48086657026121"><ele>108.0</ele><time>2026-04-04T16:52:52.999Z</time></trkpt><trkpt lat="45.17901022427903" lon="8.480978321850786"><ele>108.0</ele><time>2026-04-04T16:52:53.999Z</time></trkpt><trkpt lat="45.17912738154555" lon="8.481071464689062"><ele>108.0</ele><time>2026-04-04T16:52:54.999Z</time></trkpt><trkpt lat="45.17924910121427" lon="8.481104348974394"><ele>108.0</ele><time>2026-04-04T16:52:55.999Z</time></trkpt><trkpt lat="45.17938414908121" lon="8.481076618043208"><ele>108.33333333333334</ele><time>2026-04-04T16:52:56.999Z</time></trkpt><trkpt lat="45.17953066163239" lon="8.480977809073403"><ele>108.66666666666667</ele><time>2026-04-04T16:52:57.999Z</time></trkpt><trkpt lat="45.17968889013914" lon="8.480844293891474"><ele>109.0</ele><time>2026-04-04T16:52:58.999Z</time></trkpt><trkpt lat="45.179853697792154" lon="8.48069243800449"><ele>109.33333333333334</ele><time>2026-04-04T16:52:59.999Z</time></trkpt><trkpt lat="45.18001765083892" lon="8.48054005572702"><ele>109.66666666666666</ele><time>2026-04-04T16:53:00.999Z</time></trkpt><trkpt lat="45.1801888620001" lon="8.480394376888666"><ele>110.0</ele><time>2026-04-04T16:53:01.999Z</time></trkpt><trkpt lat="45.18036109631339" lon="8.480244448756908"><ele>110.0</ele><time>2026-04-04T16:53:02.999Z</time></trkpt><trkpt lat="45.1805229396042" lon="8.480104877734448"><ele>110.0</ele><time>2026-04-04T16:53:03.999Z</time></trkpt><trkpt lat="45.180691064669084" lon="8.479978228988411"><ele>110.0</ele><time>2026-04-04T16:53:04.999Z</time></trkpt><trkpt lat="45.180833804421084" lon="8.479839267488545"><ele>110.33333333333333</ele><time>2026-04-04T16:53:05.999Z</time></trkpt><trkpt lat="45.180970341956716" lon="8.47972597785147"><ele>110.66666666666666</ele><time>2026-04-04T16:53:06.999Z</time></trkpt><trkpt lat="45.18109959407035" lon="8.479580583148701"><ele>111.0</ele><time>2026-04-04T16:53:07.999Z</time></trkpt><trkpt lat="45.18122450803789" lon="8.479424987209637"><ele>111.0</ele><time>2026-04-04T16:53:08.999Z</time></trkpt><trkpt lat="45.18135601739766" lon="8.479275111971797"><ele>111.0</ele><time>2026-04-04T16:53:10Z</time></trkpt><trkpt lat="45.181492023294325" lon="8.47913642767922"><ele>111.0</ele><time>2026-04-04T16:53:11Z</time></trkpt><trkpt lat="45.18163145466405" lon="8.479018739077883"><ele>111.75</ele><time>2026-04-04T16:53:12Z</time></trkpt><trkpt lat="45.181776249584566" lon="8.478920103200478"><ele>112.5</ele><time>2026-04-04T16:53:13Z</time></trkpt><trkpt lat="45.181919285357246" lon="8.47884873130327"><ele>113.25</ele><time>2026-04-04T16:53:14Z</time></trkpt><trkpt lat="45.182040364120404" lon="8.478804581680443"><ele>114.0</ele><time>2026-04-04T16:53:15Z</time></trkpt><trkpt lat="45.18211855778186" lon="8.478777198290858"><ele>114.0</ele><time>2026-04-04T16:53:16Z</time></trkpt><trkpt lat="45.18217582197827" lon="8.478739481906134"><ele>114.0</ele><time>2026-04-04T16:53:22Z</time></trkpt><trkpt lat="45.18216213171901" lon="8.47854627008391"><ele>114.0</ele><time>2026-04-04T16:53:24Z</time></trkpt><trkpt lat="45.18213026505555" lon="8.478414982028461"><ele>114.0</ele><time>2026-04-04T16:53:25Z</time></trkpt><trkpt lat="45.18212479103045" lon="8.47824168429104"><ele>114.0</ele><time>2026-04-04T16:53:26Z</time></trkpt><trkpt lat="45.182075151981905" lon="8.47805011080535"><ele>113.33333333333334</ele><time>2026-04-04T16:53:27Z</time></trkpt><trkpt lat="45.182030662998564" lon="8.477819973537532"><ele>112.66666666666667</ele><time>2026-04-04T16:53:28Z</time></trkpt><trkpt lat="45.18198100190262" lon="8.477536546596351"><ele>112.0</ele><time>2026-04-04T16:53:29Z</time></trkpt><trkpt lat="45.18192150392808" lon="8.477213444752572"><ele>112.5</ele><time>2026-04-04T16:53:30Z</time></trkpt><trkpt lat="45.181851868332934" lon="8.476867101407034"><ele>113.0</ele><time>2026-04-04T16:53:31Z</time></trkpt><trkpt lat="45.181786346623035" lon="8.476498115944201"><ele>113.0</ele><time>2026-04-04T16:53:32Z</time></trkpt><trkpt lat="45.18172230735844" lon="8.476107036647388"><ele>113.0</ele><time>2026-04-04T16:53:33Z</time></trkpt><trkpt lat="45.18167334819229" lon="8.475775894526182"><ele>113.0</ele><time>2026-04-04T16:53:34Z</time></trkpt><trkpt lat="45.18165573520736" lon="8.475525310535406"><ele>113.0</ele><time>2026-04-04T16:53:35Z</time></trkpt><trkpt lat="45.18161728475551" lon="8.475320220101743"><ele>113.0</ele><time>2026-04-04T16:53:36Z</time></trkpt><trkpt lat="45.181599009034834" lon="8.475178372337744"><ele>113.0</ele><time>2026-04-04T16:53:37Z</time></trkpt><trkpt lat="45.18157383504966" lon="8.475054351480217"><ele>112.0</ele><time>2026-04-04T16:53:39Z</time></trkpt><trkpt lat="45.18143518410319" lon="8.475030272995923"><ele>111.0</ele><time>2026-04-04T16:53:41Z</time></trkpt><trkpt lat="45.18130534167456" lon="8.475021296787652"><ele>110.0</ele><time>2026-04-04T16:53:42Z</time></trkpt><trkpt lat="45.18118062020677" lon="8.47502536135738"><ele>109.0</ele><time>2026-04-04T16:53:43Z</time></trkpt><trkpt lat="45.18102099536098" lon="8.475027747610893"><ele>109.00000000000001</ele><time>2026-04-04T16:53:44Z</time></trkpt><trkpt lat="45.18089280465508" lon="8.475025878489566"><ele>109.0</ele><time>2026-04-04T16:53:45Z</time></trkpt><trkpt lat="45.18081906400036" lon="8.475024479899169"><ele>109.0</ele><time>2026-04-04T16:53:46Z</time></trkpt><trkpt lat="45.18078861134751" lon="8.474903976577677"><ele>109.0</ele><time>2026-04-04T16:54:49.999Z</time></trkpt><trkpt lat="45.18077067889095" lon="8.474813518413587"><ele>109.00000000000001</ele><time>2026-04-04T16:54:52.999Z</time></trkpt><trkpt lat="45.180698239556804" lon="8.474826939368022"><ele>109.0</ele><time>2026-04-04T16:54:56.999Z</time></trkpt><trkpt lat="45.18062751706895" lon="8.474853459314424"><ele>109.0</ele><time>2026-04-04T16:56:01Z</time></trkpt><trkpt lat="45.180729657763955" lon="8.474825867406468"><ele>109.0</ele><time>2026-04-04T16:56:42Z</time></trkpt><trkpt lat="45.1808219437979" lon="8.474814337492981"><ele>109.0</ele><time>2026-04-04T16:56:50.999Z</time></trkpt><trkpt lat="45.180915160968105" lon="8.474813377365493"><ele>109.0</ele><time>2026-04-04T16:57:01.999Z</time></trkpt><trkpt lat="45.18098937728182" lon="8.474733310563265"><ele>109.0</ele><time>2026-04-04T16:58:26Z</time></trkpt><trkpt lat="45.181056294692624" lon="8.474758232551679"><ele>109.0</ele><time>2026-04-04T16:58:35Z</time></trkpt><trkpt lat="45.18111942040501" lon="8.4747921318119"><ele>109.0</ele><time>2026-04-04T16:58:40Z</time></trkpt><trkpt lat="45.18108411415468" lon="8.474901609260245"><ele>109.0</ele><time>2026-04-04T16:59:37Z</time></trkpt><trkpt lat="45.18105157351038" lon="8.474820607937813"><ele>109.0</ele><time>2026-04-04T16:59:41Z</time></trkpt></trkseg></trk></gpx>